<?xml version="1.0" encoding="UTF-8" standalone="no" ?>
<gpx xmlns="http://www.topografix.com/GPX/1/1" xmlns:xsi="http://www.w3.org/2001/XMLSchema-instance" xsi:schemaLocation="http://www.topografix.com/GPX/1/1 http://www.topografix.com/GPX/1/1/gpx.xsd" version="1.1" creator="VisuGPX - https://www.visugpx.com">
  <metadata>
    <name>Sorques 16/02/19</name>
    <desc><![CDATA[Rando autour de Sorques, avec de nombreux points de vue.]]></desc>
  </metadata>
  <trk>
    <name><![CDATA[Sorques 16/02/19]]></name>
    <trkseg>
      <trkpt lat="48.3441" lon="2.77583">
        <ele>63.599998474121</ele>
        <time>2019-02-16T12:49:37Z</time>
      </trkpt>
      <trkpt lat="48.34409" lon="2.77579">
        <ele>63.400001525879</ele>
        <time>2019-02-16T12:49:42Z</time>
      </trkpt>
      <trkpt lat="48.34409" lon="2.77577">
        <ele>63.400001525879</ele>
        <time>2019-02-16T12:49:47Z</time>
      </trkpt>
      <trkpt lat="48.34409" lon="2.77577">
        <ele>63.400001525879</ele>
        <time>2019-02-16T12:49:52Z</time>
      </trkpt>
      <trkpt lat="48.34409" lon="2.77574">
        <ele>63.599998474121</ele>
        <time>2019-02-16T12:49:57Z</time>
      </trkpt>
      <trkpt lat="48.34408" lon="2.77572">
        <ele>63.400001525879</ele>
        <time>2019-02-16T12:50:02Z</time>
      </trkpt>
      <trkpt lat="48.34409" lon="2.77569">
        <ele>63.400001525879</ele>
        <time>2019-02-16T12:50:07Z</time>
      </trkpt>
      <trkpt lat="48.34411" lon="2.77566">
        <ele>63.599998474121</ele>
        <time>2019-02-16T12:50:12Z</time>
      </trkpt>
      <trkpt lat="48.34413" lon="2.77565">
        <ele>63.799999237061</ele>
        <time>2019-02-16T12:50:17Z</time>
      </trkpt>
      <trkpt lat="48.34415" lon="2.7756">
        <ele>64</ele>
        <time>2019-02-16T12:50:22Z</time>
      </trkpt>
      <trkpt lat="48.34418" lon="2.77556">
        <ele>64</ele>
        <time>2019-02-16T12:50:27Z</time>
      </trkpt>
      <trkpt lat="48.34419" lon="2.77553">
        <ele>64</ele>
        <time>2019-02-16T12:50:32Z</time>
      </trkpt>
      <trkpt lat="48.3442" lon="2.7755">
        <ele>64</ele>
        <time>2019-02-16T12:50:37Z</time>
      </trkpt>
      <trkpt lat="48.34421" lon="2.77549">
        <ele>64</ele>
        <time>2019-02-16T12:50:42Z</time>
      </trkpt>
      <trkpt lat="48.34423" lon="2.77549">
        <ele>64.199996948242</ele>
        <time>2019-02-16T12:50:47Z</time>
      </trkpt>
      <trkpt lat="48.34428" lon="2.77548">
        <ele>64</ele>
        <time>2019-02-16T12:50:52Z</time>
      </trkpt>
      <trkpt lat="48.34431" lon="2.77546">
        <ele>64.199996948242</ele>
        <time>2019-02-16T12:50:57Z</time>
      </trkpt>
      <trkpt lat="48.34431" lon="2.77539">
        <ele>64.400001525879</ele>
        <time>2019-02-16T12:51:02Z</time>
      </trkpt>
      <trkpt lat="48.34428" lon="2.77533">
        <ele>64.199996948242</ele>
        <time>2019-02-16T12:51:07Z</time>
      </trkpt>
      <trkpt lat="48.34428" lon="2.77528">
        <ele>64.199996948242</ele>
        <time>2019-02-16T12:51:12Z</time>
      </trkpt>
      <trkpt lat="48.34427" lon="2.77517">
        <ele>64.400001525879</ele>
        <time>2019-02-16T12:51:17Z</time>
      </trkpt>
      <trkpt lat="48.34424" lon="2.77512">
        <ele>64.199996948242</ele>
        <time>2019-02-16T12:51:22Z</time>
      </trkpt>
      <trkpt lat="48.34419" lon="2.77508">
        <ele>64.199996948242</ele>
        <time>2019-02-16T12:51:27Z</time>
      </trkpt>
      <trkpt lat="48.34418" lon="2.77499">
        <ele>64.199996948242</ele>
        <time>2019-02-16T12:51:32Z</time>
      </trkpt>
      <trkpt lat="48.34419" lon="2.77488">
        <ele>64.199996948242</ele>
        <time>2019-02-16T12:51:37Z</time>
      </trkpt>
      <trkpt lat="48.34418" lon="2.7748">
        <ele>64.199996948242</ele>
        <time>2019-02-16T12:51:42Z</time>
      </trkpt>
      <trkpt lat="48.34417" lon="2.77466">
        <ele>64.199996948242</ele>
        <time>2019-02-16T12:51:47Z</time>
      </trkpt>
      <trkpt lat="48.34415" lon="2.77459">
        <ele>64.400001525879</ele>
        <time>2019-02-16T12:51:52Z</time>
      </trkpt>
      <trkpt lat="48.34414" lon="2.77453">
        <ele>64.599998474121</ele>
        <time>2019-02-16T12:51:57Z</time>
      </trkpt>
      <trkpt lat="48.34413" lon="2.77445">
        <ele>64.599998474121</ele>
        <time>2019-02-16T12:52:02Z</time>
      </trkpt>
      <trkpt lat="48.34409" lon="2.77437">
        <ele>64.800003051758</ele>
        <time>2019-02-16T12:52:07Z</time>
      </trkpt>
      <trkpt lat="48.34407" lon="2.7743">
        <ele>64.800003051758</ele>
        <time>2019-02-16T12:52:12Z</time>
      </trkpt>
      <trkpt lat="48.34405" lon="2.77423">
        <ele>64.800003051758</ele>
        <time>2019-02-16T12:52:17Z</time>
      </trkpt>
      <trkpt lat="48.34403" lon="2.77417">
        <ele>64.800003051758</ele>
        <time>2019-02-16T12:52:22Z</time>
      </trkpt>
      <trkpt lat="48.34401" lon="2.77408">
        <ele>64.800003051758</ele>
        <time>2019-02-16T12:52:27Z</time>
      </trkpt>
      <trkpt lat="48.34398" lon="2.77406">
        <ele>64.800003051758</ele>
        <time>2019-02-16T12:52:32Z</time>
      </trkpt>
      <trkpt lat="48.34394" lon="2.77402">
        <ele>64.800003051758</ele>
        <time>2019-02-16T12:52:37Z</time>
      </trkpt>
      <trkpt lat="48.34391" lon="2.774">
        <ele>65.199996948242</ele>
        <time>2019-02-16T12:52:42Z</time>
      </trkpt>
      <trkpt lat="48.34386" lon="2.77394">
        <ele>65.400001525879</ele>
        <time>2019-02-16T12:52:47Z</time>
      </trkpt>
      <trkpt lat="48.34382" lon="2.77386">
        <ele>65.800003051758</ele>
        <time>2019-02-16T12:52:52Z</time>
      </trkpt>
      <trkpt lat="48.34377" lon="2.77382">
        <ele>66</ele>
        <time>2019-02-16T12:52:57Z</time>
      </trkpt>
      <trkpt lat="48.34373" lon="2.77375">
        <ele>66</ele>
        <time>2019-02-16T12:53:02Z</time>
      </trkpt>
      <trkpt lat="48.34369" lon="2.77369">
        <ele>66.400001525879</ele>
        <time>2019-02-16T12:53:07Z</time>
      </trkpt>
      <trkpt lat="48.34366" lon="2.77367">
        <ele>66.400001525879</ele>
        <time>2019-02-16T12:53:12Z</time>
      </trkpt>
      <trkpt lat="48.34363" lon="2.77361">
        <ele>66.599998474121</ele>
        <time>2019-02-16T12:53:17Z</time>
      </trkpt>
      <trkpt lat="48.3436" lon="2.77358">
        <ele>66.800003051758</ele>
        <time>2019-02-16T12:53:22Z</time>
      </trkpt>
      <trkpt lat="48.34357" lon="2.77355">
        <ele>67.199996948242</ele>
        <time>2019-02-16T12:53:27Z</time>
      </trkpt>
      <trkpt lat="48.34356" lon="2.7735">
        <ele>67.400001525879</ele>
        <time>2019-02-16T12:53:32Z</time>
      </trkpt>
      <trkpt lat="48.34356" lon="2.77348">
        <ele>67.400001525879</ele>
        <time>2019-02-16T12:53:37Z</time>
      </trkpt>
      <trkpt lat="48.34357" lon="2.77347">
        <ele>67.800003051758</ele>
        <time>2019-02-16T12:53:42Z</time>
      </trkpt>
      <trkpt lat="48.34358" lon="2.77346">
        <ele>67.800003051758</ele>
        <time>2019-02-16T12:53:47Z</time>
      </trkpt>
      <trkpt lat="48.34357" lon="2.77343">
        <ele>67.800003051758</ele>
        <time>2019-02-16T12:53:52Z</time>
      </trkpt>
      <trkpt lat="48.34356" lon="2.77342">
        <ele>67.800003051758</ele>
        <time>2019-02-16T12:53:57Z</time>
      </trkpt>
      <trkpt lat="48.34356" lon="2.7734">
        <ele>67.800003051758</ele>
        <time>2019-02-16T12:54:02Z</time>
      </trkpt>
      <trkpt lat="48.34356" lon="2.77339">
        <ele>67.800003051758</ele>
        <time>2019-02-16T12:54:07Z</time>
      </trkpt>
      <trkpt lat="48.34355" lon="2.77335">
        <ele>67.599998474121</ele>
        <time>2019-02-16T12:54:12Z</time>
      </trkpt>
      <trkpt lat="48.3435" lon="2.77329">
        <ele>67.599998474121</ele>
        <time>2019-02-16T12:54:17Z</time>
      </trkpt>
      <trkpt lat="48.34347" lon="2.77324">
        <ele>67.800003051758</ele>
        <time>2019-02-16T12:54:22Z</time>
      </trkpt>
      <trkpt lat="48.34347" lon="2.77321">
        <ele>67.800003051758</ele>
        <time>2019-02-16T12:54:27Z</time>
      </trkpt>
      <trkpt lat="48.34349" lon="2.77319">
        <ele>68.199996948242</ele>
        <time>2019-02-16T12:54:32Z</time>
      </trkpt>
      <trkpt lat="48.34351" lon="2.77316">
        <ele>68.400001525879</ele>
        <time>2019-02-16T12:54:37Z</time>
      </trkpt>
      <trkpt lat="48.34352" lon="2.77317">
        <ele>68.400001525879</ele>
        <time>2019-02-16T12:54:42Z</time>
      </trkpt>
      <trkpt lat="48.34352" lon="2.7731">
        <ele>68.599998474121</ele>
        <time>2019-02-16T12:54:47Z</time>
      </trkpt>
      <trkpt lat="48.34352" lon="2.77308">
        <ele>68.800003051758</ele>
        <time>2019-02-16T12:54:52Z</time>
      </trkpt>
      <trkpt lat="48.34355" lon="2.77306">
        <ele>69</ele>
        <time>2019-02-16T12:54:57Z</time>
      </trkpt>
      <trkpt lat="48.34356" lon="2.77304">
        <ele>69.199996948242</ele>
        <time>2019-02-16T12:55:02Z</time>
      </trkpt>
      <trkpt lat="48.34362" lon="2.77303">
        <ele>69.400001525879</ele>
        <time>2019-02-16T12:55:07Z</time>
      </trkpt>
      <trkpt lat="48.34369" lon="2.773">
        <ele>69.599998474121</ele>
        <time>2019-02-16T12:55:12Z</time>
      </trkpt>
      <trkpt lat="48.34375" lon="2.77295">
        <ele>70</ele>
        <time>2019-02-16T12:55:17Z</time>
      </trkpt>
      <trkpt lat="48.34379" lon="2.77292">
        <ele>70.199996948242</ele>
        <time>2019-02-16T12:55:22Z</time>
      </trkpt>
      <trkpt lat="48.34383" lon="2.77288">
        <ele>70.199996948242</ele>
        <time>2019-02-16T12:55:27Z</time>
      </trkpt>
      <trkpt lat="48.34388" lon="2.77281">
        <ele>70.599998474121</ele>
        <time>2019-02-16T12:55:32Z</time>
      </trkpt>
      <trkpt lat="48.34391" lon="2.77275">
        <ele>70.800003051758</ele>
        <time>2019-02-16T12:55:37Z</time>
      </trkpt>
      <trkpt lat="48.34395" lon="2.77271">
        <ele>71</ele>
        <time>2019-02-16T12:55:42Z</time>
      </trkpt>
      <trkpt lat="48.344" lon="2.77267">
        <ele>71.199996948242</ele>
        <time>2019-02-16T12:55:47Z</time>
      </trkpt>
      <trkpt lat="48.34405" lon="2.77263">
        <ele>71.400001525879</ele>
        <time>2019-02-16T12:55:52Z</time>
      </trkpt>
      <trkpt lat="48.34409" lon="2.77259">
        <ele>71.599998474121</ele>
        <time>2019-02-16T12:55:57Z</time>
      </trkpt>
      <trkpt lat="48.34413" lon="2.77253">
        <ele>72.199996948242</ele>
        <time>2019-02-16T12:56:02Z</time>
      </trkpt>
      <trkpt lat="48.34418" lon="2.77248">
        <ele>72.800003051758</ele>
        <time>2019-02-16T12:56:07Z</time>
      </trkpt>
      <trkpt lat="48.34422" lon="2.77244">
        <ele>72.800003051758</ele>
        <time>2019-02-16T12:56:12Z</time>
      </trkpt>
      <trkpt lat="48.34426" lon="2.77238">
        <ele>73</ele>
        <time>2019-02-16T12:56:17Z</time>
      </trkpt>
      <trkpt lat="48.34429" lon="2.77234">
        <ele>73.400001525879</ele>
        <time>2019-02-16T12:56:22Z</time>
      </trkpt>
      <trkpt lat="48.34436" lon="2.77229">
        <ele>73.800003051758</ele>
        <time>2019-02-16T12:56:27Z</time>
      </trkpt>
      <trkpt lat="48.3444" lon="2.77227">
        <ele>74</ele>
        <time>2019-02-16T12:56:32Z</time>
      </trkpt>
      <trkpt lat="48.34444" lon="2.77223">
        <ele>74.199996948242</ele>
        <time>2019-02-16T12:56:37Z</time>
      </trkpt>
      <trkpt lat="48.34449" lon="2.7722">
        <ele>74.199996948242</ele>
        <time>2019-02-16T12:56:42Z</time>
      </trkpt>
      <trkpt lat="48.34452" lon="2.77216">
        <ele>74.599998474121</ele>
        <time>2019-02-16T12:56:47Z</time>
      </trkpt>
      <trkpt lat="48.34457" lon="2.77209">
        <ele>75</ele>
        <time>2019-02-16T12:56:52Z</time>
      </trkpt>
      <trkpt lat="48.34461" lon="2.77204">
        <ele>75.199996948242</ele>
        <time>2019-02-16T12:56:57Z</time>
      </trkpt>
      <trkpt lat="48.34464" lon="2.77201">
        <ele>75.199996948242</ele>
        <time>2019-02-16T12:57:02Z</time>
      </trkpt>
      <trkpt lat="48.34467" lon="2.77197">
        <ele>75.800003051758</ele>
        <time>2019-02-16T12:57:07Z</time>
      </trkpt>
      <trkpt lat="48.3447" lon="2.77193">
        <ele>76</ele>
        <time>2019-02-16T12:57:12Z</time>
      </trkpt>
      <trkpt lat="48.34474" lon="2.77192">
        <ele>76.400001525879</ele>
        <time>2019-02-16T12:57:17Z</time>
      </trkpt>
      <trkpt lat="48.3448" lon="2.77188">
        <ele>76.599998474121</ele>
        <time>2019-02-16T12:57:22Z</time>
      </trkpt>
      <trkpt lat="48.34484" lon="2.77181">
        <ele>76.800003051758</ele>
        <time>2019-02-16T12:57:27Z</time>
      </trkpt>
      <trkpt lat="48.34487" lon="2.77176">
        <ele>77.199996948242</ele>
        <time>2019-02-16T12:57:32Z</time>
      </trkpt>
      <trkpt lat="48.34489" lon="2.77172">
        <ele>77.599998474121</ele>
        <time>2019-02-16T12:57:37Z</time>
      </trkpt>
      <trkpt lat="48.34493" lon="2.7717">
        <ele>78</ele>
        <time>2019-02-16T12:57:42Z</time>
      </trkpt>
      <trkpt lat="48.34497" lon="2.77165">
        <ele>78.400001525879</ele>
        <time>2019-02-16T12:57:47Z</time>
      </trkpt>
      <trkpt lat="48.34502" lon="2.77161">
        <ele>78.599998474121</ele>
        <time>2019-02-16T12:57:52Z</time>
      </trkpt>
      <trkpt lat="48.34508" lon="2.77155">
        <ele>79</ele>
        <time>2019-02-16T12:57:57Z</time>
      </trkpt>
      <trkpt lat="48.34513" lon="2.77152">
        <ele>79.400001525879</ele>
        <time>2019-02-16T12:58:02Z</time>
      </trkpt>
      <trkpt lat="48.34517" lon="2.77152">
        <ele>79.800003051758</ele>
        <time>2019-02-16T12:58:07Z</time>
      </trkpt>
      <trkpt lat="48.3452" lon="2.77149">
        <ele>80.199996948242</ele>
        <time>2019-02-16T12:58:12Z</time>
      </trkpt>
      <trkpt lat="48.34525" lon="2.77142">
        <ele>80.800003051758</ele>
        <time>2019-02-16T12:58:17Z</time>
      </trkpt>
      <trkpt lat="48.34529" lon="2.77134">
        <ele>81.199996948242</ele>
        <time>2019-02-16T12:58:22Z</time>
      </trkpt>
      <trkpt lat="48.34532" lon="2.77131">
        <ele>81.599998474121</ele>
        <time>2019-02-16T12:58:27Z</time>
      </trkpt>
      <trkpt lat="48.34539" lon="2.7713">
        <ele>81.800003051758</ele>
        <time>2019-02-16T12:58:32Z</time>
      </trkpt>
      <trkpt lat="48.34544" lon="2.77121">
        <ele>82.199996948242</ele>
        <time>2019-02-16T12:58:37Z</time>
      </trkpt>
      <trkpt lat="48.34547" lon="2.77113">
        <ele>82.599998474121</ele>
        <time>2019-02-16T12:58:42Z</time>
      </trkpt>
      <trkpt lat="48.34547" lon="2.77106">
        <ele>83</ele>
        <time>2019-02-16T12:58:47Z</time>
      </trkpt>
      <trkpt lat="48.34546" lon="2.77093">
        <ele>83</ele>
        <time>2019-02-16T12:58:52Z</time>
      </trkpt>
      <trkpt lat="48.34546" lon="2.77086">
        <ele>83.199996948242</ele>
        <time>2019-02-16T12:58:57Z</time>
      </trkpt>
      <trkpt lat="48.34547" lon="2.77083">
        <ele>83</ele>
        <time>2019-02-16T12:59:02Z</time>
      </trkpt>
      <trkpt lat="48.34549" lon="2.77084">
        <ele>83</ele>
        <time>2019-02-16T12:59:07Z</time>
      </trkpt>
      <trkpt lat="48.34549" lon="2.77083">
        <ele>83</ele>
        <time>2019-02-16T12:59:12Z</time>
      </trkpt>
      <trkpt lat="48.34547" lon="2.77078">
        <ele>83.199996948242</ele>
        <time>2019-02-16T12:59:17Z</time>
      </trkpt>
      <trkpt lat="48.34544" lon="2.77073">
        <ele>83.199996948242</ele>
        <time>2019-02-16T12:59:22Z</time>
      </trkpt>
      <trkpt lat="48.34541" lon="2.77065">
        <ele>83.199996948242</ele>
        <time>2019-02-16T12:59:27Z</time>
      </trkpt>
      <trkpt lat="48.34538" lon="2.7706">
        <ele>83.199996948242</ele>
        <time>2019-02-16T12:59:32Z</time>
      </trkpt>
      <trkpt lat="48.34534" lon="2.77053">
        <ele>83.199996948242</ele>
        <time>2019-02-16T12:59:37Z</time>
      </trkpt>
      <trkpt lat="48.3453" lon="2.77045">
        <ele>83.400001525879</ele>
        <time>2019-02-16T12:59:42Z</time>
      </trkpt>
      <trkpt lat="48.34527" lon="2.77039">
        <ele>83.400001525879</ele>
        <time>2019-02-16T12:59:47Z</time>
      </trkpt>
      <trkpt lat="48.34524" lon="2.77035">
        <ele>83.400001525879</ele>
        <time>2019-02-16T12:59:52Z</time>
      </trkpt>
      <trkpt lat="48.34521" lon="2.77032">
        <ele>83.400001525879</ele>
        <time>2019-02-16T12:59:57Z</time>
      </trkpt>
      <trkpt lat="48.34517" lon="2.77026">
        <ele>83.400001525879</ele>
        <time>2019-02-16T13:00:02Z</time>
      </trkpt>
      <trkpt lat="48.34513" lon="2.7702">
        <ele>83.400001525879</ele>
        <time>2019-02-16T13:00:07Z</time>
      </trkpt>
      <trkpt lat="48.34509" lon="2.77013">
        <ele>83.400001525879</ele>
        <time>2019-02-16T13:00:12Z</time>
      </trkpt>
      <trkpt lat="48.34506" lon="2.77007">
        <ele>83.400001525879</ele>
        <time>2019-02-16T13:00:17Z</time>
      </trkpt>
      <trkpt lat="48.34502" lon="2.77004">
        <ele>83.400001525879</ele>
        <time>2019-02-16T13:00:22Z</time>
      </trkpt>
      <trkpt lat="48.345" lon="2.76996">
        <ele>83.400001525879</ele>
        <time>2019-02-16T13:00:27Z</time>
      </trkpt>
      <trkpt lat="48.34496" lon="2.76988">
        <ele>83.599998474121</ele>
        <time>2019-02-16T13:00:32Z</time>
      </trkpt>
      <trkpt lat="48.34494" lon="2.7698">
        <ele>83.599998474121</ele>
        <time>2019-02-16T13:00:37Z</time>
      </trkpt>
      <trkpt lat="48.34489" lon="2.76975">
        <ele>83.599998474121</ele>
        <time>2019-02-16T13:00:42Z</time>
      </trkpt>
      <trkpt lat="48.34485" lon="2.76968">
        <ele>83.800003051758</ele>
        <time>2019-02-16T13:00:47Z</time>
      </trkpt>
      <trkpt lat="48.3448" lon="2.76964">
        <ele>83.800003051758</ele>
        <time>2019-02-16T13:00:52Z</time>
      </trkpt>
      <trkpt lat="48.34474" lon="2.7696">
        <ele>83.800003051758</ele>
        <time>2019-02-16T13:00:57Z</time>
      </trkpt>
      <trkpt lat="48.34472" lon="2.76953">
        <ele>83.800003051758</ele>
        <time>2019-02-16T13:01:02Z</time>
      </trkpt>
      <trkpt lat="48.34469" lon="2.76948">
        <ele>84</ele>
        <time>2019-02-16T13:01:07Z</time>
      </trkpt>
      <trkpt lat="48.34465" lon="2.76942">
        <ele>84</ele>
        <time>2019-02-16T13:01:12Z</time>
      </trkpt>
      <trkpt lat="48.34462" lon="2.76933">
        <ele>84</ele>
        <time>2019-02-16T13:01:17Z</time>
      </trkpt>
      <trkpt lat="48.34459" lon="2.76926">
        <ele>84.199996948242</ele>
        <time>2019-02-16T13:01:22Z</time>
      </trkpt>
      <trkpt lat="48.34454" lon="2.7692">
        <ele>84.199996948242</ele>
        <time>2019-02-16T13:01:27Z</time>
      </trkpt>
      <trkpt lat="48.34449" lon="2.76913">
        <ele>84.199996948242</ele>
        <time>2019-02-16T13:01:32Z</time>
      </trkpt>
      <trkpt lat="48.34445" lon="2.76907">
        <ele>84</ele>
        <time>2019-02-16T13:01:37Z</time>
      </trkpt>
      <trkpt lat="48.34442" lon="2.769">
        <ele>84.199996948242</ele>
        <time>2019-02-16T13:01:42Z</time>
      </trkpt>
      <trkpt lat="48.34437" lon="2.76893">
        <ele>84</ele>
        <time>2019-02-16T13:01:47Z</time>
      </trkpt>
      <trkpt lat="48.34433" lon="2.76885">
        <ele>84</ele>
        <time>2019-02-16T13:01:52Z</time>
      </trkpt>
      <trkpt lat="48.3443" lon="2.76881">
        <ele>84</ele>
        <time>2019-02-16T13:01:57Z</time>
      </trkpt>
      <trkpt lat="48.34425" lon="2.76873">
        <ele>84.199996948242</ele>
        <time>2019-02-16T13:02:02Z</time>
      </trkpt>
      <trkpt lat="48.34421" lon="2.76865">
        <ele>84.199996948242</ele>
        <time>2019-02-16T13:02:07Z</time>
      </trkpt>
      <trkpt lat="48.34416" lon="2.76859">
        <ele>84</ele>
        <time>2019-02-16T13:02:12Z</time>
      </trkpt>
      <trkpt lat="48.34412" lon="2.76852">
        <ele>84</ele>
        <time>2019-02-16T13:02:17Z</time>
      </trkpt>
      <trkpt lat="48.34409" lon="2.76846">
        <ele>84.199996948242</ele>
        <time>2019-02-16T13:02:22Z</time>
      </trkpt>
      <trkpt lat="48.34403" lon="2.76839">
        <ele>84.199996948242</ele>
        <time>2019-02-16T13:02:27Z</time>
      </trkpt>
      <trkpt lat="48.34397" lon="2.76829">
        <ele>84.199996948242</ele>
        <time>2019-02-16T13:02:32Z</time>
      </trkpt>
      <trkpt lat="48.3439" lon="2.76821">
        <ele>84.199996948242</ele>
        <time>2019-02-16T13:02:37Z</time>
      </trkpt>
      <trkpt lat="48.34383" lon="2.76816">
        <ele>84</ele>
        <time>2019-02-16T13:02:42Z</time>
      </trkpt>
      <trkpt lat="48.34378" lon="2.76809">
        <ele>84</ele>
        <time>2019-02-16T13:02:47Z</time>
      </trkpt>
      <trkpt lat="48.34371" lon="2.76804">
        <ele>84.199996948242</ele>
        <time>2019-02-16T13:02:52Z</time>
      </trkpt>
      <trkpt lat="48.34367" lon="2.76796">
        <ele>84</ele>
        <time>2019-02-16T13:02:57Z</time>
      </trkpt>
      <trkpt lat="48.34361" lon="2.76788">
        <ele>84</ele>
        <time>2019-02-16T13:03:02Z</time>
      </trkpt>
      <trkpt lat="48.34355" lon="2.76779">
        <ele>84</ele>
        <time>2019-02-16T13:03:07Z</time>
      </trkpt>
      <trkpt lat="48.34348" lon="2.7677">
        <ele>84</ele>
        <time>2019-02-16T13:03:12Z</time>
      </trkpt>
      <trkpt lat="48.34342" lon="2.76763">
        <ele>84</ele>
        <time>2019-02-16T13:03:17Z</time>
      </trkpt>
      <trkpt lat="48.34337" lon="2.76757">
        <ele>84</ele>
        <time>2019-02-16T13:03:22Z</time>
      </trkpt>
      <trkpt lat="48.34332" lon="2.76753">
        <ele>84</ele>
        <time>2019-02-16T13:03:27Z</time>
      </trkpt>
      <trkpt lat="48.34326" lon="2.76744">
        <ele>85</ele>
        <time>2019-02-16T13:03:32Z</time>
      </trkpt>
      <trkpt lat="48.34321" lon="2.76739">
        <ele>85</ele>
        <time>2019-02-16T13:03:37Z</time>
      </trkpt>
      <trkpt lat="48.34314" lon="2.76734">
        <ele>85.199996948242</ele>
        <time>2019-02-16T13:03:42Z</time>
      </trkpt>
      <trkpt lat="48.34308" lon="2.76725">
        <ele>85.400001525879</ele>
        <time>2019-02-16T13:03:47Z</time>
      </trkpt>
      <trkpt lat="48.34304" lon="2.7672">
        <ele>85.599998474121</ele>
        <time>2019-02-16T13:03:52Z</time>
      </trkpt>
      <trkpt lat="48.34295" lon="2.76718">
        <ele>85.800003051758</ele>
        <time>2019-02-16T13:03:57Z</time>
      </trkpt>
      <trkpt lat="48.3429" lon="2.76716">
        <ele>85.800003051758</ele>
        <time>2019-02-16T13:04:02Z</time>
      </trkpt>
      <trkpt lat="48.34287" lon="2.76711">
        <ele>85.800003051758</ele>
        <time>2019-02-16T13:04:07Z</time>
      </trkpt>
      <trkpt lat="48.34287" lon="2.76702">
        <ele>85.800003051758</ele>
        <time>2019-02-16T13:04:12Z</time>
      </trkpt>
      <trkpt lat="48.34285" lon="2.76691">
        <ele>86</ele>
        <time>2019-02-16T13:04:17Z</time>
      </trkpt>
      <trkpt lat="48.34279" lon="2.76684">
        <ele>86</ele>
        <time>2019-02-16T13:04:22Z</time>
      </trkpt>
      <trkpt lat="48.34276" lon="2.76677">
        <ele>86.199996948242</ele>
        <time>2019-02-16T13:04:27Z</time>
      </trkpt>
      <trkpt lat="48.34272" lon="2.76669">
        <ele>86.199996948242</ele>
        <time>2019-02-16T13:04:32Z</time>
      </trkpt>
      <trkpt lat="48.34267" lon="2.76662">
        <ele>86.400001525879</ele>
        <time>2019-02-16T13:04:37Z</time>
      </trkpt>
      <trkpt lat="48.34264" lon="2.76655">
        <ele>86.599998474121</ele>
        <time>2019-02-16T13:04:42Z</time>
      </trkpt>
      <trkpt lat="48.34261" lon="2.76647">
        <ele>86.599998474121</ele>
        <time>2019-02-16T13:04:47Z</time>
      </trkpt>
      <trkpt lat="48.34257" lon="2.76639">
        <ele>86.599998474121</ele>
        <time>2019-02-16T13:04:52Z</time>
      </trkpt>
      <trkpt lat="48.34253" lon="2.76635">
        <ele>86.199996948242</ele>
        <time>2019-02-16T13:04:57Z</time>
      </trkpt>
      <trkpt lat="48.34248" lon="2.76627">
        <ele>86.199996948242</ele>
        <time>2019-02-16T13:05:02Z</time>
      </trkpt>
      <trkpt lat="48.34245" lon="2.7662">
        <ele>86.400001525879</ele>
        <time>2019-02-16T13:05:07Z</time>
      </trkpt>
      <trkpt lat="48.34241" lon="2.76614">
        <ele>86.400001525879</ele>
        <time>2019-02-16T13:05:12Z</time>
      </trkpt>
      <trkpt lat="48.34235" lon="2.76606">
        <ele>86.400001525879</ele>
        <time>2019-02-16T13:05:17Z</time>
      </trkpt>
      <trkpt lat="48.34232" lon="2.76601">
        <ele>86.400001525879</ele>
        <time>2019-02-16T13:05:22Z</time>
      </trkpt>
      <trkpt lat="48.34227" lon="2.76597">
        <ele>86.400001525879</ele>
        <time>2019-02-16T13:05:27Z</time>
      </trkpt>
      <trkpt lat="48.34223" lon="2.76591">
        <ele>86.400001525879</ele>
        <time>2019-02-16T13:05:32Z</time>
      </trkpt>
      <trkpt lat="48.34219" lon="2.76588">
        <ele>86.599998474121</ele>
        <time>2019-02-16T13:05:37Z</time>
      </trkpt>
      <trkpt lat="48.34211" lon="2.76585">
        <ele>86.400001525879</ele>
        <time>2019-02-16T13:05:42Z</time>
      </trkpt>
      <trkpt lat="48.34204" lon="2.76581">
        <ele>86.400001525879</ele>
        <time>2019-02-16T13:05:47Z</time>
      </trkpt>
      <trkpt lat="48.34198" lon="2.76574">
        <ele>86.400001525879</ele>
        <time>2019-02-16T13:05:52Z</time>
      </trkpt>
      <trkpt lat="48.34192" lon="2.76568">
        <ele>86.400001525879</ele>
        <time>2019-02-16T13:05:57Z</time>
      </trkpt>
      <trkpt lat="48.34187" lon="2.76564">
        <ele>86.400001525879</ele>
        <time>2019-02-16T13:06:02Z</time>
      </trkpt>
      <trkpt lat="48.34181" lon="2.76561">
        <ele>86.400001525879</ele>
        <time>2019-02-16T13:06:07Z</time>
      </trkpt>
      <trkpt lat="48.34175" lon="2.76556">
        <ele>86.400001525879</ele>
        <time>2019-02-16T13:06:12Z</time>
      </trkpt>
      <trkpt lat="48.34172" lon="2.76548">
        <ele>86.400001525879</ele>
        <time>2019-02-16T13:06:17Z</time>
      </trkpt>
      <trkpt lat="48.34166" lon="2.76544">
        <ele>86</ele>
        <time>2019-02-16T13:06:22Z</time>
      </trkpt>
      <trkpt lat="48.34163" lon="2.7654">
        <ele>86</ele>
        <time>2019-02-16T13:06:27Z</time>
      </trkpt>
      <trkpt lat="48.34161" lon="2.76533">
        <ele>86</ele>
        <time>2019-02-16T13:06:32Z</time>
      </trkpt>
      <trkpt lat="48.34158" lon="2.76528">
        <ele>85.800003051758</ele>
        <time>2019-02-16T13:06:37Z</time>
      </trkpt>
      <trkpt lat="48.34154" lon="2.76521">
        <ele>85.800003051758</ele>
        <time>2019-02-16T13:06:42Z</time>
      </trkpt>
      <trkpt lat="48.34149" lon="2.76514">
        <ele>85.599998474121</ele>
        <time>2019-02-16T13:06:47Z</time>
      </trkpt>
      <trkpt lat="48.34144" lon="2.76506">
        <ele>85.400001525879</ele>
        <time>2019-02-16T13:06:52Z</time>
      </trkpt>
      <trkpt lat="48.3414" lon="2.76499">
        <ele>85.199996948242</ele>
        <time>2019-02-16T13:06:57Z</time>
      </trkpt>
      <trkpt lat="48.34135" lon="2.76493">
        <ele>85.199996948242</ele>
        <time>2019-02-16T13:07:02Z</time>
      </trkpt>
      <trkpt lat="48.34131" lon="2.76489">
        <ele>85</ele>
        <time>2019-02-16T13:07:07Z</time>
      </trkpt>
      <trkpt lat="48.34128" lon="2.76483">
        <ele>84.800003051758</ele>
        <time>2019-02-16T13:07:12Z</time>
      </trkpt>
      <trkpt lat="48.34124" lon="2.76479">
        <ele>84.599998474121</ele>
        <time>2019-02-16T13:07:17Z</time>
      </trkpt>
      <trkpt lat="48.34118" lon="2.76475">
        <ele>84.599998474121</ele>
        <time>2019-02-16T13:07:22Z</time>
      </trkpt>
      <trkpt lat="48.34113" lon="2.7647">
        <ele>84.599998474121</ele>
        <time>2019-02-16T13:07:27Z</time>
      </trkpt>
      <trkpt lat="48.3411" lon="2.76463">
        <ele>84.199996948242</ele>
        <time>2019-02-16T13:07:32Z</time>
      </trkpt>
      <trkpt lat="48.34106" lon="2.76458">
        <ele>83.800003051758</ele>
        <time>2019-02-16T13:07:37Z</time>
      </trkpt>
      <trkpt lat="48.34102" lon="2.76451">
        <ele>83</ele>
        <time>2019-02-16T13:07:42Z</time>
      </trkpt>
      <trkpt lat="48.34098" lon="2.76442">
        <ele>82.400001525879</ele>
        <time>2019-02-16T13:07:47Z</time>
      </trkpt>
      <trkpt lat="48.34092" lon="2.76437">
        <ele>82</ele>
        <time>2019-02-16T13:07:52Z</time>
      </trkpt>
      <trkpt lat="48.3409" lon="2.76431">
        <ele>81.400001525879</ele>
        <time>2019-02-16T13:07:57Z</time>
      </trkpt>
      <trkpt lat="48.3409" lon="2.76425">
        <ele>81.199996948242</ele>
        <time>2019-02-16T13:08:02Z</time>
      </trkpt>
      <trkpt lat="48.34091" lon="2.76419">
        <ele>81.800003051758</ele>
        <time>2019-02-16T13:08:07Z</time>
      </trkpt>
      <trkpt lat="48.34091" lon="2.76416">
        <ele>82.599998474121</ele>
        <time>2019-02-16T13:08:12Z</time>
      </trkpt>
      <trkpt lat="48.34091" lon="2.76413">
        <ele>83</ele>
        <time>2019-02-16T13:08:17Z</time>
      </trkpt>
      <trkpt lat="48.34093" lon="2.7641">
        <ele>83.400001525879</ele>
        <time>2019-02-16T13:08:22Z</time>
      </trkpt>
      <trkpt lat="48.34097" lon="2.76403">
        <ele>83.800003051758</ele>
        <time>2019-02-16T13:08:27Z</time>
      </trkpt>
      <trkpt lat="48.34099" lon="2.76397">
        <ele>84.599998474121</ele>
        <time>2019-02-16T13:08:32Z</time>
      </trkpt>
      <trkpt lat="48.34099" lon="2.76392">
        <ele>85.199996948242</ele>
        <time>2019-02-16T13:08:37Z</time>
      </trkpt>
      <trkpt lat="48.34102" lon="2.76388">
        <ele>85.599998474121</ele>
        <time>2019-02-16T13:08:42Z</time>
      </trkpt>
      <trkpt lat="48.34102" lon="2.76383">
        <ele>86</ele>
        <time>2019-02-16T13:08:47Z</time>
      </trkpt>
      <trkpt lat="48.34104" lon="2.7638">
        <ele>86.800003051758</ele>
        <time>2019-02-16T13:08:52Z</time>
      </trkpt>
      <trkpt lat="48.34109" lon="2.76377">
        <ele>87.400001525879</ele>
        <time>2019-02-16T13:08:57Z</time>
      </trkpt>
      <trkpt lat="48.3411" lon="2.76374">
        <ele>88</ele>
        <time>2019-02-16T13:09:02Z</time>
      </trkpt>
      <trkpt lat="48.34115" lon="2.7637">
        <ele>88.599998474121</ele>
        <time>2019-02-16T13:09:07Z</time>
      </trkpt>
      <trkpt lat="48.34123" lon="2.76363">
        <ele>89.199996948242</ele>
        <time>2019-02-16T13:09:12Z</time>
      </trkpt>
      <trkpt lat="48.34128" lon="2.76357">
        <ele>89.599998474121</ele>
        <time>2019-02-16T13:09:17Z</time>
      </trkpt>
      <trkpt lat="48.34134" lon="2.76353">
        <ele>90.199996948242</ele>
        <time>2019-02-16T13:09:22Z</time>
      </trkpt>
      <trkpt lat="48.34139" lon="2.76349">
        <ele>90.599998474121</ele>
        <time>2019-02-16T13:09:27Z</time>
      </trkpt>
      <trkpt lat="48.34145" lon="2.76345">
        <ele>91.199996948242</ele>
        <time>2019-02-16T13:09:32Z</time>
      </trkpt>
      <trkpt lat="48.34148" lon="2.7634">
        <ele>91.599998474121</ele>
        <time>2019-02-16T13:09:37Z</time>
      </trkpt>
      <trkpt lat="48.34152" lon="2.76334">
        <ele>92.199996948242</ele>
        <time>2019-02-16T13:09:42Z</time>
      </trkpt>
      <trkpt lat="48.34155" lon="2.76327">
        <ele>92.599998474121</ele>
        <time>2019-02-16T13:09:47Z</time>
      </trkpt>
      <trkpt lat="48.34158" lon="2.76323">
        <ele>93</ele>
        <time>2019-02-16T13:09:52Z</time>
      </trkpt>
      <trkpt lat="48.34161" lon="2.76317">
        <ele>93.599998474121</ele>
        <time>2019-02-16T13:09:57Z</time>
      </trkpt>
      <trkpt lat="48.34165" lon="2.7631">
        <ele>93.800003051758</ele>
        <time>2019-02-16T13:10:02Z</time>
      </trkpt>
      <trkpt lat="48.3417" lon="2.76301">
        <ele>94.199996948242</ele>
        <time>2019-02-16T13:10:07Z</time>
      </trkpt>
      <trkpt lat="48.34174" lon="2.76293">
        <ele>94.800003051758</ele>
        <time>2019-02-16T13:10:12Z</time>
      </trkpt>
      <trkpt lat="48.34178" lon="2.76286">
        <ele>95</ele>
        <time>2019-02-16T13:10:17Z</time>
      </trkpt>
      <trkpt lat="48.34184" lon="2.7628">
        <ele>95.599998474121</ele>
        <time>2019-02-16T13:10:22Z</time>
      </trkpt>
      <trkpt lat="48.34189" lon="2.76278">
        <ele>96</ele>
        <time>2019-02-16T13:10:27Z</time>
      </trkpt>
      <trkpt lat="48.34194" lon="2.76273">
        <ele>96.400001525879</ele>
        <time>2019-02-16T13:10:32Z</time>
      </trkpt>
      <trkpt lat="48.34199" lon="2.7627">
        <ele>97</ele>
        <time>2019-02-16T13:10:37Z</time>
      </trkpt>
      <trkpt lat="48.34206" lon="2.76264">
        <ele>97.400001525879</ele>
        <time>2019-02-16T13:10:42Z</time>
      </trkpt>
      <trkpt lat="48.34211" lon="2.76265">
        <ele>97.800003051758</ele>
        <time>2019-02-16T13:10:47Z</time>
      </trkpt>
      <trkpt lat="48.34211" lon="2.76263">
        <ele>97.800003051758</ele>
        <time>2019-02-16T13:10:52Z</time>
      </trkpt>
      <trkpt lat="48.34211" lon="2.76261">
        <ele>98.199996948242</ele>
        <time>2019-02-16T13:10:57Z</time>
      </trkpt>
      <trkpt lat="48.34212" lon="2.7626">
        <ele>98.599998474121</ele>
        <time>2019-02-16T13:11:02Z</time>
      </trkpt>
      <trkpt lat="48.34216" lon="2.76258">
        <ele>99.199996948242</ele>
        <time>2019-02-16T13:11:07Z</time>
      </trkpt>
      <trkpt lat="48.34219" lon="2.76258">
        <ele>99.400001525879</ele>
        <time>2019-02-16T13:11:12Z</time>
      </trkpt>
      <trkpt lat="48.3422" lon="2.76254">
        <ele>99.599998474121</ele>
        <time>2019-02-16T13:11:17Z</time>
      </trkpt>
      <trkpt lat="48.34223" lon="2.76251">
        <ele>100.19999694824</ele>
        <time>2019-02-16T13:11:22Z</time>
      </trkpt>
      <trkpt lat="48.34225" lon="2.76246">
        <ele>100.59999847412</ele>
        <time>2019-02-16T13:11:27Z</time>
      </trkpt>
      <trkpt lat="48.34228" lon="2.76237">
        <ele>100.80000305176</ele>
        <time>2019-02-16T13:11:32Z</time>
      </trkpt>
      <trkpt lat="48.34232" lon="2.7623">
        <ele>101.40000152588</ele>
        <time>2019-02-16T13:11:37Z</time>
      </trkpt>
      <trkpt lat="48.34239" lon="2.7622">
        <ele>101.59999847412</ele>
        <time>2019-02-16T13:11:42Z</time>
      </trkpt>
      <trkpt lat="48.34242" lon="2.76215">
        <ele>102</ele>
        <time>2019-02-16T13:11:47Z</time>
      </trkpt>
      <trkpt lat="48.34246" lon="2.7621">
        <ele>102.19999694824</ele>
        <time>2019-02-16T13:11:52Z</time>
      </trkpt>
      <trkpt lat="48.34251" lon="2.76204">
        <ele>102.40000152588</ele>
        <time>2019-02-16T13:11:57Z</time>
      </trkpt>
      <trkpt lat="48.34255" lon="2.76198">
        <ele>102.59999847412</ele>
        <time>2019-02-16T13:12:02Z</time>
      </trkpt>
      <trkpt lat="48.34259" lon="2.76197">
        <ele>103</ele>
        <time>2019-02-16T13:12:07Z</time>
      </trkpt>
      <trkpt lat="48.34266" lon="2.76193">
        <ele>103.59999847412</ele>
        <time>2019-02-16T13:12:12Z</time>
      </trkpt>
      <trkpt lat="48.34271" lon="2.76191">
        <ele>103.59999847412</ele>
        <time>2019-02-16T13:12:17Z</time>
      </trkpt>
      <trkpt lat="48.34275" lon="2.76188">
        <ele>103.80000305176</ele>
        <time>2019-02-16T13:12:22Z</time>
      </trkpt>
      <trkpt lat="48.34278" lon="2.76184">
        <ele>104</ele>
        <time>2019-02-16T13:12:27Z</time>
      </trkpt>
      <trkpt lat="48.34284" lon="2.76177">
        <ele>104.19999694824</ele>
        <time>2019-02-16T13:12:32Z</time>
      </trkpt>
      <trkpt lat="48.34288" lon="2.76174">
        <ele>104.59999847412</ele>
        <time>2019-02-16T13:12:37Z</time>
      </trkpt>
      <trkpt lat="48.34291" lon="2.7617">
        <ele>104.59999847412</ele>
        <time>2019-02-16T13:12:42Z</time>
      </trkpt>
      <trkpt lat="48.34295" lon="2.76169">
        <ele>104.80000305176</ele>
        <time>2019-02-16T13:12:47Z</time>
      </trkpt>
      <trkpt lat="48.34299" lon="2.76165">
        <ele>105.19999694824</ele>
        <time>2019-02-16T13:12:52Z</time>
      </trkpt>
      <trkpt lat="48.34303" lon="2.76161">
        <ele>105.40000152588</ele>
        <time>2019-02-16T13:12:57Z</time>
      </trkpt>
      <trkpt lat="48.34307" lon="2.76155">
        <ele>105.80000305176</ele>
        <time>2019-02-16T13:13:02Z</time>
      </trkpt>
      <trkpt lat="48.34311" lon="2.76152">
        <ele>106</ele>
        <time>2019-02-16T13:13:07Z</time>
      </trkpt>
      <trkpt lat="48.34315" lon="2.76148">
        <ele>106</ele>
        <time>2019-02-16T13:13:12Z</time>
      </trkpt>
      <trkpt lat="48.34321" lon="2.7614">
        <ele>106.19999694824</ele>
        <time>2019-02-16T13:13:17Z</time>
      </trkpt>
      <trkpt lat="48.34324" lon="2.76132">
        <ele>106.59999847412</ele>
        <time>2019-02-16T13:13:22Z</time>
      </trkpt>
      <trkpt lat="48.34326" lon="2.76125">
        <ele>106.59999847412</ele>
        <time>2019-02-16T13:13:27Z</time>
      </trkpt>
      <trkpt lat="48.34328" lon="2.76122">
        <ele>106.80000305176</ele>
        <time>2019-02-16T13:13:32Z</time>
      </trkpt>
      <trkpt lat="48.34334" lon="2.76116">
        <ele>107</ele>
        <time>2019-02-16T13:13:37Z</time>
      </trkpt>
      <trkpt lat="48.3434" lon="2.76111">
        <ele>107.19999694824</ele>
        <time>2019-02-16T13:13:42Z</time>
      </trkpt>
      <trkpt lat="48.34346" lon="2.76103">
        <ele>107.19999694824</ele>
        <time>2019-02-16T13:13:47Z</time>
      </trkpt>
      <trkpt lat="48.34353" lon="2.76101">
        <ele>107.40000152588</ele>
        <time>2019-02-16T13:13:52Z</time>
      </trkpt>
      <trkpt lat="48.34359" lon="2.76098">
        <ele>107.59999847412</ele>
        <time>2019-02-16T13:13:57Z</time>
      </trkpt>
      <trkpt lat="48.34364" lon="2.76096">
        <ele>107.80000305176</ele>
        <time>2019-02-16T13:14:02Z</time>
      </trkpt>
      <trkpt lat="48.34366" lon="2.76089">
        <ele>108</ele>
        <time>2019-02-16T13:14:07Z</time>
      </trkpt>
      <trkpt lat="48.34364" lon="2.76082">
        <ele>108.19999694824</ele>
        <time>2019-02-16T13:14:12Z</time>
      </trkpt>
      <trkpt lat="48.34364" lon="2.7608">
        <ele>108.19999694824</ele>
        <time>2019-02-16T13:14:17Z</time>
      </trkpt>
      <trkpt lat="48.34366" lon="2.76083">
        <ele>108.19999694824</ele>
        <time>2019-02-16T13:14:22Z</time>
      </trkpt>
      <trkpt lat="48.34368" lon="2.76082">
        <ele>108.19999694824</ele>
        <time>2019-02-16T13:14:27Z</time>
      </trkpt>
      <trkpt lat="48.34373" lon="2.76083">
        <ele>108.19999694824</ele>
        <time>2019-02-16T13:14:32Z</time>
      </trkpt>
      <trkpt lat="48.34379" lon="2.76081">
        <ele>108.40000152588</ele>
        <time>2019-02-16T13:14:37Z</time>
      </trkpt>
      <trkpt lat="48.34383" lon="2.76079">
        <ele>108.80000305176</ele>
        <time>2019-02-16T13:14:42Z</time>
      </trkpt>
      <trkpt lat="48.34386" lon="2.76078">
        <ele>109</ele>
        <time>2019-02-16T13:14:47Z</time>
      </trkpt>
      <trkpt lat="48.34388" lon="2.76073">
        <ele>109.19999694824</ele>
        <time>2019-02-16T13:14:52Z</time>
      </trkpt>
      <trkpt lat="48.34389" lon="2.76069">
        <ele>109.40000152588</ele>
        <time>2019-02-16T13:14:57Z</time>
      </trkpt>
      <trkpt lat="48.34391" lon="2.76066">
        <ele>109.59999847412</ele>
        <time>2019-02-16T13:15:02Z</time>
      </trkpt>
      <trkpt lat="48.34394" lon="2.76058">
        <ele>109.80000305176</ele>
        <time>2019-02-16T13:15:07Z</time>
      </trkpt>
      <trkpt lat="48.34397" lon="2.76052">
        <ele>110</ele>
        <time>2019-02-16T13:15:12Z</time>
      </trkpt>
      <trkpt lat="48.34398" lon="2.76044">
        <ele>110</ele>
        <time>2019-02-16T13:15:17Z</time>
      </trkpt>
      <trkpt lat="48.34399" lon="2.76038">
        <ele>110.40000152588</ele>
        <time>2019-02-16T13:15:22Z</time>
      </trkpt>
      <trkpt lat="48.34401" lon="2.76028">
        <ele>110.80000305176</ele>
        <time>2019-02-16T13:15:27Z</time>
      </trkpt>
      <trkpt lat="48.34404" lon="2.76021">
        <ele>111</ele>
        <time>2019-02-16T13:15:32Z</time>
      </trkpt>
      <trkpt lat="48.34407" lon="2.76016">
        <ele>111.19999694824</ele>
        <time>2019-02-16T13:15:37Z</time>
      </trkpt>
      <trkpt lat="48.34413" lon="2.76012">
        <ele>111.40000152588</ele>
        <time>2019-02-16T13:15:42Z</time>
      </trkpt>
      <trkpt lat="48.34419" lon="2.76007">
        <ele>111.59999847412</ele>
        <time>2019-02-16T13:15:47Z</time>
      </trkpt>
      <trkpt lat="48.34423" lon="2.75999">
        <ele>111.80000305176</ele>
        <time>2019-02-16T13:15:52Z</time>
      </trkpt>
      <trkpt lat="48.34426" lon="2.75994">
        <ele>112</ele>
        <time>2019-02-16T13:15:57Z</time>
      </trkpt>
      <trkpt lat="48.34428" lon="2.7599">
        <ele>112.19999694824</ele>
        <time>2019-02-16T13:16:02Z</time>
      </trkpt>
      <trkpt lat="48.34431" lon="2.75986">
        <ele>112.59999847412</ele>
        <time>2019-02-16T13:16:07Z</time>
      </trkpt>
      <trkpt lat="48.34435" lon="2.75983">
        <ele>112.59999847412</ele>
        <time>2019-02-16T13:16:12Z</time>
      </trkpt>
      <trkpt lat="48.3444" lon="2.75979">
        <ele>113.19999694824</ele>
        <time>2019-02-16T13:16:17Z</time>
      </trkpt>
      <trkpt lat="48.34445" lon="2.75975">
        <ele>113.40000152588</ele>
        <time>2019-02-16T13:16:22Z</time>
      </trkpt>
      <trkpt lat="48.34448" lon="2.75971">
        <ele>113.59999847412</ele>
        <time>2019-02-16T13:16:27Z</time>
      </trkpt>
      <trkpt lat="48.34452" lon="2.75967">
        <ele>114</ele>
        <time>2019-02-16T13:16:32Z</time>
      </trkpt>
      <trkpt lat="48.34457" lon="2.75959">
        <ele>114.19999694824</ele>
        <time>2019-02-16T13:16:37Z</time>
      </trkpt>
      <trkpt lat="48.34462" lon="2.75954">
        <ele>114.59999847412</ele>
        <time>2019-02-16T13:16:42Z</time>
      </trkpt>
      <trkpt lat="48.34465" lon="2.75951">
        <ele>115</ele>
        <time>2019-02-16T13:16:47Z</time>
      </trkpt>
      <trkpt lat="48.34469" lon="2.75946">
        <ele>115.19999694824</ele>
        <time>2019-02-16T13:16:52Z</time>
      </trkpt>
      <trkpt lat="48.34473" lon="2.75944">
        <ele>115.40000152588</ele>
        <time>2019-02-16T13:16:57Z</time>
      </trkpt>
      <trkpt lat="48.3448" lon="2.75943">
        <ele>115.59999847412</ele>
        <time>2019-02-16T13:17:02Z</time>
      </trkpt>
      <trkpt lat="48.34486" lon="2.75938">
        <ele>115.80000305176</ele>
        <time>2019-02-16T13:17:07Z</time>
      </trkpt>
      <trkpt lat="48.34492" lon="2.75934">
        <ele>116</ele>
        <time>2019-02-16T13:17:12Z</time>
      </trkpt>
      <trkpt lat="48.34496" lon="2.75928">
        <ele>116.40000152588</ele>
        <time>2019-02-16T13:17:17Z</time>
      </trkpt>
      <trkpt lat="48.34498" lon="2.75922">
        <ele>116.59999847412</ele>
        <time>2019-02-16T13:17:22Z</time>
      </trkpt>
      <trkpt lat="48.34498" lon="2.75916">
        <ele>117.19999694824</ele>
        <time>2019-02-16T13:17:27Z</time>
      </trkpt>
      <trkpt lat="48.34499" lon="2.75909">
        <ele>117.40000152588</ele>
        <time>2019-02-16T13:17:32Z</time>
      </trkpt>
      <trkpt lat="48.34499" lon="2.75902">
        <ele>117.59999847412</ele>
        <time>2019-02-16T13:17:37Z</time>
      </trkpt>
      <trkpt lat="48.34503" lon="2.75897">
        <ele>118</ele>
        <time>2019-02-16T13:17:42Z</time>
      </trkpt>
      <trkpt lat="48.34505" lon="2.75893">
        <ele>118.19999694824</ele>
        <time>2019-02-16T13:17:47Z</time>
      </trkpt>
      <trkpt lat="48.34508" lon="2.75891">
        <ele>118.40000152588</ele>
        <time>2019-02-16T13:17:52Z</time>
      </trkpt>
      <trkpt lat="48.34511" lon="2.75888">
        <ele>118.19999694824</ele>
        <time>2019-02-16T13:17:57Z</time>
      </trkpt>
      <trkpt lat="48.34514" lon="2.75885">
        <ele>118.80000305176</ele>
        <time>2019-02-16T13:18:02Z</time>
      </trkpt>
      <trkpt lat="48.34518" lon="2.75884">
        <ele>119.19999694824</ele>
        <time>2019-02-16T13:18:07Z</time>
      </trkpt>
      <trkpt lat="48.34524" lon="2.75886">
        <ele>119</ele>
        <time>2019-02-16T13:18:12Z</time>
      </trkpt>
      <trkpt lat="48.34529" lon="2.75888">
        <ele>119</ele>
        <time>2019-02-16T13:18:17Z</time>
      </trkpt>
      <trkpt lat="48.34534" lon="2.7589">
        <ele>119</ele>
        <time>2019-02-16T13:18:22Z</time>
      </trkpt>
      <trkpt lat="48.34536" lon="2.75895">
        <ele>119</ele>
        <time>2019-02-16T13:18:27Z</time>
      </trkpt>
      <trkpt lat="48.34537" lon="2.75899">
        <ele>119.40000152588</ele>
        <time>2019-02-16T13:18:32Z</time>
      </trkpt>
      <trkpt lat="48.34539" lon="2.75902">
        <ele>119.59999847412</ele>
        <time>2019-02-16T13:18:37Z</time>
      </trkpt>
      <trkpt lat="48.3454" lon="2.75906">
        <ele>119.80000305176</ele>
        <time>2019-02-16T13:18:42Z</time>
      </trkpt>
      <trkpt lat="48.34543" lon="2.75908">
        <ele>120.59999847412</ele>
        <time>2019-02-16T13:18:47Z</time>
      </trkpt>
      <trkpt lat="48.34545" lon="2.75911">
        <ele>121.19999694824</ele>
        <time>2019-02-16T13:18:52Z</time>
      </trkpt>
      <trkpt lat="48.34549" lon="2.75917">
        <ele>121.40000152588</ele>
        <time>2019-02-16T13:18:57Z</time>
      </trkpt>
      <trkpt lat="48.34551" lon="2.75922">
        <ele>121.80000305176</ele>
        <time>2019-02-16T13:19:02Z</time>
      </trkpt>
      <trkpt lat="48.34553" lon="2.7593">
        <ele>123</ele>
        <time>2019-02-16T13:19:07Z</time>
      </trkpt>
      <trkpt lat="48.34555" lon="2.75935">
        <ele>123</ele>
        <time>2019-02-16T13:19:12Z</time>
      </trkpt>
      <trkpt lat="48.34556" lon="2.7594">
        <ele>123.19999694824</ele>
        <time>2019-02-16T13:19:17Z</time>
      </trkpt>
      <trkpt lat="48.3456" lon="2.75945">
        <ele>123.40000152588</ele>
        <time>2019-02-16T13:19:22Z</time>
      </trkpt>
      <trkpt lat="48.34566" lon="2.75951">
        <ele>123.80000305176</ele>
        <time>2019-02-16T13:19:27Z</time>
      </trkpt>
      <trkpt lat="48.34572" lon="2.75964">
        <ele>124.19999694824</ele>
        <time>2019-02-16T13:19:32Z</time>
      </trkpt>
      <trkpt lat="48.34578" lon="2.75975">
        <ele>125.19999694824</ele>
        <time>2019-02-16T13:19:37Z</time>
      </trkpt>
      <trkpt lat="48.34584" lon="2.75982">
        <ele>125.80000305176</ele>
        <time>2019-02-16T13:19:42Z</time>
      </trkpt>
      <trkpt lat="48.3459" lon="2.75985">
        <ele>126.59999847412</ele>
        <time>2019-02-16T13:19:47Z</time>
      </trkpt>
      <trkpt lat="48.34596" lon="2.75988">
        <ele>127</ele>
        <time>2019-02-16T13:19:52Z</time>
      </trkpt>
      <trkpt lat="48.34602" lon="2.75993">
        <ele>127.19999694824</ele>
        <time>2019-02-16T13:19:57Z</time>
      </trkpt>
      <trkpt lat="48.34609" lon="2.75999">
        <ele>127.59999847412</ele>
        <time>2019-02-16T13:20:02Z</time>
      </trkpt>
      <trkpt lat="48.3461" lon="2.76002">
        <ele>128.19999694824</ele>
        <time>2019-02-16T13:20:07Z</time>
      </trkpt>
      <trkpt lat="48.34606" lon="2.76005">
        <ele>129.39999389648</ele>
        <time>2019-02-16T13:20:12Z</time>
      </trkpt>
      <trkpt lat="48.34606" lon="2.76013">
        <ele>129.80000305176</ele>
        <time>2019-02-16T13:20:17Z</time>
      </trkpt>
      <trkpt lat="48.34606" lon="2.76018">
        <ele>130</ele>
        <time>2019-02-16T13:20:22Z</time>
      </trkpt>
      <trkpt lat="48.34605" lon="2.76022">
        <ele>131.39999389648</ele>
        <time>2019-02-16T13:20:27Z</time>
      </trkpt>
      <trkpt lat="48.34602" lon="2.76025">
        <ele>132</ele>
        <time>2019-02-16T13:20:32Z</time>
      </trkpt>
      <trkpt lat="48.34603" lon="2.76025">
        <ele>132.80000305176</ele>
        <time>2019-02-16T13:20:37Z</time>
      </trkpt>
      <trkpt lat="48.34605" lon="2.76025">
        <ele>133.60000610352</ele>
        <time>2019-02-16T13:20:42Z</time>
      </trkpt>
      <trkpt lat="48.3461" lon="2.76023">
        <ele>134</ele>
        <time>2019-02-16T13:20:47Z</time>
      </trkpt>
      <trkpt lat="48.34617" lon="2.76022">
        <ele>134.60000610352</ele>
        <time>2019-02-16T13:20:52Z</time>
      </trkpt>
      <trkpt lat="48.34621" lon="2.76021">
        <ele>136.19999694824</ele>
        <time>2019-02-16T13:20:57Z</time>
      </trkpt>
      <trkpt lat="48.34621" lon="2.76023">
        <ele>137</ele>
        <time>2019-02-16T13:21:02Z</time>
      </trkpt>
      <trkpt lat="48.34623" lon="2.76025">
        <ele>138</ele>
        <time>2019-02-16T13:21:07Z</time>
      </trkpt>
      <trkpt lat="48.34623" lon="2.76026">
        <ele>138.60000610352</ele>
        <time>2019-02-16T13:21:12Z</time>
      </trkpt>
      <trkpt lat="48.34622" lon="2.76026">
        <ele>140.19999694824</ele>
        <time>2019-02-16T13:21:17Z</time>
      </trkpt>
      <trkpt lat="48.34625" lon="2.76028">
        <ele>141</ele>
        <time>2019-02-16T13:21:22Z</time>
      </trkpt>
      <trkpt lat="48.34626" lon="2.76032">
        <ele>141.39999389648</ele>
        <time>2019-02-16T13:21:27Z</time>
      </trkpt>
      <trkpt lat="48.34625" lon="2.76035">
        <ele>141.39999389648</ele>
        <time>2019-02-16T13:21:32Z</time>
      </trkpt>
      <trkpt lat="48.34627" lon="2.76039">
        <ele>141.39999389648</ele>
        <time>2019-02-16T13:21:38Z</time>
      </trkpt>
      <trkpt lat="48.34626" lon="2.7604">
        <ele>141.60000610352</ele>
        <time>2019-02-16T13:21:43Z</time>
      </trkpt>
      <trkpt lat="48.34626" lon="2.76039">
        <ele>141.60000610352</ele>
        <time>2019-02-16T13:21:47Z</time>
      </trkpt>
      <trkpt lat="48.34627" lon="2.76036">
        <ele>141.60000610352</ele>
        <time>2019-02-16T13:21:53Z</time>
      </trkpt>
      <trkpt lat="48.34629" lon="2.76034">
        <ele>141.60000610352</ele>
        <time>2019-02-16T13:21:58Z</time>
      </trkpt>
      <trkpt lat="48.34631" lon="2.7603">
        <ele>142.19999694824</ele>
        <time>2019-02-16T13:22:03Z</time>
      </trkpt>
      <trkpt lat="48.3463" lon="2.76029">
        <ele>143</ele>
        <time>2019-02-16T13:22:08Z</time>
      </trkpt>
      <trkpt lat="48.34631" lon="2.76028">
        <ele>143.19999694824</ele>
        <time>2019-02-16T13:22:13Z</time>
      </trkpt>
      <trkpt lat="48.3463" lon="2.76028">
        <ele>143.39999389648</ele>
        <time>2019-02-16T13:22:18Z</time>
      </trkpt>
      <trkpt lat="48.3463" lon="2.76029">
        <ele>143.39999389648</ele>
        <time>2019-02-16T13:22:23Z</time>
      </trkpt>
      <trkpt lat="48.34631" lon="2.7603">
        <ele>143.19999694824</ele>
        <time>2019-02-16T13:22:28Z</time>
      </trkpt>
      <trkpt lat="48.34631" lon="2.7603">
        <ele>143</ele>
        <time>2019-02-16T13:22:33Z</time>
      </trkpt>
      <trkpt lat="48.34632" lon="2.7603">
        <ele>142.80000305176</ele>
        <time>2019-02-16T13:22:38Z</time>
      </trkpt>
      <trkpt lat="48.34632" lon="2.7603">
        <ele>142.80000305176</ele>
        <time>2019-02-16T13:22:43Z</time>
      </trkpt>
      <trkpt lat="48.34634" lon="2.76025">
        <ele>142.80000305176</ele>
        <time>2019-02-16T13:22:48Z</time>
      </trkpt>
      <trkpt lat="48.34637" lon="2.76018">
        <ele>142.80000305176</ele>
        <time>2019-02-16T13:22:53Z</time>
      </trkpt>
      <trkpt lat="48.3464" lon="2.76016">
        <ele>143</ele>
        <time>2019-02-16T13:22:58Z</time>
      </trkpt>
      <trkpt lat="48.34641" lon="2.76017">
        <ele>143.60000610352</ele>
        <time>2019-02-16T13:23:03Z</time>
      </trkpt>
      <trkpt lat="48.34641" lon="2.76017">
        <ele>143.80000305176</ele>
        <time>2019-02-16T13:23:08Z</time>
      </trkpt>
      <trkpt lat="48.34642" lon="2.76018">
        <ele>143.80000305176</ele>
        <time>2019-02-16T13:23:13Z</time>
      </trkpt>
      <trkpt lat="48.34642" lon="2.76014">
        <ele>143.39999389648</ele>
        <time>2019-02-16T13:23:18Z</time>
      </trkpt>
      <trkpt lat="48.34643" lon="2.76011">
        <ele>143.39999389648</ele>
        <time>2019-02-16T13:23:23Z</time>
      </trkpt>
      <trkpt lat="48.34644" lon="2.76006">
        <ele>143.80000305176</ele>
        <time>2019-02-16T13:23:28Z</time>
      </trkpt>
      <trkpt lat="48.34643" lon="2.76005">
        <ele>144.19999694824</ele>
        <time>2019-02-16T13:23:33Z</time>
      </trkpt>
      <trkpt lat="48.34644" lon="2.76004">
        <ele>144.39999389648</ele>
        <time>2019-02-16T13:23:39Z</time>
      </trkpt>
      <trkpt lat="48.34642" lon="2.76003">
        <ele>144.19999694824</ele>
        <time>2019-02-16T13:23:44Z</time>
      </trkpt>
      <trkpt lat="48.34642" lon="2.76003">
        <ele>144.60000610352</ele>
        <time>2019-02-16T13:23:49Z</time>
      </trkpt>
      <trkpt lat="48.34641" lon="2.76006">
        <ele>144.60000610352</ele>
        <time>2019-02-16T13:23:54Z</time>
      </trkpt>
      <trkpt lat="48.34641" lon="2.76007">
        <ele>144.39999389648</ele>
        <time>2019-02-16T13:23:59Z</time>
      </trkpt>
      <trkpt lat="48.34641" lon="2.76007">
        <ele>144</ele>
        <time>2019-02-16T13:24:04Z</time>
      </trkpt>
      <trkpt lat="48.34641" lon="2.76007">
        <ele>144</ele>
        <time>2019-02-16T13:24:09Z</time>
      </trkpt>
      <trkpt lat="48.34643" lon="2.7601">
        <ele>144</ele>
        <time>2019-02-16T13:24:14Z</time>
      </trkpt>
      <trkpt lat="48.34642" lon="2.7601">
        <ele>144</ele>
        <time>2019-02-16T13:24:19Z</time>
      </trkpt>
      <trkpt lat="48.34642" lon="2.76011">
        <ele>144</ele>
        <time>2019-02-16T13:24:24Z</time>
      </trkpt>
      <trkpt lat="48.34643" lon="2.76011">
        <ele>144.19999694824</ele>
        <time>2019-02-16T13:24:29Z</time>
      </trkpt>
      <trkpt lat="48.34643" lon="2.76012">
        <ele>144.19999694824</ele>
        <time>2019-02-16T13:24:34Z</time>
      </trkpt>
      <trkpt lat="48.34643" lon="2.76012">
        <ele>144.19999694824</ele>
        <time>2019-02-16T13:24:39Z</time>
      </trkpt>
      <trkpt lat="48.34643" lon="2.76013">
        <ele>144.19999694824</ele>
        <time>2019-02-16T13:24:44Z</time>
      </trkpt>
      <trkpt lat="48.34642" lon="2.76013">
        <ele>144.19999694824</ele>
        <time>2019-02-16T13:24:49Z</time>
      </trkpt>
      <trkpt lat="48.34641" lon="2.76013">
        <ele>144.19999694824</ele>
        <time>2019-02-16T13:24:54Z</time>
      </trkpt>
      <trkpt lat="48.34641" lon="2.76013">
        <ele>144.19999694824</ele>
        <time>2019-02-16T13:24:59Z</time>
      </trkpt>
      <trkpt lat="48.34641" lon="2.76012">
        <ele>144.19999694824</ele>
        <time>2019-02-16T13:25:04Z</time>
      </trkpt>
      <trkpt lat="48.34641" lon="2.76011">
        <ele>144.19999694824</ele>
        <time>2019-02-16T13:25:09Z</time>
      </trkpt>
      <trkpt lat="48.3464" lon="2.7601">
        <ele>144.19999694824</ele>
        <time>2019-02-16T13:25:14Z</time>
      </trkpt>
      <trkpt lat="48.34639" lon="2.7601">
        <ele>144.19999694824</ele>
        <time>2019-02-16T13:25:19Z</time>
      </trkpt>
      <trkpt lat="48.34639" lon="2.7601">
        <ele>144.19999694824</ele>
        <time>2019-02-16T13:25:24Z</time>
      </trkpt>
      <trkpt lat="48.34639" lon="2.76011">
        <ele>144.19999694824</ele>
        <time>2019-02-16T13:25:29Z</time>
      </trkpt>
      <trkpt lat="48.34639" lon="2.76012">
        <ele>144.19999694824</ele>
        <time>2019-02-16T13:25:34Z</time>
      </trkpt>
      <trkpt lat="48.3464" lon="2.76012">
        <ele>144.19999694824</ele>
        <time>2019-02-16T13:25:39Z</time>
      </trkpt>
      <trkpt lat="48.3464" lon="2.76013">
        <ele>144.19999694824</ele>
        <time>2019-02-16T13:25:44Z</time>
      </trkpt>
      <trkpt lat="48.34641" lon="2.76013">
        <ele>144.19999694824</ele>
        <time>2019-02-16T13:25:49Z</time>
      </trkpt>
      <trkpt lat="48.3464" lon="2.76012">
        <ele>144.19999694824</ele>
        <time>2019-02-16T13:25:54Z</time>
      </trkpt>
      <trkpt lat="48.3464" lon="2.76012">
        <ele>144.19999694824</ele>
        <time>2019-02-16T13:25:59Z</time>
      </trkpt>
      <trkpt lat="48.3464" lon="2.76012">
        <ele>144.19999694824</ele>
        <time>2019-02-16T13:26:04Z</time>
      </trkpt>
      <trkpt lat="48.3464" lon="2.76013">
        <ele>144.19999694824</ele>
        <time>2019-02-16T13:26:09Z</time>
      </trkpt>
      <trkpt lat="48.34641" lon="2.76013">
        <ele>144.19999694824</ele>
        <time>2019-02-16T13:26:14Z</time>
      </trkpt>
      <trkpt lat="48.34642" lon="2.76012">
        <ele>144.19999694824</ele>
        <time>2019-02-16T13:26:19Z</time>
      </trkpt>
      <trkpt lat="48.34644" lon="2.7601">
        <ele>144.19999694824</ele>
        <time>2019-02-16T13:26:24Z</time>
      </trkpt>
      <trkpt lat="48.34644" lon="2.76009">
        <ele>144.19999694824</ele>
        <time>2019-02-16T13:26:29Z</time>
      </trkpt>
      <trkpt lat="48.34644" lon="2.76009">
        <ele>144.19999694824</ele>
        <time>2019-02-16T13:26:34Z</time>
      </trkpt>
      <trkpt lat="48.34644" lon="2.76008">
        <ele>144.19999694824</ele>
        <time>2019-02-16T13:26:39Z</time>
      </trkpt>
      <trkpt lat="48.34644" lon="2.7601">
        <ele>144.19999694824</ele>
        <time>2019-02-16T13:26:44Z</time>
      </trkpt>
      <trkpt lat="48.34645" lon="2.76011">
        <ele>144.19999694824</ele>
        <time>2019-02-16T13:26:49Z</time>
      </trkpt>
      <trkpt lat="48.34644" lon="2.76012">
        <ele>144.19999694824</ele>
        <time>2019-02-16T13:26:54Z</time>
      </trkpt>
      <trkpt lat="48.34643" lon="2.76011">
        <ele>144.19999694824</ele>
        <time>2019-02-16T13:26:59Z</time>
      </trkpt>
      <trkpt lat="48.34643" lon="2.76011">
        <ele>144.19999694824</ele>
        <time>2019-02-16T13:27:04Z</time>
      </trkpt>
      <trkpt lat="48.34642" lon="2.7601">
        <ele>144.19999694824</ele>
        <time>2019-02-16T13:27:09Z</time>
      </trkpt>
      <trkpt lat="48.34643" lon="2.7601">
        <ele>144.19999694824</ele>
        <time>2019-02-16T13:27:14Z</time>
      </trkpt>
      <trkpt lat="48.34642" lon="2.76008">
        <ele>144.19999694824</ele>
        <time>2019-02-16T13:27:19Z</time>
      </trkpt>
      <trkpt lat="48.34639" lon="2.76007">
        <ele>144.19999694824</ele>
        <time>2019-02-16T13:27:24Z</time>
      </trkpt>
      <trkpt lat="48.34638" lon="2.76007">
        <ele>144.19999694824</ele>
        <time>2019-02-16T13:27:29Z</time>
      </trkpt>
      <trkpt lat="48.34638" lon="2.76008">
        <ele>144.19999694824</ele>
        <time>2019-02-16T13:27:34Z</time>
      </trkpt>
      <trkpt lat="48.34638" lon="2.76009">
        <ele>144.19999694824</ele>
        <time>2019-02-16T13:27:39Z</time>
      </trkpt>
      <trkpt lat="48.34637" lon="2.7601">
        <ele>144.19999694824</ele>
        <time>2019-02-16T13:27:44Z</time>
      </trkpt>
      <trkpt lat="48.34637" lon="2.76009">
        <ele>144.19999694824</ele>
        <time>2019-02-16T13:27:49Z</time>
      </trkpt>
      <trkpt lat="48.34638" lon="2.76008">
        <ele>144.19999694824</ele>
        <time>2019-02-16T13:27:54Z</time>
      </trkpt>
      <trkpt lat="48.34639" lon="2.76008">
        <ele>144.19999694824</ele>
        <time>2019-02-16T13:27:59Z</time>
      </trkpt>
      <trkpt lat="48.34639" lon="2.76007">
        <ele>144.19999694824</ele>
        <time>2019-02-16T13:28:04Z</time>
      </trkpt>
      <trkpt lat="48.34642" lon="2.76004">
        <ele>144.19999694824</ele>
        <time>2019-02-16T13:28:09Z</time>
      </trkpt>
      <trkpt lat="48.34644" lon="2.75998">
        <ele>144.19999694824</ele>
        <time>2019-02-16T13:28:14Z</time>
      </trkpt>
      <trkpt lat="48.34648" lon="2.75993">
        <ele>144.19999694824</ele>
        <time>2019-02-16T13:28:19Z</time>
      </trkpt>
      <trkpt lat="48.3465" lon="2.75987">
        <ele>144.19999694824</ele>
        <time>2019-02-16T13:28:24Z</time>
      </trkpt>
      <trkpt lat="48.3465" lon="2.75984">
        <ele>144.60000610352</ele>
        <time>2019-02-16T13:28:29Z</time>
      </trkpt>
      <trkpt lat="48.34651" lon="2.75981">
        <ele>144.39999389648</ele>
        <time>2019-02-16T13:28:34Z</time>
      </trkpt>
      <trkpt lat="48.34652" lon="2.75975">
        <ele>144.60000610352</ele>
        <time>2019-02-16T13:28:39Z</time>
      </trkpt>
      <trkpt lat="48.34651" lon="2.75969">
        <ele>144.60000610352</ele>
        <time>2019-02-16T13:28:44Z</time>
      </trkpt>
      <trkpt lat="48.34652" lon="2.75966">
        <ele>144.60000610352</ele>
        <time>2019-02-16T13:28:49Z</time>
      </trkpt>
      <trkpt lat="48.34653" lon="2.75963">
        <ele>144.39999389648</ele>
        <time>2019-02-16T13:28:54Z</time>
      </trkpt>
      <trkpt lat="48.34656" lon="2.75958">
        <ele>144</ele>
        <time>2019-02-16T13:28:59Z</time>
      </trkpt>
      <trkpt lat="48.3466" lon="2.75953">
        <ele>143.80000305176</ele>
        <time>2019-02-16T13:29:04Z</time>
      </trkpt>
      <trkpt lat="48.34661" lon="2.75948">
        <ele>143.39999389648</ele>
        <time>2019-02-16T13:29:09Z</time>
      </trkpt>
      <trkpt lat="48.34662" lon="2.75941">
        <ele>143.19999694824</ele>
        <time>2019-02-16T13:29:14Z</time>
      </trkpt>
      <trkpt lat="48.34665" lon="2.75935">
        <ele>143</ele>
        <time>2019-02-16T13:29:19Z</time>
      </trkpt>
      <trkpt lat="48.34666" lon="2.7593">
        <ele>143</ele>
        <time>2019-02-16T13:29:24Z</time>
      </trkpt>
      <trkpt lat="48.34667" lon="2.75925">
        <ele>143.19999694824</ele>
        <time>2019-02-16T13:29:29Z</time>
      </trkpt>
      <trkpt lat="48.34671" lon="2.7592">
        <ele>143.60000610352</ele>
        <time>2019-02-16T13:29:34Z</time>
      </trkpt>
      <trkpt lat="48.34674" lon="2.75912">
        <ele>143.39999389648</ele>
        <time>2019-02-16T13:29:39Z</time>
      </trkpt>
      <trkpt lat="48.34675" lon="2.75909">
        <ele>143.60000610352</ele>
        <time>2019-02-16T13:29:44Z</time>
      </trkpt>
      <trkpt lat="48.34676" lon="2.75906">
        <ele>143.80000305176</ele>
        <time>2019-02-16T13:29:49Z</time>
      </trkpt>
      <trkpt lat="48.34676" lon="2.75905">
        <ele>143.80000305176</ele>
        <time>2019-02-16T13:29:54Z</time>
      </trkpt>
      <trkpt lat="48.34678" lon="2.75904">
        <ele>144.19999694824</ele>
        <time>2019-02-16T13:29:59Z</time>
      </trkpt>
      <trkpt lat="48.34678" lon="2.75895">
        <ele>144.19999694824</ele>
        <time>2019-02-16T13:30:04Z</time>
      </trkpt>
      <trkpt lat="48.34676" lon="2.75886">
        <ele>144</ele>
        <time>2019-02-16T13:30:09Z</time>
      </trkpt>
      <trkpt lat="48.34672" lon="2.75881">
        <ele>143.60000610352</ele>
        <time>2019-02-16T13:30:14Z</time>
      </trkpt>
      <trkpt lat="48.3467" lon="2.75877">
        <ele>143.60000610352</ele>
        <time>2019-02-16T13:30:19Z</time>
      </trkpt>
      <trkpt lat="48.3467" lon="2.75871">
        <ele>143.80000305176</ele>
        <time>2019-02-16T13:30:24Z</time>
      </trkpt>
      <trkpt lat="48.34668" lon="2.75865">
        <ele>144</ele>
        <time>2019-02-16T13:30:29Z</time>
      </trkpt>
      <trkpt lat="48.34667" lon="2.75859">
        <ele>144</ele>
        <time>2019-02-16T13:30:34Z</time>
      </trkpt>
      <trkpt lat="48.34666" lon="2.75854">
        <ele>144.19999694824</ele>
        <time>2019-02-16T13:30:39Z</time>
      </trkpt>
      <trkpt lat="48.34665" lon="2.75849">
        <ele>144.39999389648</ele>
        <time>2019-02-16T13:30:44Z</time>
      </trkpt>
      <trkpt lat="48.34665" lon="2.75845">
        <ele>144.39999389648</ele>
        <time>2019-02-16T13:30:49Z</time>
      </trkpt>
      <trkpt lat="48.34664" lon="2.75839">
        <ele>144.39999389648</ele>
        <time>2019-02-16T13:30:54Z</time>
      </trkpt>
      <trkpt lat="48.34664" lon="2.75831">
        <ele>144.60000610352</ele>
        <time>2019-02-16T13:30:59Z</time>
      </trkpt>
      <trkpt lat="48.34666" lon="2.75826">
        <ele>144.60000610352</ele>
        <time>2019-02-16T13:31:04Z</time>
      </trkpt>
      <trkpt lat="48.34668" lon="2.7582">
        <ele>144.80000305176</ele>
        <time>2019-02-16T13:31:09Z</time>
      </trkpt>
      <trkpt lat="48.34669" lon="2.75816">
        <ele>144.80000305176</ele>
        <time>2019-02-16T13:31:14Z</time>
      </trkpt>
      <trkpt lat="48.34672" lon="2.75813">
        <ele>145</ele>
        <time>2019-02-16T13:31:19Z</time>
      </trkpt>
      <trkpt lat="48.34673" lon="2.75807">
        <ele>144.80000305176</ele>
        <time>2019-02-16T13:31:24Z</time>
      </trkpt>
      <trkpt lat="48.34673" lon="2.75799">
        <ele>144.80000305176</ele>
        <time>2019-02-16T13:31:29Z</time>
      </trkpt>
      <trkpt lat="48.34674" lon="2.75789">
        <ele>144.80000305176</ele>
        <time>2019-02-16T13:31:34Z</time>
      </trkpt>
      <trkpt lat="48.34672" lon="2.7578">
        <ele>144.80000305176</ele>
        <time>2019-02-16T13:31:39Z</time>
      </trkpt>
      <trkpt lat="48.34671" lon="2.75771">
        <ele>144.80000305176</ele>
        <time>2019-02-16T13:31:44Z</time>
      </trkpt>
      <trkpt lat="48.3467" lon="2.75764">
        <ele>144.80000305176</ele>
        <time>2019-02-16T13:31:49Z</time>
      </trkpt>
      <trkpt lat="48.34672" lon="2.75759">
        <ele>144.80000305176</ele>
        <time>2019-02-16T13:31:54Z</time>
      </trkpt>
      <trkpt lat="48.34673" lon="2.75752">
        <ele>144.80000305176</ele>
        <time>2019-02-16T13:31:59Z</time>
      </trkpt>
      <trkpt lat="48.34675" lon="2.75746">
        <ele>144.80000305176</ele>
        <time>2019-02-16T13:32:04Z</time>
      </trkpt>
      <trkpt lat="48.34676" lon="2.75739">
        <ele>144.80000305176</ele>
        <time>2019-02-16T13:32:09Z</time>
      </trkpt>
      <trkpt lat="48.34677" lon="2.75729">
        <ele>144.80000305176</ele>
        <time>2019-02-16T13:32:15Z</time>
      </trkpt>
      <trkpt lat="48.34678" lon="2.75721">
        <ele>144.80000305176</ele>
        <time>2019-02-16T13:32:20Z</time>
      </trkpt>
      <trkpt lat="48.34678" lon="2.75715">
        <ele>144.80000305176</ele>
        <time>2019-02-16T13:32:25Z</time>
      </trkpt>
      <trkpt lat="48.34681" lon="2.7571">
        <ele>145</ele>
        <time>2019-02-16T13:32:30Z</time>
      </trkpt>
      <trkpt lat="48.34682" lon="2.75705">
        <ele>145.19999694824</ele>
        <time>2019-02-16T13:32:35Z</time>
      </trkpt>
      <trkpt lat="48.34681" lon="2.75697">
        <ele>145.19999694824</ele>
        <time>2019-02-16T13:32:40Z</time>
      </trkpt>
      <trkpt lat="48.34679" lon="2.7569">
        <ele>145.19999694824</ele>
        <time>2019-02-16T13:32:45Z</time>
      </trkpt>
      <trkpt lat="48.34676" lon="2.75685">
        <ele>145.39999389648</ele>
        <time>2019-02-16T13:32:50Z</time>
      </trkpt>
      <trkpt lat="48.34677" lon="2.75679">
        <ele>145.39999389648</ele>
        <time>2019-02-16T13:32:55Z</time>
      </trkpt>
      <trkpt lat="48.34676" lon="2.75668">
        <ele>145.39999389648</ele>
        <time>2019-02-16T13:33:00Z</time>
      </trkpt>
      <trkpt lat="48.34675" lon="2.75664">
        <ele>145.60000610352</ele>
        <time>2019-02-16T13:33:05Z</time>
      </trkpt>
      <trkpt lat="48.34675" lon="2.75661">
        <ele>145.60000610352</ele>
        <time>2019-02-16T13:33:10Z</time>
      </trkpt>
      <trkpt lat="48.34674" lon="2.75649">
        <ele>145.80000305176</ele>
        <time>2019-02-16T13:33:15Z</time>
      </trkpt>
      <trkpt lat="48.34676" lon="2.7564">
        <ele>145.80000305176</ele>
        <time>2019-02-16T13:33:20Z</time>
      </trkpt>
      <trkpt lat="48.34679" lon="2.75631">
        <ele>146</ele>
        <time>2019-02-16T13:33:25Z</time>
      </trkpt>
      <trkpt lat="48.34683" lon="2.75624">
        <ele>146.39999389648</ele>
        <time>2019-02-16T13:33:30Z</time>
      </trkpt>
      <trkpt lat="48.34688" lon="2.75617">
        <ele>146.60000610352</ele>
        <time>2019-02-16T13:33:35Z</time>
      </trkpt>
      <trkpt lat="48.34692" lon="2.75608">
        <ele>146.60000610352</ele>
        <time>2019-02-16T13:33:40Z</time>
      </trkpt>
      <trkpt lat="48.34696" lon="2.75599">
        <ele>146.80000305176</ele>
        <time>2019-02-16T13:33:45Z</time>
      </trkpt>
      <trkpt lat="48.347" lon="2.75592">
        <ele>147</ele>
        <time>2019-02-16T13:33:50Z</time>
      </trkpt>
      <trkpt lat="48.34703" lon="2.75585">
        <ele>147.19999694824</ele>
        <time>2019-02-16T13:33:55Z</time>
      </trkpt>
      <trkpt lat="48.34705" lon="2.75579">
        <ele>147.39999389648</ele>
        <time>2019-02-16T13:34:00Z</time>
      </trkpt>
      <trkpt lat="48.34708" lon="2.75572">
        <ele>147.39999389648</ele>
        <time>2019-02-16T13:34:05Z</time>
      </trkpt>
      <trkpt lat="48.34709" lon="2.75565">
        <ele>147.60000610352</ele>
        <time>2019-02-16T13:34:10Z</time>
      </trkpt>
      <trkpt lat="48.34712" lon="2.75557">
        <ele>147.60000610352</ele>
        <time>2019-02-16T13:34:15Z</time>
      </trkpt>
      <trkpt lat="48.34714" lon="2.7555">
        <ele>147.60000610352</ele>
        <time>2019-02-16T13:34:20Z</time>
      </trkpt>
      <trkpt lat="48.34718" lon="2.75544">
        <ele>147.60000610352</ele>
        <time>2019-02-16T13:34:25Z</time>
      </trkpt>
      <trkpt lat="48.34722" lon="2.75539">
        <ele>147.80000305176</ele>
        <time>2019-02-16T13:34:30Z</time>
      </trkpt>
      <trkpt lat="48.34728" lon="2.75534">
        <ele>148</ele>
        <time>2019-02-16T13:34:35Z</time>
      </trkpt>
      <trkpt lat="48.34732" lon="2.7553">
        <ele>148</ele>
        <time>2019-02-16T13:34:40Z</time>
      </trkpt>
      <trkpt lat="48.34734" lon="2.75526">
        <ele>147.80000305176</ele>
        <time>2019-02-16T13:34:45Z</time>
      </trkpt>
      <trkpt lat="48.34738" lon="2.75521">
        <ele>147.80000305176</ele>
        <time>2019-02-16T13:34:50Z</time>
      </trkpt>
      <trkpt lat="48.34741" lon="2.75516">
        <ele>147.80000305176</ele>
        <time>2019-02-16T13:34:55Z</time>
      </trkpt>
      <trkpt lat="48.34746" lon="2.75511">
        <ele>147.80000305176</ele>
        <time>2019-02-16T13:35:00Z</time>
      </trkpt>
      <trkpt lat="48.34749" lon="2.75504">
        <ele>147.60000610352</ele>
        <time>2019-02-16T13:35:05Z</time>
      </trkpt>
      <trkpt lat="48.34753" lon="2.75497">
        <ele>147.39999389648</ele>
        <time>2019-02-16T13:35:10Z</time>
      </trkpt>
      <trkpt lat="48.34756" lon="2.7549">
        <ele>147.39999389648</ele>
        <time>2019-02-16T13:35:15Z</time>
      </trkpt>
      <trkpt lat="48.34761" lon="2.7548">
        <ele>147.39999389648</ele>
        <time>2019-02-16T13:35:20Z</time>
      </trkpt>
      <trkpt lat="48.34765" lon="2.75473">
        <ele>147</ele>
        <time>2019-02-16T13:35:25Z</time>
      </trkpt>
      <trkpt lat="48.34769" lon="2.75464">
        <ele>147</ele>
        <time>2019-02-16T13:35:30Z</time>
      </trkpt>
      <trkpt lat="48.34771" lon="2.75456">
        <ele>146.60000610352</ele>
        <time>2019-02-16T13:35:35Z</time>
      </trkpt>
      <trkpt lat="48.34774" lon="2.75449">
        <ele>146.39999389648</ele>
        <time>2019-02-16T13:35:40Z</time>
      </trkpt>
      <trkpt lat="48.34778" lon="2.75441">
        <ele>146.19999694824</ele>
        <time>2019-02-16T13:35:45Z</time>
      </trkpt>
      <trkpt lat="48.3478" lon="2.75432">
        <ele>145.60000610352</ele>
        <time>2019-02-16T13:35:50Z</time>
      </trkpt>
      <trkpt lat="48.34784" lon="2.75426">
        <ele>145.19999694824</ele>
        <time>2019-02-16T13:35:55Z</time>
      </trkpt>
      <trkpt lat="48.34789" lon="2.75423">
        <ele>144.60000610352</ele>
        <time>2019-02-16T13:36:00Z</time>
      </trkpt>
      <trkpt lat="48.34795" lon="2.75419">
        <ele>144.39999389648</ele>
        <time>2019-02-16T13:36:05Z</time>
      </trkpt>
      <trkpt lat="48.34798" lon="2.75414">
        <ele>144</ele>
        <time>2019-02-16T13:36:10Z</time>
      </trkpt>
      <trkpt lat="48.34803" lon="2.7541">
        <ele>143.60000610352</ele>
        <time>2019-02-16T13:36:15Z</time>
      </trkpt>
      <trkpt lat="48.34806" lon="2.75406">
        <ele>143.19999694824</ele>
        <time>2019-02-16T13:36:20Z</time>
      </trkpt>
      <trkpt lat="48.3481" lon="2.754">
        <ele>142.60000610352</ele>
        <time>2019-02-16T13:36:25Z</time>
      </trkpt>
      <trkpt lat="48.34813" lon="2.75396">
        <ele>142.19999694824</ele>
        <time>2019-02-16T13:36:30Z</time>
      </trkpt>
      <trkpt lat="48.34815" lon="2.75391">
        <ele>141.60000610352</ele>
        <time>2019-02-16T13:36:35Z</time>
      </trkpt>
      <trkpt lat="48.34817" lon="2.75385">
        <ele>141</ele>
        <time>2019-02-16T13:36:40Z</time>
      </trkpt>
      <trkpt lat="48.3482" lon="2.75379">
        <ele>140.19999694824</ele>
        <time>2019-02-16T13:36:45Z</time>
      </trkpt>
      <trkpt lat="48.34822" lon="2.75376">
        <ele>138.80000305176</ele>
        <time>2019-02-16T13:36:50Z</time>
      </trkpt>
      <trkpt lat="48.34827" lon="2.75376">
        <ele>138</ele>
        <time>2019-02-16T13:36:55Z</time>
      </trkpt>
      <trkpt lat="48.3483" lon="2.75376">
        <ele>137.39999389648</ele>
        <time>2019-02-16T13:37:00Z</time>
      </trkpt>
      <trkpt lat="48.34831" lon="2.75375">
        <ele>136.60000610352</ele>
        <time>2019-02-16T13:37:05Z</time>
      </trkpt>
      <trkpt lat="48.34833" lon="2.75371">
        <ele>135.80000305176</ele>
        <time>2019-02-16T13:37:10Z</time>
      </trkpt>
      <trkpt lat="48.34836" lon="2.75361">
        <ele>134.60000610352</ele>
        <time>2019-02-16T13:37:15Z</time>
      </trkpt>
      <trkpt lat="48.34839" lon="2.75352">
        <ele>134</ele>
        <time>2019-02-16T13:37:20Z</time>
      </trkpt>
      <trkpt lat="48.34841" lon="2.75341">
        <ele>133.39999389648</ele>
        <time>2019-02-16T13:37:25Z</time>
      </trkpt>
      <trkpt lat="48.34842" lon="2.75329">
        <ele>132.80000305176</ele>
        <time>2019-02-16T13:37:30Z</time>
      </trkpt>
      <trkpt lat="48.34845" lon="2.7532">
        <ele>132.19999694824</ele>
        <time>2019-02-16T13:37:35Z</time>
      </trkpt>
      <trkpt lat="48.34847" lon="2.75314">
        <ele>131.60000610352</ele>
        <time>2019-02-16T13:37:40Z</time>
      </trkpt>
      <trkpt lat="48.34848" lon="2.75309">
        <ele>131.19999694824</ele>
        <time>2019-02-16T13:37:45Z</time>
      </trkpt>
      <trkpt lat="48.34851" lon="2.75306">
        <ele>130.60000610352</ele>
        <time>2019-02-16T13:37:50Z</time>
      </trkpt>
      <trkpt lat="48.34852" lon="2.753">
        <ele>130.19999694824</ele>
        <time>2019-02-16T13:37:55Z</time>
      </trkpt>
      <trkpt lat="48.34852" lon="2.75295">
        <ele>130</ele>
        <time>2019-02-16T13:38:00Z</time>
      </trkpt>
      <trkpt lat="48.34856" lon="2.75288">
        <ele>129.39999389648</ele>
        <time>2019-02-16T13:38:05Z</time>
      </trkpt>
      <trkpt lat="48.3486" lon="2.75281">
        <ele>129.19999694824</ele>
        <time>2019-02-16T13:38:10Z</time>
      </trkpt>
      <trkpt lat="48.34862" lon="2.75274">
        <ele>129</ele>
        <time>2019-02-16T13:38:15Z</time>
      </trkpt>
      <trkpt lat="48.34866" lon="2.75267">
        <ele>128.60000610352</ele>
        <time>2019-02-16T13:38:20Z</time>
      </trkpt>
      <trkpt lat="48.34868" lon="2.75262">
        <ele>128.19999694824</ele>
        <time>2019-02-16T13:38:25Z</time>
      </trkpt>
      <trkpt lat="48.3487" lon="2.75255">
        <ele>127.80000305176</ele>
        <time>2019-02-16T13:38:30Z</time>
      </trkpt>
      <trkpt lat="48.34872" lon="2.75247">
        <ele>127.80000305176</ele>
        <time>2019-02-16T13:38:35Z</time>
      </trkpt>
      <trkpt lat="48.34874" lon="2.75239">
        <ele>127.40000152588</ele>
        <time>2019-02-16T13:38:40Z</time>
      </trkpt>
      <trkpt lat="48.34875" lon="2.75232">
        <ele>127.19999694824</ele>
        <time>2019-02-16T13:38:45Z</time>
      </trkpt>
      <trkpt lat="48.34876" lon="2.75225">
        <ele>127.19999694824</ele>
        <time>2019-02-16T13:38:50Z</time>
      </trkpt>
      <trkpt lat="48.3488" lon="2.75219">
        <ele>126.80000305176</ele>
        <time>2019-02-16T13:38:55Z</time>
      </trkpt>
      <trkpt lat="48.34883" lon="2.75213">
        <ele>126.59999847412</ele>
        <time>2019-02-16T13:39:00Z</time>
      </trkpt>
      <trkpt lat="48.34885" lon="2.75208">
        <ele>126.40000152588</ele>
        <time>2019-02-16T13:39:05Z</time>
      </trkpt>
      <trkpt lat="48.34887" lon="2.75197">
        <ele>126</ele>
        <time>2019-02-16T13:39:10Z</time>
      </trkpt>
      <trkpt lat="48.34888" lon="2.75185">
        <ele>125.80000305176</ele>
        <time>2019-02-16T13:39:15Z</time>
      </trkpt>
      <trkpt lat="48.34889" lon="2.75177">
        <ele>125.59999847412</ele>
        <time>2019-02-16T13:39:20Z</time>
      </trkpt>
      <trkpt lat="48.34891" lon="2.75171">
        <ele>125.40000152588</ele>
        <time>2019-02-16T13:39:25Z</time>
      </trkpt>
      <trkpt lat="48.34894" lon="2.75163">
        <ele>125</ele>
        <time>2019-02-16T13:39:30Z</time>
      </trkpt>
      <trkpt lat="48.34897" lon="2.75155">
        <ele>124.59999847412</ele>
        <time>2019-02-16T13:39:35Z</time>
      </trkpt>
      <trkpt lat="48.34899" lon="2.75146">
        <ele>124.19999694824</ele>
        <time>2019-02-16T13:39:40Z</time>
      </trkpt>
      <trkpt lat="48.34903" lon="2.75139">
        <ele>124</ele>
        <time>2019-02-16T13:39:45Z</time>
      </trkpt>
      <trkpt lat="48.34905" lon="2.75136">
        <ele>123.80000305176</ele>
        <time>2019-02-16T13:39:50Z</time>
      </trkpt>
      <trkpt lat="48.34909" lon="2.7513">
        <ele>123.59999847412</ele>
        <time>2019-02-16T13:39:55Z</time>
      </trkpt>
      <trkpt lat="48.34913" lon="2.75125">
        <ele>123.40000152588</ele>
        <time>2019-02-16T13:40:00Z</time>
      </trkpt>
      <trkpt lat="48.34917" lon="2.7512">
        <ele>123.19999694824</ele>
        <time>2019-02-16T13:40:05Z</time>
      </trkpt>
      <trkpt lat="48.3492" lon="2.75114">
        <ele>123</ele>
        <time>2019-02-16T13:40:10Z</time>
      </trkpt>
      <trkpt lat="48.34923" lon="2.75107">
        <ele>122.80000305176</ele>
        <time>2019-02-16T13:40:15Z</time>
      </trkpt>
      <trkpt lat="48.34926" lon="2.75101">
        <ele>122.59999847412</ele>
        <time>2019-02-16T13:40:20Z</time>
      </trkpt>
      <trkpt lat="48.34928" lon="2.75092">
        <ele>122.59999847412</ele>
        <time>2019-02-16T13:40:25Z</time>
      </trkpt>
      <trkpt lat="48.34929" lon="2.75085">
        <ele>122.40000152588</ele>
        <time>2019-02-16T13:40:30Z</time>
      </trkpt>
      <trkpt lat="48.34935" lon="2.75078">
        <ele>122.40000152588</ele>
        <time>2019-02-16T13:40:35Z</time>
      </trkpt>
      <trkpt lat="48.34941" lon="2.75069">
        <ele>122.59999847412</ele>
        <time>2019-02-16T13:40:40Z</time>
      </trkpt>
      <trkpt lat="48.34943" lon="2.75062">
        <ele>122.59999847412</ele>
        <time>2019-02-16T13:40:45Z</time>
      </trkpt>
      <trkpt lat="48.34945" lon="2.75055">
        <ele>122.59999847412</ele>
        <time>2019-02-16T13:40:50Z</time>
      </trkpt>
      <trkpt lat="48.34947" lon="2.75047">
        <ele>122.80000305176</ele>
        <time>2019-02-16T13:40:55Z</time>
      </trkpt>
      <trkpt lat="48.34949" lon="2.75039">
        <ele>122.80000305176</ele>
        <time>2019-02-16T13:41:00Z</time>
      </trkpt>
      <trkpt lat="48.34951" lon="2.75031">
        <ele>122.80000305176</ele>
        <time>2019-02-16T13:41:05Z</time>
      </trkpt>
      <trkpt lat="48.34954" lon="2.75021">
        <ele>122.80000305176</ele>
        <time>2019-02-16T13:41:10Z</time>
      </trkpt>
      <trkpt lat="48.34958" lon="2.75014">
        <ele>123</ele>
        <time>2019-02-16T13:41:15Z</time>
      </trkpt>
      <trkpt lat="48.34962" lon="2.75008">
        <ele>123.40000152588</ele>
        <time>2019-02-16T13:41:20Z</time>
      </trkpt>
      <trkpt lat="48.34965" lon="2.75001">
        <ele>123.80000305176</ele>
        <time>2019-02-16T13:41:25Z</time>
      </trkpt>
      <trkpt lat="48.34966" lon="2.74992">
        <ele>124.19999694824</ele>
        <time>2019-02-16T13:41:30Z</time>
      </trkpt>
      <trkpt lat="48.34968" lon="2.74983">
        <ele>124.40000152588</ele>
        <time>2019-02-16T13:41:35Z</time>
      </trkpt>
      <trkpt lat="48.34971" lon="2.74974">
        <ele>124.40000152588</ele>
        <time>2019-02-16T13:41:40Z</time>
      </trkpt>
      <trkpt lat="48.34974" lon="2.74965">
        <ele>124.40000152588</ele>
        <time>2019-02-16T13:41:45Z</time>
      </trkpt>
      <trkpt lat="48.34977" lon="2.74958">
        <ele>124.59999847412</ele>
        <time>2019-02-16T13:41:50Z</time>
      </trkpt>
      <trkpt lat="48.34977" lon="2.74957">
        <ele>124.40000152588</ele>
        <time>2019-02-16T13:41:55Z</time>
      </trkpt>
      <trkpt lat="48.34979" lon="2.74954">
        <ele>124.40000152588</ele>
        <time>2019-02-16T13:42:00Z</time>
      </trkpt>
      <trkpt lat="48.3498" lon="2.74947">
        <ele>124.40000152588</ele>
        <time>2019-02-16T13:42:05Z</time>
      </trkpt>
      <trkpt lat="48.34981" lon="2.7494">
        <ele>124.40000152588</ele>
        <time>2019-02-16T13:42:10Z</time>
      </trkpt>
      <trkpt lat="48.34984" lon="2.74934">
        <ele>124.40000152588</ele>
        <time>2019-02-16T13:42:15Z</time>
      </trkpt>
      <trkpt lat="48.34987" lon="2.74927">
        <ele>124.40000152588</ele>
        <time>2019-02-16T13:42:20Z</time>
      </trkpt>
      <trkpt lat="48.3499" lon="2.74922">
        <ele>124.40000152588</ele>
        <time>2019-02-16T13:42:25Z</time>
      </trkpt>
      <trkpt lat="48.34992" lon="2.74917">
        <ele>124.40000152588</ele>
        <time>2019-02-16T13:42:30Z</time>
      </trkpt>
      <trkpt lat="48.34996" lon="2.7491">
        <ele>124.40000152588</ele>
        <time>2019-02-16T13:42:35Z</time>
      </trkpt>
      <trkpt lat="48.34999" lon="2.74905">
        <ele>124.59999847412</ele>
        <time>2019-02-16T13:42:40Z</time>
      </trkpt>
      <trkpt lat="48.35006" lon="2.74899">
        <ele>124.59999847412</ele>
        <time>2019-02-16T13:42:45Z</time>
      </trkpt>
      <trkpt lat="48.35009" lon="2.74891">
        <ele>124.59999847412</ele>
        <time>2019-02-16T13:42:50Z</time>
      </trkpt>
      <trkpt lat="48.3501" lon="2.74882">
        <ele>124.59999847412</ele>
        <time>2019-02-16T13:42:55Z</time>
      </trkpt>
      <trkpt lat="48.3501" lon="2.74871">
        <ele>124.59999847412</ele>
        <time>2019-02-16T13:43:00Z</time>
      </trkpt>
      <trkpt lat="48.35011" lon="2.74861">
        <ele>124.59999847412</ele>
        <time>2019-02-16T13:43:05Z</time>
      </trkpt>
      <trkpt lat="48.35013" lon="2.7485">
        <ele>125.19999694824</ele>
        <time>2019-02-16T13:43:10Z</time>
      </trkpt>
      <trkpt lat="48.35019" lon="2.7484">
        <ele>125.59999847412</ele>
        <time>2019-02-16T13:43:15Z</time>
      </trkpt>
      <trkpt lat="48.35024" lon="2.74833">
        <ele>125.59999847412</ele>
        <time>2019-02-16T13:43:20Z</time>
      </trkpt>
      <trkpt lat="48.35027" lon="2.74826">
        <ele>125.80000305176</ele>
        <time>2019-02-16T13:43:25Z</time>
      </trkpt>
      <trkpt lat="48.3503" lon="2.74818">
        <ele>125.80000305176</ele>
        <time>2019-02-16T13:43:30Z</time>
      </trkpt>
      <trkpt lat="48.35034" lon="2.74811">
        <ele>125.80000305176</ele>
        <time>2019-02-16T13:43:35Z</time>
      </trkpt>
      <trkpt lat="48.35037" lon="2.74808">
        <ele>125.80000305176</ele>
        <time>2019-02-16T13:43:40Z</time>
      </trkpt>
      <trkpt lat="48.35042" lon="2.74804">
        <ele>125.80000305176</ele>
        <time>2019-02-16T13:43:45Z</time>
      </trkpt>
      <trkpt lat="48.35046" lon="2.748">
        <ele>125.80000305176</ele>
        <time>2019-02-16T13:43:50Z</time>
      </trkpt>
      <trkpt lat="48.35052" lon="2.74799">
        <ele>126.19999694824</ele>
        <time>2019-02-16T13:43:55Z</time>
      </trkpt>
      <trkpt lat="48.35056" lon="2.74794">
        <ele>126.19999694824</ele>
        <time>2019-02-16T13:44:00Z</time>
      </trkpt>
      <trkpt lat="48.35059" lon="2.74792">
        <ele>126.19999694824</ele>
        <time>2019-02-16T13:44:05Z</time>
      </trkpt>
      <trkpt lat="48.3506" lon="2.74791">
        <ele>126</ele>
        <time>2019-02-16T13:44:10Z</time>
      </trkpt>
      <trkpt lat="48.35061" lon="2.7479">
        <ele>126</ele>
        <time>2019-02-16T13:44:15Z</time>
      </trkpt>
      <trkpt lat="48.3506" lon="2.74792">
        <ele>126</ele>
        <time>2019-02-16T13:44:20Z</time>
      </trkpt>
      <trkpt lat="48.3506" lon="2.74791">
        <ele>126</ele>
        <time>2019-02-16T13:44:25Z</time>
      </trkpt>
      <trkpt lat="48.3506" lon="2.74791">
        <ele>126</ele>
        <time>2019-02-16T13:44:30Z</time>
      </trkpt>
      <trkpt lat="48.35061" lon="2.74789">
        <ele>126</ele>
        <time>2019-02-16T13:44:35Z</time>
      </trkpt>
      <trkpt lat="48.35065" lon="2.74788">
        <ele>126</ele>
        <time>2019-02-16T13:44:40Z</time>
      </trkpt>
      <trkpt lat="48.35069" lon="2.74782">
        <ele>126.19999694824</ele>
        <time>2019-02-16T13:44:45Z</time>
      </trkpt>
      <trkpt lat="48.35073" lon="2.74781">
        <ele>126.19999694824</ele>
        <time>2019-02-16T13:44:50Z</time>
      </trkpt>
      <trkpt lat="48.35077" lon="2.74779">
        <ele>126.40000152588</ele>
        <time>2019-02-16T13:44:55Z</time>
      </trkpt>
      <trkpt lat="48.35084" lon="2.74779">
        <ele>126.40000152588</ele>
        <time>2019-02-16T13:45:00Z</time>
      </trkpt>
      <trkpt lat="48.3509" lon="2.74778">
        <ele>126.40000152588</ele>
        <time>2019-02-16T13:45:05Z</time>
      </trkpt>
      <trkpt lat="48.35097" lon="2.74778">
        <ele>126.40000152588</ele>
        <time>2019-02-16T13:45:10Z</time>
      </trkpt>
      <trkpt lat="48.35103" lon="2.74776">
        <ele>126.40000152588</ele>
        <time>2019-02-16T13:45:15Z</time>
      </trkpt>
      <trkpt lat="48.3511" lon="2.74775">
        <ele>126.59999847412</ele>
        <time>2019-02-16T13:45:20Z</time>
      </trkpt>
      <trkpt lat="48.35118" lon="2.74772">
        <ele>126.59999847412</ele>
        <time>2019-02-16T13:45:25Z</time>
      </trkpt>
      <trkpt lat="48.35123" lon="2.74766">
        <ele>126.80000305176</ele>
        <time>2019-02-16T13:45:30Z</time>
      </trkpt>
      <trkpt lat="48.35128" lon="2.74761">
        <ele>126.80000305176</ele>
        <time>2019-02-16T13:45:35Z</time>
      </trkpt>
      <trkpt lat="48.35133" lon="2.74757">
        <ele>126.80000305176</ele>
        <time>2019-02-16T13:45:40Z</time>
      </trkpt>
      <trkpt lat="48.35139" lon="2.74755">
        <ele>126.59999847412</ele>
        <time>2019-02-16T13:45:45Z</time>
      </trkpt>
      <trkpt lat="48.35146" lon="2.74752">
        <ele>126.59999847412</ele>
        <time>2019-02-16T13:45:50Z</time>
      </trkpt>
      <trkpt lat="48.35151" lon="2.74746">
        <ele>126.80000305176</ele>
        <time>2019-02-16T13:45:55Z</time>
      </trkpt>
      <trkpt lat="48.35155" lon="2.74743">
        <ele>127</ele>
        <time>2019-02-16T13:46:00Z</time>
      </trkpt>
      <trkpt lat="48.3516" lon="2.74741">
        <ele>127</ele>
        <time>2019-02-16T13:46:05Z</time>
      </trkpt>
      <trkpt lat="48.35165" lon="2.74738">
        <ele>127</ele>
        <time>2019-02-16T13:46:10Z</time>
      </trkpt>
      <trkpt lat="48.35169" lon="2.74733">
        <ele>127</ele>
        <time>2019-02-16T13:46:15Z</time>
      </trkpt>
      <trkpt lat="48.35174" lon="2.7473">
        <ele>127</ele>
        <time>2019-02-16T13:46:20Z</time>
      </trkpt>
      <trkpt lat="48.35179" lon="2.74725">
        <ele>127</ele>
        <time>2019-02-16T13:46:25Z</time>
      </trkpt>
      <trkpt lat="48.35185" lon="2.74721">
        <ele>127.19999694824</ele>
        <time>2019-02-16T13:46:30Z</time>
      </trkpt>
      <trkpt lat="48.35192" lon="2.74719">
        <ele>127.40000152588</ele>
        <time>2019-02-16T13:46:35Z</time>
      </trkpt>
      <trkpt lat="48.35198" lon="2.74716">
        <ele>127.59999847412</ele>
        <time>2019-02-16T13:46:40Z</time>
      </trkpt>
      <trkpt lat="48.35203" lon="2.74715">
        <ele>127.40000152588</ele>
        <time>2019-02-16T13:46:45Z</time>
      </trkpt>
      <trkpt lat="48.35204" lon="2.74709">
        <ele>127.59999847412</ele>
        <time>2019-02-16T13:46:50Z</time>
      </trkpt>
      <trkpt lat="48.35204" lon="2.74706">
        <ele>127.59999847412</ele>
        <time>2019-02-16T13:46:55Z</time>
      </trkpt>
      <trkpt lat="48.35204" lon="2.74702">
        <ele>127.80000305176</ele>
        <time>2019-02-16T13:47:00Z</time>
      </trkpt>
      <trkpt lat="48.35206" lon="2.74699">
        <ele>127.80000305176</ele>
        <time>2019-02-16T13:47:05Z</time>
      </trkpt>
      <trkpt lat="48.35208" lon="2.74697">
        <ele>127.80000305176</ele>
        <time>2019-02-16T13:47:10Z</time>
      </trkpt>
      <trkpt lat="48.35214" lon="2.74696">
        <ele>127.80000305176</ele>
        <time>2019-02-16T13:47:15Z</time>
      </trkpt>
      <trkpt lat="48.35219" lon="2.74693">
        <ele>127.80000305176</ele>
        <time>2019-02-16T13:47:20Z</time>
      </trkpt>
      <trkpt lat="48.35223" lon="2.74691">
        <ele>128.19999694824</ele>
        <time>2019-02-16T13:47:25Z</time>
      </trkpt>
      <trkpt lat="48.35225" lon="2.74687">
        <ele>128.39999389648</ele>
        <time>2019-02-16T13:47:30Z</time>
      </trkpt>
      <trkpt lat="48.3523" lon="2.74685">
        <ele>128.60000610352</ele>
        <time>2019-02-16T13:47:35Z</time>
      </trkpt>
      <trkpt lat="48.35234" lon="2.74681">
        <ele>128.60000610352</ele>
        <time>2019-02-16T13:47:40Z</time>
      </trkpt>
      <trkpt lat="48.3524" lon="2.74679">
        <ele>128.80000305176</ele>
        <time>2019-02-16T13:47:45Z</time>
      </trkpt>
      <trkpt lat="48.35245" lon="2.74676">
        <ele>129</ele>
        <time>2019-02-16T13:47:50Z</time>
      </trkpt>
      <trkpt lat="48.3525" lon="2.74669">
        <ele>129.19999694824</ele>
        <time>2019-02-16T13:47:55Z</time>
      </trkpt>
      <trkpt lat="48.35254" lon="2.74663">
        <ele>129.39999389648</ele>
        <time>2019-02-16T13:48:00Z</time>
      </trkpt>
      <trkpt lat="48.35259" lon="2.7466">
        <ele>129.39999389648</ele>
        <time>2019-02-16T13:48:05Z</time>
      </trkpt>
      <trkpt lat="48.35262" lon="2.74656">
        <ele>129.80000305176</ele>
        <time>2019-02-16T13:48:10Z</time>
      </trkpt>
      <trkpt lat="48.35265" lon="2.74654">
        <ele>130</ele>
        <time>2019-02-16T13:48:15Z</time>
      </trkpt>
      <trkpt lat="48.35269" lon="2.74652">
        <ele>130.19999694824</ele>
        <time>2019-02-16T13:48:20Z</time>
      </trkpt>
      <trkpt lat="48.35271" lon="2.74646">
        <ele>130.39999389648</ele>
        <time>2019-02-16T13:48:25Z</time>
      </trkpt>
      <trkpt lat="48.35274" lon="2.74639">
        <ele>130.39999389648</ele>
        <time>2019-02-16T13:48:30Z</time>
      </trkpt>
      <trkpt lat="48.3528" lon="2.7463">
        <ele>130.80000305176</ele>
        <time>2019-02-16T13:48:35Z</time>
      </trkpt>
      <trkpt lat="48.35283" lon="2.74624">
        <ele>131.19999694824</ele>
        <time>2019-02-16T13:48:40Z</time>
      </trkpt>
      <trkpt lat="48.35286" lon="2.74618">
        <ele>131.39999389648</ele>
        <time>2019-02-16T13:48:45Z</time>
      </trkpt>
      <trkpt lat="48.35289" lon="2.74611">
        <ele>131.80000305176</ele>
        <time>2019-02-16T13:48:50Z</time>
      </trkpt>
      <trkpt lat="48.35293" lon="2.74609">
        <ele>132</ele>
        <time>2019-02-16T13:48:55Z</time>
      </trkpt>
      <trkpt lat="48.35295" lon="2.74605">
        <ele>132.19999694824</ele>
        <time>2019-02-16T13:49:00Z</time>
      </trkpt>
      <trkpt lat="48.35294" lon="2.74598">
        <ele>132.39999389648</ele>
        <time>2019-02-16T13:49:05Z</time>
      </trkpt>
      <trkpt lat="48.35296" lon="2.74589">
        <ele>132.60000610352</ele>
        <time>2019-02-16T13:49:10Z</time>
      </trkpt>
      <trkpt lat="48.35298" lon="2.74584">
        <ele>132.80000305176</ele>
        <time>2019-02-16T13:49:15Z</time>
      </trkpt>
      <trkpt lat="48.35303" lon="2.74578">
        <ele>133</ele>
        <time>2019-02-16T13:49:20Z</time>
      </trkpt>
      <trkpt lat="48.35305" lon="2.74572">
        <ele>133.19999694824</ele>
        <time>2019-02-16T13:49:25Z</time>
      </trkpt>
      <trkpt lat="48.35306" lon="2.74568">
        <ele>133.39999389648</ele>
        <time>2019-02-16T13:49:30Z</time>
      </trkpt>
      <trkpt lat="48.35308" lon="2.74563">
        <ele>133.60000610352</ele>
        <time>2019-02-16T13:49:35Z</time>
      </trkpt>
      <trkpt lat="48.35311" lon="2.74557">
        <ele>133.80000305176</ele>
        <time>2019-02-16T13:49:40Z</time>
      </trkpt>
      <trkpt lat="48.35313" lon="2.74552">
        <ele>134.19999694824</ele>
        <time>2019-02-16T13:49:45Z</time>
      </trkpt>
      <trkpt lat="48.35314" lon="2.74549">
        <ele>134.39999389648</ele>
        <time>2019-02-16T13:49:50Z</time>
      </trkpt>
      <trkpt lat="48.35313" lon="2.74545">
        <ele>134.80000305176</ele>
        <time>2019-02-16T13:49:55Z</time>
      </trkpt>
      <trkpt lat="48.35314" lon="2.74539">
        <ele>135</ele>
        <time>2019-02-16T13:50:00Z</time>
      </trkpt>
      <trkpt lat="48.35316" lon="2.74533">
        <ele>135.19999694824</ele>
        <time>2019-02-16T13:50:05Z</time>
      </trkpt>
      <trkpt lat="48.35319" lon="2.74527">
        <ele>135.39999389648</ele>
        <time>2019-02-16T13:50:10Z</time>
      </trkpt>
      <trkpt lat="48.35324" lon="2.74518">
        <ele>135.60000610352</ele>
        <time>2019-02-16T13:50:15Z</time>
      </trkpt>
      <trkpt lat="48.35328" lon="2.74508">
        <ele>135.60000610352</ele>
        <time>2019-02-16T13:50:20Z</time>
      </trkpt>
      <trkpt lat="48.3533" lon="2.74499">
        <ele>135.80000305176</ele>
        <time>2019-02-16T13:50:25Z</time>
      </trkpt>
      <trkpt lat="48.35331" lon="2.74491">
        <ele>136</ele>
        <time>2019-02-16T13:50:30Z</time>
      </trkpt>
      <trkpt lat="48.35331" lon="2.74484">
        <ele>136.19999694824</ele>
        <time>2019-02-16T13:50:35Z</time>
      </trkpt>
      <trkpt lat="48.35334" lon="2.74477">
        <ele>136.19999694824</ele>
        <time>2019-02-16T13:50:40Z</time>
      </trkpt>
      <trkpt lat="48.35337" lon="2.7447">
        <ele>136.60000610352</ele>
        <time>2019-02-16T13:50:45Z</time>
      </trkpt>
      <trkpt lat="48.35338" lon="2.74463">
        <ele>136.80000305176</ele>
        <time>2019-02-16T13:50:50Z</time>
      </trkpt>
      <trkpt lat="48.35339" lon="2.74459">
        <ele>136.80000305176</ele>
        <time>2019-02-16T13:50:55Z</time>
      </trkpt>
      <trkpt lat="48.3534" lon="2.74453">
        <ele>136.80000305176</ele>
        <time>2019-02-16T13:51:00Z</time>
      </trkpt>
      <trkpt lat="48.35343" lon="2.74445">
        <ele>136.80000305176</ele>
        <time>2019-02-16T13:51:05Z</time>
      </trkpt>
      <trkpt lat="48.35346" lon="2.74438">
        <ele>137.19999694824</ele>
        <time>2019-02-16T13:51:10Z</time>
      </trkpt>
      <trkpt lat="48.35348" lon="2.74431">
        <ele>137.19999694824</ele>
        <time>2019-02-16T13:51:15Z</time>
      </trkpt>
      <trkpt lat="48.35352" lon="2.74424">
        <ele>137.19999694824</ele>
        <time>2019-02-16T13:51:20Z</time>
      </trkpt>
      <trkpt lat="48.35355" lon="2.74418">
        <ele>137.60000610352</ele>
        <time>2019-02-16T13:51:25Z</time>
      </trkpt>
      <trkpt lat="48.35357" lon="2.74412">
        <ele>137.60000610352</ele>
        <time>2019-02-16T13:51:30Z</time>
      </trkpt>
      <trkpt lat="48.35359" lon="2.74407">
        <ele>137.80000305176</ele>
        <time>2019-02-16T13:51:35Z</time>
      </trkpt>
      <trkpt lat="48.3536" lon="2.74404">
        <ele>138</ele>
        <time>2019-02-16T13:51:40Z</time>
      </trkpt>
      <trkpt lat="48.35362" lon="2.74397">
        <ele>138</ele>
        <time>2019-02-16T13:51:45Z</time>
      </trkpt>
      <trkpt lat="48.35365" lon="2.74391">
        <ele>138</ele>
        <time>2019-02-16T13:51:50Z</time>
      </trkpt>
      <trkpt lat="48.35368" lon="2.74386">
        <ele>138.19999694824</ele>
        <time>2019-02-16T13:51:55Z</time>
      </trkpt>
      <trkpt lat="48.35371" lon="2.74375">
        <ele>138.39999389648</ele>
        <time>2019-02-16T13:52:00Z</time>
      </trkpt>
      <trkpt lat="48.35372" lon="2.74368">
        <ele>138.60000610352</ele>
        <time>2019-02-16T13:52:05Z</time>
      </trkpt>
      <trkpt lat="48.35373" lon="2.74361">
        <ele>138.60000610352</ele>
        <time>2019-02-16T13:52:10Z</time>
      </trkpt>
      <trkpt lat="48.35374" lon="2.74354">
        <ele>138.80000305176</ele>
        <time>2019-02-16T13:52:15Z</time>
      </trkpt>
      <trkpt lat="48.35376" lon="2.7435">
        <ele>139.19999694824</ele>
        <time>2019-02-16T13:52:20Z</time>
      </trkpt>
      <trkpt lat="48.35378" lon="2.74346">
        <ele>139.19999694824</ele>
        <time>2019-02-16T13:52:25Z</time>
      </trkpt>
      <trkpt lat="48.35378" lon="2.74342">
        <ele>139.60000610352</ele>
        <time>2019-02-16T13:52:30Z</time>
      </trkpt>
      <trkpt lat="48.3538" lon="2.74335">
        <ele>140</ele>
        <time>2019-02-16T13:52:35Z</time>
      </trkpt>
      <trkpt lat="48.35382" lon="2.74327">
        <ele>140.19999694824</ele>
        <time>2019-02-16T13:52:40Z</time>
      </trkpt>
      <trkpt lat="48.35387" lon="2.74318">
        <ele>140.19999694824</ele>
        <time>2019-02-16T13:52:45Z</time>
      </trkpt>
      <trkpt lat="48.35391" lon="2.74309">
        <ele>140</ele>
        <time>2019-02-16T13:52:50Z</time>
      </trkpt>
      <trkpt lat="48.35392" lon="2.74301">
        <ele>140</ele>
        <time>2019-02-16T13:52:55Z</time>
      </trkpt>
      <trkpt lat="48.35394" lon="2.74292">
        <ele>140</ele>
        <time>2019-02-16T13:53:00Z</time>
      </trkpt>
      <trkpt lat="48.35394" lon="2.74285">
        <ele>140</ele>
        <time>2019-02-16T13:53:05Z</time>
      </trkpt>
      <trkpt lat="48.35394" lon="2.74278">
        <ele>139.80000305176</ele>
        <time>2019-02-16T13:53:10Z</time>
      </trkpt>
      <trkpt lat="48.35394" lon="2.74272">
        <ele>140</ele>
        <time>2019-02-16T13:53:15Z</time>
      </trkpt>
      <trkpt lat="48.35396" lon="2.74267">
        <ele>140.19999694824</ele>
        <time>2019-02-16T13:53:20Z</time>
      </trkpt>
      <trkpt lat="48.35398" lon="2.74261">
        <ele>140.39999389648</ele>
        <time>2019-02-16T13:53:25Z</time>
      </trkpt>
      <trkpt lat="48.35397" lon="2.74253">
        <ele>140.60000610352</ele>
        <time>2019-02-16T13:53:30Z</time>
      </trkpt>
      <trkpt lat="48.35396" lon="2.74245">
        <ele>140.80000305176</ele>
        <time>2019-02-16T13:53:35Z</time>
      </trkpt>
      <trkpt lat="48.35397" lon="2.74235">
        <ele>141.19999694824</ele>
        <time>2019-02-16T13:53:40Z</time>
      </trkpt>
      <trkpt lat="48.354" lon="2.74226">
        <ele>141.39999389648</ele>
        <time>2019-02-16T13:53:45Z</time>
      </trkpt>
      <trkpt lat="48.35402" lon="2.7422">
        <ele>141.80000305176</ele>
        <time>2019-02-16T13:53:50Z</time>
      </trkpt>
      <trkpt lat="48.35404" lon="2.74216">
        <ele>142</ele>
        <time>2019-02-16T13:53:55Z</time>
      </trkpt>
      <trkpt lat="48.3541" lon="2.74213">
        <ele>142.60000610352</ele>
        <time>2019-02-16T13:54:00Z</time>
      </trkpt>
      <trkpt lat="48.35416" lon="2.74208">
        <ele>143.19999694824</ele>
        <time>2019-02-16T13:54:05Z</time>
      </trkpt>
      <trkpt lat="48.35421" lon="2.74203">
        <ele>143.80000305176</ele>
        <time>2019-02-16T13:54:10Z</time>
      </trkpt>
      <trkpt lat="48.35423" lon="2.74199">
        <ele>144</ele>
        <time>2019-02-16T13:54:15Z</time>
      </trkpt>
      <trkpt lat="48.35428" lon="2.74195">
        <ele>144.39999389648</ele>
        <time>2019-02-16T13:54:20Z</time>
      </trkpt>
      <trkpt lat="48.35429" lon="2.74194">
        <ele>145</ele>
        <time>2019-02-16T13:54:25Z</time>
      </trkpt>
      <trkpt lat="48.35436" lon="2.74193">
        <ele>145.39999389648</ele>
        <time>2019-02-16T13:54:30Z</time>
      </trkpt>
      <trkpt lat="48.35438" lon="2.74193">
        <ele>145.39999389648</ele>
        <time>2019-02-16T13:54:35Z</time>
      </trkpt>
      <trkpt lat="48.35443" lon="2.74195">
        <ele>146.19999694824</ele>
        <time>2019-02-16T13:54:40Z</time>
      </trkpt>
      <trkpt lat="48.35448" lon="2.74195">
        <ele>146.80000305176</ele>
        <time>2019-02-16T13:54:45Z</time>
      </trkpt>
      <trkpt lat="48.35452" lon="2.74195">
        <ele>147</ele>
        <time>2019-02-16T13:54:50Z</time>
      </trkpt>
      <trkpt lat="48.35457" lon="2.74197">
        <ele>147.39999389648</ele>
        <time>2019-02-16T13:54:55Z</time>
      </trkpt>
      <trkpt lat="48.3546" lon="2.74198">
        <ele>148</ele>
        <time>2019-02-16T13:55:00Z</time>
      </trkpt>
      <trkpt lat="48.35469" lon="2.74201">
        <ele>148.39999389648</ele>
        <time>2019-02-16T13:55:05Z</time>
      </trkpt>
      <trkpt lat="48.35474" lon="2.74201">
        <ele>148.60000610352</ele>
        <time>2019-02-16T13:55:10Z</time>
      </trkpt>
      <trkpt lat="48.35478" lon="2.74198">
        <ele>148.80000305176</ele>
        <time>2019-02-16T13:55:15Z</time>
      </trkpt>
      <trkpt lat="48.35478" lon="2.74199">
        <ele>149.19999694824</ele>
        <time>2019-02-16T13:55:20Z</time>
      </trkpt>
      <trkpt lat="48.3548" lon="2.742">
        <ele>149.19999694824</ele>
        <time>2019-02-16T13:55:25Z</time>
      </trkpt>
      <trkpt lat="48.35486" lon="2.74198">
        <ele>149.39999389648</ele>
        <time>2019-02-16T13:55:30Z</time>
      </trkpt>
      <trkpt lat="48.35487" lon="2.742">
        <ele>149.39999389648</ele>
        <time>2019-02-16T13:55:35Z</time>
      </trkpt>
      <trkpt lat="48.35487" lon="2.74201">
        <ele>149.39999389648</ele>
        <time>2019-02-16T13:55:40Z</time>
      </trkpt>
      <trkpt lat="48.35487" lon="2.74204">
        <ele>149.39999389648</ele>
        <time>2019-02-16T13:55:45Z</time>
      </trkpt>
      <trkpt lat="48.35487" lon="2.74205">
        <ele>149.19999694824</ele>
        <time>2019-02-16T13:55:50Z</time>
      </trkpt>
      <trkpt lat="48.35488" lon="2.74206">
        <ele>149.19999694824</ele>
        <time>2019-02-16T13:55:55Z</time>
      </trkpt>
      <trkpt lat="48.35488" lon="2.74206">
        <ele>149.39999389648</ele>
        <time>2019-02-16T13:56:00Z</time>
      </trkpt>
      <trkpt lat="48.35488" lon="2.74206">
        <ele>149.39999389648</ele>
        <time>2019-02-16T13:56:05Z</time>
      </trkpt>
      <trkpt lat="48.35488" lon="2.74206">
        <ele>149.60000610352</ele>
        <time>2019-02-16T13:56:10Z</time>
      </trkpt>
      <trkpt lat="48.35487" lon="2.74207">
        <ele>149.39999389648</ele>
        <time>2019-02-16T13:56:15Z</time>
      </trkpt>
      <trkpt lat="48.35486" lon="2.74208">
        <ele>149.39999389648</ele>
        <time>2019-02-16T13:56:20Z</time>
      </trkpt>
      <trkpt lat="48.35485" lon="2.74208">
        <ele>149.39999389648</ele>
        <time>2019-02-16T13:56:25Z</time>
      </trkpt>
      <trkpt lat="48.35485" lon="2.74208">
        <ele>149.39999389648</ele>
        <time>2019-02-16T13:56:30Z</time>
      </trkpt>
      <trkpt lat="48.35485" lon="2.74208">
        <ele>149.39999389648</ele>
        <time>2019-02-16T13:56:35Z</time>
      </trkpt>
      <trkpt lat="48.35484" lon="2.74209">
        <ele>149.39999389648</ele>
        <time>2019-02-16T13:56:40Z</time>
      </trkpt>
      <trkpt lat="48.35484" lon="2.7421">
        <ele>149.19999694824</ele>
        <time>2019-02-16T13:56:45Z</time>
      </trkpt>
      <trkpt lat="48.35484" lon="2.74211">
        <ele>149.19999694824</ele>
        <time>2019-02-16T13:56:50Z</time>
      </trkpt>
      <trkpt lat="48.35485" lon="2.74211">
        <ele>149.19999694824</ele>
        <time>2019-02-16T13:56:55Z</time>
      </trkpt>
      <trkpt lat="48.35485" lon="2.74211">
        <ele>149</ele>
        <time>2019-02-16T13:57:00Z</time>
      </trkpt>
      <trkpt lat="48.35485" lon="2.74211">
        <ele>149</ele>
        <time>2019-02-16T13:57:05Z</time>
      </trkpt>
      <trkpt lat="48.35486" lon="2.74211">
        <ele>149</ele>
        <time>2019-02-16T13:57:10Z</time>
      </trkpt>
      <trkpt lat="48.35486" lon="2.7421">
        <ele>149</ele>
        <time>2019-02-16T13:57:15Z</time>
      </trkpt>
      <trkpt lat="48.35486" lon="2.7421">
        <ele>149</ele>
        <time>2019-02-16T13:57:20Z</time>
      </trkpt>
      <trkpt lat="48.35485" lon="2.7421">
        <ele>149</ele>
        <time>2019-02-16T13:57:25Z</time>
      </trkpt>
      <trkpt lat="48.35484" lon="2.74211">
        <ele>149</ele>
        <time>2019-02-16T13:57:30Z</time>
      </trkpt>
      <trkpt lat="48.35482" lon="2.74212">
        <ele>149</ele>
        <time>2019-02-16T13:57:35Z</time>
      </trkpt>
      <trkpt lat="48.35482" lon="2.74212">
        <ele>149</ele>
        <time>2019-02-16T13:57:40Z</time>
      </trkpt>
      <trkpt lat="48.35483" lon="2.74212">
        <ele>149.19999694824</ele>
        <time>2019-02-16T13:57:45Z</time>
      </trkpt>
      <trkpt lat="48.35484" lon="2.74211">
        <ele>149.19999694824</ele>
        <time>2019-02-16T13:57:50Z</time>
      </trkpt>
      <trkpt lat="48.35485" lon="2.74211">
        <ele>149.39999389648</ele>
        <time>2019-02-16T13:57:55Z</time>
      </trkpt>
      <trkpt lat="48.35486" lon="2.74212">
        <ele>149.39999389648</ele>
        <time>2019-02-16T13:58:00Z</time>
      </trkpt>
      <trkpt lat="48.35489" lon="2.74211">
        <ele>149.39999389648</ele>
        <time>2019-02-16T13:58:05Z</time>
      </trkpt>
      <trkpt lat="48.35489" lon="2.74211">
        <ele>149.39999389648</ele>
        <time>2019-02-16T13:58:10Z</time>
      </trkpt>
      <trkpt lat="48.35489" lon="2.74211">
        <ele>149.39999389648</ele>
        <time>2019-02-16T13:58:15Z</time>
      </trkpt>
      <trkpt lat="48.3549" lon="2.7421">
        <ele>149.39999389648</ele>
        <time>2019-02-16T13:58:20Z</time>
      </trkpt>
      <trkpt lat="48.3549" lon="2.7421">
        <ele>149.39999389648</ele>
        <time>2019-02-16T13:58:25Z</time>
      </trkpt>
      <trkpt lat="48.3549" lon="2.7421">
        <ele>149.39999389648</ele>
        <time>2019-02-16T13:58:30Z</time>
      </trkpt>
      <trkpt lat="48.35491" lon="2.74209">
        <ele>149.39999389648</ele>
        <time>2019-02-16T13:58:35Z</time>
      </trkpt>
      <trkpt lat="48.3549" lon="2.74209">
        <ele>149.39999389648</ele>
        <time>2019-02-16T13:58:40Z</time>
      </trkpt>
      <trkpt lat="48.35491" lon="2.74208">
        <ele>149.39999389648</ele>
        <time>2019-02-16T13:58:45Z</time>
      </trkpt>
      <trkpt lat="48.35493" lon="2.74207">
        <ele>149.39999389648</ele>
        <time>2019-02-16T13:58:50Z</time>
      </trkpt>
      <trkpt lat="48.35493" lon="2.74206">
        <ele>149.39999389648</ele>
        <time>2019-02-16T13:58:55Z</time>
      </trkpt>
      <trkpt lat="48.35494" lon="2.74205">
        <ele>149.39999389648</ele>
        <time>2019-02-16T13:59:00Z</time>
      </trkpt>
      <trkpt lat="48.35495" lon="2.74204">
        <ele>149.39999389648</ele>
        <time>2019-02-16T13:59:05Z</time>
      </trkpt>
      <trkpt lat="48.35494" lon="2.74204">
        <ele>149.39999389648</ele>
        <time>2019-02-16T13:59:10Z</time>
      </trkpt>
      <trkpt lat="48.35493" lon="2.74204">
        <ele>149.39999389648</ele>
        <time>2019-02-16T13:59:15Z</time>
      </trkpt>
      <trkpt lat="48.35492" lon="2.74205">
        <ele>149.39999389648</ele>
        <time>2019-02-16T13:59:20Z</time>
      </trkpt>
      <trkpt lat="48.35491" lon="2.74205">
        <ele>149.39999389648</ele>
        <time>2019-02-16T13:59:25Z</time>
      </trkpt>
      <trkpt lat="48.35491" lon="2.74205">
        <ele>149.39999389648</ele>
        <time>2019-02-16T13:59:30Z</time>
      </trkpt>
      <trkpt lat="48.3549" lon="2.74205">
        <ele>149.39999389648</ele>
        <time>2019-02-16T13:59:35Z</time>
      </trkpt>
      <trkpt lat="48.35488" lon="2.74207">
        <ele>149.39999389648</ele>
        <time>2019-02-16T13:59:40Z</time>
      </trkpt>
      <trkpt lat="48.35488" lon="2.74207">
        <ele>149.39999389648</ele>
        <time>2019-02-16T13:59:45Z</time>
      </trkpt>
      <trkpt lat="48.35487" lon="2.74207">
        <ele>149.39999389648</ele>
        <time>2019-02-16T13:59:50Z</time>
      </trkpt>
      <trkpt lat="48.35486" lon="2.74208">
        <ele>149.39999389648</ele>
        <time>2019-02-16T13:59:55Z</time>
      </trkpt>
      <trkpt lat="48.35485" lon="2.74208">
        <ele>149.39999389648</ele>
        <time>2019-02-16T14:00:00Z</time>
      </trkpt>
      <trkpt lat="48.35486" lon="2.74207">
        <ele>149.39999389648</ele>
        <time>2019-02-16T14:00:05Z</time>
      </trkpt>
      <trkpt lat="48.35486" lon="2.74208">
        <ele>149.39999389648</ele>
        <time>2019-02-16T14:00:10Z</time>
      </trkpt>
      <trkpt lat="48.35486" lon="2.74209">
        <ele>149.39999389648</ele>
        <time>2019-02-16T14:00:15Z</time>
      </trkpt>
      <trkpt lat="48.35485" lon="2.74211">
        <ele>149.39999389648</ele>
        <time>2019-02-16T14:00:20Z</time>
      </trkpt>
      <trkpt lat="48.35486" lon="2.74212">
        <ele>149.39999389648</ele>
        <time>2019-02-16T14:00:25Z</time>
      </trkpt>
      <trkpt lat="48.35487" lon="2.74212">
        <ele>149.39999389648</ele>
        <time>2019-02-16T14:00:30Z</time>
      </trkpt>
      <trkpt lat="48.35487" lon="2.74212">
        <ele>149.39999389648</ele>
        <time>2019-02-16T14:00:35Z</time>
      </trkpt>
      <trkpt lat="48.35489" lon="2.74211">
        <ele>149.39999389648</ele>
        <time>2019-02-16T14:00:40Z</time>
      </trkpt>
      <trkpt lat="48.35488" lon="2.74212">
        <ele>149.39999389648</ele>
        <time>2019-02-16T14:00:45Z</time>
      </trkpt>
      <trkpt lat="48.35488" lon="2.74213">
        <ele>149.39999389648</ele>
        <time>2019-02-16T14:00:50Z</time>
      </trkpt>
      <trkpt lat="48.35488" lon="2.74213">
        <ele>149.39999389648</ele>
        <time>2019-02-16T14:00:55Z</time>
      </trkpt>
      <trkpt lat="48.35488" lon="2.74212">
        <ele>149.39999389648</ele>
        <time>2019-02-16T14:01:00Z</time>
      </trkpt>
      <trkpt lat="48.35488" lon="2.74211">
        <ele>149.39999389648</ele>
        <time>2019-02-16T14:01:05Z</time>
      </trkpt>
      <trkpt lat="48.35486" lon="2.74212">
        <ele>149.39999389648</ele>
        <time>2019-02-16T14:01:10Z</time>
      </trkpt>
      <trkpt lat="48.35485" lon="2.74211">
        <ele>149.39999389648</ele>
        <time>2019-02-16T14:01:15Z</time>
      </trkpt>
      <trkpt lat="48.35485" lon="2.74211">
        <ele>149.39999389648</ele>
        <time>2019-02-16T14:01:20Z</time>
      </trkpt>
      <trkpt lat="48.35485" lon="2.7421">
        <ele>149.39999389648</ele>
        <time>2019-02-16T14:01:25Z</time>
      </trkpt>
      <trkpt lat="48.35485" lon="2.7421">
        <ele>149.39999389648</ele>
        <time>2019-02-16T14:01:30Z</time>
      </trkpt>
      <trkpt lat="48.35484" lon="2.7421">
        <ele>149.39999389648</ele>
        <time>2019-02-16T14:01:35Z</time>
      </trkpt>
      <trkpt lat="48.35484" lon="2.7421">
        <ele>149.39999389648</ele>
        <time>2019-02-16T14:01:40Z</time>
      </trkpt>
      <trkpt lat="48.35484" lon="2.74209">
        <ele>149.39999389648</ele>
        <time>2019-02-16T14:01:45Z</time>
      </trkpt>
      <trkpt lat="48.35485" lon="2.74209">
        <ele>149.39999389648</ele>
        <time>2019-02-16T14:01:50Z</time>
      </trkpt>
      <trkpt lat="48.35485" lon="2.74209">
        <ele>149.39999389648</ele>
        <time>2019-02-16T14:01:55Z</time>
      </trkpt>
      <trkpt lat="48.35485" lon="2.7421">
        <ele>149.39999389648</ele>
        <time>2019-02-16T14:02:00Z</time>
      </trkpt>
      <trkpt lat="48.35486" lon="2.7421">
        <ele>149.39999389648</ele>
        <time>2019-02-16T14:02:05Z</time>
      </trkpt>
      <trkpt lat="48.35486" lon="2.74211">
        <ele>149.39999389648</ele>
        <time>2019-02-16T14:02:10Z</time>
      </trkpt>
      <trkpt lat="48.35486" lon="2.74212">
        <ele>149.39999389648</ele>
        <time>2019-02-16T14:02:15Z</time>
      </trkpt>
      <trkpt lat="48.35486" lon="2.74212">
        <ele>149.39999389648</ele>
        <time>2019-02-16T14:02:20Z</time>
      </trkpt>
      <trkpt lat="48.35486" lon="2.74212">
        <ele>149.39999389648</ele>
        <time>2019-02-16T14:02:25Z</time>
      </trkpt>
      <trkpt lat="48.35487" lon="2.74212">
        <ele>149.39999389648</ele>
        <time>2019-02-16T14:02:30Z</time>
      </trkpt>
      <trkpt lat="48.35487" lon="2.74212">
        <ele>149.39999389648</ele>
        <time>2019-02-16T14:02:35Z</time>
      </trkpt>
      <trkpt lat="48.35488" lon="2.74212">
        <ele>149.39999389648</ele>
        <time>2019-02-16T14:02:40Z</time>
      </trkpt>
      <trkpt lat="48.35487" lon="2.74213">
        <ele>149.39999389648</ele>
        <time>2019-02-16T14:02:45Z</time>
      </trkpt>
      <trkpt lat="48.35487" lon="2.74212">
        <ele>149.39999389648</ele>
        <time>2019-02-16T14:02:50Z</time>
      </trkpt>
      <trkpt lat="48.35486" lon="2.74211">
        <ele>149.39999389648</ele>
        <time>2019-02-16T14:02:55Z</time>
      </trkpt>
      <trkpt lat="48.35485" lon="2.74211">
        <ele>149.39999389648</ele>
        <time>2019-02-16T14:03:00Z</time>
      </trkpt>
      <trkpt lat="48.35485" lon="2.7421">
        <ele>149.39999389648</ele>
        <time>2019-02-16T14:03:05Z</time>
      </trkpt>
      <trkpt lat="48.35484" lon="2.74207">
        <ele>149.39999389648</ele>
        <time>2019-02-16T14:03:10Z</time>
      </trkpt>
      <trkpt lat="48.35484" lon="2.742">
        <ele>149.39999389648</ele>
        <time>2019-02-16T14:03:15Z</time>
      </trkpt>
      <trkpt lat="48.35486" lon="2.74196">
        <ele>149.39999389648</ele>
        <time>2019-02-16T14:03:20Z</time>
      </trkpt>
      <trkpt lat="48.35489" lon="2.74193">
        <ele>149.39999389648</ele>
        <time>2019-02-16T14:03:25Z</time>
      </trkpt>
      <trkpt lat="48.35491" lon="2.74191">
        <ele>149.39999389648</ele>
        <time>2019-02-16T14:03:30Z</time>
      </trkpt>
      <trkpt lat="48.35494" lon="2.74189">
        <ele>149.39999389648</ele>
        <time>2019-02-16T14:03:35Z</time>
      </trkpt>
      <trkpt lat="48.35498" lon="2.74185">
        <ele>149.39999389648</ele>
        <time>2019-02-16T14:03:40Z</time>
      </trkpt>
      <trkpt lat="48.35501" lon="2.74182">
        <ele>150.39999389648</ele>
        <time>2019-02-16T14:03:45Z</time>
      </trkpt>
      <trkpt lat="48.35505" lon="2.74178">
        <ele>150.80000305176</ele>
        <time>2019-02-16T14:03:50Z</time>
      </trkpt>
      <trkpt lat="48.3551" lon="2.74173">
        <ele>151</ele>
        <time>2019-02-16T14:03:55Z</time>
      </trkpt>
      <trkpt lat="48.35514" lon="2.74167">
        <ele>150.80000305176</ele>
        <time>2019-02-16T14:04:00Z</time>
      </trkpt>
      <trkpt lat="48.35519" lon="2.74162">
        <ele>150.80000305176</ele>
        <time>2019-02-16T14:04:05Z</time>
      </trkpt>
      <trkpt lat="48.35523" lon="2.74155">
        <ele>150.80000305176</ele>
        <time>2019-02-16T14:04:10Z</time>
      </trkpt>
      <trkpt lat="48.35528" lon="2.74149">
        <ele>150.60000610352</ele>
        <time>2019-02-16T14:04:15Z</time>
      </trkpt>
      <trkpt lat="48.35532" lon="2.74143">
        <ele>150.60000610352</ele>
        <time>2019-02-16T14:04:20Z</time>
      </trkpt>
      <trkpt lat="48.35535" lon="2.74137">
        <ele>150.60000610352</ele>
        <time>2019-02-16T14:04:25Z</time>
      </trkpt>
      <trkpt lat="48.35537" lon="2.74129">
        <ele>150.60000610352</ele>
        <time>2019-02-16T14:04:30Z</time>
      </trkpt>
      <trkpt lat="48.35541" lon="2.74123">
        <ele>150.60000610352</ele>
        <time>2019-02-16T14:04:35Z</time>
      </trkpt>
      <trkpt lat="48.35544" lon="2.74115">
        <ele>150.60000610352</ele>
        <time>2019-02-16T14:04:40Z</time>
      </trkpt>
      <trkpt lat="48.35548" lon="2.74109">
        <ele>150.60000610352</ele>
        <time>2019-02-16T14:04:45Z</time>
      </trkpt>
      <trkpt lat="48.35553" lon="2.74101">
        <ele>150.60000610352</ele>
        <time>2019-02-16T14:04:50Z</time>
      </trkpt>
      <trkpt lat="48.35557" lon="2.74093">
        <ele>150.60000610352</ele>
        <time>2019-02-16T14:04:55Z</time>
      </trkpt>
      <trkpt lat="48.35561" lon="2.74086">
        <ele>150.60000610352</ele>
        <time>2019-02-16T14:05:00Z</time>
      </trkpt>
      <trkpt lat="48.35564" lon="2.74078">
        <ele>150.60000610352</ele>
        <time>2019-02-16T14:05:05Z</time>
      </trkpt>
      <trkpt lat="48.35567" lon="2.74072">
        <ele>150.60000610352</ele>
        <time>2019-02-16T14:05:10Z</time>
      </trkpt>
      <trkpt lat="48.3557" lon="2.74064">
        <ele>150.60000610352</ele>
        <time>2019-02-16T14:05:15Z</time>
      </trkpt>
      <trkpt lat="48.35572" lon="2.74056">
        <ele>150.80000305176</ele>
        <time>2019-02-16T14:05:20Z</time>
      </trkpt>
      <trkpt lat="48.35574" lon="2.7405">
        <ele>150.80000305176</ele>
        <time>2019-02-16T14:05:25Z</time>
      </trkpt>
      <trkpt lat="48.35576" lon="2.74044">
        <ele>151</ele>
        <time>2019-02-16T14:05:30Z</time>
      </trkpt>
      <trkpt lat="48.35578" lon="2.74036">
        <ele>151</ele>
        <time>2019-02-16T14:05:35Z</time>
      </trkpt>
      <trkpt lat="48.3558" lon="2.74028">
        <ele>150.80000305176</ele>
        <time>2019-02-16T14:05:40Z</time>
      </trkpt>
      <trkpt lat="48.35581" lon="2.74021">
        <ele>150.80000305176</ele>
        <time>2019-02-16T14:05:45Z</time>
      </trkpt>
      <trkpt lat="48.35582" lon="2.74014">
        <ele>151</ele>
        <time>2019-02-16T14:05:50Z</time>
      </trkpt>
      <trkpt lat="48.35584" lon="2.74004">
        <ele>151</ele>
        <time>2019-02-16T14:05:55Z</time>
      </trkpt>
      <trkpt lat="48.35585" lon="2.73997">
        <ele>151</ele>
        <time>2019-02-16T14:06:00Z</time>
      </trkpt>
      <trkpt lat="48.35585" lon="2.73991">
        <ele>150.80000305176</ele>
        <time>2019-02-16T14:06:05Z</time>
      </trkpt>
      <trkpt lat="48.35586" lon="2.73986">
        <ele>150.80000305176</ele>
        <time>2019-02-16T14:06:10Z</time>
      </trkpt>
      <trkpt lat="48.35585" lon="2.7398">
        <ele>150.80000305176</ele>
        <time>2019-02-16T14:06:15Z</time>
      </trkpt>
      <trkpt lat="48.35585" lon="2.73974">
        <ele>151</ele>
        <time>2019-02-16T14:06:20Z</time>
      </trkpt>
      <trkpt lat="48.35585" lon="2.73964">
        <ele>151.19999694824</ele>
        <time>2019-02-16T14:06:25Z</time>
      </trkpt>
      <trkpt lat="48.35585" lon="2.73954">
        <ele>151</ele>
        <time>2019-02-16T14:06:30Z</time>
      </trkpt>
      <trkpt lat="48.35586" lon="2.73944">
        <ele>150.80000305176</ele>
        <time>2019-02-16T14:06:35Z</time>
      </trkpt>
      <trkpt lat="48.35589" lon="2.73934">
        <ele>150.60000610352</ele>
        <time>2019-02-16T14:06:40Z</time>
      </trkpt>
      <trkpt lat="48.35593" lon="2.73925">
        <ele>150.60000610352</ele>
        <time>2019-02-16T14:06:45Z</time>
      </trkpt>
      <trkpt lat="48.35597" lon="2.73918">
        <ele>150.60000610352</ele>
        <time>2019-02-16T14:06:50Z</time>
      </trkpt>
      <trkpt lat="48.356" lon="2.73911">
        <ele>150.60000610352</ele>
        <time>2019-02-16T14:06:55Z</time>
      </trkpt>
      <trkpt lat="48.35602" lon="2.73903">
        <ele>150.60000610352</ele>
        <time>2019-02-16T14:07:00Z</time>
      </trkpt>
      <trkpt lat="48.35604" lon="2.73894">
        <ele>150.39999389648</ele>
        <time>2019-02-16T14:07:05Z</time>
      </trkpt>
      <trkpt lat="48.35607" lon="2.73888">
        <ele>150.39999389648</ele>
        <time>2019-02-16T14:07:10Z</time>
      </trkpt>
      <trkpt lat="48.35609" lon="2.73883">
        <ele>150.19999694824</ele>
        <time>2019-02-16T14:07:15Z</time>
      </trkpt>
      <trkpt lat="48.35612" lon="2.73878">
        <ele>150.19999694824</ele>
        <time>2019-02-16T14:07:20Z</time>
      </trkpt>
      <trkpt lat="48.35615" lon="2.73874">
        <ele>150.39999389648</ele>
        <time>2019-02-16T14:07:25Z</time>
      </trkpt>
      <trkpt lat="48.35619" lon="2.7387">
        <ele>150.39999389648</ele>
        <time>2019-02-16T14:07:30Z</time>
      </trkpt>
      <trkpt lat="48.35623" lon="2.73866">
        <ele>150.60000610352</ele>
        <time>2019-02-16T14:07:35Z</time>
      </trkpt>
      <trkpt lat="48.35627" lon="2.73863">
        <ele>150.80000305176</ele>
        <time>2019-02-16T14:07:40Z</time>
      </trkpt>
      <trkpt lat="48.35632" lon="2.7386">
        <ele>150.80000305176</ele>
        <time>2019-02-16T14:07:45Z</time>
      </trkpt>
      <trkpt lat="48.35636" lon="2.73859">
        <ele>151</ele>
        <time>2019-02-16T14:07:50Z</time>
      </trkpt>
      <trkpt lat="48.35639" lon="2.73858">
        <ele>151</ele>
        <time>2019-02-16T14:07:55Z</time>
      </trkpt>
      <trkpt lat="48.35641" lon="2.73858">
        <ele>150.80000305176</ele>
        <time>2019-02-16T14:08:00Z</time>
      </trkpt>
      <trkpt lat="48.35646" lon="2.73859">
        <ele>150.39999389648</ele>
        <time>2019-02-16T14:08:05Z</time>
      </trkpt>
      <trkpt lat="48.3565" lon="2.73859">
        <ele>149.80000305176</ele>
        <time>2019-02-16T14:08:10Z</time>
      </trkpt>
      <trkpt lat="48.35654" lon="2.73863">
        <ele>149</ele>
        <time>2019-02-16T14:08:15Z</time>
      </trkpt>
      <trkpt lat="48.35655" lon="2.73865">
        <ele>148</ele>
        <time>2019-02-16T14:08:20Z</time>
      </trkpt>
      <trkpt lat="48.35657" lon="2.73872">
        <ele>147.39999389648</ele>
        <time>2019-02-16T14:08:25Z</time>
      </trkpt>
      <trkpt lat="48.35657" lon="2.73875">
        <ele>146.80000305176</ele>
        <time>2019-02-16T14:08:30Z</time>
      </trkpt>
      <trkpt lat="48.35657" lon="2.73878">
        <ele>146.39999389648</ele>
        <time>2019-02-16T14:08:35Z</time>
      </trkpt>
      <trkpt lat="48.35658" lon="2.73881">
        <ele>146</ele>
        <time>2019-02-16T14:08:40Z</time>
      </trkpt>
      <trkpt lat="48.3566" lon="2.7388">
        <ele>145.19999694824</ele>
        <time>2019-02-16T14:08:45Z</time>
      </trkpt>
      <trkpt lat="48.3566" lon="2.73881">
        <ele>144.60000610352</ele>
        <time>2019-02-16T14:08:50Z</time>
      </trkpt>
      <trkpt lat="48.3566" lon="2.73882">
        <ele>143.60000610352</ele>
        <time>2019-02-16T14:08:55Z</time>
      </trkpt>
      <trkpt lat="48.3566" lon="2.73885">
        <ele>143</ele>
        <time>2019-02-16T14:09:00Z</time>
      </trkpt>
      <trkpt lat="48.35663" lon="2.73887">
        <ele>142</ele>
        <time>2019-02-16T14:09:05Z</time>
      </trkpt>
      <trkpt lat="48.35665" lon="2.73889">
        <ele>141.19999694824</ele>
        <time>2019-02-16T14:09:10Z</time>
      </trkpt>
      <trkpt lat="48.35665" lon="2.73894">
        <ele>140.39999389648</ele>
        <time>2019-02-16T14:09:15Z</time>
      </trkpt>
      <trkpt lat="48.35667" lon="2.73896">
        <ele>139.39999389648</ele>
        <time>2019-02-16T14:09:20Z</time>
      </trkpt>
      <trkpt lat="48.35666" lon="2.73897">
        <ele>139</ele>
        <time>2019-02-16T14:09:25Z</time>
      </trkpt>
      <trkpt lat="48.35666" lon="2.73899">
        <ele>138.39999389648</ele>
        <time>2019-02-16T14:09:30Z</time>
      </trkpt>
      <trkpt lat="48.35669" lon="2.73906">
        <ele>137.80000305176</ele>
        <time>2019-02-16T14:09:35Z</time>
      </trkpt>
      <trkpt lat="48.3567" lon="2.7391">
        <ele>137</ele>
        <time>2019-02-16T14:09:40Z</time>
      </trkpt>
      <trkpt lat="48.35674" lon="2.73914">
        <ele>136.19999694824</ele>
        <time>2019-02-16T14:09:45Z</time>
      </trkpt>
      <trkpt lat="48.35676" lon="2.73916">
        <ele>135.19999694824</ele>
        <time>2019-02-16T14:09:50Z</time>
      </trkpt>
      <trkpt lat="48.35676" lon="2.73917">
        <ele>134.19999694824</ele>
        <time>2019-02-16T14:09:55Z</time>
      </trkpt>
      <trkpt lat="48.35678" lon="2.73919">
        <ele>133.39999389648</ele>
        <time>2019-02-16T14:10:00Z</time>
      </trkpt>
      <trkpt lat="48.3568" lon="2.73919">
        <ele>132.39999389648</ele>
        <time>2019-02-16T14:10:05Z</time>
      </trkpt>
      <trkpt lat="48.35681" lon="2.73918">
        <ele>131.60000610352</ele>
        <time>2019-02-16T14:10:10Z</time>
      </trkpt>
      <trkpt lat="48.35684" lon="2.73917">
        <ele>130.80000305176</ele>
        <time>2019-02-16T14:10:15Z</time>
      </trkpt>
      <trkpt lat="48.35685" lon="2.73917">
        <ele>130.19999694824</ele>
        <time>2019-02-16T14:10:20Z</time>
      </trkpt>
      <trkpt lat="48.35685" lon="2.73916">
        <ele>129.19999694824</ele>
        <time>2019-02-16T14:10:25Z</time>
      </trkpt>
      <trkpt lat="48.35687" lon="2.73913">
        <ele>128.80000305176</ele>
        <time>2019-02-16T14:10:30Z</time>
      </trkpt>
      <trkpt lat="48.35688" lon="2.73911">
        <ele>128.19999694824</ele>
        <time>2019-02-16T14:10:35Z</time>
      </trkpt>
      <trkpt lat="48.35689" lon="2.7391">
        <ele>128</ele>
        <time>2019-02-16T14:10:40Z</time>
      </trkpt>
      <trkpt lat="48.35691" lon="2.73907">
        <ele>127</ele>
        <time>2019-02-16T14:10:45Z</time>
      </trkpt>
      <trkpt lat="48.35693" lon="2.73906">
        <ele>126.19999694824</ele>
        <time>2019-02-16T14:10:50Z</time>
      </trkpt>
      <trkpt lat="48.35695" lon="2.73909">
        <ele>124.80000305176</ele>
        <time>2019-02-16T14:10:55Z</time>
      </trkpt>
      <trkpt lat="48.35695" lon="2.73912">
        <ele>124</ele>
        <time>2019-02-16T14:11:00Z</time>
      </trkpt>
      <trkpt lat="48.35696" lon="2.73913">
        <ele>124.19999694824</ele>
        <time>2019-02-16T14:11:05Z</time>
      </trkpt>
      <trkpt lat="48.35696" lon="2.73913">
        <ele>124.40000152588</ele>
        <time>2019-02-16T14:11:10Z</time>
      </trkpt>
      <trkpt lat="48.35696" lon="2.73914">
        <ele>124.40000152588</ele>
        <time>2019-02-16T14:11:15Z</time>
      </trkpt>
      <trkpt lat="48.35697" lon="2.73915">
        <ele>124.19999694824</ele>
        <time>2019-02-16T14:11:20Z</time>
      </trkpt>
      <trkpt lat="48.35697" lon="2.73914">
        <ele>124.40000152588</ele>
        <time>2019-02-16T14:11:25Z</time>
      </trkpt>
      <trkpt lat="48.35698" lon="2.73914">
        <ele>124.40000152588</ele>
        <time>2019-02-16T14:11:30Z</time>
      </trkpt>
      <trkpt lat="48.35698" lon="2.73914">
        <ele>124.40000152588</ele>
        <time>2019-02-16T14:11:36Z</time>
      </trkpt>
      <trkpt lat="48.35699" lon="2.73914">
        <ele>124.40000152588</ele>
        <time>2019-02-16T14:11:41Z</time>
      </trkpt>
      <trkpt lat="48.35699" lon="2.73914">
        <ele>124.40000152588</ele>
        <time>2019-02-16T14:11:46Z</time>
      </trkpt>
      <trkpt lat="48.35699" lon="2.73914">
        <ele>124.59999847412</ele>
        <time>2019-02-16T14:11:51Z</time>
      </trkpt>
      <trkpt lat="48.357" lon="2.73916">
        <ele>124.59999847412</ele>
        <time>2019-02-16T14:11:56Z</time>
      </trkpt>
      <trkpt lat="48.35699" lon="2.73917">
        <ele>124.40000152588</ele>
        <time>2019-02-16T14:12:01Z</time>
      </trkpt>
      <trkpt lat="48.35699" lon="2.73917">
        <ele>124.40000152588</ele>
        <time>2019-02-16T14:12:06Z</time>
      </trkpt>
      <trkpt lat="48.35699" lon="2.73916">
        <ele>124.40000152588</ele>
        <time>2019-02-16T14:12:11Z</time>
      </trkpt>
      <trkpt lat="48.35699" lon="2.73916">
        <ele>124.40000152588</ele>
        <time>2019-02-16T14:12:16Z</time>
      </trkpt>
      <trkpt lat="48.35699" lon="2.73916">
        <ele>124.40000152588</ele>
        <time>2019-02-16T14:12:21Z</time>
      </trkpt>
      <trkpt lat="48.35699" lon="2.73915">
        <ele>124.40000152588</ele>
        <time>2019-02-16T14:12:26Z</time>
      </trkpt>
      <trkpt lat="48.35699" lon="2.73916">
        <ele>124.40000152588</ele>
        <time>2019-02-16T14:12:31Z</time>
      </trkpt>
      <trkpt lat="48.35699" lon="2.73917">
        <ele>124.40000152588</ele>
        <time>2019-02-16T14:12:36Z</time>
      </trkpt>
      <trkpt lat="48.35699" lon="2.73918">
        <ele>124.40000152588</ele>
        <time>2019-02-16T14:12:41Z</time>
      </trkpt>
      <trkpt lat="48.35699" lon="2.73919">
        <ele>124.40000152588</ele>
        <time>2019-02-16T14:12:46Z</time>
      </trkpt>
      <trkpt lat="48.357" lon="2.73919">
        <ele>124.40000152588</ele>
        <time>2019-02-16T14:12:51Z</time>
      </trkpt>
      <trkpt lat="48.35702" lon="2.73918">
        <ele>124.40000152588</ele>
        <time>2019-02-16T14:12:56Z</time>
      </trkpt>
      <trkpt lat="48.35703" lon="2.73918">
        <ele>121.19999694824</ele>
        <time>2019-02-16T14:13:01Z</time>
      </trkpt>
      <trkpt lat="48.35704" lon="2.73917">
        <ele>120.80000305176</ele>
        <time>2019-02-16T14:13:06Z</time>
      </trkpt>
      <trkpt lat="48.35706" lon="2.73914">
        <ele>119.80000305176</ele>
        <time>2019-02-16T14:13:11Z</time>
      </trkpt>
      <trkpt lat="48.35709" lon="2.73911">
        <ele>119.19999694824</ele>
        <time>2019-02-16T14:13:16Z</time>
      </trkpt>
      <trkpt lat="48.35713" lon="2.73908">
        <ele>118.19999694824</ele>
        <time>2019-02-16T14:13:21Z</time>
      </trkpt>
      <trkpt lat="48.35717" lon="2.73906">
        <ele>117.19999694824</ele>
        <time>2019-02-16T14:13:26Z</time>
      </trkpt>
      <trkpt lat="48.35721" lon="2.73907">
        <ele>116.59999847412</ele>
        <time>2019-02-16T14:13:31Z</time>
      </trkpt>
      <trkpt lat="48.35727" lon="2.73906">
        <ele>115.40000152588</ele>
        <time>2019-02-16T14:13:36Z</time>
      </trkpt>
      <trkpt lat="48.35736" lon="2.73909">
        <ele>114.40000152588</ele>
        <time>2019-02-16T14:13:41Z</time>
      </trkpt>
      <trkpt lat="48.35737" lon="2.73913">
        <ele>113.40000152588</ele>
        <time>2019-02-16T14:13:46Z</time>
      </trkpt>
      <trkpt lat="48.35736" lon="2.73913">
        <ele>113.40000152588</ele>
        <time>2019-02-16T14:13:51Z</time>
      </trkpt>
      <trkpt lat="48.35738" lon="2.73913">
        <ele>113.59999847412</ele>
        <time>2019-02-16T14:13:56Z</time>
      </trkpt>
      <trkpt lat="48.35739" lon="2.73913">
        <ele>113.59999847412</ele>
        <time>2019-02-16T14:14:01Z</time>
      </trkpt>
      <trkpt lat="48.3574" lon="2.73913">
        <ele>113.80000305176</ele>
        <time>2019-02-16T14:14:06Z</time>
      </trkpt>
      <trkpt lat="48.35743" lon="2.73911">
        <ele>113.19999694824</ele>
        <time>2019-02-16T14:14:11Z</time>
      </trkpt>
      <trkpt lat="48.35749" lon="2.73914">
        <ele>112.40000152588</ele>
        <time>2019-02-16T14:14:16Z</time>
      </trkpt>
      <trkpt lat="48.35753" lon="2.73917">
        <ele>111.40000152588</ele>
        <time>2019-02-16T14:14:21Z</time>
      </trkpt>
      <trkpt lat="48.35759" lon="2.73917">
        <ele>110.80000305176</ele>
        <time>2019-02-16T14:14:26Z</time>
      </trkpt>
      <trkpt lat="48.35762" lon="2.73918">
        <ele>110.40000152588</ele>
        <time>2019-02-16T14:14:31Z</time>
      </trkpt>
      <trkpt lat="48.35766" lon="2.73919">
        <ele>110</ele>
        <time>2019-02-16T14:14:36Z</time>
      </trkpt>
      <trkpt lat="48.35769" lon="2.73917">
        <ele>109.80000305176</ele>
        <time>2019-02-16T14:14:41Z</time>
      </trkpt>
      <trkpt lat="48.35774" lon="2.73917">
        <ele>109.40000152588</ele>
        <time>2019-02-16T14:14:46Z</time>
      </trkpt>
      <trkpt lat="48.35777" lon="2.73919">
        <ele>109.40000152588</ele>
        <time>2019-02-16T14:14:51Z</time>
      </trkpt>
      <trkpt lat="48.35783" lon="2.7392">
        <ele>109</ele>
        <time>2019-02-16T14:14:56Z</time>
      </trkpt>
      <trkpt lat="48.35789" lon="2.73921">
        <ele>108.59999847412</ele>
        <time>2019-02-16T14:15:01Z</time>
      </trkpt>
      <trkpt lat="48.35794" lon="2.73924">
        <ele>108.19999694824</ele>
        <time>2019-02-16T14:15:06Z</time>
      </trkpt>
      <trkpt lat="48.35799" lon="2.73926">
        <ele>107.80000305176</ele>
        <time>2019-02-16T14:15:11Z</time>
      </trkpt>
      <trkpt lat="48.35805" lon="2.73927">
        <ele>107.59999847412</ele>
        <time>2019-02-16T14:15:16Z</time>
      </trkpt>
      <trkpt lat="48.35812" lon="2.73929">
        <ele>107.19999694824</ele>
        <time>2019-02-16T14:15:21Z</time>
      </trkpt>
      <trkpt lat="48.3582" lon="2.7393">
        <ele>107.19999694824</ele>
        <time>2019-02-16T14:15:26Z</time>
      </trkpt>
      <trkpt lat="48.35828" lon="2.73932">
        <ele>107</ele>
        <time>2019-02-16T14:15:31Z</time>
      </trkpt>
      <trkpt lat="48.35835" lon="2.73934">
        <ele>107</ele>
        <time>2019-02-16T14:15:36Z</time>
      </trkpt>
      <trkpt lat="48.35842" lon="2.73937">
        <ele>107</ele>
        <time>2019-02-16T14:15:41Z</time>
      </trkpt>
      <trkpt lat="48.35844" lon="2.73941">
        <ele>107.59999847412</ele>
        <time>2019-02-16T14:15:46Z</time>
      </trkpt>
      <trkpt lat="48.35854" lon="2.73939">
        <ele>107.59999847412</ele>
        <time>2019-02-16T14:15:51Z</time>
      </trkpt>
      <trkpt lat="48.35869" lon="2.73941">
        <ele>108.40000152588</ele>
        <time>2019-02-16T14:24:00Z</time>
      </trkpt>
      <trkpt lat="48.35872" lon="2.73937">
        <ele>108.40000152588</ele>
        <time>2019-02-16T14:24:05Z</time>
      </trkpt>
      <trkpt lat="48.35875" lon="2.73932">
        <ele>108.40000152588</ele>
        <time>2019-02-16T14:24:10Z</time>
      </trkpt>
      <trkpt lat="48.35877" lon="2.73928">
        <ele>108.40000152588</ele>
        <time>2019-02-16T14:24:15Z</time>
      </trkpt>
      <trkpt lat="48.3588" lon="2.73925">
        <ele>108.59999847412</ele>
        <time>2019-02-16T14:24:20Z</time>
      </trkpt>
      <trkpt lat="48.35882" lon="2.73921">
        <ele>108.80000305176</ele>
        <time>2019-02-16T14:24:25Z</time>
      </trkpt>
      <trkpt lat="48.35885" lon="2.73914">
        <ele>108.80000305176</ele>
        <time>2019-02-16T14:24:30Z</time>
      </trkpt>
      <trkpt lat="48.35888" lon="2.73908">
        <ele>108.59999847412</ele>
        <time>2019-02-16T14:24:35Z</time>
      </trkpt>
      <trkpt lat="48.35891" lon="2.73902">
        <ele>108.59999847412</ele>
        <time>2019-02-16T14:24:40Z</time>
      </trkpt>
      <trkpt lat="48.35896" lon="2.73891">
        <ele>108.40000152588</ele>
        <time>2019-02-16T14:24:45Z</time>
      </trkpt>
      <trkpt lat="48.35899" lon="2.73881">
        <ele>108.19999694824</ele>
        <time>2019-02-16T14:24:50Z</time>
      </trkpt>
      <trkpt lat="48.35902" lon="2.73873">
        <ele>108</ele>
        <time>2019-02-16T14:24:55Z</time>
      </trkpt>
      <trkpt lat="48.35905" lon="2.73864">
        <ele>107.80000305176</ele>
        <time>2019-02-16T14:25:00Z</time>
      </trkpt>
      <trkpt lat="48.35908" lon="2.73856">
        <ele>107.80000305176</ele>
        <time>2019-02-16T14:25:05Z</time>
      </trkpt>
      <trkpt lat="48.35911" lon="2.73847">
        <ele>107.59999847412</ele>
        <time>2019-02-16T14:25:10Z</time>
      </trkpt>
      <trkpt lat="48.35914" lon="2.7384">
        <ele>107.40000152588</ele>
        <time>2019-02-16T14:25:15Z</time>
      </trkpt>
      <trkpt lat="48.35916" lon="2.73833">
        <ele>107.40000152588</ele>
        <time>2019-02-16T14:25:20Z</time>
      </trkpt>
      <trkpt lat="48.3592" lon="2.73826">
        <ele>107</ele>
        <time>2019-02-16T14:25:25Z</time>
      </trkpt>
      <trkpt lat="48.35923" lon="2.73817">
        <ele>106.80000305176</ele>
        <time>2019-02-16T14:25:30Z</time>
      </trkpt>
      <trkpt lat="48.35926" lon="2.7381">
        <ele>106.59999847412</ele>
        <time>2019-02-16T14:25:35Z</time>
      </trkpt>
      <trkpt lat="48.35929" lon="2.73803">
        <ele>106.40000152588</ele>
        <time>2019-02-16T14:25:40Z</time>
      </trkpt>
      <trkpt lat="48.35932" lon="2.73796">
        <ele>106.19999694824</ele>
        <time>2019-02-16T14:25:45Z</time>
      </trkpt>
      <trkpt lat="48.35936" lon="2.7379">
        <ele>105.80000305176</ele>
        <time>2019-02-16T14:25:50Z</time>
      </trkpt>
      <trkpt lat="48.3594" lon="2.73785">
        <ele>105.80000305176</ele>
        <time>2019-02-16T14:25:55Z</time>
      </trkpt>
      <trkpt lat="48.35943" lon="2.73778">
        <ele>105.59999847412</ele>
        <time>2019-02-16T14:26:00Z</time>
      </trkpt>
      <trkpt lat="48.35945" lon="2.7377">
        <ele>105.40000152588</ele>
        <time>2019-02-16T14:26:05Z</time>
      </trkpt>
      <trkpt lat="48.35948" lon="2.73762">
        <ele>105.40000152588</ele>
        <time>2019-02-16T14:26:10Z</time>
      </trkpt>
      <trkpt lat="48.35951" lon="2.73754">
        <ele>105.19999694824</ele>
        <time>2019-02-16T14:26:15Z</time>
      </trkpt>
      <trkpt lat="48.35954" lon="2.73746">
        <ele>105.19999694824</ele>
        <time>2019-02-16T14:26:20Z</time>
      </trkpt>
      <trkpt lat="48.35957" lon="2.73739">
        <ele>105.19999694824</ele>
        <time>2019-02-16T14:26:25Z</time>
      </trkpt>
      <trkpt lat="48.35961" lon="2.73734">
        <ele>105.19999694824</ele>
        <time>2019-02-16T14:26:30Z</time>
      </trkpt>
      <trkpt lat="48.35964" lon="2.73724">
        <ele>105.19999694824</ele>
        <time>2019-02-16T14:26:35Z</time>
      </trkpt>
      <trkpt lat="48.35967" lon="2.73716">
        <ele>105.19999694824</ele>
        <time>2019-02-16T14:26:40Z</time>
      </trkpt>
      <trkpt lat="48.35969" lon="2.7371">
        <ele>105.40000152588</ele>
        <time>2019-02-16T14:26:45Z</time>
      </trkpt>
      <trkpt lat="48.35971" lon="2.73705">
        <ele>105.59999847412</ele>
        <time>2019-02-16T14:26:50Z</time>
      </trkpt>
      <trkpt lat="48.35974" lon="2.737">
        <ele>105.59999847412</ele>
        <time>2019-02-16T14:26:55Z</time>
      </trkpt>
      <trkpt lat="48.35977" lon="2.73695">
        <ele>105.80000305176</ele>
        <time>2019-02-16T14:27:00Z</time>
      </trkpt>
      <trkpt lat="48.35981" lon="2.73689">
        <ele>105.80000305176</ele>
        <time>2019-02-16T14:27:05Z</time>
      </trkpt>
      <trkpt lat="48.35984" lon="2.73682">
        <ele>105.80000305176</ele>
        <time>2019-02-16T14:27:10Z</time>
      </trkpt>
      <trkpt lat="48.35987" lon="2.73676">
        <ele>105.80000305176</ele>
        <time>2019-02-16T14:27:15Z</time>
      </trkpt>
      <trkpt lat="48.35991" lon="2.73668">
        <ele>105.80000305176</ele>
        <time>2019-02-16T14:27:20Z</time>
      </trkpt>
      <trkpt lat="48.35994" lon="2.73661">
        <ele>105.80000305176</ele>
        <time>2019-02-16T14:27:25Z</time>
      </trkpt>
      <trkpt lat="48.35997" lon="2.73654">
        <ele>105.80000305176</ele>
        <time>2019-02-16T14:27:30Z</time>
      </trkpt>
      <trkpt lat="48.36001" lon="2.73647">
        <ele>106</ele>
        <time>2019-02-16T14:27:35Z</time>
      </trkpt>
      <trkpt lat="48.36003" lon="2.73638">
        <ele>106.19999694824</ele>
        <time>2019-02-16T14:27:40Z</time>
      </trkpt>
      <trkpt lat="48.36006" lon="2.73632">
        <ele>106.19999694824</ele>
        <time>2019-02-16T14:27:45Z</time>
      </trkpt>
      <trkpt lat="48.3601" lon="2.73626">
        <ele>106.19999694824</ele>
        <time>2019-02-16T14:27:50Z</time>
      </trkpt>
      <trkpt lat="48.36012" lon="2.73618">
        <ele>106.19999694824</ele>
        <time>2019-02-16T14:27:55Z</time>
      </trkpt>
      <trkpt lat="48.36015" lon="2.73611">
        <ele>106.19999694824</ele>
        <time>2019-02-16T14:28:00Z</time>
      </trkpt>
      <trkpt lat="48.36018" lon="2.73606">
        <ele>106.19999694824</ele>
        <time>2019-02-16T14:28:05Z</time>
      </trkpt>
      <trkpt lat="48.36022" lon="2.736">
        <ele>106.19999694824</ele>
        <time>2019-02-16T14:28:10Z</time>
      </trkpt>
      <trkpt lat="48.36025" lon="2.73594">
        <ele>106.40000152588</ele>
        <time>2019-02-16T14:28:15Z</time>
      </trkpt>
      <trkpt lat="48.36028" lon="2.73589">
        <ele>106.40000152588</ele>
        <time>2019-02-16T14:28:20Z</time>
      </trkpt>
      <trkpt lat="48.36032" lon="2.73582">
        <ele>106.19999694824</ele>
        <time>2019-02-16T14:28:25Z</time>
      </trkpt>
      <trkpt lat="48.36035" lon="2.73572">
        <ele>106</ele>
        <time>2019-02-16T14:28:30Z</time>
      </trkpt>
      <trkpt lat="48.36039" lon="2.73566">
        <ele>106</ele>
        <time>2019-02-16T14:28:35Z</time>
      </trkpt>
      <trkpt lat="48.36041" lon="2.73557">
        <ele>105.80000305176</ele>
        <time>2019-02-16T14:28:40Z</time>
      </trkpt>
      <trkpt lat="48.36044" lon="2.7355">
        <ele>105.59999847412</ele>
        <time>2019-02-16T14:28:45Z</time>
      </trkpt>
      <trkpt lat="48.36047" lon="2.73545">
        <ele>105.59999847412</ele>
        <time>2019-02-16T14:28:50Z</time>
      </trkpt>
      <trkpt lat="48.3605" lon="2.73539">
        <ele>105.59999847412</ele>
        <time>2019-02-16T14:28:55Z</time>
      </trkpt>
      <trkpt lat="48.36054" lon="2.73532">
        <ele>105.59999847412</ele>
        <time>2019-02-16T14:29:00Z</time>
      </trkpt>
      <trkpt lat="48.36057" lon="2.73526">
        <ele>105.80000305176</ele>
        <time>2019-02-16T14:29:05Z</time>
      </trkpt>
      <trkpt lat="48.36061" lon="2.7352">
        <ele>105.80000305176</ele>
        <time>2019-02-16T14:29:10Z</time>
      </trkpt>
      <trkpt lat="48.36065" lon="2.73514">
        <ele>106</ele>
        <time>2019-02-16T14:29:15Z</time>
      </trkpt>
      <trkpt lat="48.36068" lon="2.73506">
        <ele>106</ele>
        <time>2019-02-16T14:29:20Z</time>
      </trkpt>
      <trkpt lat="48.36071" lon="2.73499">
        <ele>105.80000305176</ele>
        <time>2019-02-16T14:29:25Z</time>
      </trkpt>
      <trkpt lat="48.36074" lon="2.73492">
        <ele>105.80000305176</ele>
        <time>2019-02-16T14:29:30Z</time>
      </trkpt>
      <trkpt lat="48.36076" lon="2.73483">
        <ele>105.80000305176</ele>
        <time>2019-02-16T14:29:35Z</time>
      </trkpt>
      <trkpt lat="48.36079" lon="2.73476">
        <ele>105.80000305176</ele>
        <time>2019-02-16T14:29:40Z</time>
      </trkpt>
      <trkpt lat="48.36081" lon="2.73468">
        <ele>105.80000305176</ele>
        <time>2019-02-16T14:29:45Z</time>
      </trkpt>
      <trkpt lat="48.36086" lon="2.73461">
        <ele>105.80000305176</ele>
        <time>2019-02-16T14:29:50Z</time>
      </trkpt>
      <trkpt lat="48.36089" lon="2.73456">
        <ele>105.80000305176</ele>
        <time>2019-02-16T14:29:55Z</time>
      </trkpt>
      <trkpt lat="48.36093" lon="2.73452">
        <ele>105.59999847412</ele>
        <time>2019-02-16T14:30:00Z</time>
      </trkpt>
      <trkpt lat="48.36097" lon="2.7345">
        <ele>105.59999847412</ele>
        <time>2019-02-16T14:30:05Z</time>
      </trkpt>
      <trkpt lat="48.361" lon="2.73447">
        <ele>105.80000305176</ele>
        <time>2019-02-16T14:30:10Z</time>
      </trkpt>
      <trkpt lat="48.36105" lon="2.73442">
        <ele>105.80000305176</ele>
        <time>2019-02-16T14:30:15Z</time>
      </trkpt>
      <trkpt lat="48.3611" lon="2.73438">
        <ele>105.59999847412</ele>
        <time>2019-02-16T14:30:20Z</time>
      </trkpt>
      <trkpt lat="48.36115" lon="2.73434">
        <ele>105.59999847412</ele>
        <time>2019-02-16T14:30:25Z</time>
      </trkpt>
      <trkpt lat="48.36119" lon="2.73429">
        <ele>105.59999847412</ele>
        <time>2019-02-16T14:30:30Z</time>
      </trkpt>
      <trkpt lat="48.36122" lon="2.73424">
        <ele>105.59999847412</ele>
        <time>2019-02-16T14:30:35Z</time>
      </trkpt>
      <trkpt lat="48.36127" lon="2.73421">
        <ele>105.59999847412</ele>
        <time>2019-02-16T14:30:40Z</time>
      </trkpt>
      <trkpt lat="48.36132" lon="2.73417">
        <ele>105.80000305176</ele>
        <time>2019-02-16T14:30:45Z</time>
      </trkpt>
      <trkpt lat="48.36136" lon="2.73414">
        <ele>105.80000305176</ele>
        <time>2019-02-16T14:30:50Z</time>
      </trkpt>
      <trkpt lat="48.3614" lon="2.73411">
        <ele>105.80000305176</ele>
        <time>2019-02-16T14:30:55Z</time>
      </trkpt>
      <trkpt lat="48.36146" lon="2.73407">
        <ele>105.80000305176</ele>
        <time>2019-02-16T14:31:00Z</time>
      </trkpt>
      <trkpt lat="48.3615" lon="2.73402">
        <ele>105.80000305176</ele>
        <time>2019-02-16T14:31:05Z</time>
      </trkpt>
      <trkpt lat="48.36153" lon="2.73397">
        <ele>105.80000305176</ele>
        <time>2019-02-16T14:31:10Z</time>
      </trkpt>
      <trkpt lat="48.36156" lon="2.73394">
        <ele>105.80000305176</ele>
        <time>2019-02-16T14:31:15Z</time>
      </trkpt>
      <trkpt lat="48.36162" lon="2.73389">
        <ele>105.80000305176</ele>
        <time>2019-02-16T14:31:20Z</time>
      </trkpt>
      <trkpt lat="48.36167" lon="2.73384">
        <ele>105.80000305176</ele>
        <time>2019-02-16T14:31:25Z</time>
      </trkpt>
      <trkpt lat="48.36171" lon="2.7338">
        <ele>105.80000305176</ele>
        <time>2019-02-16T14:31:30Z</time>
      </trkpt>
      <trkpt lat="48.36174" lon="2.73376">
        <ele>105.80000305176</ele>
        <time>2019-02-16T14:31:35Z</time>
      </trkpt>
      <trkpt lat="48.36178" lon="2.73371">
        <ele>105.80000305176</ele>
        <time>2019-02-16T14:31:40Z</time>
      </trkpt>
      <trkpt lat="48.36182" lon="2.73367">
        <ele>105.80000305176</ele>
        <time>2019-02-16T14:31:45Z</time>
      </trkpt>
      <trkpt lat="48.36187" lon="2.73362">
        <ele>105.80000305176</ele>
        <time>2019-02-16T14:31:50Z</time>
      </trkpt>
      <trkpt lat="48.36193" lon="2.73358">
        <ele>105.80000305176</ele>
        <time>2019-02-16T14:31:55Z</time>
      </trkpt>
      <trkpt lat="48.36199" lon="2.73355">
        <ele>105.80000305176</ele>
        <time>2019-02-16T14:32:00Z</time>
      </trkpt>
      <trkpt lat="48.36202" lon="2.73352">
        <ele>107</ele>
        <time>2019-02-16T14:32:05Z</time>
      </trkpt>
      <trkpt lat="48.36205" lon="2.73349">
        <ele>107.19999694824</ele>
        <time>2019-02-16T14:32:10Z</time>
      </trkpt>
      <trkpt lat="48.3621" lon="2.73344">
        <ele>107.40000152588</ele>
        <time>2019-02-16T14:32:15Z</time>
      </trkpt>
      <trkpt lat="48.36215" lon="2.73339">
        <ele>107.40000152588</ele>
        <time>2019-02-16T14:32:20Z</time>
      </trkpt>
      <trkpt lat="48.3622" lon="2.73334">
        <ele>107.40000152588</ele>
        <time>2019-02-16T14:32:25Z</time>
      </trkpt>
      <trkpt lat="48.36224" lon="2.73328">
        <ele>107.19999694824</ele>
        <time>2019-02-16T14:32:30Z</time>
      </trkpt>
      <trkpt lat="48.36228" lon="2.73324">
        <ele>107.19999694824</ele>
        <time>2019-02-16T14:32:35Z</time>
      </trkpt>
      <trkpt lat="48.36232" lon="2.7332">
        <ele>107.19999694824</ele>
        <time>2019-02-16T14:32:40Z</time>
      </trkpt>
      <trkpt lat="48.36237" lon="2.73316">
        <ele>107.19999694824</ele>
        <time>2019-02-16T14:32:45Z</time>
      </trkpt>
      <trkpt lat="48.36241" lon="2.7331">
        <ele>107.19999694824</ele>
        <time>2019-02-16T14:32:50Z</time>
      </trkpt>
      <trkpt lat="48.36247" lon="2.73303">
        <ele>107.19999694824</ele>
        <time>2019-02-16T14:32:55Z</time>
      </trkpt>
      <trkpt lat="48.36252" lon="2.73298">
        <ele>107.19999694824</ele>
        <time>2019-02-16T14:33:00Z</time>
      </trkpt>
      <trkpt lat="48.36257" lon="2.73293">
        <ele>107.19999694824</ele>
        <time>2019-02-16T14:33:05Z</time>
      </trkpt>
      <trkpt lat="48.36262" lon="2.73288">
        <ele>107.19999694824</ele>
        <time>2019-02-16T14:33:10Z</time>
      </trkpt>
      <trkpt lat="48.36266" lon="2.73283">
        <ele>107.40000152588</ele>
        <time>2019-02-16T14:33:15Z</time>
      </trkpt>
      <trkpt lat="48.3627" lon="2.7328">
        <ele>107.40000152588</ele>
        <time>2019-02-16T14:33:20Z</time>
      </trkpt>
      <trkpt lat="48.36273" lon="2.73276">
        <ele>107.59999847412</ele>
        <time>2019-02-16T14:33:25Z</time>
      </trkpt>
      <trkpt lat="48.36278" lon="2.73271">
        <ele>107.80000305176</ele>
        <time>2019-02-16T14:33:30Z</time>
      </trkpt>
      <trkpt lat="48.36283" lon="2.73266">
        <ele>107.80000305176</ele>
        <time>2019-02-16T14:33:35Z</time>
      </trkpt>
      <trkpt lat="48.36287" lon="2.7326">
        <ele>108</ele>
        <time>2019-02-16T14:33:40Z</time>
      </trkpt>
      <trkpt lat="48.36292" lon="2.73257">
        <ele>108</ele>
        <time>2019-02-16T14:33:45Z</time>
      </trkpt>
      <trkpt lat="48.36297" lon="2.73252">
        <ele>108</ele>
        <time>2019-02-16T14:33:50Z</time>
      </trkpt>
      <trkpt lat="48.36301" lon="2.73248">
        <ele>108</ele>
        <time>2019-02-16T14:33:55Z</time>
      </trkpt>
      <trkpt lat="48.36305" lon="2.73243">
        <ele>108</ele>
        <time>2019-02-16T14:34:00Z</time>
      </trkpt>
      <trkpt lat="48.3631" lon="2.73239">
        <ele>107.80000305176</ele>
        <time>2019-02-16T14:34:05Z</time>
      </trkpt>
      <trkpt lat="48.36314" lon="2.73235">
        <ele>107.59999847412</ele>
        <time>2019-02-16T14:34:10Z</time>
      </trkpt>
      <trkpt lat="48.36319" lon="2.73231">
        <ele>107.40000152588</ele>
        <time>2019-02-16T14:34:15Z</time>
      </trkpt>
      <trkpt lat="48.36324" lon="2.73227">
        <ele>107.19999694824</ele>
        <time>2019-02-16T14:34:20Z</time>
      </trkpt>
      <trkpt lat="48.36329" lon="2.73224">
        <ele>107.19999694824</ele>
        <time>2019-02-16T14:34:25Z</time>
      </trkpt>
      <trkpt lat="48.36334" lon="2.73218">
        <ele>107.19999694824</ele>
        <time>2019-02-16T14:34:30Z</time>
      </trkpt>
      <trkpt lat="48.36338" lon="2.73212">
        <ele>107</ele>
        <time>2019-02-16T14:34:35Z</time>
      </trkpt>
      <trkpt lat="48.36343" lon="2.73207">
        <ele>107</ele>
        <time>2019-02-16T14:34:40Z</time>
      </trkpt>
      <trkpt lat="48.36348" lon="2.73203">
        <ele>107</ele>
        <time>2019-02-16T14:34:45Z</time>
      </trkpt>
      <trkpt lat="48.36352" lon="2.73198">
        <ele>107.19999694824</ele>
        <time>2019-02-16T14:34:50Z</time>
      </trkpt>
      <trkpt lat="48.36356" lon="2.73193">
        <ele>107.19999694824</ele>
        <time>2019-02-16T14:34:55Z</time>
      </trkpt>
      <trkpt lat="48.36361" lon="2.73188">
        <ele>107.19999694824</ele>
        <time>2019-02-16T14:35:00Z</time>
      </trkpt>
      <trkpt lat="48.36366" lon="2.73182">
        <ele>107.19999694824</ele>
        <time>2019-02-16T14:35:05Z</time>
      </trkpt>
      <trkpt lat="48.36371" lon="2.73177">
        <ele>107.19999694824</ele>
        <time>2019-02-16T14:35:10Z</time>
      </trkpt>
      <trkpt lat="48.36377" lon="2.7317">
        <ele>107.19999694824</ele>
        <time>2019-02-16T14:35:15Z</time>
      </trkpt>
      <trkpt lat="48.36381" lon="2.73166">
        <ele>107.40000152588</ele>
        <time>2019-02-16T14:35:20Z</time>
      </trkpt>
      <trkpt lat="48.36385" lon="2.73167">
        <ele>107.19999694824</ele>
        <time>2019-02-16T14:35:25Z</time>
      </trkpt>
      <trkpt lat="48.36389" lon="2.73172">
        <ele>107.19999694824</ele>
        <time>2019-02-16T14:35:30Z</time>
      </trkpt>
      <trkpt lat="48.36395" lon="2.73177">
        <ele>107.19999694824</ele>
        <time>2019-02-16T14:35:35Z</time>
      </trkpt>
      <trkpt lat="48.364" lon="2.73182">
        <ele>107.19999694824</ele>
        <time>2019-02-16T14:35:40Z</time>
      </trkpt>
      <trkpt lat="48.36403" lon="2.73188">
        <ele>107.19999694824</ele>
        <time>2019-02-16T14:35:45Z</time>
      </trkpt>
      <trkpt lat="48.36408" lon="2.73191">
        <ele>107.40000152588</ele>
        <time>2019-02-16T14:35:50Z</time>
      </trkpt>
      <trkpt lat="48.36413" lon="2.73194">
        <ele>107.40000152588</ele>
        <time>2019-02-16T14:35:55Z</time>
      </trkpt>
      <trkpt lat="48.36417" lon="2.73199">
        <ele>107.40000152588</ele>
        <time>2019-02-16T14:36:00Z</time>
      </trkpt>
      <trkpt lat="48.36421" lon="2.73203">
        <ele>107.40000152588</ele>
        <time>2019-02-16T14:36:05Z</time>
      </trkpt>
      <trkpt lat="48.36425" lon="2.73207">
        <ele>107.59999847412</ele>
        <time>2019-02-16T14:36:10Z</time>
      </trkpt>
      <trkpt lat="48.36431" lon="2.7321">
        <ele>107.59999847412</ele>
        <time>2019-02-16T14:36:15Z</time>
      </trkpt>
      <trkpt lat="48.36433" lon="2.73215">
        <ele>107.59999847412</ele>
        <time>2019-02-16T14:36:20Z</time>
      </trkpt>
      <trkpt lat="48.36438" lon="2.7322">
        <ele>107.59999847412</ele>
        <time>2019-02-16T14:36:25Z</time>
      </trkpt>
      <trkpt lat="48.36443" lon="2.73223">
        <ele>107.59999847412</ele>
        <time>2019-02-16T14:36:30Z</time>
      </trkpt>
      <trkpt lat="48.36448" lon="2.73228">
        <ele>107.80000305176</ele>
        <time>2019-02-16T14:36:35Z</time>
      </trkpt>
      <trkpt lat="48.36454" lon="2.73232">
        <ele>107.80000305176</ele>
        <time>2019-02-16T14:36:40Z</time>
      </trkpt>
      <trkpt lat="48.36459" lon="2.73234">
        <ele>107.80000305176</ele>
        <time>2019-02-16T14:36:45Z</time>
      </trkpt>
      <trkpt lat="48.36463" lon="2.73238">
        <ele>107.80000305176</ele>
        <time>2019-02-16T14:36:50Z</time>
      </trkpt>
      <trkpt lat="48.36469" lon="2.73242">
        <ele>108</ele>
        <time>2019-02-16T14:36:55Z</time>
      </trkpt>
      <trkpt lat="48.36473" lon="2.73247">
        <ele>108</ele>
        <time>2019-02-16T14:37:00Z</time>
      </trkpt>
      <trkpt lat="48.36478" lon="2.73251">
        <ele>108</ele>
        <time>2019-02-16T14:37:05Z</time>
      </trkpt>
      <trkpt lat="48.36482" lon="2.73254">
        <ele>108.19999694824</ele>
        <time>2019-02-16T14:37:10Z</time>
      </trkpt>
      <trkpt lat="48.36486" lon="2.7326">
        <ele>108.19999694824</ele>
        <time>2019-02-16T14:37:15Z</time>
      </trkpt>
      <trkpt lat="48.3649" lon="2.73264">
        <ele>108.40000152588</ele>
        <time>2019-02-16T14:37:20Z</time>
      </trkpt>
      <trkpt lat="48.36494" lon="2.73269">
        <ele>108.59999847412</ele>
        <time>2019-02-16T14:37:25Z</time>
      </trkpt>
      <trkpt lat="48.36497" lon="2.73275">
        <ele>108.59999847412</ele>
        <time>2019-02-16T14:37:30Z</time>
      </trkpt>
      <trkpt lat="48.365" lon="2.73278">
        <ele>108.80000305176</ele>
        <time>2019-02-16T14:37:35Z</time>
      </trkpt>
      <trkpt lat="48.36503" lon="2.73283">
        <ele>109</ele>
        <time>2019-02-16T14:37:40Z</time>
      </trkpt>
      <trkpt lat="48.36507" lon="2.73287">
        <ele>109.40000152588</ele>
        <time>2019-02-16T14:37:45Z</time>
      </trkpt>
      <trkpt lat="48.36511" lon="2.7329">
        <ele>109.59999847412</ele>
        <time>2019-02-16T14:37:50Z</time>
      </trkpt>
      <trkpt lat="48.36517" lon="2.73294">
        <ele>109.59999847412</ele>
        <time>2019-02-16T14:37:55Z</time>
      </trkpt>
      <trkpt lat="48.36523" lon="2.73297">
        <ele>109.59999847412</ele>
        <time>2019-02-16T14:38:00Z</time>
      </trkpt>
      <trkpt lat="48.36528" lon="2.733">
        <ele>109.80000305176</ele>
        <time>2019-02-16T14:38:05Z</time>
      </trkpt>
      <trkpt lat="48.36532" lon="2.73308">
        <ele>110</ele>
        <time>2019-02-16T14:38:10Z</time>
      </trkpt>
      <trkpt lat="48.36536" lon="2.7331">
        <ele>110.19999694824</ele>
        <time>2019-02-16T14:38:15Z</time>
      </trkpt>
      <trkpt lat="48.36539" lon="2.73314">
        <ele>110.40000152588</ele>
        <time>2019-02-16T14:38:20Z</time>
      </trkpt>
      <trkpt lat="48.36543" lon="2.73318">
        <ele>110.40000152588</ele>
        <time>2019-02-16T14:38:25Z</time>
      </trkpt>
      <trkpt lat="48.36547" lon="2.73323">
        <ele>110.59999847412</ele>
        <time>2019-02-16T14:38:30Z</time>
      </trkpt>
      <trkpt lat="48.36551" lon="2.73327">
        <ele>110.80000305176</ele>
        <time>2019-02-16T14:38:35Z</time>
      </trkpt>
      <trkpt lat="48.36555" lon="2.73331">
        <ele>111</ele>
        <time>2019-02-16T14:38:40Z</time>
      </trkpt>
      <trkpt lat="48.36559" lon="2.73336">
        <ele>111.19999694824</ele>
        <time>2019-02-16T14:38:45Z</time>
      </trkpt>
      <trkpt lat="48.36564" lon="2.73339">
        <ele>111.19999694824</ele>
        <time>2019-02-16T14:38:50Z</time>
      </trkpt>
      <trkpt lat="48.36568" lon="2.73343">
        <ele>111.40000152588</ele>
        <time>2019-02-16T14:38:55Z</time>
      </trkpt>
      <trkpt lat="48.36572" lon="2.73345">
        <ele>111.40000152588</ele>
        <time>2019-02-16T14:39:00Z</time>
      </trkpt>
      <trkpt lat="48.36576" lon="2.73349">
        <ele>111.40000152588</ele>
        <time>2019-02-16T14:39:05Z</time>
      </trkpt>
      <trkpt lat="48.36581" lon="2.73354">
        <ele>111.40000152588</ele>
        <time>2019-02-16T14:39:10Z</time>
      </trkpt>
      <trkpt lat="48.36587" lon="2.73358">
        <ele>111.19999694824</ele>
        <time>2019-02-16T14:39:15Z</time>
      </trkpt>
      <trkpt lat="48.36593" lon="2.73364">
        <ele>111.40000152588</ele>
        <time>2019-02-16T14:39:20Z</time>
      </trkpt>
      <trkpt lat="48.36597" lon="2.73367">
        <ele>111.40000152588</ele>
        <time>2019-02-16T14:39:25Z</time>
      </trkpt>
      <trkpt lat="48.36601" lon="2.73372">
        <ele>111.40000152588</ele>
        <time>2019-02-16T14:39:30Z</time>
      </trkpt>
      <trkpt lat="48.36606" lon="2.73376">
        <ele>111.40000152588</ele>
        <time>2019-02-16T14:39:35Z</time>
      </trkpt>
      <trkpt lat="48.3661" lon="2.7338">
        <ele>111.59999847412</ele>
        <time>2019-02-16T14:39:40Z</time>
      </trkpt>
      <trkpt lat="48.36614" lon="2.73385">
        <ele>111.59999847412</ele>
        <time>2019-02-16T14:39:45Z</time>
      </trkpt>
      <trkpt lat="48.36619" lon="2.73388">
        <ele>111.59999847412</ele>
        <time>2019-02-16T14:39:50Z</time>
      </trkpt>
      <trkpt lat="48.36624" lon="2.73392">
        <ele>111.59999847412</ele>
        <time>2019-02-16T14:39:55Z</time>
      </trkpt>
      <trkpt lat="48.36628" lon="2.73395">
        <ele>111.59999847412</ele>
        <time>2019-02-16T14:40:00Z</time>
      </trkpt>
      <trkpt lat="48.36634" lon="2.73399">
        <ele>111.59999847412</ele>
        <time>2019-02-16T14:40:05Z</time>
      </trkpt>
      <trkpt lat="48.36637" lon="2.73404">
        <ele>111.40000152588</ele>
        <time>2019-02-16T14:40:10Z</time>
      </trkpt>
      <trkpt lat="48.3664" lon="2.7341">
        <ele>111.40000152588</ele>
        <time>2019-02-16T14:40:15Z</time>
      </trkpt>
      <trkpt lat="48.36645" lon="2.73414">
        <ele>111.40000152588</ele>
        <time>2019-02-16T14:40:20Z</time>
      </trkpt>
      <trkpt lat="48.36649" lon="2.73419">
        <ele>111.40000152588</ele>
        <time>2019-02-16T14:40:25Z</time>
      </trkpt>
      <trkpt lat="48.36653" lon="2.73424">
        <ele>111.40000152588</ele>
        <time>2019-02-16T14:40:30Z</time>
      </trkpt>
      <trkpt lat="48.36658" lon="2.73428">
        <ele>111.59999847412</ele>
        <time>2019-02-16T14:40:35Z</time>
      </trkpt>
      <trkpt lat="48.36665" lon="2.73431">
        <ele>111.80000305176</ele>
        <time>2019-02-16T14:40:40Z</time>
      </trkpt>
      <trkpt lat="48.36669" lon="2.73435">
        <ele>112</ele>
        <time>2019-02-16T14:40:45Z</time>
      </trkpt>
      <trkpt lat="48.36674" lon="2.73438">
        <ele>112.40000152588</ele>
        <time>2019-02-16T14:40:50Z</time>
      </trkpt>
      <trkpt lat="48.36678" lon="2.73442">
        <ele>112.80000305176</ele>
        <time>2019-02-16T14:40:55Z</time>
      </trkpt>
      <trkpt lat="48.36682" lon="2.73445">
        <ele>112.80000305176</ele>
        <time>2019-02-16T14:41:00Z</time>
      </trkpt>
      <trkpt lat="48.36686" lon="2.73448">
        <ele>113</ele>
        <time>2019-02-16T14:41:05Z</time>
      </trkpt>
      <trkpt lat="48.36693" lon="2.73451">
        <ele>113</ele>
        <time>2019-02-16T14:41:10Z</time>
      </trkpt>
      <trkpt lat="48.36698" lon="2.73455">
        <ele>112.80000305176</ele>
        <time>2019-02-16T14:41:15Z</time>
      </trkpt>
      <trkpt lat="48.36701" lon="2.7346">
        <ele>113</ele>
        <time>2019-02-16T14:41:20Z</time>
      </trkpt>
      <trkpt lat="48.36705" lon="2.73463">
        <ele>113</ele>
        <time>2019-02-16T14:41:25Z</time>
      </trkpt>
      <trkpt lat="48.36709" lon="2.7347">
        <ele>113</ele>
        <time>2019-02-16T14:41:30Z</time>
      </trkpt>
      <trkpt lat="48.36714" lon="2.73474">
        <ele>113</ele>
        <time>2019-02-16T14:41:35Z</time>
      </trkpt>
      <trkpt lat="48.36717" lon="2.73477">
        <ele>113.19999694824</ele>
        <time>2019-02-16T14:41:40Z</time>
      </trkpt>
      <trkpt lat="48.36722" lon="2.7348">
        <ele>113.19999694824</ele>
        <time>2019-02-16T14:41:45Z</time>
      </trkpt>
      <trkpt lat="48.36727" lon="2.73484">
        <ele>113.40000152588</ele>
        <time>2019-02-16T14:41:50Z</time>
      </trkpt>
      <trkpt lat="48.36731" lon="2.73491">
        <ele>113.59999847412</ele>
        <time>2019-02-16T14:41:55Z</time>
      </trkpt>
      <trkpt lat="48.36735" lon="2.73497">
        <ele>113.80000305176</ele>
        <time>2019-02-16T14:42:00Z</time>
      </trkpt>
      <trkpt lat="48.36739" lon="2.73501">
        <ele>113.80000305176</ele>
        <time>2019-02-16T14:42:05Z</time>
      </trkpt>
      <trkpt lat="48.36744" lon="2.73506">
        <ele>113.80000305176</ele>
        <time>2019-02-16T14:42:10Z</time>
      </trkpt>
      <trkpt lat="48.3675" lon="2.73511">
        <ele>113.59999847412</ele>
        <time>2019-02-16T14:42:15Z</time>
      </trkpt>
      <trkpt lat="48.36754" lon="2.73516">
        <ele>113.59999847412</ele>
        <time>2019-02-16T14:42:20Z</time>
      </trkpt>
      <trkpt lat="48.36759" lon="2.73521">
        <ele>113.59999847412</ele>
        <time>2019-02-16T14:42:25Z</time>
      </trkpt>
      <trkpt lat="48.36765" lon="2.73527">
        <ele>113.80000305176</ele>
        <time>2019-02-16T14:42:30Z</time>
      </trkpt>
      <trkpt lat="48.36768" lon="2.73534">
        <ele>114.19999694824</ele>
        <time>2019-02-16T14:42:35Z</time>
      </trkpt>
      <trkpt lat="48.36768" lon="2.73542">
        <ele>114.40000152588</ele>
        <time>2019-02-16T14:42:40Z</time>
      </trkpt>
      <trkpt lat="48.36767" lon="2.7355">
        <ele>114.40000152588</ele>
        <time>2019-02-16T14:42:45Z</time>
      </trkpt>
      <trkpt lat="48.36767" lon="2.73557">
        <ele>114.59999847412</ele>
        <time>2019-02-16T14:42:50Z</time>
      </trkpt>
      <trkpt lat="48.36765" lon="2.73566">
        <ele>114.80000305176</ele>
        <time>2019-02-16T14:42:55Z</time>
      </trkpt>
      <trkpt lat="48.36764" lon="2.73575">
        <ele>115</ele>
        <time>2019-02-16T14:43:00Z</time>
      </trkpt>
      <trkpt lat="48.36763" lon="2.73583">
        <ele>115.19999694824</ele>
        <time>2019-02-16T14:43:05Z</time>
      </trkpt>
      <trkpt lat="48.36762" lon="2.73591">
        <ele>115.19999694824</ele>
        <time>2019-02-16T14:43:10Z</time>
      </trkpt>
      <trkpt lat="48.36761" lon="2.73599">
        <ele>115.40000152588</ele>
        <time>2019-02-16T14:43:15Z</time>
      </trkpt>
      <trkpt lat="48.36761" lon="2.73607">
        <ele>115.80000305176</ele>
        <time>2019-02-16T14:43:20Z</time>
      </trkpt>
      <trkpt lat="48.3676" lon="2.73615">
        <ele>116.19999694824</ele>
        <time>2019-02-16T14:43:25Z</time>
      </trkpt>
      <trkpt lat="48.36759" lon="2.73621">
        <ele>116.59999847412</ele>
        <time>2019-02-16T14:43:30Z</time>
      </trkpt>
      <trkpt lat="48.36759" lon="2.73628">
        <ele>116.80000305176</ele>
        <time>2019-02-16T14:43:35Z</time>
      </trkpt>
      <trkpt lat="48.36759" lon="2.73635">
        <ele>117</ele>
        <time>2019-02-16T14:43:40Z</time>
      </trkpt>
      <trkpt lat="48.36758" lon="2.73641">
        <ele>117.19999694824</ele>
        <time>2019-02-16T14:43:45Z</time>
      </trkpt>
      <trkpt lat="48.36756" lon="2.73649">
        <ele>117.59999847412</ele>
        <time>2019-02-16T14:43:50Z</time>
      </trkpt>
      <trkpt lat="48.36755" lon="2.73657">
        <ele>118</ele>
        <time>2019-02-16T14:43:55Z</time>
      </trkpt>
      <trkpt lat="48.36755" lon="2.73663">
        <ele>118.19999694824</ele>
        <time>2019-02-16T14:44:00Z</time>
      </trkpt>
      <trkpt lat="48.36755" lon="2.73669">
        <ele>118.40000152588</ele>
        <time>2019-02-16T14:44:05Z</time>
      </trkpt>
      <trkpt lat="48.36754" lon="2.73675">
        <ele>118.59999847412</ele>
        <time>2019-02-16T14:44:10Z</time>
      </trkpt>
      <trkpt lat="48.36754" lon="2.73683">
        <ele>118.80000305176</ele>
        <time>2019-02-16T14:44:15Z</time>
      </trkpt>
      <trkpt lat="48.36754" lon="2.73691">
        <ele>119</ele>
        <time>2019-02-16T14:44:20Z</time>
      </trkpt>
      <trkpt lat="48.36754" lon="2.73699">
        <ele>119.19999694824</ele>
        <time>2019-02-16T14:44:25Z</time>
      </trkpt>
      <trkpt lat="48.36754" lon="2.73708">
        <ele>119.59999847412</ele>
        <time>2019-02-16T14:44:30Z</time>
      </trkpt>
      <trkpt lat="48.36755" lon="2.73716">
        <ele>119.80000305176</ele>
        <time>2019-02-16T14:44:35Z</time>
      </trkpt>
      <trkpt lat="48.36755" lon="2.73724">
        <ele>120.19999694824</ele>
        <time>2019-02-16T14:44:40Z</time>
      </trkpt>
      <trkpt lat="48.36755" lon="2.73731">
        <ele>120.40000152588</ele>
        <time>2019-02-16T14:44:45Z</time>
      </trkpt>
      <trkpt lat="48.36754" lon="2.73737">
        <ele>120.80000305176</ele>
        <time>2019-02-16T14:44:50Z</time>
      </trkpt>
      <trkpt lat="48.36752" lon="2.73744">
        <ele>121.40000152588</ele>
        <time>2019-02-16T14:44:55Z</time>
      </trkpt>
      <trkpt lat="48.36752" lon="2.7375">
        <ele>121.80000305176</ele>
        <time>2019-02-16T14:45:00Z</time>
      </trkpt>
      <trkpt lat="48.36751" lon="2.73757">
        <ele>122.19999694824</ele>
        <time>2019-02-16T14:45:05Z</time>
      </trkpt>
      <trkpt lat="48.36749" lon="2.73764">
        <ele>122.40000152588</ele>
        <time>2019-02-16T14:45:10Z</time>
      </trkpt>
      <trkpt lat="48.36748" lon="2.73772">
        <ele>122.59999847412</ele>
        <time>2019-02-16T14:45:15Z</time>
      </trkpt>
      <trkpt lat="48.36746" lon="2.73781">
        <ele>122.59999847412</ele>
        <time>2019-02-16T14:45:20Z</time>
      </trkpt>
      <trkpt lat="48.36744" lon="2.73791">
        <ele>122.40000152588</ele>
        <time>2019-02-16T14:45:25Z</time>
      </trkpt>
      <trkpt lat="48.36744" lon="2.73799">
        <ele>122.19999694824</ele>
        <time>2019-02-16T14:45:30Z</time>
      </trkpt>
      <trkpt lat="48.36745" lon="2.73806">
        <ele>122.19999694824</ele>
        <time>2019-02-16T14:45:35Z</time>
      </trkpt>
      <trkpt lat="48.36743" lon="2.73814">
        <ele>122.40000152588</ele>
        <time>2019-02-16T14:45:40Z</time>
      </trkpt>
      <trkpt lat="48.36742" lon="2.73821">
        <ele>122.40000152588</ele>
        <time>2019-02-16T14:45:45Z</time>
      </trkpt>
      <trkpt lat="48.3674" lon="2.7383">
        <ele>122.80000305176</ele>
        <time>2019-02-16T14:45:50Z</time>
      </trkpt>
      <trkpt lat="48.36738" lon="2.73839">
        <ele>122.80000305176</ele>
        <time>2019-02-16T14:45:55Z</time>
      </trkpt>
      <trkpt lat="48.36738" lon="2.73845">
        <ele>122.59999847412</ele>
        <time>2019-02-16T14:46:00Z</time>
      </trkpt>
      <trkpt lat="48.36737" lon="2.73853">
        <ele>122.59999847412</ele>
        <time>2019-02-16T14:46:05Z</time>
      </trkpt>
      <trkpt lat="48.36736" lon="2.73858">
        <ele>122.59999847412</ele>
        <time>2019-02-16T14:46:10Z</time>
      </trkpt>
      <trkpt lat="48.36735" lon="2.73868">
        <ele>122.59999847412</ele>
        <time>2019-02-16T14:46:15Z</time>
      </trkpt>
      <trkpt lat="48.36733" lon="2.73875">
        <ele>122.59999847412</ele>
        <time>2019-02-16T14:46:20Z</time>
      </trkpt>
      <trkpt lat="48.3673" lon="2.73883">
        <ele>122.59999847412</ele>
        <time>2019-02-16T14:46:25Z</time>
      </trkpt>
      <trkpt lat="48.36728" lon="2.73889">
        <ele>122.40000152588</ele>
        <time>2019-02-16T14:46:30Z</time>
      </trkpt>
      <trkpt lat="48.36727" lon="2.73896">
        <ele>122.19999694824</ele>
        <time>2019-02-16T14:46:35Z</time>
      </trkpt>
      <trkpt lat="48.36726" lon="2.73904">
        <ele>122</ele>
        <time>2019-02-16T14:46:40Z</time>
      </trkpt>
      <trkpt lat="48.36725" lon="2.73913">
        <ele>121.80000305176</ele>
        <time>2019-02-16T14:46:45Z</time>
      </trkpt>
      <trkpt lat="48.36724" lon="2.73922">
        <ele>121.40000152588</ele>
        <time>2019-02-16T14:46:50Z</time>
      </trkpt>
      <trkpt lat="48.36722" lon="2.7393">
        <ele>121.19999694824</ele>
        <time>2019-02-16T14:46:55Z</time>
      </trkpt>
      <trkpt lat="48.36721" lon="2.73938">
        <ele>121</ele>
        <time>2019-02-16T14:47:00Z</time>
      </trkpt>
      <trkpt lat="48.36721" lon="2.73945">
        <ele>120.80000305176</ele>
        <time>2019-02-16T14:47:05Z</time>
      </trkpt>
      <trkpt lat="48.36721" lon="2.73952">
        <ele>120.59999847412</ele>
        <time>2019-02-16T14:47:10Z</time>
      </trkpt>
      <trkpt lat="48.36719" lon="2.73963">
        <ele>120.59999847412</ele>
        <time>2019-02-16T14:47:15Z</time>
      </trkpt>
      <trkpt lat="48.36718" lon="2.73973">
        <ele>120.59999847412</ele>
        <time>2019-02-16T14:47:20Z</time>
      </trkpt>
      <trkpt lat="48.36717" lon="2.7398">
        <ele>120.59999847412</ele>
        <time>2019-02-16T14:47:25Z</time>
      </trkpt>
      <trkpt lat="48.36715" lon="2.73989">
        <ele>120.59999847412</ele>
        <time>2019-02-16T14:47:30Z</time>
      </trkpt>
      <trkpt lat="48.36713" lon="2.73995">
        <ele>120.59999847412</ele>
        <time>2019-02-16T14:47:35Z</time>
      </trkpt>
      <trkpt lat="48.36713" lon="2.74003">
        <ele>121</ele>
        <time>2019-02-16T14:47:40Z</time>
      </trkpt>
      <trkpt lat="48.36711" lon="2.74013">
        <ele>121</ele>
        <time>2019-02-16T14:47:45Z</time>
      </trkpt>
      <trkpt lat="48.36711" lon="2.74019">
        <ele>121</ele>
        <time>2019-02-16T14:47:50Z</time>
      </trkpt>
      <trkpt lat="48.3671" lon="2.74029">
        <ele>120.80000305176</ele>
        <time>2019-02-16T14:47:55Z</time>
      </trkpt>
      <trkpt lat="48.36708" lon="2.74038">
        <ele>120.80000305176</ele>
        <time>2019-02-16T14:48:00Z</time>
      </trkpt>
      <trkpt lat="48.36708" lon="2.74045">
        <ele>120.59999847412</ele>
        <time>2019-02-16T14:48:05Z</time>
      </trkpt>
      <trkpt lat="48.36705" lon="2.74052">
        <ele>120.40000152588</ele>
        <time>2019-02-16T14:48:10Z</time>
      </trkpt>
      <trkpt lat="48.36705" lon="2.74062">
        <ele>120.19999694824</ele>
        <time>2019-02-16T14:48:15Z</time>
      </trkpt>
      <trkpt lat="48.36705" lon="2.7407">
        <ele>120</ele>
        <time>2019-02-16T14:48:20Z</time>
      </trkpt>
      <trkpt lat="48.36702" lon="2.7408">
        <ele>120</ele>
        <time>2019-02-16T14:48:25Z</time>
      </trkpt>
      <trkpt lat="48.36702" lon="2.74088">
        <ele>119.80000305176</ele>
        <time>2019-02-16T14:48:30Z</time>
      </trkpt>
      <trkpt lat="48.36701" lon="2.74097">
        <ele>119.80000305176</ele>
        <time>2019-02-16T14:48:35Z</time>
      </trkpt>
      <trkpt lat="48.367" lon="2.74106">
        <ele>119.80000305176</ele>
        <time>2019-02-16T14:48:40Z</time>
      </trkpt>
      <trkpt lat="48.36699" lon="2.74115">
        <ele>120</ele>
        <time>2019-02-16T14:48:45Z</time>
      </trkpt>
      <trkpt lat="48.36697" lon="2.74123">
        <ele>120.19999694824</ele>
        <time>2019-02-16T14:48:50Z</time>
      </trkpt>
      <trkpt lat="48.36697" lon="2.74131">
        <ele>120.40000152588</ele>
        <time>2019-02-16T14:48:55Z</time>
      </trkpt>
      <trkpt lat="48.36696" lon="2.74139">
        <ele>120.80000305176</ele>
        <time>2019-02-16T14:49:00Z</time>
      </trkpt>
      <trkpt lat="48.36693" lon="2.74146">
        <ele>121</ele>
        <time>2019-02-16T14:49:05Z</time>
      </trkpt>
      <trkpt lat="48.36692" lon="2.74152">
        <ele>121</ele>
        <time>2019-02-16T14:49:10Z</time>
      </trkpt>
      <trkpt lat="48.3669" lon="2.7416">
        <ele>121</ele>
        <time>2019-02-16T14:49:15Z</time>
      </trkpt>
      <trkpt lat="48.36687" lon="2.7417">
        <ele>121</ele>
        <time>2019-02-16T14:49:20Z</time>
      </trkpt>
      <trkpt lat="48.36685" lon="2.7418">
        <ele>121</ele>
        <time>2019-02-16T14:49:25Z</time>
      </trkpt>
      <trkpt lat="48.36683" lon="2.74189">
        <ele>120.80000305176</ele>
        <time>2019-02-16T14:49:30Z</time>
      </trkpt>
      <trkpt lat="48.36681" lon="2.74198">
        <ele>120.59999847412</ele>
        <time>2019-02-16T14:49:35Z</time>
      </trkpt>
      <trkpt lat="48.36679" lon="2.74204">
        <ele>120.40000152588</ele>
        <time>2019-02-16T14:49:40Z</time>
      </trkpt>
      <trkpt lat="48.36678" lon="2.74211">
        <ele>120.40000152588</ele>
        <time>2019-02-16T14:49:45Z</time>
      </trkpt>
      <trkpt lat="48.36676" lon="2.7422">
        <ele>120.40000152588</ele>
        <time>2019-02-16T14:49:50Z</time>
      </trkpt>
      <trkpt lat="48.36675" lon="2.74228">
        <ele>120.19999694824</ele>
        <time>2019-02-16T14:49:55Z</time>
      </trkpt>
      <trkpt lat="48.36673" lon="2.74238">
        <ele>120</ele>
        <time>2019-02-16T14:50:00Z</time>
      </trkpt>
      <trkpt lat="48.36672" lon="2.74247">
        <ele>120</ele>
        <time>2019-02-16T14:50:05Z</time>
      </trkpt>
      <trkpt lat="48.36673" lon="2.74255">
        <ele>120</ele>
        <time>2019-02-16T14:50:10Z</time>
      </trkpt>
      <trkpt lat="48.36672" lon="2.74263">
        <ele>120</ele>
        <time>2019-02-16T14:50:15Z</time>
      </trkpt>
      <trkpt lat="48.36672" lon="2.7427">
        <ele>119.80000305176</ele>
        <time>2019-02-16T14:50:20Z</time>
      </trkpt>
      <trkpt lat="48.3667" lon="2.74279">
        <ele>119.80000305176</ele>
        <time>2019-02-16T14:50:25Z</time>
      </trkpt>
      <trkpt lat="48.36669" lon="2.74289">
        <ele>119.80000305176</ele>
        <time>2019-02-16T14:50:30Z</time>
      </trkpt>
      <trkpt lat="48.36667" lon="2.74296">
        <ele>119.80000305176</ele>
        <time>2019-02-16T14:50:35Z</time>
      </trkpt>
      <trkpt lat="48.36665" lon="2.74304">
        <ele>119.59999847412</ele>
        <time>2019-02-16T14:50:40Z</time>
      </trkpt>
      <trkpt lat="48.36664" lon="2.74311">
        <ele>119.40000152588</ele>
        <time>2019-02-16T14:50:45Z</time>
      </trkpt>
      <trkpt lat="48.36663" lon="2.74319">
        <ele>119.19999694824</ele>
        <time>2019-02-16T14:50:50Z</time>
      </trkpt>
      <trkpt lat="48.36662" lon="2.74327">
        <ele>119</ele>
        <time>2019-02-16T14:50:55Z</time>
      </trkpt>
      <trkpt lat="48.36659" lon="2.74337">
        <ele>119</ele>
        <time>2019-02-16T14:51:00Z</time>
      </trkpt>
      <trkpt lat="48.36657" lon="2.74346">
        <ele>118.80000305176</ele>
        <time>2019-02-16T14:51:05Z</time>
      </trkpt>
      <trkpt lat="48.36656" lon="2.74356">
        <ele>118.80000305176</ele>
        <time>2019-02-16T14:51:10Z</time>
      </trkpt>
      <trkpt lat="48.36655" lon="2.74366">
        <ele>118.59999847412</ele>
        <time>2019-02-16T14:51:15Z</time>
      </trkpt>
      <trkpt lat="48.36653" lon="2.74374">
        <ele>118.59999847412</ele>
        <time>2019-02-16T14:51:20Z</time>
      </trkpt>
      <trkpt lat="48.36652" lon="2.74384">
        <ele>118.40000152588</ele>
        <time>2019-02-16T14:51:25Z</time>
      </trkpt>
      <trkpt lat="48.36651" lon="2.74392">
        <ele>118.40000152588</ele>
        <time>2019-02-16T14:51:30Z</time>
      </trkpt>
      <trkpt lat="48.3665" lon="2.744">
        <ele>118.40000152588</ele>
        <time>2019-02-16T14:51:35Z</time>
      </trkpt>
      <trkpt lat="48.36649" lon="2.74407">
        <ele>118.40000152588</ele>
        <time>2019-02-16T14:51:40Z</time>
      </trkpt>
      <trkpt lat="48.36647" lon="2.74414">
        <ele>118.40000152588</ele>
        <time>2019-02-16T14:51:45Z</time>
      </trkpt>
      <trkpt lat="48.36646" lon="2.74423">
        <ele>118.59999847412</ele>
        <time>2019-02-16T14:51:50Z</time>
      </trkpt>
      <trkpt lat="48.36646" lon="2.74432">
        <ele>118.59999847412</ele>
        <time>2019-02-16T14:51:55Z</time>
      </trkpt>
      <trkpt lat="48.36644" lon="2.7444">
        <ele>118.59999847412</ele>
        <time>2019-02-16T14:52:00Z</time>
      </trkpt>
      <trkpt lat="48.36643" lon="2.74449">
        <ele>118.59999847412</ele>
        <time>2019-02-16T14:52:05Z</time>
      </trkpt>
      <trkpt lat="48.36643" lon="2.74457">
        <ele>118.80000305176</ele>
        <time>2019-02-16T14:52:10Z</time>
      </trkpt>
      <trkpt lat="48.36643" lon="2.74466">
        <ele>119</ele>
        <time>2019-02-16T14:52:15Z</time>
      </trkpt>
      <trkpt lat="48.36636" lon="2.74481">
        <ele>119.40000152588</ele>
        <time>2019-02-16T14:54:15Z</time>
      </trkpt>
      <trkpt lat="48.3663" lon="2.74485">
        <ele>119.40000152588</ele>
        <time>2019-02-16T15:03:37Z</time>
      </trkpt>
      <trkpt lat="48.36631" lon="2.74485">
        <ele>119.40000152588</ele>
        <time>2019-02-16T15:03:47Z</time>
      </trkpt>
      <trkpt lat="48.36631" lon="2.74485">
        <ele>119.40000152588</ele>
        <time>2019-02-16T15:04:17Z</time>
      </trkpt>
      <trkpt lat="48.36623" lon="2.74488">
        <ele>119</ele>
        <time>2019-02-16T15:05:32Z</time>
      </trkpt>
      <trkpt lat="48.3662" lon="2.74491">
        <ele>118.80000305176</ele>
        <time>2019-02-16T15:05:37Z</time>
      </trkpt>
      <trkpt lat="48.36617" lon="2.74491">
        <ele>118.59999847412</ele>
        <time>2019-02-16T15:05:42Z</time>
      </trkpt>
      <trkpt lat="48.36613" lon="2.74491">
        <ele>118.40000152588</ele>
        <time>2019-02-16T15:05:47Z</time>
      </trkpt>
      <trkpt lat="48.36606" lon="2.74493">
        <ele>118.59999847412</ele>
        <time>2019-02-16T15:05:52Z</time>
      </trkpt>
      <trkpt lat="48.36597" lon="2.74493">
        <ele>118.40000152588</ele>
        <time>2019-02-16T15:05:57Z</time>
      </trkpt>
      <trkpt lat="48.36588" lon="2.74492">
        <ele>118.40000152588</ele>
        <time>2019-02-16T15:06:02Z</time>
      </trkpt>
      <trkpt lat="48.36583" lon="2.74495">
        <ele>118.40000152588</ele>
        <time>2019-02-16T15:06:07Z</time>
      </trkpt>
      <trkpt lat="48.36578" lon="2.74495">
        <ele>118.40000152588</ele>
        <time>2019-02-16T15:06:12Z</time>
      </trkpt>
      <trkpt lat="48.36573" lon="2.74493">
        <ele>118.40000152588</ele>
        <time>2019-02-16T15:06:17Z</time>
      </trkpt>
      <trkpt lat="48.36568" lon="2.74492">
        <ele>118.40000152588</ele>
        <time>2019-02-16T15:06:22Z</time>
      </trkpt>
      <trkpt lat="48.36562" lon="2.74493">
        <ele>118.40000152588</ele>
        <time>2019-02-16T15:06:27Z</time>
      </trkpt>
      <trkpt lat="48.36557" lon="2.74493">
        <ele>118.40000152588</ele>
        <time>2019-02-16T15:06:32Z</time>
      </trkpt>
      <trkpt lat="48.36552" lon="2.74494">
        <ele>118.59999847412</ele>
        <time>2019-02-16T15:06:37Z</time>
      </trkpt>
      <trkpt lat="48.36547" lon="2.74494">
        <ele>118.80000305176</ele>
        <time>2019-02-16T15:06:42Z</time>
      </trkpt>
      <trkpt lat="48.36542" lon="2.74496">
        <ele>119</ele>
        <time>2019-02-16T15:06:47Z</time>
      </trkpt>
      <trkpt lat="48.36537" lon="2.74497">
        <ele>119</ele>
        <time>2019-02-16T15:06:52Z</time>
      </trkpt>
      <trkpt lat="48.36532" lon="2.74498">
        <ele>119</ele>
        <time>2019-02-16T15:06:57Z</time>
      </trkpt>
      <trkpt lat="48.36528" lon="2.74498">
        <ele>119.19999694824</ele>
        <time>2019-02-16T15:07:02Z</time>
      </trkpt>
      <trkpt lat="48.36523" lon="2.745">
        <ele>119.40000152588</ele>
        <time>2019-02-16T15:07:07Z</time>
      </trkpt>
      <trkpt lat="48.36518" lon="2.74498">
        <ele>119.40000152588</ele>
        <time>2019-02-16T15:07:12Z</time>
      </trkpt>
      <trkpt lat="48.36512" lon="2.74499">
        <ele>119.59999847412</ele>
        <time>2019-02-16T15:07:17Z</time>
      </trkpt>
      <trkpt lat="48.36506" lon="2.745">
        <ele>119.80000305176</ele>
        <time>2019-02-16T15:07:22Z</time>
      </trkpt>
      <trkpt lat="48.36502" lon="2.74501">
        <ele>120</ele>
        <time>2019-02-16T15:07:27Z</time>
      </trkpt>
      <trkpt lat="48.36497" lon="2.74501">
        <ele>120</ele>
        <time>2019-02-16T15:07:32Z</time>
      </trkpt>
      <trkpt lat="48.36491" lon="2.74501">
        <ele>120.19999694824</ele>
        <time>2019-02-16T15:07:37Z</time>
      </trkpt>
      <trkpt lat="48.36485" lon="2.74503">
        <ele>120.40000152588</ele>
        <time>2019-02-16T15:07:42Z</time>
      </trkpt>
      <trkpt lat="48.36479" lon="2.74505">
        <ele>120.80000305176</ele>
        <time>2019-02-16T15:07:47Z</time>
      </trkpt>
      <trkpt lat="48.36476" lon="2.74506">
        <ele>120.80000305176</ele>
        <time>2019-02-16T15:07:52Z</time>
      </trkpt>
      <trkpt lat="48.36472" lon="2.74507">
        <ele>120.80000305176</ele>
        <time>2019-02-16T15:07:57Z</time>
      </trkpt>
      <trkpt lat="48.36467" lon="2.74509">
        <ele>121.19999694824</ele>
        <time>2019-02-16T15:08:02Z</time>
      </trkpt>
      <trkpt lat="48.36459" lon="2.7451">
        <ele>121.59999847412</ele>
        <time>2019-02-16T15:08:07Z</time>
      </trkpt>
      <trkpt lat="48.36452" lon="2.74507">
        <ele>121.80000305176</ele>
        <time>2019-02-16T15:08:12Z</time>
      </trkpt>
      <trkpt lat="48.36448" lon="2.74507">
        <ele>122</ele>
        <time>2019-02-16T15:08:17Z</time>
      </trkpt>
      <trkpt lat="48.36444" lon="2.74506">
        <ele>122.40000152588</ele>
        <time>2019-02-16T15:08:22Z</time>
      </trkpt>
      <trkpt lat="48.36441" lon="2.74506">
        <ele>122.59999847412</ele>
        <time>2019-02-16T15:08:27Z</time>
      </trkpt>
      <trkpt lat="48.36437" lon="2.74509">
        <ele>122.80000305176</ele>
        <time>2019-02-16T15:08:32Z</time>
      </trkpt>
      <trkpt lat="48.36433" lon="2.74512">
        <ele>123.40000152588</ele>
        <time>2019-02-16T15:08:37Z</time>
      </trkpt>
      <trkpt lat="48.36426" lon="2.74515">
        <ele>123.80000305176</ele>
        <time>2019-02-16T15:08:42Z</time>
      </trkpt>
      <trkpt lat="48.36421" lon="2.74517">
        <ele>124.19999694824</ele>
        <time>2019-02-16T15:08:47Z</time>
      </trkpt>
      <trkpt lat="48.36416" lon="2.74519">
        <ele>124.59999847412</ele>
        <time>2019-02-16T15:08:52Z</time>
      </trkpt>
      <trkpt lat="48.36412" lon="2.74519">
        <ele>125</ele>
        <time>2019-02-16T15:08:57Z</time>
      </trkpt>
      <trkpt lat="48.36407" lon="2.74521">
        <ele>125.40000152588</ele>
        <time>2019-02-16T15:09:02Z</time>
      </trkpt>
      <trkpt lat="48.36399" lon="2.74524">
        <ele>125.80000305176</ele>
        <time>2019-02-16T15:09:07Z</time>
      </trkpt>
      <trkpt lat="48.36393" lon="2.74526">
        <ele>126.40000152588</ele>
        <time>2019-02-16T15:09:12Z</time>
      </trkpt>
      <trkpt lat="48.36389" lon="2.74527">
        <ele>126.59999847412</ele>
        <time>2019-02-16T15:09:17Z</time>
      </trkpt>
      <trkpt lat="48.36383" lon="2.74527">
        <ele>127.19999694824</ele>
        <time>2019-02-16T15:09:22Z</time>
      </trkpt>
      <trkpt lat="48.36379" lon="2.74526">
        <ele>127.59999847412</ele>
        <time>2019-02-16T15:09:27Z</time>
      </trkpt>
      <trkpt lat="48.36375" lon="2.74529">
        <ele>128</ele>
        <time>2019-02-16T15:09:32Z</time>
      </trkpt>
      <trkpt lat="48.36371" lon="2.74531">
        <ele>128</ele>
        <time>2019-02-16T15:09:37Z</time>
      </trkpt>
      <trkpt lat="48.36368" lon="2.74532">
        <ele>127.40000152588</ele>
        <time>2019-02-16T15:09:42Z</time>
      </trkpt>
      <trkpt lat="48.36363" lon="2.74534">
        <ele>126.80000305176</ele>
        <time>2019-02-16T15:09:47Z</time>
      </trkpt>
      <trkpt lat="48.36359" lon="2.74535">
        <ele>125.80000305176</ele>
        <time>2019-02-16T15:09:52Z</time>
      </trkpt>
      <trkpt lat="48.36354" lon="2.74535">
        <ele>125.59999847412</ele>
        <time>2019-02-16T15:09:57Z</time>
      </trkpt>
      <trkpt lat="48.36351" lon="2.74535">
        <ele>124.80000305176</ele>
        <time>2019-02-16T15:10:02Z</time>
      </trkpt>
      <trkpt lat="48.36346" lon="2.74537">
        <ele>124.59999847412</ele>
        <time>2019-02-16T15:10:07Z</time>
      </trkpt>
      <trkpt lat="48.36338" lon="2.74538">
        <ele>123.80000305176</ele>
        <time>2019-02-16T15:10:12Z</time>
      </trkpt>
      <trkpt lat="48.36332" lon="2.74538">
        <ele>123.19999694824</ele>
        <time>2019-02-16T15:10:17Z</time>
      </trkpt>
      <trkpt lat="48.36326" lon="2.74536">
        <ele>123</ele>
        <time>2019-02-16T15:10:22Z</time>
      </trkpt>
      <trkpt lat="48.36322" lon="2.74538">
        <ele>122.59999847412</ele>
        <time>2019-02-16T15:10:27Z</time>
      </trkpt>
      <trkpt lat="48.36317" lon="2.7454">
        <ele>122.59999847412</ele>
        <time>2019-02-16T15:10:32Z</time>
      </trkpt>
      <trkpt lat="48.36314" lon="2.74544">
        <ele>122.80000305176</ele>
        <time>2019-02-16T15:10:37Z</time>
      </trkpt>
      <trkpt lat="48.36309" lon="2.74549">
        <ele>122.80000305176</ele>
        <time>2019-02-16T15:10:42Z</time>
      </trkpt>
      <trkpt lat="48.36304" lon="2.74555">
        <ele>122.80000305176</ele>
        <time>2019-02-16T15:10:47Z</time>
      </trkpt>
      <trkpt lat="48.363" lon="2.7456">
        <ele>123</ele>
        <time>2019-02-16T15:10:52Z</time>
      </trkpt>
      <trkpt lat="48.36298" lon="2.74563">
        <ele>123.19999694824</ele>
        <time>2019-02-16T15:10:57Z</time>
      </trkpt>
      <trkpt lat="48.36296" lon="2.74566">
        <ele>123.19999694824</ele>
        <time>2019-02-16T15:11:02Z</time>
      </trkpt>
      <trkpt lat="48.36293" lon="2.74567">
        <ele>123.40000152588</ele>
        <time>2019-02-16T15:11:07Z</time>
      </trkpt>
      <trkpt lat="48.36291" lon="2.74568">
        <ele>123.59999847412</ele>
        <time>2019-02-16T15:11:12Z</time>
      </trkpt>
      <trkpt lat="48.3629" lon="2.74571">
        <ele>124</ele>
        <time>2019-02-16T15:11:17Z</time>
      </trkpt>
      <trkpt lat="48.36287" lon="2.74572">
        <ele>124</ele>
        <time>2019-02-16T15:11:22Z</time>
      </trkpt>
      <trkpt lat="48.36286" lon="2.74577">
        <ele>124.40000152588</ele>
        <time>2019-02-16T15:11:27Z</time>
      </trkpt>
      <trkpt lat="48.36282" lon="2.74582">
        <ele>124.59999847412</ele>
        <time>2019-02-16T15:11:32Z</time>
      </trkpt>
      <trkpt lat="48.36279" lon="2.74588">
        <ele>124.80000305176</ele>
        <time>2019-02-16T15:11:37Z</time>
      </trkpt>
      <trkpt lat="48.36275" lon="2.74595">
        <ele>125</ele>
        <time>2019-02-16T15:11:42Z</time>
      </trkpt>
      <trkpt lat="48.36272" lon="2.74602">
        <ele>125.40000152588</ele>
        <time>2019-02-16T15:11:47Z</time>
      </trkpt>
      <trkpt lat="48.36268" lon="2.74605">
        <ele>125.59999847412</ele>
        <time>2019-02-16T15:11:52Z</time>
      </trkpt>
      <trkpt lat="48.36262" lon="2.74608">
        <ele>126</ele>
        <time>2019-02-16T15:11:57Z</time>
      </trkpt>
      <trkpt lat="48.36255" lon="2.7461">
        <ele>126.40000152588</ele>
        <time>2019-02-16T15:12:02Z</time>
      </trkpt>
      <trkpt lat="48.36249" lon="2.74612">
        <ele>126.59999847412</ele>
        <time>2019-02-16T15:12:07Z</time>
      </trkpt>
      <trkpt lat="48.36244" lon="2.74615">
        <ele>127.59999847412</ele>
        <time>2019-02-16T15:12:12Z</time>
      </trkpt>
      <trkpt lat="48.36237" lon="2.74621">
        <ele>128.19999694824</ele>
        <time>2019-02-16T15:12:17Z</time>
      </trkpt>
      <trkpt lat="48.36229" lon="2.74626">
        <ele>128.39999389648</ele>
        <time>2019-02-16T15:12:22Z</time>
      </trkpt>
      <trkpt lat="48.36221" lon="2.74631">
        <ele>129</ele>
        <time>2019-02-16T15:12:27Z</time>
      </trkpt>
      <trkpt lat="48.36218" lon="2.74634">
        <ele>129.39999389648</ele>
        <time>2019-02-16T15:12:32Z</time>
      </trkpt>
      <trkpt lat="48.36214" lon="2.74636">
        <ele>130.19999694824</ele>
        <time>2019-02-16T15:12:37Z</time>
      </trkpt>
      <trkpt lat="48.36211" lon="2.74638">
        <ele>130.60000610352</ele>
        <time>2019-02-16T15:12:42Z</time>
      </trkpt>
      <trkpt lat="48.36209" lon="2.74642">
        <ele>131</ele>
        <time>2019-02-16T15:12:47Z</time>
      </trkpt>
      <trkpt lat="48.36209" lon="2.74647">
        <ele>131.39999389648</ele>
        <time>2019-02-16T15:12:52Z</time>
      </trkpt>
      <trkpt lat="48.3621" lon="2.7465">
        <ele>132</ele>
        <time>2019-02-16T15:12:57Z</time>
      </trkpt>
      <trkpt lat="48.36209" lon="2.74655">
        <ele>132.19999694824</ele>
        <time>2019-02-16T15:13:02Z</time>
      </trkpt>
      <trkpt lat="48.36208" lon="2.74657">
        <ele>132.39999389648</ele>
        <time>2019-02-16T15:13:07Z</time>
      </trkpt>
      <trkpt lat="48.36209" lon="2.74658">
        <ele>132.39999389648</ele>
        <time>2019-02-16T15:13:12Z</time>
      </trkpt>
      <trkpt lat="48.36209" lon="2.74663">
        <ele>132.19999694824</ele>
        <time>2019-02-16T15:13:17Z</time>
      </trkpt>
      <trkpt lat="48.36211" lon="2.74669">
        <ele>133.19999694824</ele>
        <time>2019-02-16T15:13:22Z</time>
      </trkpt>
      <trkpt lat="48.36213" lon="2.74677">
        <ele>133.39999389648</ele>
        <time>2019-02-16T15:13:27Z</time>
      </trkpt>
      <trkpt lat="48.36214" lon="2.74685">
        <ele>134.39999389648</ele>
        <time>2019-02-16T15:13:32Z</time>
      </trkpt>
      <trkpt lat="48.36214" lon="2.74689">
        <ele>135.19999694824</ele>
        <time>2019-02-16T15:13:37Z</time>
      </trkpt>
      <trkpt lat="48.36217" lon="2.74693">
        <ele>135.80000305176</ele>
        <time>2019-02-16T15:13:42Z</time>
      </trkpt>
      <trkpt lat="48.36219" lon="2.74695">
        <ele>136.80000305176</ele>
        <time>2019-02-16T15:13:47Z</time>
      </trkpt>
      <trkpt lat="48.36221" lon="2.74698">
        <ele>137.19999694824</ele>
        <time>2019-02-16T15:13:52Z</time>
      </trkpt>
      <trkpt lat="48.36223" lon="2.74704">
        <ele>138.19999694824</ele>
        <time>2019-02-16T15:13:57Z</time>
      </trkpt>
      <trkpt lat="48.36226" lon="2.7471">
        <ele>138.60000610352</ele>
        <time>2019-02-16T15:14:02Z</time>
      </trkpt>
      <trkpt lat="48.36229" lon="2.74715">
        <ele>139.39999389648</ele>
        <time>2019-02-16T15:14:07Z</time>
      </trkpt>
      <trkpt lat="48.36232" lon="2.7472">
        <ele>139.60000610352</ele>
        <time>2019-02-16T15:14:12Z</time>
      </trkpt>
      <trkpt lat="48.36235" lon="2.74726">
        <ele>140.60000610352</ele>
        <time>2019-02-16T15:14:17Z</time>
      </trkpt>
      <trkpt lat="48.36238" lon="2.74732">
        <ele>140.80000305176</ele>
        <time>2019-02-16T15:14:22Z</time>
      </trkpt>
      <trkpt lat="48.3624" lon="2.74736">
        <ele>141.19999694824</ele>
        <time>2019-02-16T15:14:27Z</time>
      </trkpt>
      <trkpt lat="48.36241" lon="2.7474">
        <ele>141.39999389648</ele>
        <time>2019-02-16T15:14:32Z</time>
      </trkpt>
      <trkpt lat="48.36238" lon="2.74748">
        <ele>142</ele>
        <time>2019-02-16T15:14:37Z</time>
      </trkpt>
      <trkpt lat="48.36235" lon="2.74754">
        <ele>142.19999694824</ele>
        <time>2019-02-16T15:14:42Z</time>
      </trkpt>
      <trkpt lat="48.36231" lon="2.74759">
        <ele>142.60000610352</ele>
        <time>2019-02-16T15:14:47Z</time>
      </trkpt>
      <trkpt lat="48.36225" lon="2.74762">
        <ele>143</ele>
        <time>2019-02-16T15:14:52Z</time>
      </trkpt>
      <trkpt lat="48.36219" lon="2.74763">
        <ele>143.39999389648</ele>
        <time>2019-02-16T15:14:58Z</time>
      </trkpt>
      <trkpt lat="48.36217" lon="2.74766">
        <ele>143.80000305176</ele>
        <time>2019-02-16T15:15:03Z</time>
      </trkpt>
      <trkpt lat="48.36215" lon="2.74767">
        <ele>144</ele>
        <time>2019-02-16T15:15:08Z</time>
      </trkpt>
      <trkpt lat="48.36211" lon="2.74772">
        <ele>144.19999694824</ele>
        <time>2019-02-16T15:15:13Z</time>
      </trkpt>
      <trkpt lat="48.36208" lon="2.74773">
        <ele>144.80000305176</ele>
        <time>2019-02-16T15:15:18Z</time>
      </trkpt>
      <trkpt lat="48.36205" lon="2.74774">
        <ele>145.19999694824</ele>
        <time>2019-02-16T15:15:23Z</time>
      </trkpt>
      <trkpt lat="48.36202" lon="2.74773">
        <ele>145.80000305176</ele>
        <time>2019-02-16T15:15:28Z</time>
      </trkpt>
      <trkpt lat="48.36199" lon="2.74772">
        <ele>146.39999389648</ele>
        <time>2019-02-16T15:15:33Z</time>
      </trkpt>
      <trkpt lat="48.36196" lon="2.74768">
        <ele>146.80000305176</ele>
        <time>2019-02-16T15:15:38Z</time>
      </trkpt>
      <trkpt lat="48.36192" lon="2.74764">
        <ele>147.19999694824</ele>
        <time>2019-02-16T15:15:43Z</time>
      </trkpt>
      <trkpt lat="48.36188" lon="2.7476">
        <ele>147.39999389648</ele>
        <time>2019-02-16T15:15:48Z</time>
      </trkpt>
      <trkpt lat="48.36184" lon="2.74755">
        <ele>148</ele>
        <time>2019-02-16T15:15:53Z</time>
      </trkpt>
      <trkpt lat="48.3618" lon="2.74749">
        <ele>148.39999389648</ele>
        <time>2019-02-16T15:15:58Z</time>
      </trkpt>
      <trkpt lat="48.36176" lon="2.74744">
        <ele>148.80000305176</ele>
        <time>2019-02-16T15:16:03Z</time>
      </trkpt>
      <trkpt lat="48.36171" lon="2.74738">
        <ele>149</ele>
        <time>2019-02-16T15:16:08Z</time>
      </trkpt>
      <trkpt lat="48.36166" lon="2.74732">
        <ele>149.19999694824</ele>
        <time>2019-02-16T15:16:13Z</time>
      </trkpt>
      <trkpt lat="48.36163" lon="2.74728">
        <ele>149.60000610352</ele>
        <time>2019-02-16T15:16:18Z</time>
      </trkpt>
      <trkpt lat="48.36159" lon="2.74722">
        <ele>149.60000610352</ele>
        <time>2019-02-16T15:16:23Z</time>
      </trkpt>
      <trkpt lat="48.36154" lon="2.74718">
        <ele>149.60000610352</ele>
        <time>2019-02-16T15:16:28Z</time>
      </trkpt>
      <trkpt lat="48.36152" lon="2.74712">
        <ele>149.80000305176</ele>
        <time>2019-02-16T15:16:33Z</time>
      </trkpt>
      <trkpt lat="48.36149" lon="2.74708">
        <ele>150</ele>
        <time>2019-02-16T15:16:38Z</time>
      </trkpt>
      <trkpt lat="48.36146" lon="2.74702">
        <ele>150</ele>
        <time>2019-02-16T15:16:43Z</time>
      </trkpt>
      <trkpt lat="48.36145" lon="2.74695">
        <ele>150</ele>
        <time>2019-02-16T15:16:48Z</time>
      </trkpt>
      <trkpt lat="48.36144" lon="2.74693">
        <ele>150</ele>
        <time>2019-02-16T15:16:53Z</time>
      </trkpt>
      <trkpt lat="48.36143" lon="2.74691">
        <ele>150</ele>
        <time>2019-02-16T15:16:58Z</time>
      </trkpt>
      <trkpt lat="48.36141" lon="2.74689">
        <ele>150.19999694824</ele>
        <time>2019-02-16T15:17:03Z</time>
      </trkpt>
      <trkpt lat="48.36141" lon="2.74688">
        <ele>150.19999694824</ele>
        <time>2019-02-16T15:17:08Z</time>
      </trkpt>
      <trkpt lat="48.36141" lon="2.74687">
        <ele>150.19999694824</ele>
        <time>2019-02-16T15:17:13Z</time>
      </trkpt>
      <trkpt lat="48.36141" lon="2.74687">
        <ele>150.39999389648</ele>
        <time>2019-02-16T15:17:18Z</time>
      </trkpt>
      <trkpt lat="48.36141" lon="2.74683">
        <ele>150.39999389648</ele>
        <time>2019-02-16T15:17:23Z</time>
      </trkpt>
      <trkpt lat="48.36143" lon="2.74678">
        <ele>150.19999694824</ele>
        <time>2019-02-16T15:17:28Z</time>
      </trkpt>
      <trkpt lat="48.36144" lon="2.74672">
        <ele>150</ele>
        <time>2019-02-16T15:17:33Z</time>
      </trkpt>
      <trkpt lat="48.36145" lon="2.74669">
        <ele>149.80000305176</ele>
        <time>2019-02-16T15:17:38Z</time>
      </trkpt>
      <trkpt lat="48.36146" lon="2.74666">
        <ele>149.80000305176</ele>
        <time>2019-02-16T15:17:43Z</time>
      </trkpt>
      <trkpt lat="48.36145" lon="2.74662">
        <ele>149.80000305176</ele>
        <time>2019-02-16T15:17:48Z</time>
      </trkpt>
      <trkpt lat="48.36143" lon="2.74658">
        <ele>149.60000610352</ele>
        <time>2019-02-16T15:17:53Z</time>
      </trkpt>
      <trkpt lat="48.36143" lon="2.74654">
        <ele>149.80000305176</ele>
        <time>2019-02-16T15:17:58Z</time>
      </trkpt>
      <trkpt lat="48.36143" lon="2.74654">
        <ele>149.80000305176</ele>
        <time>2019-02-16T15:18:03Z</time>
      </trkpt>
      <trkpt lat="48.3614" lon="2.7465">
        <ele>149.80000305176</ele>
        <time>2019-02-16T15:18:08Z</time>
      </trkpt>
      <trkpt lat="48.36137" lon="2.74643">
        <ele>149.80000305176</ele>
        <time>2019-02-16T15:18:13Z</time>
      </trkpt>
      <trkpt lat="48.36134" lon="2.74636">
        <ele>149.80000305176</ele>
        <time>2019-02-16T15:18:18Z</time>
      </trkpt>
      <trkpt lat="48.36132" lon="2.74631">
        <ele>150</ele>
        <time>2019-02-16T15:18:23Z</time>
      </trkpt>
      <trkpt lat="48.36133" lon="2.74623">
        <ele>149.80000305176</ele>
        <time>2019-02-16T15:18:28Z</time>
      </trkpt>
      <trkpt lat="48.36134" lon="2.74617">
        <ele>149.80000305176</ele>
        <time>2019-02-16T15:18:33Z</time>
      </trkpt>
      <trkpt lat="48.36135" lon="2.7461">
        <ele>149.60000610352</ele>
        <time>2019-02-16T15:18:38Z</time>
      </trkpt>
      <trkpt lat="48.36135" lon="2.74603">
        <ele>149.39999389648</ele>
        <time>2019-02-16T15:18:43Z</time>
      </trkpt>
      <trkpt lat="48.36136" lon="2.74595">
        <ele>149.19999694824</ele>
        <time>2019-02-16T15:18:48Z</time>
      </trkpt>
      <trkpt lat="48.36136" lon="2.74588">
        <ele>149</ele>
        <time>2019-02-16T15:18:53Z</time>
      </trkpt>
      <trkpt lat="48.36134" lon="2.74581">
        <ele>148.80000305176</ele>
        <time>2019-02-16T15:18:58Z</time>
      </trkpt>
      <trkpt lat="48.36133" lon="2.74572">
        <ele>148.60000610352</ele>
        <time>2019-02-16T15:19:03Z</time>
      </trkpt>
      <trkpt lat="48.36131" lon="2.74565">
        <ele>148</ele>
        <time>2019-02-16T15:19:08Z</time>
      </trkpt>
      <trkpt lat="48.3613" lon="2.74556">
        <ele>147.80000305176</ele>
        <time>2019-02-16T15:19:13Z</time>
      </trkpt>
      <trkpt lat="48.36128" lon="2.74548">
        <ele>147.60000610352</ele>
        <time>2019-02-16T15:19:18Z</time>
      </trkpt>
      <trkpt lat="48.36129" lon="2.7454">
        <ele>147.39999389648</ele>
        <time>2019-02-16T15:19:23Z</time>
      </trkpt>
      <trkpt lat="48.3613" lon="2.74531">
        <ele>147.19999694824</ele>
        <time>2019-02-16T15:19:28Z</time>
      </trkpt>
      <trkpt lat="48.36131" lon="2.74522">
        <ele>147.19999694824</ele>
        <time>2019-02-16T15:19:33Z</time>
      </trkpt>
      <trkpt lat="48.36131" lon="2.74515">
        <ele>147</ele>
        <time>2019-02-16T15:19:38Z</time>
      </trkpt>
      <trkpt lat="48.36133" lon="2.74506">
        <ele>146.60000610352</ele>
        <time>2019-02-16T15:19:43Z</time>
      </trkpt>
      <trkpt lat="48.36135" lon="2.74497">
        <ele>146.39999389648</ele>
        <time>2019-02-16T15:19:48Z</time>
      </trkpt>
      <trkpt lat="48.36136" lon="2.74492">
        <ele>145.80000305176</ele>
        <time>2019-02-16T15:19:52Z</time>
      </trkpt>
      <trkpt lat="48.36138" lon="2.74481">
        <ele>145.19999694824</ele>
        <time>2019-02-16T15:19:58Z</time>
      </trkpt>
      <trkpt lat="48.36139" lon="2.74474">
        <ele>144.80000305176</ele>
        <time>2019-02-16T15:20:03Z</time>
      </trkpt>
      <trkpt lat="48.36139" lon="2.7447">
        <ele>144.39999389648</ele>
        <time>2019-02-16T15:20:07Z</time>
      </trkpt>
      <trkpt lat="48.36142" lon="2.74461">
        <ele>143.60000610352</ele>
        <time>2019-02-16T15:20:13Z</time>
      </trkpt>
      <trkpt lat="48.36142" lon="2.74453">
        <ele>143</ele>
        <time>2019-02-16T15:20:18Z</time>
      </trkpt>
      <trkpt lat="48.36142" lon="2.74444">
        <ele>142.39999389648</ele>
        <time>2019-02-16T15:20:23Z</time>
      </trkpt>
      <trkpt lat="48.36144" lon="2.74434">
        <ele>141.60000610352</ele>
        <time>2019-02-16T15:20:28Z</time>
      </trkpt>
      <trkpt lat="48.36145" lon="2.74426">
        <ele>140.80000305176</ele>
        <time>2019-02-16T15:20:33Z</time>
      </trkpt>
      <trkpt lat="48.36145" lon="2.74418">
        <ele>140.39999389648</ele>
        <time>2019-02-16T15:20:38Z</time>
      </trkpt>
      <trkpt lat="48.36145" lon="2.74409">
        <ele>140</ele>
        <time>2019-02-16T15:20:43Z</time>
      </trkpt>
      <trkpt lat="48.36145" lon="2.74401">
        <ele>139.39999389648</ele>
        <time>2019-02-16T15:20:48Z</time>
      </trkpt>
      <trkpt lat="48.36147" lon="2.74394">
        <ele>139</ele>
        <time>2019-02-16T15:20:53Z</time>
      </trkpt>
      <trkpt lat="48.36148" lon="2.74385">
        <ele>138.60000610352</ele>
        <time>2019-02-16T15:20:58Z</time>
      </trkpt>
      <trkpt lat="48.36149" lon="2.74377">
        <ele>138.19999694824</ele>
        <time>2019-02-16T15:21:03Z</time>
      </trkpt>
      <trkpt lat="48.36149" lon="2.74368">
        <ele>137.60000610352</ele>
        <time>2019-02-16T15:21:08Z</time>
      </trkpt>
      <trkpt lat="48.36149" lon="2.74361">
        <ele>137.19999694824</ele>
        <time>2019-02-16T15:21:13Z</time>
      </trkpt>
      <trkpt lat="48.3615" lon="2.74354">
        <ele>136.80000305176</ele>
        <time>2019-02-16T15:21:18Z</time>
      </trkpt>
      <trkpt lat="48.3615" lon="2.74346">
        <ele>136.39999389648</ele>
        <time>2019-02-16T15:21:23Z</time>
      </trkpt>
      <trkpt lat="48.36151" lon="2.74341">
        <ele>136</ele>
        <time>2019-02-16T15:21:28Z</time>
      </trkpt>
      <trkpt lat="48.36151" lon="2.74335">
        <ele>135.80000305176</ele>
        <time>2019-02-16T15:21:33Z</time>
      </trkpt>
      <trkpt lat="48.36151" lon="2.74328">
        <ele>135.19999694824</ele>
        <time>2019-02-16T15:21:38Z</time>
      </trkpt>
      <trkpt lat="48.36152" lon="2.7432">
        <ele>134.80000305176</ele>
        <time>2019-02-16T15:21:43Z</time>
      </trkpt>
      <trkpt lat="48.3615" lon="2.74314">
        <ele>134</ele>
        <time>2019-02-16T15:21:48Z</time>
      </trkpt>
      <trkpt lat="48.36152" lon="2.74307">
        <ele>133.39999389648</ele>
        <time>2019-02-16T15:21:53Z</time>
      </trkpt>
      <trkpt lat="48.36154" lon="2.743">
        <ele>133</ele>
        <time>2019-02-16T15:21:58Z</time>
      </trkpt>
      <trkpt lat="48.36156" lon="2.74293">
        <ele>132.39999389648</ele>
        <time>2019-02-16T15:22:03Z</time>
      </trkpt>
      <trkpt lat="48.36157" lon="2.74286">
        <ele>132</ele>
        <time>2019-02-16T15:22:08Z</time>
      </trkpt>
      <trkpt lat="48.36158" lon="2.74279">
        <ele>131.60000610352</ele>
        <time>2019-02-16T15:22:13Z</time>
      </trkpt>
      <trkpt lat="48.36158" lon="2.74272">
        <ele>131.19999694824</ele>
        <time>2019-02-16T15:22:18Z</time>
      </trkpt>
      <trkpt lat="48.36159" lon="2.74265">
        <ele>130.60000610352</ele>
        <time>2019-02-16T15:22:23Z</time>
      </trkpt>
      <trkpt lat="48.3616" lon="2.74257">
        <ele>130</ele>
        <time>2019-02-16T15:22:28Z</time>
      </trkpt>
      <trkpt lat="48.36163" lon="2.74249">
        <ele>129.19999694824</ele>
        <time>2019-02-16T15:22:33Z</time>
      </trkpt>
      <trkpt lat="48.36164" lon="2.74241">
        <ele>128.39999389648</ele>
        <time>2019-02-16T15:22:38Z</time>
      </trkpt>
      <trkpt lat="48.36164" lon="2.74236">
        <ele>127.59999847412</ele>
        <time>2019-02-16T15:22:43Z</time>
      </trkpt>
      <trkpt lat="48.36164" lon="2.7423">
        <ele>127</ele>
        <time>2019-02-16T15:22:48Z</time>
      </trkpt>
      <trkpt lat="48.36164" lon="2.74222">
        <ele>126.40000152588</ele>
        <time>2019-02-16T15:22:53Z</time>
      </trkpt>
      <trkpt lat="48.36164" lon="2.74214">
        <ele>126</ele>
        <time>2019-02-16T15:22:58Z</time>
      </trkpt>
      <trkpt lat="48.36165" lon="2.74207">
        <ele>125.40000152588</ele>
        <time>2019-02-16T15:23:03Z</time>
      </trkpt>
      <trkpt lat="48.36167" lon="2.74201">
        <ele>125</ele>
        <time>2019-02-16T15:23:08Z</time>
      </trkpt>
      <trkpt lat="48.36168" lon="2.74194">
        <ele>124.59999847412</ele>
        <time>2019-02-16T15:23:13Z</time>
      </trkpt>
      <trkpt lat="48.3617" lon="2.74188">
        <ele>124</ele>
        <time>2019-02-16T15:23:18Z</time>
      </trkpt>
      <trkpt lat="48.3617" lon="2.74181">
        <ele>123.40000152588</ele>
        <time>2019-02-16T15:23:23Z</time>
      </trkpt>
      <trkpt lat="48.36173" lon="2.74173">
        <ele>123.19999694824</ele>
        <time>2019-02-16T15:23:28Z</time>
      </trkpt>
      <trkpt lat="48.36176" lon="2.74167">
        <ele>122.80000305176</ele>
        <time>2019-02-16T15:23:33Z</time>
      </trkpt>
      <trkpt lat="48.36177" lon="2.7416">
        <ele>122.59999847412</ele>
        <time>2019-02-16T15:23:38Z</time>
      </trkpt>
      <trkpt lat="48.36179" lon="2.74152">
        <ele>122.19999694824</ele>
        <time>2019-02-16T15:23:43Z</time>
      </trkpt>
      <trkpt lat="48.36181" lon="2.74145">
        <ele>121.80000305176</ele>
        <time>2019-02-16T15:23:48Z</time>
      </trkpt>
      <trkpt lat="48.36181" lon="2.74139">
        <ele>121.40000152588</ele>
        <time>2019-02-16T15:23:53Z</time>
      </trkpt>
      <trkpt lat="48.36183" lon="2.74132">
        <ele>121.19999694824</ele>
        <time>2019-02-16T15:23:58Z</time>
      </trkpt>
      <trkpt lat="48.36185" lon="2.74125">
        <ele>120.59999847412</ele>
        <time>2019-02-16T15:24:03Z</time>
      </trkpt>
      <trkpt lat="48.36186" lon="2.74117">
        <ele>120.40000152588</ele>
        <time>2019-02-16T15:24:08Z</time>
      </trkpt>
      <trkpt lat="48.36185" lon="2.74109">
        <ele>120</ele>
        <time>2019-02-16T15:24:13Z</time>
      </trkpt>
      <trkpt lat="48.36182" lon="2.74104">
        <ele>120</ele>
        <time>2019-02-16T15:24:18Z</time>
      </trkpt>
      <trkpt lat="48.36178" lon="2.74097">
        <ele>120</ele>
        <time>2019-02-16T15:24:23Z</time>
      </trkpt>
      <trkpt lat="48.36174" lon="2.74093">
        <ele>120.19999694824</ele>
        <time>2019-02-16T15:24:28Z</time>
      </trkpt>
      <trkpt lat="48.3617" lon="2.74088">
        <ele>120.19999694824</ele>
        <time>2019-02-16T15:24:33Z</time>
      </trkpt>
      <trkpt lat="48.36166" lon="2.74083">
        <ele>120.19999694824</ele>
        <time>2019-02-16T15:24:38Z</time>
      </trkpt>
      <trkpt lat="48.36163" lon="2.74078">
        <ele>120.19999694824</ele>
        <time>2019-02-16T15:24:43Z</time>
      </trkpt>
      <trkpt lat="48.3616" lon="2.74071">
        <ele>120.19999694824</ele>
        <time>2019-02-16T15:24:48Z</time>
      </trkpt>
      <trkpt lat="48.36157" lon="2.74065">
        <ele>120.19999694824</ele>
        <time>2019-02-16T15:24:53Z</time>
      </trkpt>
      <trkpt lat="48.36153" lon="2.74059">
        <ele>120.40000152588</ele>
        <time>2019-02-16T15:24:58Z</time>
      </trkpt>
      <trkpt lat="48.36149" lon="2.74054">
        <ele>120.40000152588</ele>
        <time>2019-02-16T15:25:03Z</time>
      </trkpt>
      <trkpt lat="48.36147" lon="2.74049">
        <ele>120.40000152588</ele>
        <time>2019-02-16T15:25:08Z</time>
      </trkpt>
      <trkpt lat="48.36145" lon="2.74043">
        <ele>120.40000152588</ele>
        <time>2019-02-16T15:25:13Z</time>
      </trkpt>
      <trkpt lat="48.36141" lon="2.74038">
        <ele>120.40000152588</ele>
        <time>2019-02-16T15:25:18Z</time>
      </trkpt>
      <trkpt lat="48.36138" lon="2.74032">
        <ele>120.40000152588</ele>
        <time>2019-02-16T15:25:23Z</time>
      </trkpt>
      <trkpt lat="48.36135" lon="2.74027">
        <ele>120.40000152588</ele>
        <time>2019-02-16T15:25:28Z</time>
      </trkpt>
      <trkpt lat="48.36131" lon="2.74022">
        <ele>120.40000152588</ele>
        <time>2019-02-16T15:25:33Z</time>
      </trkpt>
      <trkpt lat="48.36127" lon="2.74016">
        <ele>120.19999694824</ele>
        <time>2019-02-16T15:25:38Z</time>
      </trkpt>
      <trkpt lat="48.36123" lon="2.7401">
        <ele>120.19999694824</ele>
        <time>2019-02-16T15:25:43Z</time>
      </trkpt>
      <trkpt lat="48.3612" lon="2.74005">
        <ele>120</ele>
        <time>2019-02-16T15:25:48Z</time>
      </trkpt>
      <trkpt lat="48.36114" lon="2.74">
        <ele>120</ele>
        <time>2019-02-16T15:25:53Z</time>
      </trkpt>
      <trkpt lat="48.36111" lon="2.73994">
        <ele>119.80000305176</ele>
        <time>2019-02-16T15:25:58Z</time>
      </trkpt>
      <trkpt lat="48.36107" lon="2.73989">
        <ele>119.40000152588</ele>
        <time>2019-02-16T15:26:03Z</time>
      </trkpt>
      <trkpt lat="48.36104" lon="2.73984">
        <ele>119</ele>
        <time>2019-02-16T15:26:08Z</time>
      </trkpt>
      <trkpt lat="48.36099" lon="2.73978">
        <ele>119</ele>
        <time>2019-02-16T15:26:13Z</time>
      </trkpt>
      <trkpt lat="48.36096" lon="2.73972">
        <ele>118.80000305176</ele>
        <time>2019-02-16T15:26:18Z</time>
      </trkpt>
      <trkpt lat="48.36091" lon="2.73966">
        <ele>118.40000152588</ele>
        <time>2019-02-16T15:26:23Z</time>
      </trkpt>
      <trkpt lat="48.36086" lon="2.7396">
        <ele>118.19999694824</ele>
        <time>2019-02-16T15:26:28Z</time>
      </trkpt>
      <trkpt lat="48.36081" lon="2.73956">
        <ele>117.80000305176</ele>
        <time>2019-02-16T15:26:33Z</time>
      </trkpt>
      <trkpt lat="48.36077" lon="2.7395">
        <ele>117.19999694824</ele>
        <time>2019-02-16T15:26:38Z</time>
      </trkpt>
      <trkpt lat="48.36074" lon="2.73945">
        <ele>116.80000305176</ele>
        <time>2019-02-16T15:26:43Z</time>
      </trkpt>
      <trkpt lat="48.36071" lon="2.73939">
        <ele>116.40000152588</ele>
        <time>2019-02-16T15:26:48Z</time>
      </trkpt>
      <trkpt lat="48.36069" lon="2.73932">
        <ele>115.80000305176</ele>
        <time>2019-02-16T15:26:53Z</time>
      </trkpt>
      <trkpt lat="48.36067" lon="2.73926">
        <ele>115.40000152588</ele>
        <time>2019-02-16T15:26:58Z</time>
      </trkpt>
      <trkpt lat="48.36063" lon="2.7392">
        <ele>115</ele>
        <time>2019-02-16T15:27:03Z</time>
      </trkpt>
      <trkpt lat="48.3606" lon="2.73913">
        <ele>114.80000305176</ele>
        <time>2019-02-16T15:27:08Z</time>
      </trkpt>
      <trkpt lat="48.36055" lon="2.73908">
        <ele>114.40000152588</ele>
        <time>2019-02-16T15:27:13Z</time>
      </trkpt>
      <trkpt lat="48.36051" lon="2.73902">
        <ele>114.40000152588</ele>
        <time>2019-02-16T15:27:18Z</time>
      </trkpt>
      <trkpt lat="48.36047" lon="2.73896">
        <ele>114.19999694824</ele>
        <time>2019-02-16T15:27:23Z</time>
      </trkpt>
      <trkpt lat="48.36044" lon="2.7389">
        <ele>114</ele>
        <time>2019-02-16T15:27:28Z</time>
      </trkpt>
      <trkpt lat="48.36041" lon="2.73883">
        <ele>113.59999847412</ele>
        <time>2019-02-16T15:27:33Z</time>
      </trkpt>
      <trkpt lat="48.36036" lon="2.73877">
        <ele>113.40000152588</ele>
        <time>2019-02-16T15:27:38Z</time>
      </trkpt>
      <trkpt lat="48.36032" lon="2.73871">
        <ele>113</ele>
        <time>2019-02-16T15:27:43Z</time>
      </trkpt>
      <trkpt lat="48.36026" lon="2.7387">
        <ele>112.80000305176</ele>
        <time>2019-02-16T15:27:48Z</time>
      </trkpt>
      <trkpt lat="48.36021" lon="2.73873">
        <ele>112.80000305176</ele>
        <time>2019-02-16T15:27:53Z</time>
      </trkpt>
      <trkpt lat="48.36017" lon="2.73877">
        <ele>113</ele>
        <time>2019-02-16T15:27:58Z</time>
      </trkpt>
      <trkpt lat="48.36012" lon="2.73881">
        <ele>113.19999694824</ele>
        <time>2019-02-16T15:28:03Z</time>
      </trkpt>
      <trkpt lat="48.36007" lon="2.73884">
        <ele>113.40000152588</ele>
        <time>2019-02-16T15:28:08Z</time>
      </trkpt>
      <trkpt lat="48.36" lon="2.73888">
        <ele>113.80000305176</ele>
        <time>2019-02-16T15:28:13Z</time>
      </trkpt>
      <trkpt lat="48.35994" lon="2.7389">
        <ele>114</ele>
        <time>2019-02-16T15:28:18Z</time>
      </trkpt>
      <trkpt lat="48.35988" lon="2.73892">
        <ele>114.19999694824</ele>
        <time>2019-02-16T15:28:23Z</time>
      </trkpt>
      <trkpt lat="48.35982" lon="2.73893">
        <ele>114.40000152588</ele>
        <time>2019-02-16T15:28:28Z</time>
      </trkpt>
      <trkpt lat="48.35977" lon="2.73895">
        <ele>114.40000152588</ele>
        <time>2019-02-16T15:28:33Z</time>
      </trkpt>
      <trkpt lat="48.35972" lon="2.73898">
        <ele>114.40000152588</ele>
        <time>2019-02-16T15:28:38Z</time>
      </trkpt>
      <trkpt lat="48.35967" lon="2.739">
        <ele>114.40000152588</ele>
        <time>2019-02-16T15:28:43Z</time>
      </trkpt>
      <trkpt lat="48.35962" lon="2.73903">
        <ele>114.40000152588</ele>
        <time>2019-02-16T15:28:48Z</time>
      </trkpt>
      <trkpt lat="48.35959" lon="2.73905">
        <ele>114.40000152588</ele>
        <time>2019-02-16T15:28:53Z</time>
      </trkpt>
      <trkpt lat="48.35954" lon="2.73908">
        <ele>114</ele>
        <time>2019-02-16T15:28:58Z</time>
      </trkpt>
      <trkpt lat="48.35949" lon="2.73911">
        <ele>114.19999694824</ele>
        <time>2019-02-16T15:29:03Z</time>
      </trkpt>
      <trkpt lat="48.35942" lon="2.73913">
        <ele>114.19999694824</ele>
        <time>2019-02-16T15:29:08Z</time>
      </trkpt>
      <trkpt lat="48.35937" lon="2.73915">
        <ele>114.40000152588</ele>
        <time>2019-02-16T15:29:13Z</time>
      </trkpt>
      <trkpt lat="48.35932" lon="2.73917">
        <ele>114.19999694824</ele>
        <time>2019-02-16T15:29:18Z</time>
      </trkpt>
      <trkpt lat="48.35925" lon="2.73922">
        <ele>114.19999694824</ele>
        <time>2019-02-16T15:29:23Z</time>
      </trkpt>
      <trkpt lat="48.35921" lon="2.73923">
        <ele>114</ele>
        <time>2019-02-16T15:29:28Z</time>
      </trkpt>
      <trkpt lat="48.35916" lon="2.73925">
        <ele>113.80000305176</ele>
        <time>2019-02-16T15:29:33Z</time>
      </trkpt>
      <trkpt lat="48.35911" lon="2.73929">
        <ele>113.59999847412</ele>
        <time>2019-02-16T15:29:38Z</time>
      </trkpt>
      <trkpt lat="48.35905" lon="2.73932">
        <ele>113.40000152588</ele>
        <time>2019-02-16T15:29:43Z</time>
      </trkpt>
      <trkpt lat="48.35898" lon="2.73935">
        <ele>113.40000152588</ele>
        <time>2019-02-16T15:29:48Z</time>
      </trkpt>
      <trkpt lat="48.35893" lon="2.73938">
        <ele>113.19999694824</ele>
        <time>2019-02-16T15:29:53Z</time>
      </trkpt>
      <trkpt lat="48.35888" lon="2.73939">
        <ele>113</ele>
        <time>2019-02-16T15:29:58Z</time>
      </trkpt>
      <trkpt lat="48.35882" lon="2.73941">
        <ele>112.80000305176</ele>
        <time>2019-02-16T15:30:03Z</time>
      </trkpt>
      <trkpt lat="48.35882" lon="2.73947">
        <ele>112.59999847412</ele>
        <time>2019-02-16T15:30:08Z</time>
      </trkpt>
      <trkpt lat="48.35885" lon="2.7395">
        <ele>112.80000305176</ele>
        <time>2019-02-16T15:30:13Z</time>
      </trkpt>
      <trkpt lat="48.3589" lon="2.73952">
        <ele>113</ele>
        <time>2019-02-16T15:30:18Z</time>
      </trkpt>
      <trkpt lat="48.35894" lon="2.73955">
        <ele>113.19999694824</ele>
        <time>2019-02-16T15:30:23Z</time>
      </trkpt>
      <trkpt lat="48.35899" lon="2.73958">
        <ele>113.80000305176</ele>
        <time>2019-02-16T15:30:28Z</time>
      </trkpt>
      <trkpt lat="48.35904" lon="2.7396">
        <ele>114</ele>
        <time>2019-02-16T15:30:33Z</time>
      </trkpt>
      <trkpt lat="48.35908" lon="2.73961">
        <ele>114.40000152588</ele>
        <time>2019-02-16T15:30:38Z</time>
      </trkpt>
      <trkpt lat="48.35911" lon="2.73961">
        <ele>115</ele>
        <time>2019-02-16T15:30:43Z</time>
      </trkpt>
      <trkpt lat="48.35912" lon="2.73962">
        <ele>115.40000152588</ele>
        <time>2019-02-16T15:30:48Z</time>
      </trkpt>
      <trkpt lat="48.35913" lon="2.73961">
        <ele>115.59999847412</ele>
        <time>2019-02-16T15:30:53Z</time>
      </trkpt>
      <trkpt lat="48.35918" lon="2.7396">
        <ele>115.80000305176</ele>
        <time>2019-02-16T15:30:58Z</time>
      </trkpt>
      <trkpt lat="48.35923" lon="2.73961">
        <ele>115.80000305176</ele>
        <time>2019-02-16T15:31:03Z</time>
      </trkpt>
      <trkpt lat="48.35927" lon="2.73963">
        <ele>116.19999694824</ele>
        <time>2019-02-16T15:31:08Z</time>
      </trkpt>
      <trkpt lat="48.35932" lon="2.73965">
        <ele>116.40000152588</ele>
        <time>2019-02-16T15:31:13Z</time>
      </trkpt>
      <trkpt lat="48.35936" lon="2.73966">
        <ele>116.59999847412</ele>
        <time>2019-02-16T15:31:18Z</time>
      </trkpt>
      <trkpt lat="48.35941" lon="2.73967">
        <ele>116.80000305176</ele>
        <time>2019-02-16T15:31:23Z</time>
      </trkpt>
      <trkpt lat="48.35946" lon="2.73969">
        <ele>117</ele>
        <time>2019-02-16T15:31:28Z</time>
      </trkpt>
      <trkpt lat="48.35951" lon="2.73971">
        <ele>117.40000152588</ele>
        <time>2019-02-16T15:31:33Z</time>
      </trkpt>
      <trkpt lat="48.35957" lon="2.73972">
        <ele>117.80000305176</ele>
        <time>2019-02-16T15:31:38Z</time>
      </trkpt>
      <trkpt lat="48.35961" lon="2.73973">
        <ele>118</ele>
        <time>2019-02-16T15:31:43Z</time>
      </trkpt>
      <trkpt lat="48.35966" lon="2.73974">
        <ele>118.40000152588</ele>
        <time>2019-02-16T15:31:48Z</time>
      </trkpt>
      <trkpt lat="48.3597" lon="2.73976">
        <ele>118.80000305176</ele>
        <time>2019-02-16T15:31:53Z</time>
      </trkpt>
      <trkpt lat="48.35975" lon="2.73979">
        <ele>119</ele>
        <time>2019-02-16T15:31:58Z</time>
      </trkpt>
      <trkpt lat="48.35982" lon="2.73983">
        <ele>119.40000152588</ele>
        <time>2019-02-16T15:32:03Z</time>
      </trkpt>
      <trkpt lat="48.35988" lon="2.73985">
        <ele>119.80000305176</ele>
        <time>2019-02-16T15:32:08Z</time>
      </trkpt>
      <trkpt lat="48.35993" lon="2.73987">
        <ele>120</ele>
        <time>2019-02-16T15:32:13Z</time>
      </trkpt>
      <trkpt lat="48.35999" lon="2.7399">
        <ele>120.59999847412</ele>
        <time>2019-02-16T15:32:18Z</time>
      </trkpt>
      <trkpt lat="48.36002" lon="2.73993">
        <ele>120.80000305176</ele>
        <time>2019-02-16T15:32:23Z</time>
      </trkpt>
      <trkpt lat="48.36005" lon="2.73997">
        <ele>121.19999694824</ele>
        <time>2019-02-16T15:32:28Z</time>
      </trkpt>
      <trkpt lat="48.36007" lon="2.74">
        <ele>121.80000305176</ele>
        <time>2019-02-16T15:32:33Z</time>
      </trkpt>
      <trkpt lat="48.36009" lon="2.74002">
        <ele>122.40000152588</ele>
        <time>2019-02-16T15:32:38Z</time>
      </trkpt>
      <trkpt lat="48.36014" lon="2.74005">
        <ele>122.59999847412</ele>
        <time>2019-02-16T15:32:43Z</time>
      </trkpt>
      <trkpt lat="48.36017" lon="2.74009">
        <ele>123.19999694824</ele>
        <time>2019-02-16T15:32:48Z</time>
      </trkpt>
      <trkpt lat="48.36021" lon="2.74013">
        <ele>123.80000305176</ele>
        <time>2019-02-16T15:32:53Z</time>
      </trkpt>
      <trkpt lat="48.36025" lon="2.74019">
        <ele>124</ele>
        <time>2019-02-16T15:32:58Z</time>
      </trkpt>
      <trkpt lat="48.36028" lon="2.74023">
        <ele>124.40000152588</ele>
        <time>2019-02-16T15:33:03Z</time>
      </trkpt>
      <trkpt lat="48.36033" lon="2.74026">
        <ele>124.80000305176</ele>
        <time>2019-02-16T15:33:08Z</time>
      </trkpt>
      <trkpt lat="48.36037" lon="2.7403">
        <ele>125.40000152588</ele>
        <time>2019-02-16T15:33:13Z</time>
      </trkpt>
      <trkpt lat="48.36041" lon="2.74035">
        <ele>125.80000305176</ele>
        <time>2019-02-16T15:33:18Z</time>
      </trkpt>
      <trkpt lat="48.36045" lon="2.74038">
        <ele>126.40000152588</ele>
        <time>2019-02-16T15:33:23Z</time>
      </trkpt>
      <trkpt lat="48.3605" lon="2.7404">
        <ele>126.80000305176</ele>
        <time>2019-02-16T15:33:28Z</time>
      </trkpt>
      <trkpt lat="48.36053" lon="2.74043">
        <ele>127.19999694824</ele>
        <time>2019-02-16T15:33:33Z</time>
      </trkpt>
      <trkpt lat="48.36056" lon="2.74049">
        <ele>127.80000305176</ele>
        <time>2019-02-16T15:33:38Z</time>
      </trkpt>
      <trkpt lat="48.36059" lon="2.74053">
        <ele>128.39999389648</ele>
        <time>2019-02-16T15:33:43Z</time>
      </trkpt>
      <trkpt lat="48.36064" lon="2.7406">
        <ele>129.19999694824</ele>
        <time>2019-02-16T15:33:48Z</time>
      </trkpt>
      <trkpt lat="48.36066" lon="2.74066">
        <ele>129.60000610352</ele>
        <time>2019-02-16T15:33:53Z</time>
      </trkpt>
      <trkpt lat="48.3607" lon="2.74073">
        <ele>130.19999694824</ele>
        <time>2019-02-16T15:33:58Z</time>
      </trkpt>
      <trkpt lat="48.36073" lon="2.74082">
        <ele>130.80000305176</ele>
        <time>2019-02-16T15:34:03Z</time>
      </trkpt>
      <trkpt lat="48.36077" lon="2.74088">
        <ele>131.60000610352</ele>
        <time>2019-02-16T15:34:08Z</time>
      </trkpt>
      <trkpt lat="48.3608" lon="2.74095">
        <ele>132.19999694824</ele>
        <time>2019-02-16T15:34:13Z</time>
      </trkpt>
      <trkpt lat="48.36082" lon="2.74104">
        <ele>132.80000305176</ele>
        <time>2019-02-16T15:34:18Z</time>
      </trkpt>
      <trkpt lat="48.36084" lon="2.7411">
        <ele>133.19999694824</ele>
        <time>2019-02-16T15:34:23Z</time>
      </trkpt>
      <trkpt lat="48.36085" lon="2.74117">
        <ele>133.80000305176</ele>
        <time>2019-02-16T15:34:28Z</time>
      </trkpt>
      <trkpt lat="48.36086" lon="2.74126">
        <ele>134.39999389648</ele>
        <time>2019-02-16T15:34:33Z</time>
      </trkpt>
      <trkpt lat="48.36086" lon="2.74134">
        <ele>134.80000305176</ele>
        <time>2019-02-16T15:34:38Z</time>
      </trkpt>
      <trkpt lat="48.36086" lon="2.74141">
        <ele>135.60000610352</ele>
        <time>2019-02-16T15:34:43Z</time>
      </trkpt>
      <trkpt lat="48.36083" lon="2.74148">
        <ele>136.39999389648</ele>
        <time>2019-02-16T15:34:48Z</time>
      </trkpt>
      <trkpt lat="48.36079" lon="2.74155">
        <ele>137</ele>
        <time>2019-02-16T15:34:53Z</time>
      </trkpt>
      <trkpt lat="48.36076" lon="2.7416">
        <ele>137.39999389648</ele>
        <time>2019-02-16T15:34:58Z</time>
      </trkpt>
      <trkpt lat="48.36072" lon="2.74165">
        <ele>138</ele>
        <time>2019-02-16T15:35:03Z</time>
      </trkpt>
      <trkpt lat="48.36069" lon="2.74169">
        <ele>138.39999389648</ele>
        <time>2019-02-16T15:35:08Z</time>
      </trkpt>
      <trkpt lat="48.36066" lon="2.7417">
        <ele>138.80000305176</ele>
        <time>2019-02-16T15:35:13Z</time>
      </trkpt>
      <trkpt lat="48.36063" lon="2.7417">
        <ele>139.19999694824</ele>
        <time>2019-02-16T15:35:18Z</time>
      </trkpt>
      <trkpt lat="48.36062" lon="2.7417">
        <ele>139.60000610352</ele>
        <time>2019-02-16T15:35:23Z</time>
      </trkpt>
      <trkpt lat="48.36059" lon="2.74166">
        <ele>139.60000610352</ele>
        <time>2019-02-16T15:35:28Z</time>
      </trkpt>
      <trkpt lat="48.36056" lon="2.74162">
        <ele>139.60000610352</ele>
        <time>2019-02-16T15:35:33Z</time>
      </trkpt>
      <trkpt lat="48.36052" lon="2.74158">
        <ele>140</ele>
        <time>2019-02-16T15:35:38Z</time>
      </trkpt>
      <trkpt lat="48.36049" lon="2.74154">
        <ele>140.39999389648</ele>
        <time>2019-02-16T15:35:43Z</time>
      </trkpt>
      <trkpt lat="48.36044" lon="2.74151">
        <ele>140.80000305176</ele>
        <time>2019-02-16T15:35:48Z</time>
      </trkpt>
      <trkpt lat="48.3604" lon="2.74148">
        <ele>141.19999694824</ele>
        <time>2019-02-16T15:35:53Z</time>
      </trkpt>
      <trkpt lat="48.36036" lon="2.74145">
        <ele>141.60000610352</ele>
        <time>2019-02-16T15:35:58Z</time>
      </trkpt>
      <trkpt lat="48.36031" lon="2.74144">
        <ele>142</ele>
        <time>2019-02-16T15:36:03Z</time>
      </trkpt>
      <trkpt lat="48.36026" lon="2.74143">
        <ele>142.60000610352</ele>
        <time>2019-02-16T15:36:08Z</time>
      </trkpt>
      <trkpt lat="48.36021" lon="2.74142">
        <ele>143</ele>
        <time>2019-02-16T15:36:13Z</time>
      </trkpt>
      <trkpt lat="48.36017" lon="2.74142">
        <ele>143.39999389648</ele>
        <time>2019-02-16T15:36:18Z</time>
      </trkpt>
      <trkpt lat="48.3601" lon="2.74145">
        <ele>144</ele>
        <time>2019-02-16T15:36:23Z</time>
      </trkpt>
      <trkpt lat="48.36005" lon="2.74149">
        <ele>144.39999389648</ele>
        <time>2019-02-16T15:36:28Z</time>
      </trkpt>
      <trkpt lat="48.36001" lon="2.74153">
        <ele>144.60000610352</ele>
        <time>2019-02-16T15:36:33Z</time>
      </trkpt>
      <trkpt lat="48.35998" lon="2.74156">
        <ele>144.80000305176</ele>
        <time>2019-02-16T15:36:38Z</time>
      </trkpt>
      <trkpt lat="48.35995" lon="2.74161">
        <ele>145.19999694824</ele>
        <time>2019-02-16T15:36:43Z</time>
      </trkpt>
      <trkpt lat="48.3599" lon="2.74165">
        <ele>145.60000610352</ele>
        <time>2019-02-16T15:36:48Z</time>
      </trkpt>
      <trkpt lat="48.35985" lon="2.7417">
        <ele>146.19999694824</ele>
        <time>2019-02-16T15:36:53Z</time>
      </trkpt>
      <trkpt lat="48.35979" lon="2.74174">
        <ele>146.80000305176</ele>
        <time>2019-02-16T15:36:58Z</time>
      </trkpt>
      <trkpt lat="48.35975" lon="2.74178">
        <ele>147.19999694824</ele>
        <time>2019-02-16T15:37:03Z</time>
      </trkpt>
      <trkpt lat="48.35971" lon="2.74183">
        <ele>147.60000610352</ele>
        <time>2019-02-16T15:37:08Z</time>
      </trkpt>
      <trkpt lat="48.35965" lon="2.74188">
        <ele>147.80000305176</ele>
        <time>2019-02-16T15:37:13Z</time>
      </trkpt>
      <trkpt lat="48.35964" lon="2.74196">
        <ele>148.39999389648</ele>
        <time>2019-02-16T15:37:18Z</time>
      </trkpt>
      <trkpt lat="48.35963" lon="2.74203">
        <ele>148.60000610352</ele>
        <time>2019-02-16T15:37:23Z</time>
      </trkpt>
      <trkpt lat="48.35962" lon="2.74211">
        <ele>148.80000305176</ele>
        <time>2019-02-16T15:37:28Z</time>
      </trkpt>
      <trkpt lat="48.35963" lon="2.74217">
        <ele>149.19999694824</ele>
        <time>2019-02-16T15:37:33Z</time>
      </trkpt>
      <trkpt lat="48.35965" lon="2.74223">
        <ele>149.39999389648</ele>
        <time>2019-02-16T15:37:38Z</time>
      </trkpt>
      <trkpt lat="48.35968" lon="2.74227">
        <ele>149.60000610352</ele>
        <time>2019-02-16T15:37:43Z</time>
      </trkpt>
      <trkpt lat="48.35971" lon="2.7423">
        <ele>150</ele>
        <time>2019-02-16T15:37:48Z</time>
      </trkpt>
      <trkpt lat="48.35974" lon="2.74231">
        <ele>150.80000305176</ele>
        <time>2019-02-16T15:37:53Z</time>
      </trkpt>
      <trkpt lat="48.35978" lon="2.74229">
        <ele>151.39999389648</ele>
        <time>2019-02-16T15:37:58Z</time>
      </trkpt>
      <trkpt lat="48.35978" lon="2.74223">
        <ele>152</ele>
        <time>2019-02-16T15:38:03Z</time>
      </trkpt>
      <trkpt lat="48.3598" lon="2.74217">
        <ele>152.60000610352</ele>
        <time>2019-02-16T15:38:08Z</time>
      </trkpt>
      <trkpt lat="48.35983" lon="2.74211">
        <ele>153.19999694824</ele>
        <time>2019-02-16T15:38:13Z</time>
      </trkpt>
      <trkpt lat="48.35987" lon="2.74207">
        <ele>153.39999389648</ele>
        <time>2019-02-16T15:38:18Z</time>
      </trkpt>
      <trkpt lat="48.35992" lon="2.74204">
        <ele>153.80000305176</ele>
        <time>2019-02-16T15:38:23Z</time>
      </trkpt>
      <trkpt lat="48.35994" lon="2.742">
        <ele>154.19999694824</ele>
        <time>2019-02-16T15:38:28Z</time>
      </trkpt>
      <trkpt lat="48.35998" lon="2.74198">
        <ele>154.39999389648</ele>
        <time>2019-02-16T15:38:33Z</time>
      </trkpt>
      <trkpt lat="48.36002" lon="2.74195">
        <ele>154.39999389648</ele>
        <time>2019-02-16T15:38:38Z</time>
      </trkpt>
      <trkpt lat="48.36006" lon="2.74193">
        <ele>154.60000610352</ele>
        <time>2019-02-16T15:38:43Z</time>
      </trkpt>
      <trkpt lat="48.36011" lon="2.74194">
        <ele>154.80000305176</ele>
        <time>2019-02-16T15:38:48Z</time>
      </trkpt>
      <trkpt lat="48.36014" lon="2.74197">
        <ele>154.80000305176</ele>
        <time>2019-02-16T15:38:53Z</time>
      </trkpt>
      <trkpt lat="48.36019" lon="2.74199">
        <ele>155</ele>
        <time>2019-02-16T15:38:58Z</time>
      </trkpt>
      <trkpt lat="48.36023" lon="2.74202">
        <ele>155</ele>
        <time>2019-02-16T15:39:03Z</time>
      </trkpt>
      <trkpt lat="48.36027" lon="2.74203">
        <ele>155.39999389648</ele>
        <time>2019-02-16T15:39:08Z</time>
      </trkpt>
      <trkpt lat="48.36031" lon="2.74209">
        <ele>156.60000610352</ele>
        <time>2019-02-16T15:39:48Z</time>
      </trkpt>
      <trkpt lat="48.36031" lon="2.74209">
        <ele>156.60000610352</ele>
        <time>2019-02-16T15:40:38Z</time>
      </trkpt>
      <trkpt lat="48.36033" lon="2.74214">
        <ele>156.60000610352</ele>
        <time>2019-02-16T15:42:38Z</time>
      </trkpt>
      <trkpt lat="48.36037" lon="2.74218">
        <ele>156.60000610352</ele>
        <time>2019-02-16T15:42:43Z</time>
      </trkpt>
      <trkpt lat="48.36039" lon="2.74223">
        <ele>156.60000610352</ele>
        <time>2019-02-16T15:42:48Z</time>
      </trkpt>
      <trkpt lat="48.36041" lon="2.7423">
        <ele>156.60000610352</ele>
        <time>2019-02-16T15:42:53Z</time>
      </trkpt>
      <trkpt lat="48.36042" lon="2.74238">
        <ele>156.60000610352</ele>
        <time>2019-02-16T15:42:58Z</time>
      </trkpt>
      <trkpt lat="48.36044" lon="2.74244">
        <ele>156.60000610352</ele>
        <time>2019-02-16T15:43:03Z</time>
      </trkpt>
      <trkpt lat="48.36041" lon="2.7425">
        <ele>156.60000610352</ele>
        <time>2019-02-16T15:43:08Z</time>
      </trkpt>
      <trkpt lat="48.36039" lon="2.7426">
        <ele>156.60000610352</ele>
        <time>2019-02-16T15:43:13Z</time>
      </trkpt>
      <trkpt lat="48.36037" lon="2.74269">
        <ele>156.60000610352</ele>
        <time>2019-02-16T15:43:18Z</time>
      </trkpt>
      <trkpt lat="48.36036" lon="2.74276">
        <ele>156.60000610352</ele>
        <time>2019-02-16T15:43:23Z</time>
      </trkpt>
      <trkpt lat="48.36037" lon="2.74282">
        <ele>156.39999389648</ele>
        <time>2019-02-16T15:43:28Z</time>
      </trkpt>
      <trkpt lat="48.36037" lon="2.7429">
        <ele>155.80000305176</ele>
        <time>2019-02-16T15:43:33Z</time>
      </trkpt>
      <trkpt lat="48.36039" lon="2.74298">
        <ele>155.80000305176</ele>
        <time>2019-02-16T15:43:38Z</time>
      </trkpt>
      <trkpt lat="48.3604" lon="2.74307">
        <ele>155.80000305176</ele>
        <time>2019-02-16T15:43:43Z</time>
      </trkpt>
      <trkpt lat="48.36041" lon="2.74314">
        <ele>155.80000305176</ele>
        <time>2019-02-16T15:43:48Z</time>
      </trkpt>
      <trkpt lat="48.36041" lon="2.74322">
        <ele>155.80000305176</ele>
        <time>2019-02-16T15:43:53Z</time>
      </trkpt>
      <trkpt lat="48.36042" lon="2.74329">
        <ele>155.80000305176</ele>
        <time>2019-02-16T15:43:58Z</time>
      </trkpt>
      <trkpt lat="48.36042" lon="2.74339">
        <ele>155.60000610352</ele>
        <time>2019-02-16T15:44:03Z</time>
      </trkpt>
      <trkpt lat="48.36043" lon="2.74347">
        <ele>155.60000610352</ele>
        <time>2019-02-16T15:44:08Z</time>
      </trkpt>
      <trkpt lat="48.36044" lon="2.74355">
        <ele>155.80000305176</ele>
        <time>2019-02-16T15:44:13Z</time>
      </trkpt>
      <trkpt lat="48.36044" lon="2.74364">
        <ele>155.80000305176</ele>
        <time>2019-02-16T15:44:18Z</time>
      </trkpt>
      <trkpt lat="48.36043" lon="2.74372">
        <ele>155.60000610352</ele>
        <time>2019-02-16T15:44:23Z</time>
      </trkpt>
      <trkpt lat="48.3604" lon="2.74379">
        <ele>155.60000610352</ele>
        <time>2019-02-16T15:44:28Z</time>
      </trkpt>
      <trkpt lat="48.36038" lon="2.74386">
        <ele>155.39999389648</ele>
        <time>2019-02-16T15:44:33Z</time>
      </trkpt>
      <trkpt lat="48.36039" lon="2.74393">
        <ele>155.39999389648</ele>
        <time>2019-02-16T15:44:38Z</time>
      </trkpt>
      <trkpt lat="48.36039" lon="2.744">
        <ele>155.39999389648</ele>
        <time>2019-02-16T15:44:43Z</time>
      </trkpt>
      <trkpt lat="48.36036" lon="2.74409">
        <ele>155.39999389648</ele>
        <time>2019-02-16T15:44:48Z</time>
      </trkpt>
      <trkpt lat="48.36033" lon="2.74417">
        <ele>155.19999694824</ele>
        <time>2019-02-16T15:44:53Z</time>
      </trkpt>
      <trkpt lat="48.36032" lon="2.74424">
        <ele>155.19999694824</ele>
        <time>2019-02-16T15:44:58Z</time>
      </trkpt>
      <trkpt lat="48.36032" lon="2.74432">
        <ele>155</ele>
        <time>2019-02-16T15:45:03Z</time>
      </trkpt>
      <trkpt lat="48.3603" lon="2.74441">
        <ele>155</ele>
        <time>2019-02-16T15:45:08Z</time>
      </trkpt>
      <trkpt lat="48.3603" lon="2.74449">
        <ele>154.80000305176</ele>
        <time>2019-02-16T15:45:13Z</time>
      </trkpt>
      <trkpt lat="48.36029" lon="2.74456">
        <ele>154.80000305176</ele>
        <time>2019-02-16T15:45:18Z</time>
      </trkpt>
      <trkpt lat="48.36028" lon="2.74463">
        <ele>154.80000305176</ele>
        <time>2019-02-16T15:45:23Z</time>
      </trkpt>
      <trkpt lat="48.36029" lon="2.74473">
        <ele>154.60000610352</ele>
        <time>2019-02-16T15:45:28Z</time>
      </trkpt>
      <trkpt lat="48.36028" lon="2.74482">
        <ele>154.60000610352</ele>
        <time>2019-02-16T15:45:33Z</time>
      </trkpt>
      <trkpt lat="48.36027" lon="2.7449">
        <ele>154.60000610352</ele>
        <time>2019-02-16T15:45:38Z</time>
      </trkpt>
      <trkpt lat="48.36025" lon="2.745">
        <ele>154.60000610352</ele>
        <time>2019-02-16T15:45:43Z</time>
      </trkpt>
      <trkpt lat="48.36023" lon="2.74509">
        <ele>154.60000610352</ele>
        <time>2019-02-16T15:45:48Z</time>
      </trkpt>
      <trkpt lat="48.36021" lon="2.74517">
        <ele>154.60000610352</ele>
        <time>2019-02-16T15:45:53Z</time>
      </trkpt>
      <trkpt lat="48.3602" lon="2.74523">
        <ele>154.60000610352</ele>
        <time>2019-02-16T15:45:58Z</time>
      </trkpt>
      <trkpt lat="48.36018" lon="2.7453">
        <ele>154.60000610352</ele>
        <time>2019-02-16T15:46:03Z</time>
      </trkpt>
      <trkpt lat="48.36017" lon="2.74537">
        <ele>154.60000610352</ele>
        <time>2019-02-16T15:46:08Z</time>
      </trkpt>
      <trkpt lat="48.36016" lon="2.74544">
        <ele>154.60000610352</ele>
        <time>2019-02-16T15:46:13Z</time>
      </trkpt>
      <trkpt lat="48.36016" lon="2.74552">
        <ele>154.80000305176</ele>
        <time>2019-02-16T15:46:18Z</time>
      </trkpt>
      <trkpt lat="48.36016" lon="2.74559">
        <ele>154.80000305176</ele>
        <time>2019-02-16T15:46:23Z</time>
      </trkpt>
      <trkpt lat="48.36015" lon="2.74566">
        <ele>154.80000305176</ele>
        <time>2019-02-16T15:46:28Z</time>
      </trkpt>
      <trkpt lat="48.36012" lon="2.74574">
        <ele>154.80000305176</ele>
        <time>2019-02-16T15:46:33Z</time>
      </trkpt>
      <trkpt lat="48.36011" lon="2.74582">
        <ele>154.80000305176</ele>
        <time>2019-02-16T15:46:38Z</time>
      </trkpt>
      <trkpt lat="48.3601" lon="2.74589">
        <ele>155</ele>
        <time>2019-02-16T15:46:43Z</time>
      </trkpt>
      <trkpt lat="48.36009" lon="2.74598">
        <ele>155</ele>
        <time>2019-02-16T15:46:48Z</time>
      </trkpt>
      <trkpt lat="48.36009" lon="2.74605">
        <ele>155</ele>
        <time>2019-02-16T15:46:53Z</time>
      </trkpt>
      <trkpt lat="48.3601" lon="2.74613">
        <ele>155</ele>
        <time>2019-02-16T15:46:58Z</time>
      </trkpt>
      <trkpt lat="48.3601" lon="2.74618">
        <ele>155</ele>
        <time>2019-02-16T15:47:03Z</time>
      </trkpt>
      <trkpt lat="48.36013" lon="2.74624">
        <ele>155</ele>
        <time>2019-02-16T15:47:08Z</time>
      </trkpt>
      <trkpt lat="48.36015" lon="2.7463">
        <ele>155</ele>
        <time>2019-02-16T15:47:13Z</time>
      </trkpt>
      <trkpt lat="48.36019" lon="2.74638">
        <ele>155.19999694824</ele>
        <time>2019-02-16T15:47:18Z</time>
      </trkpt>
      <trkpt lat="48.36021" lon="2.74647">
        <ele>155.19999694824</ele>
        <time>2019-02-16T15:47:23Z</time>
      </trkpt>
      <trkpt lat="48.36025" lon="2.74656">
        <ele>155.19999694824</ele>
        <time>2019-02-16T15:47:28Z</time>
      </trkpt>
      <trkpt lat="48.36028" lon="2.74663">
        <ele>155.19999694824</ele>
        <time>2019-02-16T15:47:33Z</time>
      </trkpt>
      <trkpt lat="48.36031" lon="2.74669">
        <ele>155.19999694824</ele>
        <time>2019-02-16T15:47:38Z</time>
      </trkpt>
      <trkpt lat="48.36035" lon="2.74675">
        <ele>155.19999694824</ele>
        <time>2019-02-16T15:47:43Z</time>
      </trkpt>
      <trkpt lat="48.36038" lon="2.74681">
        <ele>155.19999694824</ele>
        <time>2019-02-16T15:47:48Z</time>
      </trkpt>
      <trkpt lat="48.36041" lon="2.74686">
        <ele>155.39999389648</ele>
        <time>2019-02-16T15:47:53Z</time>
      </trkpt>
      <trkpt lat="48.36042" lon="2.74693">
        <ele>155.39999389648</ele>
        <time>2019-02-16T15:47:58Z</time>
      </trkpt>
      <trkpt lat="48.36044" lon="2.74701">
        <ele>155.39999389648</ele>
        <time>2019-02-16T15:48:03Z</time>
      </trkpt>
      <trkpt lat="48.36046" lon="2.74709">
        <ele>155.60000610352</ele>
        <time>2019-02-16T15:48:08Z</time>
      </trkpt>
      <trkpt lat="48.36049" lon="2.74714">
        <ele>155.60000610352</ele>
        <time>2019-02-16T15:48:13Z</time>
      </trkpt>
      <trkpt lat="48.36052" lon="2.7472">
        <ele>155.60000610352</ele>
        <time>2019-02-16T15:48:18Z</time>
      </trkpt>
      <trkpt lat="48.36056" lon="2.74727">
        <ele>155.60000610352</ele>
        <time>2019-02-16T15:48:23Z</time>
      </trkpt>
      <trkpt lat="48.36058" lon="2.74733">
        <ele>155.60000610352</ele>
        <time>2019-02-16T15:48:28Z</time>
      </trkpt>
      <trkpt lat="48.36061" lon="2.74742">
        <ele>155.60000610352</ele>
        <time>2019-02-16T15:48:33Z</time>
      </trkpt>
      <trkpt lat="48.36062" lon="2.74748">
        <ele>155.60000610352</ele>
        <time>2019-02-16T15:48:38Z</time>
      </trkpt>
      <trkpt lat="48.36064" lon="2.74754">
        <ele>155.80000305176</ele>
        <time>2019-02-16T15:48:43Z</time>
      </trkpt>
      <trkpt lat="48.36069" lon="2.74762">
        <ele>155.80000305176</ele>
        <time>2019-02-16T15:48:48Z</time>
      </trkpt>
      <trkpt lat="48.36072" lon="2.7477">
        <ele>155.80000305176</ele>
        <time>2019-02-16T15:48:53Z</time>
      </trkpt>
      <trkpt lat="48.36075" lon="2.74776">
        <ele>155.80000305176</ele>
        <time>2019-02-16T15:48:58Z</time>
      </trkpt>
      <trkpt lat="48.36079" lon="2.74782">
        <ele>156</ele>
        <time>2019-02-16T15:49:03Z</time>
      </trkpt>
      <trkpt lat="48.36082" lon="2.74788">
        <ele>156</ele>
        <time>2019-02-16T15:49:08Z</time>
      </trkpt>
      <trkpt lat="48.36084" lon="2.74794">
        <ele>156</ele>
        <time>2019-02-16T15:49:13Z</time>
      </trkpt>
      <trkpt lat="48.36086" lon="2.748">
        <ele>156</ele>
        <time>2019-02-16T15:49:18Z</time>
      </trkpt>
      <trkpt lat="48.36088" lon="2.74805">
        <ele>156.19999694824</ele>
        <time>2019-02-16T15:49:23Z</time>
      </trkpt>
      <trkpt lat="48.36091" lon="2.74811">
        <ele>156.19999694824</ele>
        <time>2019-02-16T15:49:28Z</time>
      </trkpt>
      <trkpt lat="48.36096" lon="2.74818">
        <ele>156.39999389648</ele>
        <time>2019-02-16T15:49:33Z</time>
      </trkpt>
      <trkpt lat="48.36099" lon="2.74824">
        <ele>156.39999389648</ele>
        <time>2019-02-16T15:49:38Z</time>
      </trkpt>
      <trkpt lat="48.36102" lon="2.74831">
        <ele>156.60000610352</ele>
        <time>2019-02-16T15:49:43Z</time>
      </trkpt>
      <trkpt lat="48.36105" lon="2.74839">
        <ele>156.80000305176</ele>
        <time>2019-02-16T15:49:48Z</time>
      </trkpt>
      <trkpt lat="48.36107" lon="2.74847">
        <ele>156.80000305176</ele>
        <time>2019-02-16T15:49:53Z</time>
      </trkpt>
      <trkpt lat="48.36108" lon="2.74854">
        <ele>156.80000305176</ele>
        <time>2019-02-16T15:49:58Z</time>
      </trkpt>
      <trkpt lat="48.36108" lon="2.74862">
        <ele>156.80000305176</ele>
        <time>2019-02-16T15:50:03Z</time>
      </trkpt>
      <trkpt lat="48.3611" lon="2.7487">
        <ele>156.80000305176</ele>
        <time>2019-02-16T15:50:08Z</time>
      </trkpt>
      <trkpt lat="48.36112" lon="2.74879">
        <ele>156.80000305176</ele>
        <time>2019-02-16T15:50:13Z</time>
      </trkpt>
      <trkpt lat="48.36112" lon="2.74886">
        <ele>157</ele>
        <time>2019-02-16T15:50:18Z</time>
      </trkpt>
      <trkpt lat="48.36113" lon="2.74895">
        <ele>157</ele>
        <time>2019-02-16T15:50:23Z</time>
      </trkpt>
      <trkpt lat="48.36114" lon="2.74904">
        <ele>157</ele>
        <time>2019-02-16T15:50:28Z</time>
      </trkpt>
      <trkpt lat="48.36116" lon="2.74913">
        <ele>157</ele>
        <time>2019-02-16T15:50:33Z</time>
      </trkpt>
      <trkpt lat="48.36117" lon="2.74919">
        <ele>157</ele>
        <time>2019-02-16T15:50:38Z</time>
      </trkpt>
      <trkpt lat="48.36118" lon="2.74928">
        <ele>156.80000305176</ele>
        <time>2019-02-16T15:50:43Z</time>
      </trkpt>
      <trkpt lat="48.36119" lon="2.74935">
        <ele>156.80000305176</ele>
        <time>2019-02-16T15:50:48Z</time>
      </trkpt>
      <trkpt lat="48.36119" lon="2.74943">
        <ele>156.60000610352</ele>
        <time>2019-02-16T15:50:53Z</time>
      </trkpt>
      <trkpt lat="48.36116" lon="2.74949">
        <ele>156.80000305176</ele>
        <time>2019-02-16T15:50:58Z</time>
      </trkpt>
      <trkpt lat="48.36114" lon="2.74954">
        <ele>156.80000305176</ele>
        <time>2019-02-16T15:51:03Z</time>
      </trkpt>
      <trkpt lat="48.36113" lon="2.74958">
        <ele>156.39999389648</ele>
        <time>2019-02-16T15:51:08Z</time>
      </trkpt>
      <trkpt lat="48.36112" lon="2.74962">
        <ele>156.39999389648</ele>
        <time>2019-02-16T15:51:13Z</time>
      </trkpt>
      <trkpt lat="48.36112" lon="2.74967">
        <ele>156.39999389648</ele>
        <time>2019-02-16T15:51:18Z</time>
      </trkpt>
      <trkpt lat="48.36112" lon="2.74971">
        <ele>156.39999389648</ele>
        <time>2019-02-16T15:51:23Z</time>
      </trkpt>
      <trkpt lat="48.36112" lon="2.74977">
        <ele>156.39999389648</ele>
        <time>2019-02-16T15:51:28Z</time>
      </trkpt>
      <trkpt lat="48.3611" lon="2.74983">
        <ele>156.39999389648</ele>
        <time>2019-02-16T15:51:33Z</time>
      </trkpt>
      <trkpt lat="48.3611" lon="2.74987">
        <ele>156.39999389648</ele>
        <time>2019-02-16T15:51:38Z</time>
      </trkpt>
      <trkpt lat="48.36112" lon="2.74992">
        <ele>156.39999389648</ele>
        <time>2019-02-16T15:51:43Z</time>
      </trkpt>
      <trkpt lat="48.36114" lon="2.74997">
        <ele>156.39999389648</ele>
        <time>2019-02-16T15:51:48Z</time>
      </trkpt>
      <trkpt lat="48.36117" lon="2.74999">
        <ele>156.39999389648</ele>
        <time>2019-02-16T15:51:53Z</time>
      </trkpt>
      <trkpt lat="48.36121" lon="2.75">
        <ele>156.39999389648</ele>
        <time>2019-02-16T15:51:58Z</time>
      </trkpt>
      <trkpt lat="48.36125" lon="2.75002">
        <ele>156.39999389648</ele>
        <time>2019-02-16T15:52:03Z</time>
      </trkpt>
      <trkpt lat="48.36129" lon="2.7501">
        <ele>156.39999389648</ele>
        <time>2019-02-16T15:52:08Z</time>
      </trkpt>
      <trkpt lat="48.36131" lon="2.75018">
        <ele>156.39999389648</ele>
        <time>2019-02-16T15:52:13Z</time>
      </trkpt>
      <trkpt lat="48.36132" lon="2.75026">
        <ele>156.19999694824</ele>
        <time>2019-02-16T15:52:18Z</time>
      </trkpt>
      <trkpt lat="48.36133" lon="2.75034">
        <ele>156.19999694824</ele>
        <time>2019-02-16T15:52:23Z</time>
      </trkpt>
      <trkpt lat="48.36133" lon="2.75043">
        <ele>156.19999694824</ele>
        <time>2019-02-16T15:52:28Z</time>
      </trkpt>
      <trkpt lat="48.36133" lon="2.75051">
        <ele>156.19999694824</ele>
        <time>2019-02-16T15:52:33Z</time>
      </trkpt>
      <trkpt lat="48.36132" lon="2.75058">
        <ele>156</ele>
        <time>2019-02-16T15:52:38Z</time>
      </trkpt>
      <trkpt lat="48.36132" lon="2.75066">
        <ele>156</ele>
        <time>2019-02-16T15:52:43Z</time>
      </trkpt>
      <trkpt lat="48.36131" lon="2.75072">
        <ele>156</ele>
        <time>2019-02-16T15:52:48Z</time>
      </trkpt>
      <trkpt lat="48.36131" lon="2.7508">
        <ele>156</ele>
        <time>2019-02-16T15:52:53Z</time>
      </trkpt>
      <trkpt lat="48.36129" lon="2.7509">
        <ele>155.80000305176</ele>
        <time>2019-02-16T15:52:58Z</time>
      </trkpt>
      <trkpt lat="48.36127" lon="2.75102">
        <ele>156</ele>
        <time>2019-02-16T15:53:03Z</time>
      </trkpt>
      <trkpt lat="48.36127" lon="2.75113">
        <ele>156</ele>
        <time>2019-02-16T15:53:08Z</time>
      </trkpt>
      <trkpt lat="48.36127" lon="2.7512">
        <ele>156.19999694824</ele>
        <time>2019-02-16T15:53:13Z</time>
      </trkpt>
      <trkpt lat="48.36127" lon="2.75127">
        <ele>156.19999694824</ele>
        <time>2019-02-16T15:53:18Z</time>
      </trkpt>
      <trkpt lat="48.36125" lon="2.75135">
        <ele>156.19999694824</ele>
        <time>2019-02-16T15:53:23Z</time>
      </trkpt>
      <trkpt lat="48.36124" lon="2.75145">
        <ele>156.39999389648</ele>
        <time>2019-02-16T15:53:28Z</time>
      </trkpt>
      <trkpt lat="48.36122" lon="2.75153">
        <ele>156.39999389648</ele>
        <time>2019-02-16T15:53:33Z</time>
      </trkpt>
      <trkpt lat="48.36121" lon="2.75161">
        <ele>156.39999389648</ele>
        <time>2019-02-16T15:53:38Z</time>
      </trkpt>
      <trkpt lat="48.36119" lon="2.75168">
        <ele>156.60000610352</ele>
        <time>2019-02-16T15:53:43Z</time>
      </trkpt>
      <trkpt lat="48.36118" lon="2.75175">
        <ele>156.80000305176</ele>
        <time>2019-02-16T15:53:48Z</time>
      </trkpt>
      <trkpt lat="48.36115" lon="2.75184">
        <ele>156.80000305176</ele>
        <time>2019-02-16T15:53:53Z</time>
      </trkpt>
      <trkpt lat="48.3611" lon="2.75189">
        <ele>156.80000305176</ele>
        <time>2019-02-16T15:53:58Z</time>
      </trkpt>
      <trkpt lat="48.36106" lon="2.75193">
        <ele>157</ele>
        <time>2019-02-16T15:54:03Z</time>
      </trkpt>
      <trkpt lat="48.361" lon="2.75195">
        <ele>157</ele>
        <time>2019-02-16T15:54:08Z</time>
      </trkpt>
      <trkpt lat="48.36092" lon="2.75196">
        <ele>157</ele>
        <time>2019-02-16T15:54:13Z</time>
      </trkpt>
      <trkpt lat="48.36085" lon="2.75195">
        <ele>157</ele>
        <time>2019-02-16T15:54:18Z</time>
      </trkpt>
      <trkpt lat="48.36079" lon="2.75198">
        <ele>157</ele>
        <time>2019-02-16T15:54:23Z</time>
      </trkpt>
      <trkpt lat="48.36074" lon="2.75199">
        <ele>157</ele>
        <time>2019-02-16T15:54:28Z</time>
      </trkpt>
      <trkpt lat="48.36071" lon="2.75204">
        <ele>156.80000305176</ele>
        <time>2019-02-16T15:54:33Z</time>
      </trkpt>
      <trkpt lat="48.36069" lon="2.7521">
        <ele>156.80000305176</ele>
        <time>2019-02-16T15:54:38Z</time>
      </trkpt>
      <trkpt lat="48.3607" lon="2.75217">
        <ele>156.80000305176</ele>
        <time>2019-02-16T15:54:43Z</time>
      </trkpt>
      <trkpt lat="48.36071" lon="2.75223">
        <ele>156.80000305176</ele>
        <time>2019-02-16T15:54:48Z</time>
      </trkpt>
      <trkpt lat="48.36072" lon="2.75228">
        <ele>156.80000305176</ele>
        <time>2019-02-16T15:54:53Z</time>
      </trkpt>
      <trkpt lat="48.36074" lon="2.75234">
        <ele>156.60000610352</ele>
        <time>2019-02-16T15:54:58Z</time>
      </trkpt>
      <trkpt lat="48.36074" lon="2.75236">
        <ele>156.60000610352</ele>
        <time>2019-02-16T15:55:03Z</time>
      </trkpt>
      <trkpt lat="48.36073" lon="2.75237">
        <ele>156.80000305176</ele>
        <time>2019-02-16T15:55:08Z</time>
      </trkpt>
      <trkpt lat="48.36073" lon="2.75238">
        <ele>156.80000305176</ele>
        <time>2019-02-16T15:55:13Z</time>
      </trkpt>
      <trkpt lat="48.36072" lon="2.75238">
        <ele>156.80000305176</ele>
        <time>2019-02-16T15:55:18Z</time>
      </trkpt>
      <trkpt lat="48.36072" lon="2.75239">
        <ele>156.80000305176</ele>
        <time>2019-02-16T15:55:23Z</time>
      </trkpt>
      <trkpt lat="48.36072" lon="2.7524">
        <ele>156.80000305176</ele>
        <time>2019-02-16T15:55:28Z</time>
      </trkpt>
      <trkpt lat="48.36071" lon="2.75241">
        <ele>156.80000305176</ele>
        <time>2019-02-16T15:55:43Z</time>
      </trkpt>
      <trkpt lat="48.36072" lon="2.75241">
        <ele>156.80000305176</ele>
        <time>2019-02-16T15:55:48Z</time>
      </trkpt>
      <trkpt lat="48.36075" lon="2.75247">
        <ele>156.80000305176</ele>
        <time>2019-02-16T15:55:53Z</time>
      </trkpt>
      <trkpt lat="48.36079" lon="2.75249">
        <ele>156.60000610352</ele>
        <time>2019-02-16T15:55:58Z</time>
      </trkpt>
      <trkpt lat="48.36082" lon="2.75251">
        <ele>156.60000610352</ele>
        <time>2019-02-16T15:56:03Z</time>
      </trkpt>
      <trkpt lat="48.36087" lon="2.75253">
        <ele>156.60000610352</ele>
        <time>2019-02-16T15:56:08Z</time>
      </trkpt>
      <trkpt lat="48.36091" lon="2.75254">
        <ele>156.60000610352</ele>
        <time>2019-02-16T15:56:13Z</time>
      </trkpt>
      <trkpt lat="48.36092" lon="2.75254">
        <ele>156.60000610352</ele>
        <time>2019-02-16T15:56:18Z</time>
      </trkpt>
      <trkpt lat="48.36094" lon="2.75254">
        <ele>156.60000610352</ele>
        <time>2019-02-16T15:56:23Z</time>
      </trkpt>
      <trkpt lat="48.36096" lon="2.75255">
        <ele>156.60000610352</ele>
        <time>2019-02-16T15:56:28Z</time>
      </trkpt>
      <trkpt lat="48.36097" lon="2.75256">
        <ele>156.60000610352</ele>
        <time>2019-02-16T15:56:33Z</time>
      </trkpt>
      <trkpt lat="48.36098" lon="2.75258">
        <ele>156.60000610352</ele>
        <time>2019-02-16T15:56:38Z</time>
      </trkpt>
      <trkpt lat="48.36098" lon="2.75262">
        <ele>156.60000610352</ele>
        <time>2019-02-16T15:56:43Z</time>
      </trkpt>
      <trkpt lat="48.36099" lon="2.75266">
        <ele>156.60000610352</ele>
        <time>2019-02-16T15:56:48Z</time>
      </trkpt>
      <trkpt lat="48.36099" lon="2.75268">
        <ele>156.60000610352</ele>
        <time>2019-02-16T15:56:53Z</time>
      </trkpt>
      <trkpt lat="48.361" lon="2.75269">
        <ele>156.60000610352</ele>
        <time>2019-02-16T15:56:58Z</time>
      </trkpt>
      <trkpt lat="48.36101" lon="2.75271">
        <ele>156.60000610352</ele>
        <time>2019-02-16T15:57:03Z</time>
      </trkpt>
      <trkpt lat="48.36102" lon="2.75272">
        <ele>156.60000610352</ele>
        <time>2019-02-16T15:57:08Z</time>
      </trkpt>
      <trkpt lat="48.36104" lon="2.75271">
        <ele>156.60000610352</ele>
        <time>2019-02-16T15:57:13Z</time>
      </trkpt>
      <trkpt lat="48.36105" lon="2.75271">
        <ele>151.19999694824</ele>
        <time>2019-02-16T15:57:18Z</time>
      </trkpt>
      <trkpt lat="48.36106" lon="2.7527">
        <ele>150.80000305176</ele>
        <time>2019-02-16T15:57:23Z</time>
      </trkpt>
      <trkpt lat="48.36108" lon="2.75269">
        <ele>150.60000610352</ele>
        <time>2019-02-16T15:57:28Z</time>
      </trkpt>
      <trkpt lat="48.36109" lon="2.7527">
        <ele>150.19999694824</ele>
        <time>2019-02-16T15:57:33Z</time>
      </trkpt>
      <trkpt lat="48.3611" lon="2.75271">
        <ele>149.39999389648</ele>
        <time>2019-02-16T15:57:38Z</time>
      </trkpt>
      <trkpt lat="48.36111" lon="2.75273">
        <ele>148.60000610352</ele>
        <time>2019-02-16T15:57:43Z</time>
      </trkpt>
      <trkpt lat="48.36113" lon="2.75275">
        <ele>148</ele>
        <time>2019-02-16T15:57:48Z</time>
      </trkpt>
      <trkpt lat="48.36117" lon="2.75282">
        <ele>147.19999694824</ele>
        <time>2019-02-16T15:57:53Z</time>
      </trkpt>
      <trkpt lat="48.36119" lon="2.75289">
        <ele>146.19999694824</ele>
        <time>2019-02-16T15:57:58Z</time>
      </trkpt>
      <trkpt lat="48.3612" lon="2.75297">
        <ele>145.39999389648</ele>
        <time>2019-02-16T15:58:03Z</time>
      </trkpt>
      <trkpt lat="48.36122" lon="2.75301">
        <ele>144.60000610352</ele>
        <time>2019-02-16T15:58:08Z</time>
      </trkpt>
      <trkpt lat="48.36124" lon="2.75306">
        <ele>143.39999389648</ele>
        <time>2019-02-16T15:58:13Z</time>
      </trkpt>
      <trkpt lat="48.36127" lon="2.75311">
        <ele>142.80000305176</ele>
        <time>2019-02-16T15:58:18Z</time>
      </trkpt>
      <trkpt lat="48.36129" lon="2.75317">
        <ele>141.80000305176</ele>
        <time>2019-02-16T15:58:23Z</time>
      </trkpt>
      <trkpt lat="48.36132" lon="2.75324">
        <ele>141</ele>
        <time>2019-02-16T15:58:28Z</time>
      </trkpt>
      <trkpt lat="48.36133" lon="2.75328">
        <ele>140.39999389648</ele>
        <time>2019-02-16T15:58:33Z</time>
      </trkpt>
      <trkpt lat="48.36134" lon="2.75333">
        <ele>139.80000305176</ele>
        <time>2019-02-16T15:58:38Z</time>
      </trkpt>
      <trkpt lat="48.36133" lon="2.75337">
        <ele>139.39999389648</ele>
        <time>2019-02-16T15:58:43Z</time>
      </trkpt>
      <trkpt lat="48.36133" lon="2.75343">
        <ele>139.19999694824</ele>
        <time>2019-02-16T15:58:48Z</time>
      </trkpt>
      <trkpt lat="48.36133" lon="2.75348">
        <ele>138.39999389648</ele>
        <time>2019-02-16T15:58:53Z</time>
      </trkpt>
      <trkpt lat="48.36134" lon="2.75355">
        <ele>137.39999389648</ele>
        <time>2019-02-16T15:58:58Z</time>
      </trkpt>
      <trkpt lat="48.36136" lon="2.75361">
        <ele>136.80000305176</ele>
        <time>2019-02-16T15:59:03Z</time>
      </trkpt>
      <trkpt lat="48.36138" lon="2.75367">
        <ele>136.19999694824</ele>
        <time>2019-02-16T15:59:08Z</time>
      </trkpt>
      <trkpt lat="48.36139" lon="2.75371">
        <ele>135.60000610352</ele>
        <time>2019-02-16T15:59:13Z</time>
      </trkpt>
      <trkpt lat="48.3614" lon="2.75376">
        <ele>135.19999694824</ele>
        <time>2019-02-16T15:59:18Z</time>
      </trkpt>
      <trkpt lat="48.36143" lon="2.7538">
        <ele>134.39999389648</ele>
        <time>2019-02-16T15:59:23Z</time>
      </trkpt>
      <trkpt lat="48.36144" lon="2.75385">
        <ele>133.60000610352</ele>
        <time>2019-02-16T15:59:28Z</time>
      </trkpt>
      <trkpt lat="48.36146" lon="2.75391">
        <ele>132.80000305176</ele>
        <time>2019-02-16T15:59:33Z</time>
      </trkpt>
      <trkpt lat="48.36148" lon="2.75396">
        <ele>132.39999389648</ele>
        <time>2019-02-16T15:59:38Z</time>
      </trkpt>
      <trkpt lat="48.36151" lon="2.75401">
        <ele>131.80000305176</ele>
        <time>2019-02-16T15:59:43Z</time>
      </trkpt>
      <trkpt lat="48.36151" lon="2.75404">
        <ele>131</ele>
        <time>2019-02-16T15:59:48Z</time>
      </trkpt>
      <trkpt lat="48.36152" lon="2.75408">
        <ele>130.39999389648</ele>
        <time>2019-02-16T15:59:53Z</time>
      </trkpt>
      <trkpt lat="48.36153" lon="2.75414">
        <ele>129.60000610352</ele>
        <time>2019-02-16T15:59:58Z</time>
      </trkpt>
      <trkpt lat="48.36155" lon="2.75419">
        <ele>129</ele>
        <time>2019-02-16T16:00:03Z</time>
      </trkpt>
      <trkpt lat="48.36156" lon="2.75423">
        <ele>128.39999389648</ele>
        <time>2019-02-16T16:00:08Z</time>
      </trkpt>
      <trkpt lat="48.36157" lon="2.75428">
        <ele>127.80000305176</ele>
        <time>2019-02-16T16:00:13Z</time>
      </trkpt>
      <trkpt lat="48.36157" lon="2.75432">
        <ele>127.40000152588</ele>
        <time>2019-02-16T16:00:18Z</time>
      </trkpt>
      <trkpt lat="48.3616" lon="2.75438">
        <ele>126.59999847412</ele>
        <time>2019-02-16T16:00:23Z</time>
      </trkpt>
      <trkpt lat="48.36162" lon="2.75444">
        <ele>126.19999694824</ele>
        <time>2019-02-16T16:00:28Z</time>
      </trkpt>
      <trkpt lat="48.36163" lon="2.7545">
        <ele>125.40000152588</ele>
        <time>2019-02-16T16:00:33Z</time>
      </trkpt>
      <trkpt lat="48.36165" lon="2.75456">
        <ele>124.80000305176</ele>
        <time>2019-02-16T16:00:38Z</time>
      </trkpt>
      <trkpt lat="48.36166" lon="2.75465">
        <ele>124.19999694824</ele>
        <time>2019-02-16T16:00:43Z</time>
      </trkpt>
      <trkpt lat="48.36166" lon="2.75473">
        <ele>123.80000305176</ele>
        <time>2019-02-16T16:00:48Z</time>
      </trkpt>
      <trkpt lat="48.36167" lon="2.75482">
        <ele>123.40000152588</ele>
        <time>2019-02-16T16:00:53Z</time>
      </trkpt>
      <trkpt lat="48.36168" lon="2.75488">
        <ele>123</ele>
        <time>2019-02-16T16:00:58Z</time>
      </trkpt>
      <trkpt lat="48.36169" lon="2.75494">
        <ele>122.59999847412</ele>
        <time>2019-02-16T16:01:03Z</time>
      </trkpt>
      <trkpt lat="48.36171" lon="2.755">
        <ele>122.19999694824</ele>
        <time>2019-02-16T16:01:08Z</time>
      </trkpt>
      <trkpt lat="48.36174" lon="2.75506">
        <ele>121.80000305176</ele>
        <time>2019-02-16T16:01:13Z</time>
      </trkpt>
      <trkpt lat="48.36175" lon="2.75513">
        <ele>121.59999847412</ele>
        <time>2019-02-16T16:01:18Z</time>
      </trkpt>
      <trkpt lat="48.36176" lon="2.7552">
        <ele>121.19999694824</ele>
        <time>2019-02-16T16:01:23Z</time>
      </trkpt>
      <trkpt lat="48.36179" lon="2.75529">
        <ele>121</ele>
        <time>2019-02-16T16:01:29Z</time>
      </trkpt>
      <trkpt lat="48.3618" lon="2.75534">
        <ele>120.59999847412</ele>
        <time>2019-02-16T16:01:33Z</time>
      </trkpt>
      <trkpt lat="48.36182" lon="2.75543">
        <ele>120.40000152588</ele>
        <time>2019-02-16T16:01:39Z</time>
      </trkpt>
      <trkpt lat="48.36183" lon="2.75547">
        <ele>120</ele>
        <time>2019-02-16T16:01:44Z</time>
      </trkpt>
      <trkpt lat="48.36185" lon="2.75553">
        <ele>119.80000305176</ele>
        <time>2019-02-16T16:01:49Z</time>
      </trkpt>
      <trkpt lat="48.36187" lon="2.7556">
        <ele>119.40000152588</ele>
        <time>2019-02-16T16:01:54Z</time>
      </trkpt>
      <trkpt lat="48.36189" lon="2.75567">
        <ele>119.19999694824</ele>
        <time>2019-02-16T16:01:59Z</time>
      </trkpt>
      <trkpt lat="48.36192" lon="2.75575">
        <ele>118.80000305176</ele>
        <time>2019-02-16T16:02:04Z</time>
      </trkpt>
      <trkpt lat="48.36193" lon="2.75581">
        <ele>118.40000152588</ele>
        <time>2019-02-16T16:02:09Z</time>
      </trkpt>
      <trkpt lat="48.36194" lon="2.75583">
        <ele>118.40000152588</ele>
        <time>2019-02-16T16:02:19Z</time>
      </trkpt>
      <trkpt lat="48.36194" lon="2.75585">
        <ele>118.80000305176</ele>
        <time>2019-02-16T16:03:00Z</time>
      </trkpt>
      <trkpt lat="48.36194" lon="2.75585">
        <ele>118.80000305176</ele>
        <time>2019-02-16T16:03:05Z</time>
      </trkpt>
      <trkpt lat="48.36194" lon="2.75587">
        <ele>119</ele>
        <time>2019-02-16T16:03:55Z</time>
      </trkpt>
      <trkpt lat="48.36195" lon="2.75591">
        <ele>119</ele>
        <time>2019-02-16T16:04:00Z</time>
      </trkpt>
      <trkpt lat="48.36193" lon="2.75596">
        <ele>119</ele>
        <time>2019-02-16T16:04:05Z</time>
      </trkpt>
      <trkpt lat="48.36191" lon="2.75601">
        <ele>118.80000305176</ele>
        <time>2019-02-16T16:04:10Z</time>
      </trkpt>
      <trkpt lat="48.36186" lon="2.75606">
        <ele>118.59999847412</ele>
        <time>2019-02-16T16:04:15Z</time>
      </trkpt>
      <trkpt lat="48.36182" lon="2.75608">
        <ele>119</ele>
        <time>2019-02-16T16:04:20Z</time>
      </trkpt>
      <trkpt lat="48.36178" lon="2.75612">
        <ele>119.19999694824</ele>
        <time>2019-02-16T16:04:25Z</time>
      </trkpt>
      <trkpt lat="48.36173" lon="2.75617">
        <ele>119.80000305176</ele>
        <time>2019-02-16T16:04:30Z</time>
      </trkpt>
      <trkpt lat="48.3617" lon="2.75622">
        <ele>120.19999694824</ele>
        <time>2019-02-16T16:04:35Z</time>
      </trkpt>
      <trkpt lat="48.36165" lon="2.75624">
        <ele>120.80000305176</ele>
        <time>2019-02-16T16:04:40Z</time>
      </trkpt>
      <trkpt lat="48.36159" lon="2.75627">
        <ele>120.59999847412</ele>
        <time>2019-02-16T16:04:45Z</time>
      </trkpt>
      <trkpt lat="48.36154" lon="2.75632">
        <ele>120.19999694824</ele>
        <time>2019-02-16T16:04:50Z</time>
      </trkpt>
      <trkpt lat="48.36149" lon="2.75638">
        <ele>119.59999847412</ele>
        <time>2019-02-16T16:04:55Z</time>
      </trkpt>
      <trkpt lat="48.36145" lon="2.75643">
        <ele>118.80000305176</ele>
        <time>2019-02-16T16:05:00Z</time>
      </trkpt>
      <trkpt lat="48.3614" lon="2.75646">
        <ele>118</ele>
        <time>2019-02-16T16:05:05Z</time>
      </trkpt>
      <trkpt lat="48.36139" lon="2.75651">
        <ele>117.19999694824</ele>
        <time>2019-02-16T16:05:10Z</time>
      </trkpt>
      <trkpt lat="48.36137" lon="2.75655">
        <ele>116.59999847412</ele>
        <time>2019-02-16T16:05:15Z</time>
      </trkpt>
      <trkpt lat="48.36131" lon="2.75658">
        <ele>116</ele>
        <time>2019-02-16T16:05:20Z</time>
      </trkpt>
      <trkpt lat="48.36126" lon="2.75662">
        <ele>115.59999847412</ele>
        <time>2019-02-16T16:05:25Z</time>
      </trkpt>
      <trkpt lat="48.36122" lon="2.75666">
        <ele>114.80000305176</ele>
        <time>2019-02-16T16:05:30Z</time>
      </trkpt>
      <trkpt lat="48.36118" lon="2.75673">
        <ele>114</ele>
        <time>2019-02-16T16:05:35Z</time>
      </trkpt>
      <trkpt lat="48.36114" lon="2.7568">
        <ele>113.59999847412</ele>
        <time>2019-02-16T16:05:40Z</time>
      </trkpt>
      <trkpt lat="48.36111" lon="2.75684">
        <ele>112.59999847412</ele>
        <time>2019-02-16T16:05:45Z</time>
      </trkpt>
      <trkpt lat="48.36108" lon="2.75689">
        <ele>112.40000152588</ele>
        <time>2019-02-16T16:05:50Z</time>
      </trkpt>
      <trkpt lat="48.36105" lon="2.75693">
        <ele>112</ele>
        <time>2019-02-16T16:05:55Z</time>
      </trkpt>
      <trkpt lat="48.36098" lon="2.75696">
        <ele>111.59999847412</ele>
        <time>2019-02-16T16:06:00Z</time>
      </trkpt>
      <trkpt lat="48.36093" lon="2.75699">
        <ele>111.19999694824</ele>
        <time>2019-02-16T16:06:05Z</time>
      </trkpt>
      <trkpt lat="48.36086" lon="2.75702">
        <ele>110.80000305176</ele>
        <time>2019-02-16T16:06:10Z</time>
      </trkpt>
      <trkpt lat="48.36083" lon="2.75706">
        <ele>110.59999847412</ele>
        <time>2019-02-16T16:06:15Z</time>
      </trkpt>
      <trkpt lat="48.36079" lon="2.75713">
        <ele>110.40000152588</ele>
        <time>2019-02-16T16:06:20Z</time>
      </trkpt>
      <trkpt lat="48.36074" lon="2.75717">
        <ele>110.19999694824</ele>
        <time>2019-02-16T16:06:25Z</time>
      </trkpt>
      <trkpt lat="48.36069" lon="2.75721">
        <ele>110</ele>
        <time>2019-02-16T16:06:30Z</time>
      </trkpt>
      <trkpt lat="48.36068" lon="2.75725">
        <ele>110</ele>
        <time>2019-02-16T16:06:35Z</time>
      </trkpt>
      <trkpt lat="48.36062" lon="2.75733">
        <ele>110.40000152588</ele>
        <time>2019-02-16T16:06:40Z</time>
      </trkpt>
      <trkpt lat="48.36056" lon="2.75736">
        <ele>110.40000152588</ele>
        <time>2019-02-16T16:06:45Z</time>
      </trkpt>
      <trkpt lat="48.36053" lon="2.75742">
        <ele>110.59999847412</ele>
        <time>2019-02-16T16:06:50Z</time>
      </trkpt>
      <trkpt lat="48.36053" lon="2.75745">
        <ele>110.59999847412</ele>
        <time>2019-02-16T16:06:55Z</time>
      </trkpt>
      <trkpt lat="48.36051" lon="2.7575">
        <ele>110.40000152588</ele>
        <time>2019-02-16T16:07:00Z</time>
      </trkpt>
      <trkpt lat="48.36049" lon="2.75757">
        <ele>110.40000152588</ele>
        <time>2019-02-16T16:07:05Z</time>
      </trkpt>
      <trkpt lat="48.36045" lon="2.75763">
        <ele>110.40000152588</ele>
        <time>2019-02-16T16:07:10Z</time>
      </trkpt>
      <trkpt lat="48.36044" lon="2.75769">
        <ele>110.59999847412</ele>
        <time>2019-02-16T16:07:15Z</time>
      </trkpt>
      <trkpt lat="48.36043" lon="2.75774">
        <ele>110.59999847412</ele>
        <time>2019-02-16T16:07:20Z</time>
      </trkpt>
      <trkpt lat="48.36041" lon="2.75782">
        <ele>111</ele>
        <time>2019-02-16T16:07:25Z</time>
      </trkpt>
      <trkpt lat="48.36037" lon="2.7579">
        <ele>111.19999694824</ele>
        <time>2019-02-16T16:07:32Z</time>
      </trkpt>
      <trkpt lat="48.36036" lon="2.75794">
        <ele>111.19999694824</ele>
        <time>2019-02-16T16:07:37Z</time>
      </trkpt>
      <trkpt lat="48.36034" lon="2.75801">
        <ele>111.19999694824</ele>
        <time>2019-02-16T16:07:42Z</time>
      </trkpt>
      <trkpt lat="48.36033" lon="2.75808">
        <ele>111.19999694824</ele>
        <time>2019-02-16T16:07:47Z</time>
      </trkpt>
      <trkpt lat="48.3603" lon="2.75816">
        <ele>111.19999694824</ele>
        <time>2019-02-16T16:07:52Z</time>
      </trkpt>
      <trkpt lat="48.36028" lon="2.75822">
        <ele>111.19999694824</ele>
        <time>2019-02-16T16:07:57Z</time>
      </trkpt>
      <trkpt lat="48.36025" lon="2.75828">
        <ele>111.19999694824</ele>
        <time>2019-02-16T16:08:02Z</time>
      </trkpt>
      <trkpt lat="48.36024" lon="2.75833">
        <ele>111.19999694824</ele>
        <time>2019-02-16T16:08:07Z</time>
      </trkpt>
      <trkpt lat="48.36022" lon="2.75839">
        <ele>111.19999694824</ele>
        <time>2019-02-16T16:08:12Z</time>
      </trkpt>
      <trkpt lat="48.3602" lon="2.75847">
        <ele>111.19999694824</ele>
        <time>2019-02-16T16:08:17Z</time>
      </trkpt>
      <trkpt lat="48.36017" lon="2.75854">
        <ele>111.40000152588</ele>
        <time>2019-02-16T16:08:22Z</time>
      </trkpt>
      <trkpt lat="48.36016" lon="2.75859">
        <ele>111.40000152588</ele>
        <time>2019-02-16T16:08:27Z</time>
      </trkpt>
      <trkpt lat="48.36015" lon="2.75862">
        <ele>111.40000152588</ele>
        <time>2019-02-16T16:08:32Z</time>
      </trkpt>
      <trkpt lat="48.3601" lon="2.75871">
        <ele>111.19999694824</ele>
        <time>2019-02-16T16:08:37Z</time>
      </trkpt>
      <trkpt lat="48.36008" lon="2.75877">
        <ele>111.19999694824</ele>
        <time>2019-02-16T16:08:42Z</time>
      </trkpt>
      <trkpt lat="48.36007" lon="2.75881">
        <ele>111.19999694824</ele>
        <time>2019-02-16T16:08:47Z</time>
      </trkpt>
      <trkpt lat="48.36004" lon="2.75888">
        <ele>111.19999694824</ele>
        <time>2019-02-16T16:08:52Z</time>
      </trkpt>
      <trkpt lat="48.36001" lon="2.75894">
        <ele>111.40000152588</ele>
        <time>2019-02-16T16:08:57Z</time>
      </trkpt>
      <trkpt lat="48.35999" lon="2.75898">
        <ele>111.19999694824</ele>
        <time>2019-02-16T16:09:02Z</time>
      </trkpt>
      <trkpt lat="48.35997" lon="2.75906">
        <ele>111</ele>
        <time>2019-02-16T16:09:07Z</time>
      </trkpt>
      <trkpt lat="48.35998" lon="2.75916">
        <ele>111</ele>
        <time>2019-02-16T16:09:12Z</time>
      </trkpt>
      <trkpt lat="48.35996" lon="2.75926">
        <ele>110.80000305176</ele>
        <time>2019-02-16T16:09:17Z</time>
      </trkpt>
      <trkpt lat="48.35992" lon="2.75932">
        <ele>111</ele>
        <time>2019-02-16T16:09:22Z</time>
      </trkpt>
      <trkpt lat="48.35989" lon="2.75941">
        <ele>111</ele>
        <time>2019-02-16T16:09:27Z</time>
      </trkpt>
      <trkpt lat="48.35986" lon="2.75944">
        <ele>111</ele>
        <time>2019-02-16T16:09:32Z</time>
      </trkpt>
      <trkpt lat="48.35985" lon="2.75948">
        <ele>111</ele>
        <time>2019-02-16T16:09:37Z</time>
      </trkpt>
      <trkpt lat="48.35984" lon="2.75951">
        <ele>111</ele>
        <time>2019-02-16T16:09:42Z</time>
      </trkpt>
      <trkpt lat="48.35983" lon="2.75954">
        <ele>111</ele>
        <time>2019-02-16T16:09:47Z</time>
      </trkpt>
      <trkpt lat="48.35979" lon="2.75959">
        <ele>110.80000305176</ele>
        <time>2019-02-16T16:09:52Z</time>
      </trkpt>
      <trkpt lat="48.35979" lon="2.75962">
        <ele>110.80000305176</ele>
        <time>2019-02-16T16:09:57Z</time>
      </trkpt>
      <trkpt lat="48.35977" lon="2.75965">
        <ele>110.80000305176</ele>
        <time>2019-02-16T16:10:02Z</time>
      </trkpt>
      <trkpt lat="48.35976" lon="2.75969">
        <ele>110.80000305176</ele>
        <time>2019-02-16T16:10:07Z</time>
      </trkpt>
      <trkpt lat="48.35973" lon="2.75974">
        <ele>110.80000305176</ele>
        <time>2019-02-16T16:10:12Z</time>
      </trkpt>
      <trkpt lat="48.35969" lon="2.7598">
        <ele>110.80000305176</ele>
        <time>2019-02-16T16:10:17Z</time>
      </trkpt>
      <trkpt lat="48.35967" lon="2.75985">
        <ele>110.59999847412</ele>
        <time>2019-02-16T16:10:22Z</time>
      </trkpt>
      <trkpt lat="48.35965" lon="2.75991">
        <ele>110.59999847412</ele>
        <time>2019-02-16T16:10:27Z</time>
      </trkpt>
      <trkpt lat="48.35964" lon="2.75997">
        <ele>110.59999847412</ele>
        <time>2019-02-16T16:10:32Z</time>
      </trkpt>
      <trkpt lat="48.35962" lon="2.76003">
        <ele>110.59999847412</ele>
        <time>2019-02-16T16:10:37Z</time>
      </trkpt>
      <trkpt lat="48.35959" lon="2.76007">
        <ele>110.80000305176</ele>
        <time>2019-02-16T16:10:42Z</time>
      </trkpt>
      <trkpt lat="48.35956" lon="2.76013">
        <ele>110.80000305176</ele>
        <time>2019-02-16T16:10:47Z</time>
      </trkpt>
      <trkpt lat="48.35954" lon="2.76018">
        <ele>110.80000305176</ele>
        <time>2019-02-16T16:10:52Z</time>
      </trkpt>
      <trkpt lat="48.35952" lon="2.76022">
        <ele>110.59999847412</ele>
        <time>2019-02-16T16:10:57Z</time>
      </trkpt>
      <trkpt lat="48.35949" lon="2.76027">
        <ele>110.80000305176</ele>
        <time>2019-02-16T16:11:02Z</time>
      </trkpt>
      <trkpt lat="48.35946" lon="2.76033">
        <ele>110.80000305176</ele>
        <time>2019-02-16T16:11:07Z</time>
      </trkpt>
      <trkpt lat="48.35944" lon="2.76038">
        <ele>110.80000305176</ele>
        <time>2019-02-16T16:11:12Z</time>
      </trkpt>
      <trkpt lat="48.35943" lon="2.76044">
        <ele>110.80000305176</ele>
        <time>2019-02-16T16:11:17Z</time>
      </trkpt>
      <trkpt lat="48.35941" lon="2.76049">
        <ele>110.80000305176</ele>
        <time>2019-02-16T16:11:22Z</time>
      </trkpt>
      <trkpt lat="48.35938" lon="2.76057">
        <ele>110.80000305176</ele>
        <time>2019-02-16T16:11:27Z</time>
      </trkpt>
      <trkpt lat="48.35936" lon="2.76063">
        <ele>110.80000305176</ele>
        <time>2019-02-16T16:11:32Z</time>
      </trkpt>
      <trkpt lat="48.35936" lon="2.76068">
        <ele>110.80000305176</ele>
        <time>2019-02-16T16:11:37Z</time>
      </trkpt>
      <trkpt lat="48.35934" lon="2.76075">
        <ele>110.59999847412</ele>
        <time>2019-02-16T16:11:42Z</time>
      </trkpt>
      <trkpt lat="48.35932" lon="2.7608">
        <ele>110.40000152588</ele>
        <time>2019-02-16T16:11:47Z</time>
      </trkpt>
      <trkpt lat="48.35931" lon="2.76086">
        <ele>110.40000152588</ele>
        <time>2019-02-16T16:11:52Z</time>
      </trkpt>
      <trkpt lat="48.35931" lon="2.76094">
        <ele>110.40000152588</ele>
        <time>2019-02-16T16:11:57Z</time>
      </trkpt>
      <trkpt lat="48.3593" lon="2.76102">
        <ele>110.40000152588</ele>
        <time>2019-02-16T16:12:02Z</time>
      </trkpt>
      <trkpt lat="48.35929" lon="2.76105">
        <ele>110.40000152588</ele>
        <time>2019-02-16T16:12:07Z</time>
      </trkpt>
      <trkpt lat="48.3593" lon="2.76109">
        <ele>110.40000152588</ele>
        <time>2019-02-16T16:12:12Z</time>
      </trkpt>
      <trkpt lat="48.35928" lon="2.76114">
        <ele>110.40000152588</ele>
        <time>2019-02-16T16:12:17Z</time>
      </trkpt>
      <trkpt lat="48.35926" lon="2.76119">
        <ele>110.40000152588</ele>
        <time>2019-02-16T16:12:22Z</time>
      </trkpt>
      <trkpt lat="48.35924" lon="2.76124">
        <ele>110.19999694824</ele>
        <time>2019-02-16T16:12:37Z</time>
      </trkpt>
      <trkpt lat="48.35922" lon="2.76125">
        <ele>110.19999694824</ele>
        <time>2019-02-16T16:12:42Z</time>
      </trkpt>
      <trkpt lat="48.35922" lon="2.76132">
        <ele>110.19999694824</ele>
        <time>2019-02-16T16:12:47Z</time>
      </trkpt>
      <trkpt lat="48.35919" lon="2.76139">
        <ele>110.40000152588</ele>
        <time>2019-02-16T16:12:52Z</time>
      </trkpt>
      <trkpt lat="48.35917" lon="2.76145">
        <ele>110.40000152588</ele>
        <time>2019-02-16T16:12:57Z</time>
      </trkpt>
      <trkpt lat="48.35917" lon="2.76153">
        <ele>110.40000152588</ele>
        <time>2019-02-16T16:13:02Z</time>
      </trkpt>
      <trkpt lat="48.35919" lon="2.76158">
        <ele>110.19999694824</ele>
        <time>2019-02-16T16:13:07Z</time>
      </trkpt>
      <trkpt lat="48.35919" lon="2.7616">
        <ele>110.19999694824</ele>
        <time>2019-02-16T16:13:12Z</time>
      </trkpt>
      <trkpt lat="48.35921" lon="2.76164">
        <ele>110.19999694824</ele>
        <time>2019-02-16T16:13:17Z</time>
      </trkpt>
      <trkpt lat="48.3592" lon="2.76169">
        <ele>110.19999694824</ele>
        <time>2019-02-16T16:13:22Z</time>
      </trkpt>
      <trkpt lat="48.35918" lon="2.76176">
        <ele>110</ele>
        <time>2019-02-16T16:13:27Z</time>
      </trkpt>
      <trkpt lat="48.35919" lon="2.76184">
        <ele>109.80000305176</ele>
        <time>2019-02-16T16:13:32Z</time>
      </trkpt>
      <trkpt lat="48.3592" lon="2.7619">
        <ele>109.80000305176</ele>
        <time>2019-02-16T16:13:37Z</time>
      </trkpt>
      <trkpt lat="48.35921" lon="2.762">
        <ele>109.80000305176</ele>
        <time>2019-02-16T16:13:42Z</time>
      </trkpt>
      <trkpt lat="48.35921" lon="2.76207">
        <ele>109.80000305176</ele>
        <time>2019-02-16T16:13:47Z</time>
      </trkpt>
      <trkpt lat="48.35918" lon="2.76212">
        <ele>109.59999847412</ele>
        <time>2019-02-16T16:13:52Z</time>
      </trkpt>
      <trkpt lat="48.35917" lon="2.7622">
        <ele>109.59999847412</ele>
        <time>2019-02-16T16:13:57Z</time>
      </trkpt>
      <trkpt lat="48.35918" lon="2.76225">
        <ele>109.59999847412</ele>
        <time>2019-02-16T16:14:02Z</time>
      </trkpt>
      <trkpt lat="48.35917" lon="2.76231">
        <ele>109.59999847412</ele>
        <time>2019-02-16T16:14:07Z</time>
      </trkpt>
      <trkpt lat="48.35916" lon="2.76239">
        <ele>109.59999847412</ele>
        <time>2019-02-16T16:14:12Z</time>
      </trkpt>
      <trkpt lat="48.35915" lon="2.76247">
        <ele>109.59999847412</ele>
        <time>2019-02-16T16:14:17Z</time>
      </trkpt>
      <trkpt lat="48.35911" lon="2.76253">
        <ele>109.80000305176</ele>
        <time>2019-02-16T16:14:22Z</time>
      </trkpt>
      <trkpt lat="48.3591" lon="2.76261">
        <ele>109.59999847412</ele>
        <time>2019-02-16T16:14:27Z</time>
      </trkpt>
      <trkpt lat="48.35908" lon="2.76268">
        <ele>109.59999847412</ele>
        <time>2019-02-16T16:14:32Z</time>
      </trkpt>
      <trkpt lat="48.35907" lon="2.76275">
        <ele>109.59999847412</ele>
        <time>2019-02-16T16:14:37Z</time>
      </trkpt>
      <trkpt lat="48.35905" lon="2.76284">
        <ele>109.80000305176</ele>
        <time>2019-02-16T16:14:42Z</time>
      </trkpt>
      <trkpt lat="48.35905" lon="2.7629">
        <ele>109.59999847412</ele>
        <time>2019-02-16T16:14:47Z</time>
      </trkpt>
      <trkpt lat="48.35904" lon="2.76298">
        <ele>109.59999847412</ele>
        <time>2019-02-16T16:14:52Z</time>
      </trkpt>
      <trkpt lat="48.35903" lon="2.76305">
        <ele>109.59999847412</ele>
        <time>2019-02-16T16:14:57Z</time>
      </trkpt>
      <trkpt lat="48.35902" lon="2.76312">
        <ele>109.40000152588</ele>
        <time>2019-02-16T16:15:02Z</time>
      </trkpt>
      <trkpt lat="48.35901" lon="2.76319">
        <ele>109.40000152588</ele>
        <time>2019-02-16T16:15:07Z</time>
      </trkpt>
      <trkpt lat="48.359" lon="2.76327">
        <ele>109.40000152588</ele>
        <time>2019-02-16T16:15:12Z</time>
      </trkpt>
      <trkpt lat="48.359" lon="2.76332">
        <ele>109.19999694824</ele>
        <time>2019-02-16T16:15:17Z</time>
      </trkpt>
      <trkpt lat="48.35899" lon="2.76337">
        <ele>109.40000152588</ele>
        <time>2019-02-16T16:15:22Z</time>
      </trkpt>
      <trkpt lat="48.35898" lon="2.76347">
        <ele>109.19999694824</ele>
        <time>2019-02-16T16:15:27Z</time>
      </trkpt>
      <trkpt lat="48.35897" lon="2.76354">
        <ele>109.19999694824</ele>
        <time>2019-02-16T16:15:32Z</time>
      </trkpt>
      <trkpt lat="48.35896" lon="2.76364">
        <ele>109</ele>
        <time>2019-02-16T16:15:37Z</time>
      </trkpt>
      <trkpt lat="48.35895" lon="2.76373">
        <ele>109</ele>
        <time>2019-02-16T16:15:42Z</time>
      </trkpt>
      <trkpt lat="48.35894" lon="2.76379">
        <ele>109</ele>
        <time>2019-02-16T16:15:47Z</time>
      </trkpt>
      <trkpt lat="48.35892" lon="2.76386">
        <ele>109</ele>
        <time>2019-02-16T16:15:52Z</time>
      </trkpt>
      <trkpt lat="48.35892" lon="2.76395">
        <ele>108.80000305176</ele>
        <time>2019-02-16T16:15:57Z</time>
      </trkpt>
      <trkpt lat="48.35891" lon="2.76402">
        <ele>108.59999847412</ele>
        <time>2019-02-16T16:16:02Z</time>
      </trkpt>
      <trkpt lat="48.3589" lon="2.7641">
        <ele>108.80000305176</ele>
        <time>2019-02-16T16:16:07Z</time>
      </trkpt>
      <trkpt lat="48.35891" lon="2.76416">
        <ele>108.80000305176</ele>
        <time>2019-02-16T16:16:12Z</time>
      </trkpt>
      <trkpt lat="48.35892" lon="2.76421">
        <ele>108.80000305176</ele>
        <time>2019-02-16T16:16:17Z</time>
      </trkpt>
      <trkpt lat="48.3589" lon="2.76426">
        <ele>108.80000305176</ele>
        <time>2019-02-16T16:16:22Z</time>
      </trkpt>
      <trkpt lat="48.35889" lon="2.76434">
        <ele>109</ele>
        <time>2019-02-16T16:16:27Z</time>
      </trkpt>
      <trkpt lat="48.35891" lon="2.76441">
        <ele>108.80000305176</ele>
        <time>2019-02-16T16:16:32Z</time>
      </trkpt>
      <trkpt lat="48.3589" lon="2.7645">
        <ele>108.59999847412</ele>
        <time>2019-02-16T16:16:37Z</time>
      </trkpt>
      <trkpt lat="48.35886" lon="2.76458">
        <ele>108.59999847412</ele>
        <time>2019-02-16T16:16:42Z</time>
      </trkpt>
      <trkpt lat="48.35884" lon="2.76465">
        <ele>108.59999847412</ele>
        <time>2019-02-16T16:16:47Z</time>
      </trkpt>
      <trkpt lat="48.35881" lon="2.76473">
        <ele>108.59999847412</ele>
        <time>2019-02-16T16:16:52Z</time>
      </trkpt>
      <trkpt lat="48.35881" lon="2.76479">
        <ele>108.59999847412</ele>
        <time>2019-02-16T16:16:57Z</time>
      </trkpt>
      <trkpt lat="48.35882" lon="2.76488">
        <ele>108.59999847412</ele>
        <time>2019-02-16T16:17:02Z</time>
      </trkpt>
      <trkpt lat="48.35881" lon="2.76497">
        <ele>108.59999847412</ele>
        <time>2019-02-16T16:17:07Z</time>
      </trkpt>
      <trkpt lat="48.35879" lon="2.76505">
        <ele>108.59999847412</ele>
        <time>2019-02-16T16:17:12Z</time>
      </trkpt>
      <trkpt lat="48.35877" lon="2.76515">
        <ele>108.40000152588</ele>
        <time>2019-02-16T16:17:17Z</time>
      </trkpt>
      <trkpt lat="48.35875" lon="2.76523">
        <ele>108.40000152588</ele>
        <time>2019-02-16T16:17:22Z</time>
      </trkpt>
      <trkpt lat="48.35876" lon="2.76531">
        <ele>108.40000152588</ele>
        <time>2019-02-16T16:17:27Z</time>
      </trkpt>
      <trkpt lat="48.35875" lon="2.76537">
        <ele>108.59999847412</ele>
        <time>2019-02-16T16:17:32Z</time>
      </trkpt>
      <trkpt lat="48.35872" lon="2.76544">
        <ele>108.59999847412</ele>
        <time>2019-02-16T16:17:37Z</time>
      </trkpt>
      <trkpt lat="48.35871" lon="2.76553">
        <ele>108.59999847412</ele>
        <time>2019-02-16T16:17:42Z</time>
      </trkpt>
      <trkpt lat="48.35871" lon="2.76564">
        <ele>108.59999847412</ele>
        <time>2019-02-16T16:17:47Z</time>
      </trkpt>
      <trkpt lat="48.35868" lon="2.76572">
        <ele>108.59999847412</ele>
        <time>2019-02-16T16:17:52Z</time>
      </trkpt>
      <trkpt lat="48.35865" lon="2.76579">
        <ele>108.59999847412</ele>
        <time>2019-02-16T16:17:57Z</time>
      </trkpt>
      <trkpt lat="48.35863" lon="2.76587">
        <ele>108.59999847412</ele>
        <time>2019-02-16T16:18:02Z</time>
      </trkpt>
      <trkpt lat="48.35859" lon="2.76593">
        <ele>108.59999847412</ele>
        <time>2019-02-16T16:18:07Z</time>
      </trkpt>
      <trkpt lat="48.35855" lon="2.76598">
        <ele>108.59999847412</ele>
        <time>2019-02-16T16:18:12Z</time>
      </trkpt>
      <trkpt lat="48.3585" lon="2.76604">
        <ele>108.59999847412</ele>
        <time>2019-02-16T16:18:17Z</time>
      </trkpt>
      <trkpt lat="48.35846" lon="2.76611">
        <ele>108.80000305176</ele>
        <time>2019-02-16T16:18:22Z</time>
      </trkpt>
      <trkpt lat="48.35841" lon="2.76622">
        <ele>108.80000305176</ele>
        <time>2019-02-16T16:18:27Z</time>
      </trkpt>
      <trkpt lat="48.35836" lon="2.76627">
        <ele>108.80000305176</ele>
        <time>2019-02-16T16:18:32Z</time>
      </trkpt>
      <trkpt lat="48.3583" lon="2.76631">
        <ele>108.80000305176</ele>
        <time>2019-02-16T16:18:37Z</time>
      </trkpt>
      <trkpt lat="48.35826" lon="2.76634">
        <ele>108.80000305176</ele>
        <time>2019-02-16T16:18:42Z</time>
      </trkpt>
      <trkpt lat="48.35823" lon="2.76641">
        <ele>108.80000305176</ele>
        <time>2019-02-16T16:18:47Z</time>
      </trkpt>
      <trkpt lat="48.35819" lon="2.76647">
        <ele>108.80000305176</ele>
        <time>2019-02-16T16:18:52Z</time>
      </trkpt>
      <trkpt lat="48.35815" lon="2.76652">
        <ele>109</ele>
        <time>2019-02-16T16:18:57Z</time>
      </trkpt>
      <trkpt lat="48.35811" lon="2.76659">
        <ele>109</ele>
        <time>2019-02-16T16:19:02Z</time>
      </trkpt>
      <trkpt lat="48.35807" lon="2.76664">
        <ele>109</ele>
        <time>2019-02-16T16:19:07Z</time>
      </trkpt>
      <trkpt lat="48.35803" lon="2.76668">
        <ele>109.19999694824</ele>
        <time>2019-02-16T16:19:12Z</time>
      </trkpt>
      <trkpt lat="48.35799" lon="2.76675">
        <ele>109.19999694824</ele>
        <time>2019-02-16T16:19:17Z</time>
      </trkpt>
      <trkpt lat="48.35795" lon="2.76681">
        <ele>109</ele>
        <time>2019-02-16T16:19:22Z</time>
      </trkpt>
      <trkpt lat="48.3579" lon="2.76683">
        <ele>109</ele>
        <time>2019-02-16T16:19:27Z</time>
      </trkpt>
      <trkpt lat="48.35787" lon="2.76687">
        <ele>108.80000305176</ele>
        <time>2019-02-16T16:19:32Z</time>
      </trkpt>
      <trkpt lat="48.35785" lon="2.76695">
        <ele>108.80000305176</ele>
        <time>2019-02-16T16:19:37Z</time>
      </trkpt>
      <trkpt lat="48.35782" lon="2.76701">
        <ele>109</ele>
        <time>2019-02-16T16:19:42Z</time>
      </trkpt>
      <trkpt lat="48.35779" lon="2.76707">
        <ele>108.80000305176</ele>
        <time>2019-02-16T16:19:47Z</time>
      </trkpt>
      <trkpt lat="48.35776" lon="2.76713">
        <ele>108.80000305176</ele>
        <time>2019-02-16T16:19:52Z</time>
      </trkpt>
      <trkpt lat="48.35772" lon="2.76719">
        <ele>108.80000305176</ele>
        <time>2019-02-16T16:19:57Z</time>
      </trkpt>
      <trkpt lat="48.35767" lon="2.76723">
        <ele>108.80000305176</ele>
        <time>2019-02-16T16:20:02Z</time>
      </trkpt>
      <trkpt lat="48.35762" lon="2.76726">
        <ele>108.80000305176</ele>
        <time>2019-02-16T16:20:07Z</time>
      </trkpt>
      <trkpt lat="48.35759" lon="2.7673">
        <ele>108.80000305176</ele>
        <time>2019-02-16T16:20:12Z</time>
      </trkpt>
      <trkpt lat="48.35755" lon="2.76734">
        <ele>108.80000305176</ele>
        <time>2019-02-16T16:20:17Z</time>
      </trkpt>
      <trkpt lat="48.3575" lon="2.76738">
        <ele>108.80000305176</ele>
        <time>2019-02-16T16:20:22Z</time>
      </trkpt>
      <trkpt lat="48.35745" lon="2.76744">
        <ele>108.80000305176</ele>
        <time>2019-02-16T16:20:27Z</time>
      </trkpt>
      <trkpt lat="48.35741" lon="2.7675">
        <ele>108.59999847412</ele>
        <time>2019-02-16T16:20:32Z</time>
      </trkpt>
      <trkpt lat="48.35736" lon="2.76756">
        <ele>108.59999847412</ele>
        <time>2019-02-16T16:20:37Z</time>
      </trkpt>
      <trkpt lat="48.35731" lon="2.76763">
        <ele>108.59999847412</ele>
        <time>2019-02-16T16:20:42Z</time>
      </trkpt>
      <trkpt lat="48.35727" lon="2.76771">
        <ele>108.59999847412</ele>
        <time>2019-02-16T16:20:47Z</time>
      </trkpt>
      <trkpt lat="48.35724" lon="2.76777">
        <ele>108.59999847412</ele>
        <time>2019-02-16T16:20:52Z</time>
      </trkpt>
      <trkpt lat="48.3572" lon="2.76783">
        <ele>108.59999847412</ele>
        <time>2019-02-16T16:20:57Z</time>
      </trkpt>
      <trkpt lat="48.35716" lon="2.76788">
        <ele>108.59999847412</ele>
        <time>2019-02-16T16:21:02Z</time>
      </trkpt>
      <trkpt lat="48.3571" lon="2.76794">
        <ele>108.59999847412</ele>
        <time>2019-02-16T16:21:07Z</time>
      </trkpt>
      <trkpt lat="48.35705" lon="2.76799">
        <ele>108.40000152588</ele>
        <time>2019-02-16T16:21:12Z</time>
      </trkpt>
      <trkpt lat="48.35701" lon="2.76803">
        <ele>108.40000152588</ele>
        <time>2019-02-16T16:21:17Z</time>
      </trkpt>
      <trkpt lat="48.35698" lon="2.7681">
        <ele>108.40000152588</ele>
        <time>2019-02-16T16:21:22Z</time>
      </trkpt>
      <trkpt lat="48.35693" lon="2.76816">
        <ele>108.40000152588</ele>
        <time>2019-02-16T16:21:27Z</time>
      </trkpt>
      <trkpt lat="48.3569" lon="2.76822">
        <ele>108.40000152588</ele>
        <time>2019-02-16T16:21:32Z</time>
      </trkpt>
      <trkpt lat="48.35687" lon="2.76829">
        <ele>108.19999694824</ele>
        <time>2019-02-16T16:21:37Z</time>
      </trkpt>
      <trkpt lat="48.35682" lon="2.76835">
        <ele>108.19999694824</ele>
        <time>2019-02-16T16:21:42Z</time>
      </trkpt>
      <trkpt lat="48.35678" lon="2.7684">
        <ele>108.19999694824</ele>
        <time>2019-02-16T16:21:47Z</time>
      </trkpt>
      <trkpt lat="48.35673" lon="2.76845">
        <ele>108.40000152588</ele>
        <time>2019-02-16T16:21:52Z</time>
      </trkpt>
      <trkpt lat="48.35669" lon="2.7685">
        <ele>108.40000152588</ele>
        <time>2019-02-16T16:21:57Z</time>
      </trkpt>
      <trkpt lat="48.35665" lon="2.76856">
        <ele>108.19999694824</ele>
        <time>2019-02-16T16:22:02Z</time>
      </trkpt>
      <trkpt lat="48.35661" lon="2.76861">
        <ele>108.40000152588</ele>
        <time>2019-02-16T16:22:07Z</time>
      </trkpt>
      <trkpt lat="48.35657" lon="2.76865">
        <ele>108.40000152588</ele>
        <time>2019-02-16T16:22:12Z</time>
      </trkpt>
      <trkpt lat="48.35652" lon="2.7687">
        <ele>108.19999694824</ele>
        <time>2019-02-16T16:22:17Z</time>
      </trkpt>
      <trkpt lat="48.35648" lon="2.76876">
        <ele>108.19999694824</ele>
        <time>2019-02-16T16:22:22Z</time>
      </trkpt>
      <trkpt lat="48.35643" lon="2.76878">
        <ele>108.19999694824</ele>
        <time>2019-02-16T16:22:27Z</time>
      </trkpt>
      <trkpt lat="48.3564" lon="2.76882">
        <ele>108.19999694824</ele>
        <time>2019-02-16T16:22:32Z</time>
      </trkpt>
      <trkpt lat="48.35635" lon="2.76888">
        <ele>108.40000152588</ele>
        <time>2019-02-16T16:22:37Z</time>
      </trkpt>
      <trkpt lat="48.3563" lon="2.76893">
        <ele>108.40000152588</ele>
        <time>2019-02-16T16:22:42Z</time>
      </trkpt>
      <trkpt lat="48.35626" lon="2.76898">
        <ele>108.19999694824</ele>
        <time>2019-02-16T16:22:47Z</time>
      </trkpt>
      <trkpt lat="48.35621" lon="2.76902">
        <ele>108.19999694824</ele>
        <time>2019-02-16T16:22:52Z</time>
      </trkpt>
      <trkpt lat="48.35615" lon="2.76907">
        <ele>108.19999694824</ele>
        <time>2019-02-16T16:22:57Z</time>
      </trkpt>
      <trkpt lat="48.35611" lon="2.7691">
        <ele>108.19999694824</ele>
        <time>2019-02-16T16:23:02Z</time>
      </trkpt>
      <trkpt lat="48.35606" lon="2.76916">
        <ele>108.19999694824</ele>
        <time>2019-02-16T16:23:07Z</time>
      </trkpt>
      <trkpt lat="48.35602" lon="2.76922">
        <ele>108.19999694824</ele>
        <time>2019-02-16T16:23:12Z</time>
      </trkpt>
      <trkpt lat="48.35598" lon="2.76928">
        <ele>108.19999694824</ele>
        <time>2019-02-16T16:23:17Z</time>
      </trkpt>
      <trkpt lat="48.35593" lon="2.76934">
        <ele>108</ele>
        <time>2019-02-16T16:23:22Z</time>
      </trkpt>
      <trkpt lat="48.3559" lon="2.76942">
        <ele>108</ele>
        <time>2019-02-16T16:23:27Z</time>
      </trkpt>
      <trkpt lat="48.35586" lon="2.76951">
        <ele>107.80000305176</ele>
        <time>2019-02-16T16:23:32Z</time>
      </trkpt>
      <trkpt lat="48.3558" lon="2.76955">
        <ele>107.59999847412</ele>
        <time>2019-02-16T16:23:37Z</time>
      </trkpt>
      <trkpt lat="48.35576" lon="2.76962">
        <ele>107.80000305176</ele>
        <time>2019-02-16T16:23:42Z</time>
      </trkpt>
      <trkpt lat="48.3557" lon="2.76965">
        <ele>108</ele>
        <time>2019-02-16T16:23:47Z</time>
      </trkpt>
      <trkpt lat="48.35566" lon="2.7697">
        <ele>108.19999694824</ele>
        <time>2019-02-16T16:23:52Z</time>
      </trkpt>
      <trkpt lat="48.35561" lon="2.76975">
        <ele>108.19999694824</ele>
        <time>2019-02-16T16:23:57Z</time>
      </trkpt>
      <trkpt lat="48.35555" lon="2.76979">
        <ele>108.19999694824</ele>
        <time>2019-02-16T16:24:02Z</time>
      </trkpt>
      <trkpt lat="48.35549" lon="2.76982">
        <ele>108.40000152588</ele>
        <time>2019-02-16T16:24:07Z</time>
      </trkpt>
      <trkpt lat="48.35545" lon="2.76987">
        <ele>108.59999847412</ele>
        <time>2019-02-16T16:24:12Z</time>
      </trkpt>
      <trkpt lat="48.35541" lon="2.7699">
        <ele>108.59999847412</ele>
        <time>2019-02-16T16:24:17Z</time>
      </trkpt>
      <trkpt lat="48.35536" lon="2.76995">
        <ele>108.59999847412</ele>
        <time>2019-02-16T16:24:22Z</time>
      </trkpt>
      <trkpt lat="48.35532" lon="2.77003">
        <ele>108.80000305176</ele>
        <time>2019-02-16T16:24:27Z</time>
      </trkpt>
      <trkpt lat="48.35528" lon="2.7701">
        <ele>108.80000305176</ele>
        <time>2019-02-16T16:24:32Z</time>
      </trkpt>
      <trkpt lat="48.35525" lon="2.77018">
        <ele>109</ele>
        <time>2019-02-16T16:24:37Z</time>
      </trkpt>
      <trkpt lat="48.3552" lon="2.77025">
        <ele>109</ele>
        <time>2019-02-16T16:24:42Z</time>
      </trkpt>
      <trkpt lat="48.35515" lon="2.7703">
        <ele>109</ele>
        <time>2019-02-16T16:24:47Z</time>
      </trkpt>
      <trkpt lat="48.3551" lon="2.77035">
        <ele>109</ele>
        <time>2019-02-16T16:24:52Z</time>
      </trkpt>
      <trkpt lat="48.35508" lon="2.77042">
        <ele>109</ele>
        <time>2019-02-16T16:24:57Z</time>
      </trkpt>
      <trkpt lat="48.35505" lon="2.77045">
        <ele>109.19999694824</ele>
        <time>2019-02-16T16:25:02Z</time>
      </trkpt>
      <trkpt lat="48.35503" lon="2.7705">
        <ele>109.19999694824</ele>
        <time>2019-02-16T16:25:07Z</time>
      </trkpt>
      <trkpt lat="48.35498" lon="2.77056">
        <ele>109.19999694824</ele>
        <time>2019-02-16T16:25:12Z</time>
      </trkpt>
      <trkpt lat="48.35495" lon="2.77064">
        <ele>109.40000152588</ele>
        <time>2019-02-16T16:25:17Z</time>
      </trkpt>
      <trkpt lat="48.35492" lon="2.77071">
        <ele>109.19999694824</ele>
        <time>2019-02-16T16:25:22Z</time>
      </trkpt>
      <trkpt lat="48.35492" lon="2.7708">
        <ele>109</ele>
        <time>2019-02-16T16:25:27Z</time>
      </trkpt>
      <trkpt lat="48.35489" lon="2.77084">
        <ele>108.80000305176</ele>
        <time>2019-02-16T16:25:32Z</time>
      </trkpt>
      <trkpt lat="48.35487" lon="2.7709">
        <ele>108.80000305176</ele>
        <time>2019-02-16T16:25:37Z</time>
      </trkpt>
      <trkpt lat="48.35486" lon="2.77096">
        <ele>108.59999847412</ele>
        <time>2019-02-16T16:25:42Z</time>
      </trkpt>
      <trkpt lat="48.35485" lon="2.77103">
        <ele>108.40000152588</ele>
        <time>2019-02-16T16:25:47Z</time>
      </trkpt>
      <trkpt lat="48.35482" lon="2.77107">
        <ele>108.40000152588</ele>
        <time>2019-02-16T16:25:52Z</time>
      </trkpt>
      <trkpt lat="48.3548" lon="2.77117">
        <ele>108.40000152588</ele>
        <time>2019-02-16T16:25:57Z</time>
      </trkpt>
      <trkpt lat="48.35477" lon="2.77128">
        <ele>108.40000152588</ele>
        <time>2019-02-16T16:26:02Z</time>
      </trkpt>
      <trkpt lat="48.35476" lon="2.77135">
        <ele>108.40000152588</ele>
        <time>2019-02-16T16:26:07Z</time>
      </trkpt>
      <trkpt lat="48.35476" lon="2.77143">
        <ele>108.40000152588</ele>
        <time>2019-02-16T16:26:12Z</time>
      </trkpt>
      <trkpt lat="48.35476" lon="2.77148">
        <ele>108.59999847412</ele>
        <time>2019-02-16T16:26:17Z</time>
      </trkpt>
      <trkpt lat="48.35476" lon="2.7715">
        <ele>108.80000305176</ele>
        <time>2019-02-16T16:26:27Z</time>
      </trkpt>
      <trkpt lat="48.35475" lon="2.77151">
        <ele>108.80000305176</ele>
        <time>2019-02-16T16:26:32Z</time>
      </trkpt>
      <trkpt lat="48.35474" lon="2.77156">
        <ele>109</ele>
        <time>2019-02-16T16:26:47Z</time>
      </trkpt>
      <trkpt lat="48.35474" lon="2.77164">
        <ele>109.40000152588</ele>
        <time>2019-02-16T16:28:49Z</time>
      </trkpt>
      <trkpt lat="48.35474" lon="2.77166">
        <ele>109.40000152588</ele>
        <time>2019-02-16T16:28:54Z</time>
      </trkpt>
      <trkpt lat="48.35473" lon="2.77167">
        <ele>109.40000152588</ele>
        <time>2019-02-16T16:28:59Z</time>
      </trkpt>
      <trkpt lat="48.35472" lon="2.77168">
        <ele>109.40000152588</ele>
        <time>2019-02-16T16:29:04Z</time>
      </trkpt>
      <trkpt lat="48.35472" lon="2.77171">
        <ele>109.40000152588</ele>
        <time>2019-02-16T16:29:09Z</time>
      </trkpt>
      <trkpt lat="48.35472" lon="2.77177">
        <ele>109.40000152588</ele>
        <time>2019-02-16T16:29:14Z</time>
      </trkpt>
      <trkpt lat="48.35471" lon="2.77182">
        <ele>109.40000152588</ele>
        <time>2019-02-16T16:29:19Z</time>
      </trkpt>
      <trkpt lat="48.35471" lon="2.7719">
        <ele>109.40000152588</ele>
        <time>2019-02-16T16:29:24Z</time>
      </trkpt>
      <trkpt lat="48.35471" lon="2.77197">
        <ele>109.40000152588</ele>
        <time>2019-02-16T16:29:29Z</time>
      </trkpt>
      <trkpt lat="48.35471" lon="2.77205">
        <ele>109.40000152588</ele>
        <time>2019-02-16T16:29:34Z</time>
      </trkpt>
      <trkpt lat="48.35471" lon="2.77212">
        <ele>109.40000152588</ele>
        <time>2019-02-16T16:29:39Z</time>
      </trkpt>
      <trkpt lat="48.3547" lon="2.7722">
        <ele>109.40000152588</ele>
        <time>2019-02-16T16:29:44Z</time>
      </trkpt>
      <trkpt lat="48.35469" lon="2.77229">
        <ele>109.40000152588</ele>
        <time>2019-02-16T16:29:49Z</time>
      </trkpt>
      <trkpt lat="48.35468" lon="2.77237">
        <ele>109.40000152588</ele>
        <time>2019-02-16T16:29:54Z</time>
      </trkpt>
      <trkpt lat="48.35466" lon="2.77244">
        <ele>109.40000152588</ele>
        <time>2019-02-16T16:29:59Z</time>
      </trkpt>
      <trkpt lat="48.35466" lon="2.77252">
        <ele>109.40000152588</ele>
        <time>2019-02-16T16:30:04Z</time>
      </trkpt>
      <trkpt lat="48.35465" lon="2.7726">
        <ele>109.40000152588</ele>
        <time>2019-02-16T16:30:09Z</time>
      </trkpt>
      <trkpt lat="48.35464" lon="2.77269">
        <ele>109.40000152588</ele>
        <time>2019-02-16T16:30:14Z</time>
      </trkpt>
      <trkpt lat="48.35464" lon="2.77276">
        <ele>109.40000152588</ele>
        <time>2019-02-16T16:30:19Z</time>
      </trkpt>
      <trkpt lat="48.35463" lon="2.77284">
        <ele>109.40000152588</ele>
        <time>2019-02-16T16:30:24Z</time>
      </trkpt>
      <trkpt lat="48.3546" lon="2.77293">
        <ele>109.40000152588</ele>
        <time>2019-02-16T16:30:29Z</time>
      </trkpt>
      <trkpt lat="48.35459" lon="2.773">
        <ele>109.40000152588</ele>
        <time>2019-02-16T16:30:34Z</time>
      </trkpt>
      <trkpt lat="48.35457" lon="2.77307">
        <ele>109.40000152588</ele>
        <time>2019-02-16T16:30:39Z</time>
      </trkpt>
      <trkpt lat="48.35455" lon="2.77316">
        <ele>109.40000152588</ele>
        <time>2019-02-16T16:30:44Z</time>
      </trkpt>
      <trkpt lat="48.35454" lon="2.77324">
        <ele>108.80000305176</ele>
        <time>2019-02-16T16:30:49Z</time>
      </trkpt>
      <trkpt lat="48.35454" lon="2.77333">
        <ele>108.80000305176</ele>
        <time>2019-02-16T16:30:54Z</time>
      </trkpt>
      <trkpt lat="48.35453" lon="2.77342">
        <ele>108.80000305176</ele>
        <time>2019-02-16T16:30:59Z</time>
      </trkpt>
      <trkpt lat="48.35453" lon="2.7735">
        <ele>108.80000305176</ele>
        <time>2019-02-16T16:31:04Z</time>
      </trkpt>
      <trkpt lat="48.35453" lon="2.77357">
        <ele>108.59999847412</ele>
        <time>2019-02-16T16:31:09Z</time>
      </trkpt>
      <trkpt lat="48.35452" lon="2.77365">
        <ele>108.59999847412</ele>
        <time>2019-02-16T16:31:14Z</time>
      </trkpt>
      <trkpt lat="48.35451" lon="2.77375">
        <ele>108.80000305176</ele>
        <time>2019-02-16T16:31:19Z</time>
      </trkpt>
      <trkpt lat="48.35449" lon="2.77386">
        <ele>108.80000305176</ele>
        <time>2019-02-16T16:31:24Z</time>
      </trkpt>
      <trkpt lat="48.35449" lon="2.77393">
        <ele>108.80000305176</ele>
        <time>2019-02-16T16:31:29Z</time>
      </trkpt>
      <trkpt lat="48.35448" lon="2.77398">
        <ele>108.80000305176</ele>
        <time>2019-02-16T16:31:34Z</time>
      </trkpt>
      <trkpt lat="48.35447" lon="2.77405">
        <ele>108.80000305176</ele>
        <time>2019-02-16T16:31:39Z</time>
      </trkpt>
      <trkpt lat="48.35446" lon="2.77414">
        <ele>108.80000305176</ele>
        <time>2019-02-16T16:31:44Z</time>
      </trkpt>
      <trkpt lat="48.35446" lon="2.77422">
        <ele>109</ele>
        <time>2019-02-16T16:31:49Z</time>
      </trkpt>
      <trkpt lat="48.35445" lon="2.7743">
        <ele>109</ele>
        <time>2019-02-16T16:31:54Z</time>
      </trkpt>
      <trkpt lat="48.35444" lon="2.77438">
        <ele>109</ele>
        <time>2019-02-16T16:31:59Z</time>
      </trkpt>
      <trkpt lat="48.35443" lon="2.77445">
        <ele>109.19999694824</ele>
        <time>2019-02-16T16:32:04Z</time>
      </trkpt>
      <trkpt lat="48.35442" lon="2.77453">
        <ele>109.19999694824</ele>
        <time>2019-02-16T16:32:09Z</time>
      </trkpt>
      <trkpt lat="48.35442" lon="2.77462">
        <ele>109.19999694824</ele>
        <time>2019-02-16T16:32:14Z</time>
      </trkpt>
      <trkpt lat="48.35441" lon="2.7747">
        <ele>109.19999694824</ele>
        <time>2019-02-16T16:32:19Z</time>
      </trkpt>
      <trkpt lat="48.3544" lon="2.77478">
        <ele>109.19999694824</ele>
        <time>2019-02-16T16:32:24Z</time>
      </trkpt>
      <trkpt lat="48.35439" lon="2.77485">
        <ele>109.19999694824</ele>
        <time>2019-02-16T16:32:29Z</time>
      </trkpt>
      <trkpt lat="48.35438" lon="2.77495">
        <ele>109.19999694824</ele>
        <time>2019-02-16T16:32:34Z</time>
      </trkpt>
      <trkpt lat="48.35436" lon="2.77504">
        <ele>109.19999694824</ele>
        <time>2019-02-16T16:32:39Z</time>
      </trkpt>
      <trkpt lat="48.35436" lon="2.77512">
        <ele>109.19999694824</ele>
        <time>2019-02-16T16:32:44Z</time>
      </trkpt>
      <trkpt lat="48.35434" lon="2.7752">
        <ele>109.40000152588</ele>
        <time>2019-02-16T16:32:49Z</time>
      </trkpt>
      <trkpt lat="48.35433" lon="2.77528">
        <ele>109.40000152588</ele>
        <time>2019-02-16T16:32:54Z</time>
      </trkpt>
      <trkpt lat="48.35432" lon="2.77538">
        <ele>109.59999847412</ele>
        <time>2019-02-16T16:32:59Z</time>
      </trkpt>
      <trkpt lat="48.3543" lon="2.77547">
        <ele>109.59999847412</ele>
        <time>2019-02-16T16:33:04Z</time>
      </trkpt>
      <trkpt lat="48.35429" lon="2.77555">
        <ele>109.59999847412</ele>
        <time>2019-02-16T16:33:09Z</time>
      </trkpt>
      <trkpt lat="48.35429" lon="2.77564">
        <ele>109.80000305176</ele>
        <time>2019-02-16T16:33:14Z</time>
      </trkpt>
      <trkpt lat="48.3543" lon="2.77571">
        <ele>109.80000305176</ele>
        <time>2019-02-16T16:33:19Z</time>
      </trkpt>
      <trkpt lat="48.35429" lon="2.77578">
        <ele>109.80000305176</ele>
        <time>2019-02-16T16:33:24Z</time>
      </trkpt>
      <trkpt lat="48.35427" lon="2.77585">
        <ele>109.80000305176</ele>
        <time>2019-02-16T16:33:29Z</time>
      </trkpt>
      <trkpt lat="48.35428" lon="2.77595">
        <ele>110</ele>
        <time>2019-02-16T16:33:34Z</time>
      </trkpt>
      <trkpt lat="48.35426" lon="2.77603">
        <ele>110</ele>
        <time>2019-02-16T16:33:39Z</time>
      </trkpt>
      <trkpt lat="48.35426" lon="2.77611">
        <ele>110</ele>
        <time>2019-02-16T16:33:44Z</time>
      </trkpt>
      <trkpt lat="48.35424" lon="2.77618">
        <ele>110</ele>
        <time>2019-02-16T16:33:49Z</time>
      </trkpt>
      <trkpt lat="48.35423" lon="2.77626">
        <ele>110</ele>
        <time>2019-02-16T16:33:54Z</time>
      </trkpt>
      <trkpt lat="48.35421" lon="2.77635">
        <ele>110.19999694824</ele>
        <time>2019-02-16T16:33:59Z</time>
      </trkpt>
      <trkpt lat="48.35419" lon="2.77642">
        <ele>110.19999694824</ele>
        <time>2019-02-16T16:34:04Z</time>
      </trkpt>
      <trkpt lat="48.35419" lon="2.77649">
        <ele>110.19999694824</ele>
        <time>2019-02-16T16:34:09Z</time>
      </trkpt>
      <trkpt lat="48.35418" lon="2.77657">
        <ele>110.19999694824</ele>
        <time>2019-02-16T16:34:14Z</time>
      </trkpt>
      <trkpt lat="48.35417" lon="2.77664">
        <ele>110.19999694824</ele>
        <time>2019-02-16T16:34:19Z</time>
      </trkpt>
      <trkpt lat="48.35414" lon="2.77672">
        <ele>110.19999694824</ele>
        <time>2019-02-16T16:34:24Z</time>
      </trkpt>
      <trkpt lat="48.35409" lon="2.77677">
        <ele>110.59999847412</ele>
        <time>2019-02-16T16:34:29Z</time>
      </trkpt>
      <trkpt lat="48.35405" lon="2.77678">
        <ele>110.59999847412</ele>
        <time>2019-02-16T16:34:34Z</time>
      </trkpt>
      <trkpt lat="48.35399" lon="2.7768">
        <ele>110.80000305176</ele>
        <time>2019-02-16T16:34:39Z</time>
      </trkpt>
      <trkpt lat="48.35395" lon="2.7768">
        <ele>111</ele>
        <time>2019-02-16T16:34:44Z</time>
      </trkpt>
      <trkpt lat="48.3539" lon="2.77681">
        <ele>111.40000152588</ele>
        <time>2019-02-16T16:34:49Z</time>
      </trkpt>
      <trkpt lat="48.35384" lon="2.77682">
        <ele>111.59999847412</ele>
        <time>2019-02-16T16:34:54Z</time>
      </trkpt>
      <trkpt lat="48.35377" lon="2.77685">
        <ele>111.80000305176</ele>
        <time>2019-02-16T16:34:59Z</time>
      </trkpt>
      <trkpt lat="48.35372" lon="2.77686">
        <ele>112</ele>
        <time>2019-02-16T16:35:04Z</time>
      </trkpt>
      <trkpt lat="48.35367" lon="2.77688">
        <ele>112.19999694824</ele>
        <time>2019-02-16T16:35:09Z</time>
      </trkpt>
      <trkpt lat="48.35362" lon="2.7769">
        <ele>112.59999847412</ele>
        <time>2019-02-16T16:35:14Z</time>
      </trkpt>
      <trkpt lat="48.35356" lon="2.77692">
        <ele>113</ele>
        <time>2019-02-16T16:35:19Z</time>
      </trkpt>
      <trkpt lat="48.35351" lon="2.77695">
        <ele>113.19999694824</ele>
        <time>2019-02-16T16:35:24Z</time>
      </trkpt>
      <trkpt lat="48.35347" lon="2.77696">
        <ele>113.59999847412</ele>
        <time>2019-02-16T16:35:29Z</time>
      </trkpt>
      <trkpt lat="48.35342" lon="2.77697">
        <ele>114</ele>
        <time>2019-02-16T16:35:34Z</time>
      </trkpt>
      <trkpt lat="48.35338" lon="2.777">
        <ele>114.40000152588</ele>
        <time>2019-02-16T16:35:39Z</time>
      </trkpt>
      <trkpt lat="48.35333" lon="2.77704">
        <ele>114.80000305176</ele>
        <time>2019-02-16T16:35:44Z</time>
      </trkpt>
      <trkpt lat="48.3533" lon="2.77706">
        <ele>115.19999694824</ele>
        <time>2019-02-16T16:35:49Z</time>
      </trkpt>
      <trkpt lat="48.35327" lon="2.77708">
        <ele>115.80000305176</ele>
        <time>2019-02-16T16:35:54Z</time>
      </trkpt>
      <trkpt lat="48.35322" lon="2.77711">
        <ele>116.40000152588</ele>
        <time>2019-02-16T16:35:59Z</time>
      </trkpt>
      <trkpt lat="48.35317" lon="2.77714">
        <ele>117.19999694824</ele>
        <time>2019-02-16T16:36:04Z</time>
      </trkpt>
      <trkpt lat="48.35313" lon="2.77716">
        <ele>117.80000305176</ele>
        <time>2019-02-16T16:36:09Z</time>
      </trkpt>
      <trkpt lat="48.3531" lon="2.77718">
        <ele>118.19999694824</ele>
        <time>2019-02-16T16:36:14Z</time>
      </trkpt>
      <trkpt lat="48.35308" lon="2.77719">
        <ele>119</ele>
        <time>2019-02-16T16:36:19Z</time>
      </trkpt>
      <trkpt lat="48.35304" lon="2.77722">
        <ele>119.59999847412</ele>
        <time>2019-02-16T16:36:24Z</time>
      </trkpt>
      <trkpt lat="48.353" lon="2.77725">
        <ele>120</ele>
        <time>2019-02-16T16:36:29Z</time>
      </trkpt>
      <trkpt lat="48.35297" lon="2.77729">
        <ele>120.59999847412</ele>
        <time>2019-02-16T16:36:34Z</time>
      </trkpt>
      <trkpt lat="48.35292" lon="2.77732">
        <ele>121.19999694824</ele>
        <time>2019-02-16T16:36:39Z</time>
      </trkpt>
      <trkpt lat="48.35289" lon="2.77734">
        <ele>121.80000305176</ele>
        <time>2019-02-16T16:36:44Z</time>
      </trkpt>
      <trkpt lat="48.35286" lon="2.77734">
        <ele>122.19999694824</ele>
        <time>2019-02-16T16:36:49Z</time>
      </trkpt>
      <trkpt lat="48.3528" lon="2.77738">
        <ele>122.19999694824</ele>
        <time>2019-02-16T16:36:54Z</time>
      </trkpt>
      <trkpt lat="48.35275" lon="2.77741">
        <ele>121.59999847412</ele>
        <time>2019-02-16T16:36:59Z</time>
      </trkpt>
      <trkpt lat="48.3527" lon="2.77743">
        <ele>121.19999694824</ele>
        <time>2019-02-16T16:37:04Z</time>
      </trkpt>
      <trkpt lat="48.35266" lon="2.77745">
        <ele>120.80000305176</ele>
        <time>2019-02-16T16:37:09Z</time>
      </trkpt>
      <trkpt lat="48.35261" lon="2.77748">
        <ele>120.40000152588</ele>
        <time>2019-02-16T16:37:14Z</time>
      </trkpt>
      <trkpt lat="48.35255" lon="2.77752">
        <ele>120</ele>
        <time>2019-02-16T16:37:19Z</time>
      </trkpt>
      <trkpt lat="48.35248" lon="2.77756">
        <ele>119.59999847412</ele>
        <time>2019-02-16T16:37:24Z</time>
      </trkpt>
      <trkpt lat="48.35242" lon="2.77762">
        <ele>119</ele>
        <time>2019-02-16T16:37:29Z</time>
      </trkpt>
      <trkpt lat="48.35236" lon="2.77765">
        <ele>118.40000152588</ele>
        <time>2019-02-16T16:37:34Z</time>
      </trkpt>
      <trkpt lat="48.3523" lon="2.77767">
        <ele>118</ele>
        <time>2019-02-16T16:37:39Z</time>
      </trkpt>
      <trkpt lat="48.35226" lon="2.77769">
        <ele>117.80000305176</ele>
        <time>2019-02-16T16:37:44Z</time>
      </trkpt>
      <trkpt lat="48.35227" lon="2.77769">
        <ele>117.59999847412</ele>
        <time>2019-02-16T16:37:49Z</time>
      </trkpt>
      <trkpt lat="48.35226" lon="2.7777">
        <ele>117.59999847412</ele>
        <time>2019-02-16T16:37:54Z</time>
      </trkpt>
      <trkpt lat="48.35226" lon="2.7777">
        <ele>117.59999847412</ele>
        <time>2019-02-16T16:37:59Z</time>
      </trkpt>
      <trkpt lat="48.35225" lon="2.77771">
        <ele>117.59999847412</ele>
        <time>2019-02-16T16:38:04Z</time>
      </trkpt>
      <trkpt lat="48.35225" lon="2.77771">
        <ele>117.59999847412</ele>
        <time>2019-02-16T16:38:09Z</time>
      </trkpt>
      <trkpt lat="48.35225" lon="2.77772">
        <ele>117.59999847412</ele>
        <time>2019-02-16T16:38:14Z</time>
      </trkpt>
      <trkpt lat="48.35225" lon="2.77772">
        <ele>117.59999847412</ele>
        <time>2019-02-16T16:38:19Z</time>
      </trkpt>
      <trkpt lat="48.35225" lon="2.77772">
        <ele>117.59999847412</ele>
        <time>2019-02-16T16:38:24Z</time>
      </trkpt>
      <trkpt lat="48.35225" lon="2.77771">
        <ele>117.59999847412</ele>
        <time>2019-02-16T16:38:29Z</time>
      </trkpt>
      <trkpt lat="48.35221" lon="2.77773">
        <ele>117.59999847412</ele>
        <time>2019-02-16T16:38:34Z</time>
      </trkpt>
      <trkpt lat="48.35214" lon="2.77777">
        <ele>117.19999694824</ele>
        <time>2019-02-16T16:38:39Z</time>
      </trkpt>
      <trkpt lat="48.3521" lon="2.77778">
        <ele>117</ele>
        <time>2019-02-16T16:38:44Z</time>
      </trkpt>
      <trkpt lat="48.35204" lon="2.77781">
        <ele>117</ele>
        <time>2019-02-16T16:38:49Z</time>
      </trkpt>
      <trkpt lat="48.352" lon="2.7778">
        <ele>116.80000305176</ele>
        <time>2019-02-16T16:38:54Z</time>
      </trkpt>
      <trkpt lat="48.35196" lon="2.77784">
        <ele>116.80000305176</ele>
        <time>2019-02-16T16:38:59Z</time>
      </trkpt>
      <trkpt lat="48.35192" lon="2.77787">
        <ele>116.80000305176</ele>
        <time>2019-02-16T16:39:04Z</time>
      </trkpt>
      <trkpt lat="48.35187" lon="2.77787">
        <ele>116.59999847412</ele>
        <time>2019-02-16T16:39:09Z</time>
      </trkpt>
      <trkpt lat="48.35182" lon="2.77791">
        <ele>116.40000152588</ele>
        <time>2019-02-16T16:39:14Z</time>
      </trkpt>
      <trkpt lat="48.35177" lon="2.77794">
        <ele>116.40000152588</ele>
        <time>2019-02-16T16:39:19Z</time>
      </trkpt>
      <trkpt lat="48.35173" lon="2.77795">
        <ele>116.19999694824</ele>
        <time>2019-02-16T16:39:24Z</time>
      </trkpt>
      <trkpt lat="48.35168" lon="2.77799">
        <ele>116</ele>
        <time>2019-02-16T16:39:29Z</time>
      </trkpt>
      <trkpt lat="48.35164" lon="2.77802">
        <ele>115.80000305176</ele>
        <time>2019-02-16T16:39:34Z</time>
      </trkpt>
      <trkpt lat="48.35159" lon="2.77804">
        <ele>115.80000305176</ele>
        <time>2019-02-16T16:39:39Z</time>
      </trkpt>
      <trkpt lat="48.35151" lon="2.77808">
        <ele>115.59999847412</ele>
        <time>2019-02-16T16:39:44Z</time>
      </trkpt>
      <trkpt lat="48.35147" lon="2.77811">
        <ele>115.59999847412</ele>
        <time>2019-02-16T16:39:49Z</time>
      </trkpt>
      <trkpt lat="48.35141" lon="2.77814">
        <ele>115.59999847412</ele>
        <time>2019-02-16T16:39:54Z</time>
      </trkpt>
      <trkpt lat="48.35134" lon="2.77817">
        <ele>115.40000152588</ele>
        <time>2019-02-16T16:39:59Z</time>
      </trkpt>
      <trkpt lat="48.35129" lon="2.7782">
        <ele>115.40000152588</ele>
        <time>2019-02-16T16:40:04Z</time>
      </trkpt>
      <trkpt lat="48.35124" lon="2.77824">
        <ele>115.40000152588</ele>
        <time>2019-02-16T16:40:09Z</time>
      </trkpt>
      <trkpt lat="48.35118" lon="2.77828">
        <ele>115.40000152588</ele>
        <time>2019-02-16T16:40:14Z</time>
      </trkpt>
      <trkpt lat="48.35113" lon="2.77831">
        <ele>115.19999694824</ele>
        <time>2019-02-16T16:40:19Z</time>
      </trkpt>
      <trkpt lat="48.35108" lon="2.77836">
        <ele>115.19999694824</ele>
        <time>2019-02-16T16:40:24Z</time>
      </trkpt>
      <trkpt lat="48.35102" lon="2.77839">
        <ele>115</ele>
        <time>2019-02-16T16:40:29Z</time>
      </trkpt>
      <trkpt lat="48.35097" lon="2.77841">
        <ele>115</ele>
        <time>2019-02-16T16:40:34Z</time>
      </trkpt>
      <trkpt lat="48.35091" lon="2.77844">
        <ele>114.80000305176</ele>
        <time>2019-02-16T16:40:39Z</time>
      </trkpt>
      <trkpt lat="48.35086" lon="2.77846">
        <ele>114.80000305176</ele>
        <time>2019-02-16T16:40:44Z</time>
      </trkpt>
      <trkpt lat="48.35081" lon="2.77848">
        <ele>114.59999847412</ele>
        <time>2019-02-16T16:40:49Z</time>
      </trkpt>
      <trkpt lat="48.35076" lon="2.77851">
        <ele>114.59999847412</ele>
        <time>2019-02-16T16:40:54Z</time>
      </trkpt>
      <trkpt lat="48.35071" lon="2.77855">
        <ele>114.40000152588</ele>
        <time>2019-02-16T16:40:59Z</time>
      </trkpt>
      <trkpt lat="48.35065" lon="2.77861">
        <ele>114.19999694824</ele>
        <time>2019-02-16T16:41:04Z</time>
      </trkpt>
      <trkpt lat="48.3506" lon="2.77865">
        <ele>114</ele>
        <time>2019-02-16T16:41:09Z</time>
      </trkpt>
      <trkpt lat="48.35056" lon="2.7787">
        <ele>114</ele>
        <time>2019-02-16T16:41:14Z</time>
      </trkpt>
      <trkpt lat="48.35052" lon="2.77874">
        <ele>113.80000305176</ele>
        <time>2019-02-16T16:41:19Z</time>
      </trkpt>
      <trkpt lat="48.35047" lon="2.77882">
        <ele>113.40000152588</ele>
        <time>2019-02-16T16:41:24Z</time>
      </trkpt>
      <trkpt lat="48.35043" lon="2.77886">
        <ele>113.19999694824</ele>
        <time>2019-02-16T16:41:29Z</time>
      </trkpt>
      <trkpt lat="48.35039" lon="2.77891">
        <ele>113</ele>
        <time>2019-02-16T16:41:34Z</time>
      </trkpt>
      <trkpt lat="48.35035" lon="2.77895">
        <ele>113</ele>
        <time>2019-02-16T16:41:39Z</time>
      </trkpt>
      <trkpt lat="48.35032" lon="2.779">
        <ele>112.80000305176</ele>
        <time>2019-02-16T16:41:44Z</time>
      </trkpt>
      <trkpt lat="48.35029" lon="2.77906">
        <ele>112.80000305176</ele>
        <time>2019-02-16T16:41:49Z</time>
      </trkpt>
      <trkpt lat="48.35025" lon="2.77912">
        <ele>112.80000305176</ele>
        <time>2019-02-16T16:41:54Z</time>
      </trkpt>
      <trkpt lat="48.35022" lon="2.77919">
        <ele>112.80000305176</ele>
        <time>2019-02-16T16:41:59Z</time>
      </trkpt>
      <trkpt lat="48.35018" lon="2.77925">
        <ele>112.80000305176</ele>
        <time>2019-02-16T16:42:04Z</time>
      </trkpt>
      <trkpt lat="48.35013" lon="2.77932">
        <ele>112.80000305176</ele>
        <time>2019-02-16T16:42:09Z</time>
      </trkpt>
      <trkpt lat="48.35009" lon="2.77938">
        <ele>112.80000305176</ele>
        <time>2019-02-16T16:42:14Z</time>
      </trkpt>
      <trkpt lat="48.35005" lon="2.77942">
        <ele>112.80000305176</ele>
        <time>2019-02-16T16:42:19Z</time>
      </trkpt>
      <trkpt lat="48.35" lon="2.77948">
        <ele>113</ele>
        <time>2019-02-16T16:42:24Z</time>
      </trkpt>
      <trkpt lat="48.34996" lon="2.77952">
        <ele>113</ele>
        <time>2019-02-16T16:42:29Z</time>
      </trkpt>
      <trkpt lat="48.34992" lon="2.77956">
        <ele>113.19999694824</ele>
        <time>2019-02-16T16:42:34Z</time>
      </trkpt>
      <trkpt lat="48.34986" lon="2.77962">
        <ele>113.19999694824</ele>
        <time>2019-02-16T16:42:39Z</time>
      </trkpt>
      <trkpt lat="48.34982" lon="2.77968">
        <ele>113.19999694824</ele>
        <time>2019-02-16T16:42:44Z</time>
      </trkpt>
      <trkpt lat="48.34978" lon="2.77972">
        <ele>113.59999847412</ele>
        <time>2019-02-16T16:42:49Z</time>
      </trkpt>
      <trkpt lat="48.34973" lon="2.77978">
        <ele>114</ele>
        <time>2019-02-16T16:42:54Z</time>
      </trkpt>
      <trkpt lat="48.34969" lon="2.77984">
        <ele>114</ele>
        <time>2019-02-16T16:42:59Z</time>
      </trkpt>
      <trkpt lat="48.34966" lon="2.7799">
        <ele>113.59999847412</ele>
        <time>2019-02-16T16:43:04Z</time>
      </trkpt>
      <trkpt lat="48.34962" lon="2.77996">
        <ele>113</ele>
        <time>2019-02-16T16:43:09Z</time>
      </trkpt>
      <trkpt lat="48.34959" lon="2.78001">
        <ele>112.80000305176</ele>
        <time>2019-02-16T16:43:14Z</time>
      </trkpt>
      <trkpt lat="48.34957" lon="2.78005">
        <ele>112.40000152588</ele>
        <time>2019-02-16T16:43:19Z</time>
      </trkpt>
      <trkpt lat="48.34953" lon="2.7801">
        <ele>111.59999847412</ele>
        <time>2019-02-16T16:43:24Z</time>
      </trkpt>
      <trkpt lat="48.3495" lon="2.78015">
        <ele>111</ele>
        <time>2019-02-16T16:43:29Z</time>
      </trkpt>
      <trkpt lat="48.34947" lon="2.78021">
        <ele>110.59999847412</ele>
        <time>2019-02-16T16:43:34Z</time>
      </trkpt>
      <trkpt lat="48.34944" lon="2.78025">
        <ele>109.80000305176</ele>
        <time>2019-02-16T16:43:39Z</time>
      </trkpt>
      <trkpt lat="48.34941" lon="2.78031">
        <ele>109.19999694824</ele>
        <time>2019-02-16T16:43:44Z</time>
      </trkpt>
      <trkpt lat="48.34938" lon="2.78035">
        <ele>108.59999847412</ele>
        <time>2019-02-16T16:43:49Z</time>
      </trkpt>
      <trkpt lat="48.34933" lon="2.78042">
        <ele>108.19999694824</ele>
        <time>2019-02-16T16:43:54Z</time>
      </trkpt>
      <trkpt lat="48.3493" lon="2.78048">
        <ele>107.59999847412</ele>
        <time>2019-02-16T16:43:59Z</time>
      </trkpt>
      <trkpt lat="48.34927" lon="2.78054">
        <ele>107</ele>
        <time>2019-02-16T16:44:04Z</time>
      </trkpt>
      <trkpt lat="48.34923" lon="2.78059">
        <ele>106.19999694824</ele>
        <time>2019-02-16T16:44:09Z</time>
      </trkpt>
      <trkpt lat="48.3492" lon="2.78066">
        <ele>105.59999847412</ele>
        <time>2019-02-16T16:44:14Z</time>
      </trkpt>
      <trkpt lat="48.34917" lon="2.78073">
        <ele>105</ele>
        <time>2019-02-16T16:44:19Z</time>
      </trkpt>
      <trkpt lat="48.34913" lon="2.78081">
        <ele>104.59999847412</ele>
        <time>2019-02-16T16:44:24Z</time>
      </trkpt>
      <trkpt lat="48.3491" lon="2.78086">
        <ele>104</ele>
        <time>2019-02-16T16:44:29Z</time>
      </trkpt>
      <trkpt lat="48.34905" lon="2.78092">
        <ele>103.40000152588</ele>
        <time>2019-02-16T16:44:34Z</time>
      </trkpt>
      <trkpt lat="48.34901" lon="2.78097">
        <ele>102.80000305176</ele>
        <time>2019-02-16T16:44:39Z</time>
      </trkpt>
      <trkpt lat="48.34897" lon="2.78102">
        <ele>102.40000152588</ele>
        <time>2019-02-16T16:44:44Z</time>
      </trkpt>
      <trkpt lat="48.34894" lon="2.78106">
        <ele>102</ele>
        <time>2019-02-16T16:44:49Z</time>
      </trkpt>
      <trkpt lat="48.34891" lon="2.78112">
        <ele>101.59999847412</ele>
        <time>2019-02-16T16:44:54Z</time>
      </trkpt>
      <trkpt lat="48.34887" lon="2.78119">
        <ele>101.19999694824</ele>
        <time>2019-02-16T16:44:59Z</time>
      </trkpt>
      <trkpt lat="48.34884" lon="2.78126">
        <ele>100.80000305176</ele>
        <time>2019-02-16T16:45:04Z</time>
      </trkpt>
      <trkpt lat="48.3488" lon="2.78132">
        <ele>100.59999847412</ele>
        <time>2019-02-16T16:45:09Z</time>
      </trkpt>
      <trkpt lat="48.34877" lon="2.78141">
        <ele>100.40000152588</ele>
        <time>2019-02-16T16:45:14Z</time>
      </trkpt>
      <trkpt lat="48.34874" lon="2.78146">
        <ele>100</ele>
        <time>2019-02-16T16:45:19Z</time>
      </trkpt>
      <trkpt lat="48.3487" lon="2.7815">
        <ele>99.599998474121</ele>
        <time>2019-02-16T16:45:24Z</time>
      </trkpt>
      <trkpt lat="48.34867" lon="2.78155">
        <ele>99.400001525879</ele>
        <time>2019-02-16T16:45:29Z</time>
      </trkpt>
      <trkpt lat="48.34863" lon="2.78159">
        <ele>99.199996948242</ele>
        <time>2019-02-16T16:45:34Z</time>
      </trkpt>
      <trkpt lat="48.34859" lon="2.78165">
        <ele>99</ele>
        <time>2019-02-16T16:45:39Z</time>
      </trkpt>
      <trkpt lat="48.34856" lon="2.7817">
        <ele>98.599998474121</ele>
        <time>2019-02-16T16:45:44Z</time>
      </trkpt>
      <trkpt lat="48.34854" lon="2.78173">
        <ele>98</ele>
        <time>2019-02-16T16:45:49Z</time>
      </trkpt>
      <trkpt lat="48.34853" lon="2.78176">
        <ele>97.599998474121</ele>
        <time>2019-02-16T16:45:54Z</time>
      </trkpt>
      <trkpt lat="48.34846" lon="2.78188">
        <ele>97.199996948242</ele>
        <time>2019-02-16T16:45:59Z</time>
      </trkpt>
      <trkpt lat="48.34841" lon="2.78196">
        <ele>96.800003051758</ele>
        <time>2019-02-16T16:46:04Z</time>
      </trkpt>
      <trkpt lat="48.34836" lon="2.78201">
        <ele>96.400001525879</ele>
        <time>2019-02-16T16:46:09Z</time>
      </trkpt>
      <trkpt lat="48.3483" lon="2.78205">
        <ele>96.199996948242</ele>
        <time>2019-02-16T16:46:14Z</time>
      </trkpt>
      <trkpt lat="48.34828" lon="2.78204">
        <ele>96.199996948242</ele>
        <time>2019-02-16T16:46:19Z</time>
      </trkpt>
      <trkpt lat="48.34824" lon="2.782">
        <ele>96</ele>
        <time>2019-02-16T16:46:24Z</time>
      </trkpt>
      <trkpt lat="48.34822" lon="2.78197">
        <ele>95.800003051758</ele>
        <time>2019-02-16T16:46:29Z</time>
      </trkpt>
      <trkpt lat="48.34819" lon="2.78188">
        <ele>95.599998474121</ele>
        <time>2019-02-16T16:46:34Z</time>
      </trkpt>
      <trkpt lat="48.34814" lon="2.7818">
        <ele>95.400001525879</ele>
        <time>2019-02-16T16:46:39Z</time>
      </trkpt>
      <trkpt lat="48.34812" lon="2.78174">
        <ele>95.400001525879</ele>
        <time>2019-02-16T16:46:44Z</time>
      </trkpt>
      <trkpt lat="48.34809" lon="2.78167">
        <ele>95.400001525879</ele>
        <time>2019-02-16T16:46:49Z</time>
      </trkpt>
      <trkpt lat="48.34808" lon="2.78163">
        <ele>95.199996948242</ele>
        <time>2019-02-16T16:46:54Z</time>
      </trkpt>
      <trkpt lat="48.34805" lon="2.78158">
        <ele>95.199996948242</ele>
        <time>2019-02-16T16:46:59Z</time>
      </trkpt>
      <trkpt lat="48.348" lon="2.78149">
        <ele>95.199996948242</ele>
        <time>2019-02-16T16:47:04Z</time>
      </trkpt>
      <trkpt lat="48.34796" lon="2.78141">
        <ele>95</ele>
        <time>2019-02-16T16:47:09Z</time>
      </trkpt>
      <trkpt lat="48.34793" lon="2.78132">
        <ele>94.800003051758</ele>
        <time>2019-02-16T16:47:14Z</time>
      </trkpt>
      <trkpt lat="48.34789" lon="2.78127">
        <ele>94.599998474121</ele>
        <time>2019-02-16T16:47:19Z</time>
      </trkpt>
      <trkpt lat="48.34786" lon="2.78122">
        <ele>94.599998474121</ele>
        <time>2019-02-16T16:47:24Z</time>
      </trkpt>
      <trkpt lat="48.34782" lon="2.78115">
        <ele>94.599998474121</ele>
        <time>2019-02-16T16:47:29Z</time>
      </trkpt>
      <trkpt lat="48.34778" lon="2.78107">
        <ele>94.400001525879</ele>
        <time>2019-02-16T16:47:34Z</time>
      </trkpt>
      <trkpt lat="48.34774" lon="2.781">
        <ele>94.199996948242</ele>
        <time>2019-02-16T16:47:39Z</time>
      </trkpt>
      <trkpt lat="48.34771" lon="2.78094">
        <ele>94.199996948242</ele>
        <time>2019-02-16T16:47:44Z</time>
      </trkpt>
      <trkpt lat="48.34769" lon="2.78089">
        <ele>94</ele>
        <time>2019-02-16T16:47:49Z</time>
      </trkpt>
      <trkpt lat="48.34766" lon="2.78082">
        <ele>93.800003051758</ele>
        <time>2019-02-16T16:47:54Z</time>
      </trkpt>
      <trkpt lat="48.34762" lon="2.78077">
        <ele>93.800003051758</ele>
        <time>2019-02-16T16:47:59Z</time>
      </trkpt>
      <trkpt lat="48.34758" lon="2.78071">
        <ele>93.599998474121</ele>
        <time>2019-02-16T16:48:04Z</time>
      </trkpt>
      <trkpt lat="48.34754" lon="2.78064">
        <ele>93.599998474121</ele>
        <time>2019-02-16T16:48:09Z</time>
      </trkpt>
      <trkpt lat="48.3475" lon="2.78057">
        <ele>93.599998474121</ele>
        <time>2019-02-16T16:48:14Z</time>
      </trkpt>
      <trkpt lat="48.34747" lon="2.7805">
        <ele>93.400001525879</ele>
        <time>2019-02-16T16:48:19Z</time>
      </trkpt>
      <trkpt lat="48.34744" lon="2.78041">
        <ele>93.400001525879</ele>
        <time>2019-02-16T16:48:24Z</time>
      </trkpt>
      <trkpt lat="48.34741" lon="2.78035">
        <ele>93.400001525879</ele>
        <time>2019-02-16T16:48:29Z</time>
      </trkpt>
      <trkpt lat="48.34737" lon="2.78027">
        <ele>93.400001525879</ele>
        <time>2019-02-16T16:48:34Z</time>
      </trkpt>
      <trkpt lat="48.34734" lon="2.78019">
        <ele>93.199996948242</ele>
        <time>2019-02-16T16:48:39Z</time>
      </trkpt>
      <trkpt lat="48.3473" lon="2.78011">
        <ele>93</ele>
        <time>2019-02-16T16:48:44Z</time>
      </trkpt>
      <trkpt lat="48.34726" lon="2.78005">
        <ele>93</ele>
        <time>2019-02-16T16:48:49Z</time>
      </trkpt>
      <trkpt lat="48.34723" lon="2.77995">
        <ele>93</ele>
        <time>2019-02-16T16:48:54Z</time>
      </trkpt>
      <trkpt lat="48.34719" lon="2.77987">
        <ele>93</ele>
        <time>2019-02-16T16:48:59Z</time>
      </trkpt>
      <trkpt lat="48.34715" lon="2.7798">
        <ele>92.800003051758</ele>
        <time>2019-02-16T16:49:04Z</time>
      </trkpt>
      <trkpt lat="48.34711" lon="2.77975">
        <ele>92.800003051758</ele>
        <time>2019-02-16T16:49:09Z</time>
      </trkpt>
      <trkpt lat="48.34709" lon="2.77967">
        <ele>92.800003051758</ele>
        <time>2019-02-16T16:49:14Z</time>
      </trkpt>
      <trkpt lat="48.34705" lon="2.7796">
        <ele>92.800003051758</ele>
        <time>2019-02-16T16:49:19Z</time>
      </trkpt>
      <trkpt lat="48.347" lon="2.77953">
        <ele>92.800003051758</ele>
        <time>2019-02-16T16:49:24Z</time>
      </trkpt>
      <trkpt lat="48.34697" lon="2.77946">
        <ele>92.800003051758</ele>
        <time>2019-02-16T16:49:29Z</time>
      </trkpt>
      <trkpt lat="48.34693" lon="2.77937">
        <ele>92.599998474121</ele>
        <time>2019-02-16T16:49:34Z</time>
      </trkpt>
      <trkpt lat="48.3469" lon="2.77928">
        <ele>92.599998474121</ele>
        <time>2019-02-16T16:49:39Z</time>
      </trkpt>
      <trkpt lat="48.34687" lon="2.77922">
        <ele>92.599998474121</ele>
        <time>2019-02-16T16:49:44Z</time>
      </trkpt>
      <trkpt lat="48.34683" lon="2.77916">
        <ele>92.400001525879</ele>
        <time>2019-02-16T16:49:49Z</time>
      </trkpt>
      <trkpt lat="48.3468" lon="2.77911">
        <ele>92.400001525879</ele>
        <time>2019-02-16T16:49:54Z</time>
      </trkpt>
      <trkpt lat="48.34678" lon="2.77905">
        <ele>92.400001525879</ele>
        <time>2019-02-16T16:49:59Z</time>
      </trkpt>
      <trkpt lat="48.34675" lon="2.77899">
        <ele>92.199996948242</ele>
        <time>2019-02-16T16:50:04Z</time>
      </trkpt>
      <trkpt lat="48.34672" lon="2.77893">
        <ele>92.199996948242</ele>
        <time>2019-02-16T16:50:09Z</time>
      </trkpt>
      <trkpt lat="48.34668" lon="2.77887">
        <ele>92.199996948242</ele>
        <time>2019-02-16T16:50:14Z</time>
      </trkpt>
      <trkpt lat="48.34665" lon="2.77881">
        <ele>92</ele>
        <time>2019-02-16T16:50:19Z</time>
      </trkpt>
      <trkpt lat="48.34662" lon="2.77876">
        <ele>91.800003051758</ele>
        <time>2019-02-16T16:50:24Z</time>
      </trkpt>
      <trkpt lat="48.34657" lon="2.77871">
        <ele>91.599998474121</ele>
        <time>2019-02-16T16:50:29Z</time>
      </trkpt>
      <trkpt lat="48.34654" lon="2.77864">
        <ele>91.599998474121</ele>
        <time>2019-02-16T16:50:34Z</time>
      </trkpt>
      <trkpt lat="48.3465" lon="2.77857">
        <ele>91.400001525879</ele>
        <time>2019-02-16T16:50:39Z</time>
      </trkpt>
      <trkpt lat="48.34644" lon="2.77851">
        <ele>91.400001525879</ele>
        <time>2019-02-16T16:50:44Z</time>
      </trkpt>
      <trkpt lat="48.3464" lon="2.77846">
        <ele>91.199996948242</ele>
        <time>2019-02-16T16:50:49Z</time>
      </trkpt>
      <trkpt lat="48.34636" lon="2.7784">
        <ele>91</ele>
        <time>2019-02-16T16:50:54Z</time>
      </trkpt>
      <trkpt lat="48.34632" lon="2.77836">
        <ele>90.599998474121</ele>
        <time>2019-02-16T16:50:59Z</time>
      </trkpt>
      <trkpt lat="48.34627" lon="2.77832">
        <ele>90.599998474121</ele>
        <time>2019-02-16T16:51:04Z</time>
      </trkpt>
      <trkpt lat="48.34624" lon="2.77826">
        <ele>90.400001525879</ele>
        <time>2019-02-16T16:51:09Z</time>
      </trkpt>
      <trkpt lat="48.3462" lon="2.77821">
        <ele>89.800003051758</ele>
        <time>2019-02-16T16:51:14Z</time>
      </trkpt>
      <trkpt lat="48.34617" lon="2.77815">
        <ele>89.199996948242</ele>
        <time>2019-02-16T16:51:19Z</time>
      </trkpt>
      <trkpt lat="48.34611" lon="2.77811">
        <ele>88.599998474121</ele>
        <time>2019-02-16T16:51:24Z</time>
      </trkpt>
      <trkpt lat="48.34606" lon="2.77805">
        <ele>88</ele>
        <time>2019-02-16T16:51:29Z</time>
      </trkpt>
      <trkpt lat="48.34603" lon="2.77799">
        <ele>87.400001525879</ele>
        <time>2019-02-16T16:51:34Z</time>
      </trkpt>
      <trkpt lat="48.34599" lon="2.77793">
        <ele>87</ele>
        <time>2019-02-16T16:51:39Z</time>
      </trkpt>
      <trkpt lat="48.34595" lon="2.77787">
        <ele>86.199996948242</ele>
        <time>2019-02-16T16:51:44Z</time>
      </trkpt>
      <trkpt lat="48.34591" lon="2.77781">
        <ele>85.599998474121</ele>
        <time>2019-02-16T16:51:49Z</time>
      </trkpt>
      <trkpt lat="48.34587" lon="2.77775">
        <ele>85</ele>
        <time>2019-02-16T16:51:54Z</time>
      </trkpt>
      <trkpt lat="48.34583" lon="2.77769">
        <ele>84.599998474121</ele>
        <time>2019-02-16T16:51:59Z</time>
      </trkpt>
      <trkpt lat="48.34577" lon="2.77762">
        <ele>84.199996948242</ele>
        <time>2019-02-16T16:52:04Z</time>
      </trkpt>
      <trkpt lat="48.34573" lon="2.77754">
        <ele>83.800003051758</ele>
        <time>2019-02-16T16:52:09Z</time>
      </trkpt>
      <trkpt lat="48.34568" lon="2.77747">
        <ele>83.599998474121</ele>
        <time>2019-02-16T16:52:14Z</time>
      </trkpt>
      <trkpt lat="48.34563" lon="2.7774">
        <ele>83.199996948242</ele>
        <time>2019-02-16T16:52:19Z</time>
      </trkpt>
      <trkpt lat="48.3456" lon="2.77732">
        <ele>83.199996948242</ele>
        <time>2019-02-16T16:52:24Z</time>
      </trkpt>
      <trkpt lat="48.34555" lon="2.77724">
        <ele>83.199996948242</ele>
        <time>2019-02-16T16:52:29Z</time>
      </trkpt>
      <trkpt lat="48.34552" lon="2.77718">
        <ele>83</ele>
        <time>2019-02-16T16:52:34Z</time>
      </trkpt>
      <trkpt lat="48.34549" lon="2.77711">
        <ele>83</ele>
        <time>2019-02-16T16:52:39Z</time>
      </trkpt>
      <trkpt lat="48.34544" lon="2.77705">
        <ele>82.800003051758</ele>
        <time>2019-02-16T16:52:44Z</time>
      </trkpt>
      <trkpt lat="48.3454" lon="2.77699">
        <ele>82.599998474121</ele>
        <time>2019-02-16T16:52:49Z</time>
      </trkpt>
      <trkpt lat="48.34535" lon="2.77692">
        <ele>82.199996948242</ele>
        <time>2019-02-16T16:52:54Z</time>
      </trkpt>
      <trkpt lat="48.3453" lon="2.77686">
        <ele>82.199996948242</ele>
        <time>2019-02-16T16:52:59Z</time>
      </trkpt>
      <trkpt lat="48.34527" lon="2.77679">
        <ele>82</ele>
        <time>2019-02-16T16:53:04Z</time>
      </trkpt>
      <trkpt lat="48.34523" lon="2.77671">
        <ele>81.800003051758</ele>
        <time>2019-02-16T16:53:09Z</time>
      </trkpt>
      <trkpt lat="48.34521" lon="2.77665">
        <ele>81.800003051758</ele>
        <time>2019-02-16T16:53:14Z</time>
      </trkpt>
      <trkpt lat="48.34518" lon="2.77658">
        <ele>81.800003051758</ele>
        <time>2019-02-16T16:53:19Z</time>
      </trkpt>
      <trkpt lat="48.34516" lon="2.77652">
        <ele>81.800003051758</ele>
        <time>2019-02-16T16:53:24Z</time>
      </trkpt>
      <trkpt lat="48.34513" lon="2.77647">
        <ele>81.599998474121</ele>
        <time>2019-02-16T16:53:29Z</time>
      </trkpt>
      <trkpt lat="48.3451" lon="2.77643">
        <ele>81.599998474121</ele>
        <time>2019-02-16T16:53:34Z</time>
      </trkpt>
      <trkpt lat="48.34505" lon="2.77636">
        <ele>81.599998474121</ele>
        <time>2019-02-16T16:53:39Z</time>
      </trkpt>
      <trkpt lat="48.345" lon="2.77628">
        <ele>81.599998474121</ele>
        <time>2019-02-16T16:53:44Z</time>
      </trkpt>
      <trkpt lat="48.34498" lon="2.77622">
        <ele>81.400001525879</ele>
        <time>2019-02-16T16:53:49Z</time>
      </trkpt>
      <trkpt lat="48.34494" lon="2.77616">
        <ele>81.400001525879</ele>
        <time>2019-02-16T16:53:54Z</time>
      </trkpt>
      <trkpt lat="48.34493" lon="2.77612">
        <ele>81.400001525879</ele>
        <time>2019-02-16T16:53:59Z</time>
      </trkpt>
      <trkpt lat="48.34487" lon="2.77609">
        <ele>81.400001525879</ele>
        <time>2019-02-16T16:54:04Z</time>
      </trkpt>
      <trkpt lat="48.34483" lon="2.77604">
        <ele>81.400001525879</ele>
        <time>2019-02-16T16:54:09Z</time>
      </trkpt>
      <trkpt lat="48.34479" lon="2.77599">
        <ele>81.400001525879</ele>
        <time>2019-02-16T16:54:14Z</time>
      </trkpt>
      <trkpt lat="48.34477" lon="2.77594">
        <ele>81.400001525879</ele>
        <time>2019-02-16T16:54:19Z</time>
      </trkpt>
      <trkpt lat="48.34474" lon="2.77591">
        <ele>81.400001525879</ele>
        <time>2019-02-16T16:54:24Z</time>
      </trkpt>
      <trkpt lat="48.34473" lon="2.77588">
        <ele>81.400001525879</ele>
        <time>2019-02-16T16:54:29Z</time>
      </trkpt>
      <trkpt lat="48.34472" lon="2.77587">
        <ele>81.400001525879</ele>
        <time>2019-02-16T16:54:34Z</time>
      </trkpt>
      <trkpt lat="48.34471" lon="2.77586">
        <ele>81.400001525879</ele>
        <time>2019-02-16T16:54:39Z</time>
      </trkpt>
      <trkpt lat="48.3447" lon="2.77585">
        <ele>81.400001525879</ele>
        <time>2019-02-16T16:54:44Z</time>
      </trkpt>
      <trkpt lat="48.34471" lon="2.77585">
        <ele>81.400001525879</ele>
        <time>2019-02-16T16:54:54Z</time>
      </trkpt>
      <trkpt lat="48.34469" lon="2.77586">
        <ele>81.199996948242</ele>
        <time>2019-02-16T16:55:59Z</time>
      </trkpt>
      <trkpt lat="48.34469" lon="2.77587">
        <ele>81.199996948242</ele>
        <time>2019-02-16T16:56:04Z</time>
      </trkpt>
      <trkpt lat="48.34468" lon="2.77587">
        <ele>81.199996948242</ele>
        <time>2019-02-16T16:56:09Z</time>
      </trkpt>
      <trkpt lat="48.34468" lon="2.77587">
        <ele>81.199996948242</ele>
        <time>2019-02-16T16:56:14Z</time>
      </trkpt>
      <trkpt lat="48.34462" lon="2.77583">
        <ele>81.199996948242</ele>
        <time>2019-02-16T16:56:19Z</time>
      </trkpt>
      <trkpt lat="48.34457" lon="2.77591">
        <ele>81.199996948242</ele>
        <time>2019-02-16T16:56:24Z</time>
      </trkpt>
      <trkpt lat="48.34453" lon="2.77597">
        <ele>81.199996948242</ele>
        <time>2019-02-16T16:56:29Z</time>
      </trkpt>
      <trkpt lat="48.34451" lon="2.77601">
        <ele>81</ele>
        <time>2019-02-16T16:56:34Z</time>
      </trkpt>
      <trkpt lat="48.34451" lon="2.77603">
        <ele>81</ele>
        <time>2019-02-16T16:56:39Z</time>
      </trkpt>
      <trkpt lat="48.3445" lon="2.77607">
        <ele>81</ele>
        <time>2019-02-16T16:56:44Z</time>
      </trkpt>
      <trkpt lat="48.34448" lon="2.77609">
        <ele>80.800003051758</ele>
        <time>2019-02-16T16:56:49Z</time>
      </trkpt>
      <trkpt lat="48.34446" lon="2.77611">
        <ele>81</ele>
        <time>2019-02-16T16:56:54Z</time>
      </trkpt>
      <trkpt lat="48.34443" lon="2.77611">
        <ele>81</ele>
        <time>2019-02-16T16:56:59Z</time>
      </trkpt>
      <trkpt lat="48.3444" lon="2.77609">
        <ele>81</ele>
        <time>2019-02-16T16:57:04Z</time>
      </trkpt>
      <trkpt lat="48.34437" lon="2.77609">
        <ele>80.800003051758</ele>
        <time>2019-02-16T16:57:09Z</time>
      </trkpt>
      <trkpt lat="48.34434" lon="2.77606">
        <ele>80.800003051758</ele>
        <time>2019-02-16T16:57:14Z</time>
      </trkpt>
      <trkpt lat="48.34432" lon="2.77603">
        <ele>80.800003051758</ele>
        <time>2019-02-16T16:57:19Z</time>
      </trkpt>
      <trkpt lat="48.34429" lon="2.776">
        <ele>80.599998474121</ele>
        <time>2019-02-16T16:57:24Z</time>
      </trkpt>
      <trkpt lat="48.34426" lon="2.77597">
        <ele>80.599998474121</ele>
        <time>2019-02-16T16:57:29Z</time>
      </trkpt>
      <trkpt lat="48.34423" lon="2.77594">
        <ele>80.599998474121</ele>
        <time>2019-02-16T16:57:34Z</time>
      </trkpt>
      <trkpt lat="48.34422" lon="2.77594">
        <ele>80.400001525879</ele>
        <time>2019-02-16T16:57:39Z</time>
      </trkpt>
      <trkpt lat="48.34422" lon="2.77594">
        <ele>80.599998474121</ele>
        <time>2019-02-16T16:57:44Z</time>
      </trkpt>
      <trkpt lat="48.34422" lon="2.77594">
        <ele>80.599998474121</ele>
        <time>2019-02-16T16:57:49Z</time>
      </trkpt>
      <trkpt lat="48.34422" lon="2.77593">
        <ele>80.599998474121</ele>
        <time>2019-02-16T16:57:54Z</time>
      </trkpt>
      <trkpt lat="48.34421" lon="2.77593">
        <ele>80.599998474121</ele>
        <time>2019-02-16T16:57:59Z</time>
      </trkpt>
      <trkpt lat="48.34421" lon="2.77592">
        <ele>80.599998474121</ele>
        <time>2019-02-16T16:58:04Z</time>
      </trkpt>
      <trkpt lat="48.34421" lon="2.77592">
        <ele>80.599998474121</ele>
        <time>2019-02-16T16:58:09Z</time>
      </trkpt>
      <trkpt lat="48.3442" lon="2.7759">
        <ele>80.599998474121</ele>
        <time>2019-02-16T16:58:14Z</time>
      </trkpt>
      <trkpt lat="48.3442" lon="2.77589">
        <ele>80.599998474121</ele>
        <time>2019-02-16T16:58:19Z</time>
      </trkpt>
      <trkpt lat="48.34419" lon="2.77589">
        <ele>80.599998474121</ele>
        <time>2019-02-16T16:58:24Z</time>
      </trkpt>
      <trkpt lat="48.34419" lon="2.77588">
        <ele>80.599998474121</ele>
        <time>2019-02-16T16:58:29Z</time>
      </trkpt>
      <trkpt lat="48.34419" lon="2.77588">
        <ele>80.599998474121</ele>
        <time>2019-02-16T16:58:34Z</time>
      </trkpt>
      <trkpt lat="48.34419" lon="2.77588">
        <ele>80.599998474121</ele>
        <time>2019-02-16T16:58:39Z</time>
      </trkpt>
      <trkpt lat="48.34419" lon="2.77589">
        <ele>80.599998474121</ele>
        <time>2019-02-16T16:58:44Z</time>
      </trkpt>
      <trkpt lat="48.34419" lon="2.77588">
        <ele>80.599998474121</ele>
        <time>2019-02-16T16:58:48Z</time>
      </trkpt>
      <trkpt lat="48.3442" lon="2.77588">
        <ele>80.599998474121</ele>
        <time>2019-02-16T16:58:54Z</time>
      </trkpt>
      <trkpt lat="48.3442" lon="2.77588">
        <ele>80.599998474121</ele>
        <time>2019-02-16T16:58:59Z</time>
      </trkpt>
      <trkpt lat="48.3442" lon="2.77588">
        <ele>80.599998474121</ele>
        <time>2019-02-16T16:59:04Z</time>
      </trkpt>
      <trkpt lat="48.3442" lon="2.77589">
        <ele>80.599998474121</ele>
        <time>2019-02-16T16:59:09Z</time>
      </trkpt>
      <trkpt lat="48.34421" lon="2.77589">
        <ele>80.599998474121</ele>
        <time>2019-02-16T16:59:14Z</time>
      </trkpt>
      <trkpt lat="48.34421" lon="2.77588">
        <ele>80.599998474121</ele>
        <time>2019-02-16T16:59:19Z</time>
      </trkpt>
    </trkseg>
  </trk>
</gpx>